<?xml version='1.0' encoding='UTF-8'?><gpx version="1.1" creator="JPX - https://github.com/jenetics/jpx" xmlns="http://www.topografix.com/GPX/1/1"><trk><trkseg><trkpt lat="43.00552837745709" lon="10.906116105830955"><ele>272.0</ele><time>2026-04-11T08:27:44Z</time></trkpt><trkpt lat="43.005505284848105" lon="10.906208375029163"><ele>272.0</ele><time>2026-04-11T08:27:58Z</time></trkpt><trkpt lat="43.00556044502859" lon="10.90615917695803"><ele>272.0</ele><time>2026-04-11T08:29:43.001Z</time></trkpt><trkpt lat="43.005572548949985" lon="10.906254950481594"><ele>272.0</ele><time>2026-04-11T08:29:58.001Z</time></trkpt><trkpt lat="43.00560395293693" lon="10.90633740648185"><ele>272.0</ele><time>2026-04-11T08:30:03.002Z</time></trkpt><trkpt lat="43.00566395638761" lon="10.906468762896004"><ele>272.0</ele><time>2026-04-11T08:30:07.002Z</time></trkpt><trkpt lat="43.00572326830135" lon="10.906630759440151"><ele>270.75</ele><time>2026-04-11T08:30:09.002Z</time></trkpt><trkpt lat="43.00577299913316" lon="10.906770716090847"><ele>269.5</ele><time>2026-04-11T08:30:10.002Z</time></trkpt><trkpt lat="43.00582201153587" lon="10.906907815583127"><ele>268.25</ele><time>2026-04-11T08:30:11.002Z</time></trkpt><trkpt lat="43.005899890636684" lon="10.907039979154158"><ele>267.0</ele><time>2026-04-11T08:30:12.002Z</time></trkpt><trkpt lat="43.0059979374375" lon="10.907179606590649"><ele>271.0</ele><time>2026-04-11T08:30:13.002Z</time></trkpt><trkpt lat="43.006090216216194" lon="10.907306616818396"><ele>275.0</ele><time>2026-04-11T08:30:14.002Z</time></trkpt><trkpt lat="43.00616861068961" lon="10.90742696404663"><ele>279.0</ele><time>2026-04-11T08:30:15.002Z</time></trkpt><trkpt lat="43.00623168775809" lon="10.907552405444822"><ele>283.0</ele><time>2026-04-11T08:30:16.002Z</time></trkpt><trkpt lat="43.00628351354773" lon="10.907696063507627"><ele>283.0</ele><time>2026-04-11T08:30:17.002Z</time></trkpt><trkpt lat="43.006321975400596" lon="10.907815630645077"><ele>283.0</ele><time>2026-04-11T08:30:18.002Z</time></trkpt><trkpt lat="43.00635627146319" lon="10.9079085787881"><ele>283.0</ele><time>2026-04-11T08:30:19.002Z</time></trkpt><trkpt lat="43.006385733864924" lon="10.908001468986143"><ele>283.0</ele><time>2026-04-11T08:30:20.002Z</time></trkpt><trkpt lat="43.00640414606822" lon="10.908111759254755"><ele>283.0</ele><time>2026-04-11T08:30:21.002Z</time></trkpt><trkpt lat="43.0064005044486" lon="10.90821907412957"><ele>283.0</ele><time>2026-04-11T08:30:22.002Z</time></trkpt><trkpt lat="43.006362492838775" lon="10.908332028121828"><ele>283.0</ele><time>2026-04-11T08:30:23.002Z</time></trkpt><trkpt lat="43.00633850661603" lon="10.908484661539745"><ele>283.0</ele><time>2026-04-11T08:30:24.002Z</time></trkpt><trkpt lat="43.006303128205325" lon="10.908620514439308"><ele>283.0</ele><time>2026-04-11T08:30:25.002Z</time></trkpt><trkpt lat="43.00627343683456" lon="10.908755289214595"><ele>283.0</ele><time>2026-04-11T08:30:26.002Z</time></trkpt><trkpt lat="43.00624916511281" lon="10.908867026042865"><ele>283.0</ele><time>2026-04-11T08:30:27.002Z</time></trkpt><trkpt lat="43.00623649511994" lon="10.908972644842594"><ele>283.0</ele><time>2026-04-11T08:30:28.002Z</time></trkpt><trkpt lat="43.00621562386292" lon="10.909091420027437"><ele>283.0</ele><time>2026-04-11T08:30:29.002Z</time></trkpt><trkpt lat="43.00618842034888" lon="10.909186804631458"><ele>283.0</ele><time>2026-04-11T08:30:30.002Z</time></trkpt><trkpt lat="43.00613664022175" lon="10.909284298090508"><ele>283.0</ele><time>2026-04-11T08:30:31.002Z</time></trkpt><trkpt lat="43.00608887582791" lon="10.909385588659996"><ele>283.0</ele><time>2026-04-11T08:30:32.002Z</time></trkpt><trkpt lat="43.00604757198003" lon="10.909509991834456"><ele>283.0</ele><time>2026-04-11T08:30:33.002Z</time></trkpt><trkpt lat="43.006023922047966" lon="10.909638477667938"><ele>283.2</ele><time>2026-04-11T08:30:34.002Z</time></trkpt><trkpt lat="43.00600534100068" lon="10.909770304410442"><ele>283.4</ele><time>2026-04-11T08:30:35.002Z</time></trkpt><trkpt lat="43.00601326595074" lon="10.909896269085845"><ele>283.59999999999997</ele><time>2026-04-11T08:30:36.002Z</time></trkpt><trkpt lat="43.006049704759455" lon="10.910047497347396"><ele>283.8</ele><time>2026-04-11T08:30:37.002Z</time></trkpt><trkpt lat="43.00608750554244" lon="10.91020989505532"><ele>284.0</ele><time>2026-04-11T08:30:38.002Z</time></trkpt><trkpt lat="43.006119522352726" lon="10.910370102100394"><ele>284.2</ele><time>2026-04-11T08:30:39.002Z</time></trkpt><trkpt lat="43.0061374759562" lon="10.9105177625338"><ele>284.4</ele><time>2026-04-11T08:30:40.003Z</time></trkpt><trkpt lat="43.00613368647085" lon="10.910619767557554"><ele>284.6</ele><time>2026-04-11T08:30:41.003Z</time></trkpt><trkpt lat="43.00610080423341" lon="10.910749235087795"><ele>284.8</ele><time>2026-04-11T08:30:42.003Z</time></trkpt><trkpt lat="43.00604616938013" lon="10.910853672311651"><ele>285.0</ele><time>2026-04-11T08:30:43.003Z</time></trkpt><trkpt lat="43.00597200020055" lon="10.910927538094187"><ele>285.8</ele><time>2026-04-11T08:30:44.003Z</time></trkpt><trkpt lat="43.005882203570536" lon="10.911002863502173"><ele>286.6</ele><time>2026-04-11T08:30:45.003Z</time></trkpt><trkpt lat="43.005795448391474" lon="10.911073090308882"><ele>287.4</ele><time>2026-04-11T08:30:46.003Z</time></trkpt><trkpt lat="43.00574193053714" lon="10.911170248478316"><ele>288.2</ele><time>2026-04-11T08:30:47.003Z</time></trkpt><trkpt lat="43.005702174067906" lon="10.91126089869091"><ele>289.0</ele><time>2026-04-11T08:30:48.003Z</time></trkpt><trkpt lat="43.00567079577035" lon="10.911368691475158"><ele>289.16666666666663</ele><time>2026-04-11T08:30:49.003Z</time></trkpt><trkpt lat="43.005638780438346" lon="10.91146558167835"><ele>289.3333333333333</ele><time>2026-04-11T08:30:50.003Z</time></trkpt><trkpt lat="43.00561180507629" lon="10.911570265488248"><ele>289.5</ele><time>2026-04-11T08:30:51.003Z</time></trkpt><trkpt lat="43.00557764365515" lon="10.911700734310829"><ele>289.6666666666667</ele><time>2026-04-11T08:30:52.003Z</time></trkpt><trkpt lat="43.00554148552965" lon="10.911822033003341"><ele>289.83333333333337</ele><time>2026-04-11T08:30:53.003Z</time></trkpt><trkpt lat="43.00550387812696" lon="10.911928385305474"><ele>290.0</ele><time>2026-04-11T08:30:54.003Z</time></trkpt><trkpt lat="43.00545076179102" lon="10.91201398546398"><ele>290.0</ele><time>2026-04-11T08:30:55.003Z</time></trkpt><trkpt lat="43.00540593240527" lon="10.912092684527835"><ele>290.0</ele><time>2026-04-11T08:30:56.003Z</time></trkpt><trkpt lat="43.00535073550755" lon="10.912158968657717"><ele>290.0</ele><time>2026-04-11T08:30:57.003Z</time></trkpt><trkpt lat="43.005292835837906" lon="10.91223341974943"><ele>290.0</ele><time>2026-04-11T08:30:58.003Z</time></trkpt><trkpt lat="43.00520627392101" lon="10.91235150982798"><ele>290.0</ele><time>2026-04-11T08:31:00.003Z</time></trkpt><trkpt lat="43.00515049462434" lon="10.912425108459669"><ele>290.0</ele><time>2026-04-11T08:31:01.003Z</time></trkpt><trkpt lat="43.0050897681035" lon="10.912468618347066"><ele>290.0</ele><time>2026-04-11T08:31:02.003Z</time></trkpt><trkpt lat="43.00501277260965" lon="10.912492050729574"><ele>290.0</ele><time>2026-04-11T08:31:03.003Z</time></trkpt><trkpt lat="43.00493495830602" lon="10.912516038955742"><ele>290.0</ele><time>2026-04-11T08:31:04.003Z</time></trkpt><trkpt lat="43.004864019067895" lon="10.912535925393218"><ele>290.0</ele><time>2026-04-11T08:31:05.003Z</time></trkpt><trkpt lat="43.00478867444306" lon="10.912570246862268"><ele>290.0</ele><time>2026-04-11T08:31:06.003Z</time></trkpt><trkpt lat="43.00467738217642" lon="10.912615332058772"><ele>290.0</ele><time>2026-04-11T08:31:07.003Z</time></trkpt><trkpt lat="43.00458182283656" lon="10.912657456628171"><ele>292.0</ele><time>2026-04-11T08:31:08.003Z</time></trkpt><trkpt lat="43.00448944910137" lon="10.912713254038916"><ele>294.0</ele><time>2026-04-11T08:31:09.003Z</time></trkpt><trkpt lat="43.00441038841626" lon="10.912796983101378"><ele>296.0</ele><time>2026-04-11T08:31:10.003Z</time></trkpt><trkpt lat="43.004327535492166" lon="10.912881764403416"><ele>298.0</ele><time>2026-04-11T08:31:11.004Z</time></trkpt><trkpt lat="43.00424643596575" lon="10.91295969038294"><ele>300.0</ele><time>2026-04-11T08:31:12.004Z</time></trkpt><trkpt lat="43.00417453489265" lon="10.913052588712446"><ele>299.6</ele><time>2026-04-11T08:31:13.004Z</time></trkpt><trkpt lat="43.00409769063712" lon="10.913143975327666"><ele>299.2</ele><time>2026-04-11T08:31:14.004Z</time></trkpt><trkpt lat="43.00401486205165" lon="10.913227709526518"><ele>298.8</ele><time>2026-04-11T08:31:15.004Z</time></trkpt><trkpt lat="43.00393154723834" lon="10.91331034307384"><ele>298.4</ele><time>2026-04-11T08:31:16.004Z</time></trkpt><trkpt lat="43.0038593174184" lon="10.913386021511748"><ele>298.0</ele><time>2026-04-11T08:31:17.004Z</time></trkpt><trkpt lat="43.00379017952791" lon="10.913468710348022"><ele>298.0</ele><time>2026-04-11T08:31:18.004Z</time></trkpt><trkpt lat="43.00371762779599" lon="10.913549854268597"><ele>298.0</ele><time>2026-04-11T08:31:19.004Z</time></trkpt><trkpt lat="43.003651630939544" lon="10.913617927551078"><ele>298.0</ele><time>2026-04-11T08:31:20.004Z</time></trkpt><trkpt lat="43.00359806782909" lon="10.913700769180629"><ele>298.0</ele><time>2026-04-11T08:31:21.004Z</time></trkpt><trkpt lat="43.00355341219467" lon="10.913780507918512"><ele>298.0</ele><time>2026-04-11T08:31:22.004Z</time></trkpt><trkpt lat="43.003494265361454" lon="10.913911939625603"><ele>298.0</ele><time>2026-04-11T08:31:24.004Z</time></trkpt><trkpt lat="43.00344842239984" lon="10.91407956203774"><ele>298.0</ele><time>2026-04-11T08:31:26.004Z</time></trkpt><trkpt lat="43.00344059719306" lon="10.91420527897692"><ele>298.0</ele><time>2026-04-11T08:31:27.004Z</time></trkpt><trkpt lat="43.00342593174328" lon="10.914339932574798"><ele>298.0</ele><time>2026-04-11T08:31:28.004Z</time></trkpt><trkpt lat="43.003421633600226" lon="10.914454834941294"><ele>298.0</ele><time>2026-04-11T08:31:29.004Z</time></trkpt><trkpt lat="43.00342811860691" lon="10.914550768622139"><ele>298.0</ele><time>2026-04-11T08:31:30.004Z</time></trkpt><trkpt lat="43.00342673867408" lon="10.914654547482819"><ele>298.0</ele><time>2026-04-11T08:31:31.004Z</time></trkpt><trkpt lat="43.00341158019501" lon="10.91477852335554"><ele>297.4</ele><time>2026-04-11T08:31:32.004Z</time></trkpt><trkpt lat="43.00337206636898" lon="10.914899617600463"><ele>296.8</ele><time>2026-04-11T08:31:33.004Z</time></trkpt><trkpt lat="43.003328741137054" lon="10.915046849785151"><ele>296.2</ele><time>2026-04-11T08:31:34.004Z</time></trkpt><trkpt lat="43.003285861986406" lon="10.91516988976935"><ele>295.6</ele><time>2026-04-11T08:31:35.004Z</time></trkpt><trkpt lat="43.00324886248111" lon="10.915291850608808"><ele>295.0</ele><time>2026-04-11T08:31:36.004Z</time></trkpt><trkpt lat="43.00322884158183" lon="10.915401552875135"><ele>295.25</ele><time>2026-04-11T08:31:37.004Z</time></trkpt><trkpt lat="43.00321975883447" lon="10.91553961209344"><ele>295.5</ele><time>2026-04-11T08:31:38.004Z</time></trkpt><trkpt lat="43.00322492784696" lon="10.91569562149304"><ele>295.75</ele><time>2026-04-11T08:31:39.004Z</time></trkpt><trkpt lat="43.003239712247925" lon="10.915901729656555"><ele>296.0</ele><time>2026-04-11T08:31:40.004Z</time></trkpt><trkpt lat="43.003260419219195" lon="10.916080354188109"><ele>296.0</ele><time>2026-04-11T08:31:41.004Z</time></trkpt><trkpt lat="43.00328084272623" lon="10.916248841847738"><ele>296.0</ele><time>2026-04-11T08:31:42.004Z</time></trkpt><trkpt lat="43.00330139966277" lon="10.916382427545742"><ele>296.0</ele><time>2026-04-11T08:31:43.004Z</time></trkpt><trkpt lat="43.00331969968248" lon="10.916497581268095"><ele>296.0</ele><time>2026-04-11T08:31:44.004Z</time></trkpt><trkpt lat="43.00332136432368" lon="10.916611065799252"><ele>296.0</ele><time>2026-04-11T08:31:45.004Z</time></trkpt><trkpt lat="43.00330788410455" lon="10.91673130806814"><ele>298.40000000000003</ele><time>2026-04-11T08:31:46.004Z</time></trkpt><trkpt lat="43.00325992811172" lon="10.916856825343583"><ele>300.8</ele><time>2026-04-11T08:31:47.004Z</time></trkpt><trkpt lat="43.00319991149966" lon="10.91696561261511"><ele>303.20000000000005</ele><time>2026-04-11T08:31:48.004Z</time></trkpt><trkpt lat="43.00314109146575" lon="10.917081229415807"><ele>305.6</ele><time>2026-04-11T08:31:49.004Z</time></trkpt><trkpt lat="43.003079951356426" lon="10.917194221539065"><ele>308.0</ele><time>2026-04-11T08:31:50.004Z</time></trkpt><trkpt lat="43.00303050031638" lon="10.917278939925485"><ele>308.0</ele><time>2026-04-11T08:31:51.004Z</time></trkpt><trkpt lat="43.0029685543289" lon="10.917371074508553"><ele>308.0</ele><time>2026-04-11T08:31:52.004Z</time></trkpt><trkpt lat="43.002881635200914" lon="10.917450884781084"><ele>308.0</ele><time>2026-04-11T08:31:53.004Z</time></trkpt><trkpt lat="43.00279569892239" lon="10.917523028999685"><ele>308.0</ele><time>2026-04-11T08:31:54.004Z</time></trkpt><trkpt lat="43.00273198942123" lon="10.917581837415726"><ele>308.0</ele><time>2026-04-11T08:31:55.004Z</time></trkpt><trkpt lat="43.002716359794" lon="10.917677658782932"><ele>308.0</ele><time>2026-04-11T08:31:58.004Z</time></trkpt><trkpt lat="43.002746599023865" lon="10.917763859710051"><ele>309.0</ele><time>2026-04-11T08:32:25.005Z</time></trkpt><trkpt lat="43.002729622012794" lon="10.917860625218376"><ele>310.0</ele><time>2026-04-11T08:32:28.005Z</time></trkpt><trkpt lat="43.00268885207566" lon="10.917955535394187"><ele>311.0</ele><time>2026-04-11T08:32:29.005Z</time></trkpt><trkpt lat="43.00264283183429" lon="10.918069588874266"><ele>312.0</ele><time>2026-04-11T08:32:30.005Z</time></trkpt><trkpt lat="43.0025826086385" lon="10.918225404314958"><ele>313.0</ele><time>2026-04-11T08:32:31.005Z</time></trkpt><trkpt lat="43.002521121144625" lon="10.918378193345168"><ele>313.2</ele><time>2026-04-11T08:32:32.005Z</time></trkpt><trkpt lat="43.00247900966157" lon="10.918559747822753"><ele>313.4</ele><time>2026-04-11T08:32:33.005Z</time></trkpt><trkpt lat="43.002447128168086" lon="10.918690056318717"><ele>313.59999999999997</ele><time>2026-04-11T08:32:34.005Z</time></trkpt><trkpt lat="43.002420158875914" lon="10.918801271480687"><ele>313.8</ele><time>2026-04-11T08:32:35.005Z</time></trkpt><trkpt lat="43.00236935084119" lon="10.918901746734642"><ele>314.0</ele><time>2026-04-11T08:32:36.005Z</time></trkpt><trkpt lat="43.00232963022473" lon="10.918991394427806"><ele>314.0</ele><time>2026-04-11T08:32:37.005Z</time></trkpt><trkpt lat="43.00227835208107" lon="10.919095155143319"><ele>314.0</ele><time>2026-04-11T08:32:38.005Z</time></trkpt><trkpt lat="43.00221882130758" lon="10.919212558126636"><ele>314.0</ele><time>2026-04-11T08:32:39.005Z</time></trkpt><trkpt lat="43.00214416453356" lon="10.919340429063597"><ele>314.0</ele><time>2026-04-11T08:32:40.005Z</time></trkpt><trkpt lat="43.002084577349656" lon="10.919455501135706"><ele>314.0</ele><time>2026-04-11T08:32:41.005Z</time></trkpt><trkpt lat="43.00202356812332" lon="10.919590361249274"><ele>312.59999999999997</ele><time>2026-04-11T08:32:42.005Z</time></trkpt><trkpt lat="43.00197959293208" lon="10.919724228729734"><ele>311.2</ele><time>2026-04-11T08:32:43.005Z</time></trkpt><trkpt lat="43.001945969560595" lon="10.919857303319347"><ele>309.79999999999995</ele><time>2026-04-11T08:32:44.005Z</time></trkpt><trkpt lat="43.00191774319641" lon="10.92000157742337"><ele>308.4</ele><time>2026-04-11T08:32:45.005Z</time></trkpt><trkpt lat="43.0018820760858" lon="10.920151025208694"><ele>307.0</ele><time>2026-04-11T08:32:46.005Z</time></trkpt><trkpt lat="43.001863794742995" lon="10.920296570093816"><ele>307.0</ele><time>2026-04-11T08:32:47.005Z</time></trkpt><trkpt lat="43.00185210212185" lon="10.920417678845176"><ele>307.0</ele><time>2026-04-11T08:32:48.005Z</time></trkpt><trkpt lat="43.0018664082492" lon="10.920516452155743"><ele>307.0</ele><time>2026-04-11T08:32:49.005Z</time></trkpt><trkpt lat="43.00191676600276" lon="10.920585571988324"><ele>307.0</ele><time>2026-04-11T08:32:50.005Z</time></trkpt><trkpt lat="43.00195619805054" lon="10.92068360941171"><ele>307.0</ele><time>2026-04-11T08:32:51.005Z</time></trkpt><trkpt lat="43.00197007834938" lon="10.920796714432429"><ele>307.0</ele><time>2026-04-11T08:32:52.005Z</time></trkpt><trkpt lat="43.00198877609763" lon="10.920936704237407"><ele>307.0</ele><time>2026-04-11T08:32:53.005Z</time></trkpt><trkpt lat="43.00202019696043" lon="10.921073792807872"><ele>307.0</ele><time>2026-04-11T08:32:54.005Z</time></trkpt><trkpt lat="43.00203998085389" lon="10.921193445540144"><ele>307.0</ele><time>2026-04-11T08:32:55.005Z</time></trkpt><trkpt lat="43.00204040829864" lon="10.921301027380439"><ele>307.0</ele><time>2026-04-11T08:32:56.005Z</time></trkpt><trkpt lat="43.00204005058123" lon="10.92140597245691"><ele>307.0</ele><time>2026-04-11T08:32:57.005Z</time></trkpt><trkpt lat="43.00202635132884" lon="10.921496284552614"><ele>307.0</ele><time>2026-04-11T08:32:58.005Z</time></trkpt><trkpt lat="43.002069687697364" lon="10.92160100856108"><ele>307.0</ele><time>2026-04-11T08:33:00.005Z</time></trkpt><trkpt lat="43.00212293808282" lon="10.921727671150288"><ele>307.0</ele><time>2026-04-11T08:33:02.005Z</time></trkpt><trkpt lat="43.00214673170588" lon="10.921876742155888"><ele>307.0</ele><time>2026-04-11T08:33:04.005Z</time></trkpt><trkpt lat="43.002130992220046" lon="10.921972188667834"><ele>307.0</ele><time>2026-04-11T08:33:05.005Z</time></trkpt><trkpt lat="43.002118040975354" lon="10.922076817515523"><ele>307.0</ele><time>2026-04-11T08:33:06.005Z</time></trkpt><trkpt lat="43.0020973234817" lon="10.922185302274823"><ele>306.8333333333333</ele><time>2026-04-11T08:33:07.005Z</time></trkpt><trkpt lat="43.00206117015292" lon="10.922277091983387"><ele>306.66666666666663</ele><time>2026-04-11T08:33:08.005Z</time></trkpt><trkpt lat="43.002024075031855" lon="10.92236589089984"><ele>306.5</ele><time>2026-04-11T08:33:09.005Z</time></trkpt><trkpt lat="43.0019836640083" lon="10.922439152819384"><ele>306.3333333333333</ele><time>2026-04-11T08:33:10.005Z</time></trkpt><trkpt lat="43.00192870948789" lon="10.92256722274825"><ele>306.1666666666667</ele><time>2026-04-11T08:33:12.005Z</time></trkpt><trkpt lat="43.001932554087375" lon="10.92272239459495"><ele>306.0</ele><time>2026-04-11T08:33:14.005Z</time></trkpt><trkpt lat="43.001972965239595" lon="10.922793845830762"><ele>305.6</ele><time>2026-04-11T08:33:15.005Z</time></trkpt><trkpt lat="43.00201648110834" lon="10.922899567631122"><ele>305.20000000000005</ele><time>2026-04-11T08:33:16.005Z</time></trkpt><trkpt lat="43.002036822287664" lon="10.923002786577669"><ele>304.79999999999995</ele><time>2026-04-11T08:33:17.005Z</time></trkpt><trkpt lat="43.00204626673" lon="10.923147603867086"><ele>304.4</ele><time>2026-04-11T08:33:19.005Z</time></trkpt><trkpt lat="43.00206400709355" lon="10.923283193997358"><ele>304.0</ele><time>2026-04-11T08:33:21.005Z</time></trkpt><trkpt lat="43.002110874795854" lon="10.923418891693261"><ele>303.5</ele><time>2026-04-11T08:33:23.005Z</time></trkpt><trkpt lat="43.002144094208695" lon="10.923498479966785"><ele>303.0</ele><time>2026-04-11T08:33:24.005Z</time></trkpt><trkpt lat="43.00213699166271" lon="10.923594729232807"><ele>302.5</ele><time>2026-04-11T08:33:32.005Z</time></trkpt><trkpt lat="43.002055074341435" lon="10.923657002987635"><ele>302.0</ele><time>2026-04-11T08:33:34.005Z</time></trkpt><trkpt lat="43.002003629537946" lon="10.92370737424555"><ele>301.5</ele><time>2026-04-11T08:33:35.005Z</time></trkpt><trkpt lat="43.00191641619502" lon="10.923810136390992"><ele>301.0</ele><time>2026-04-11T08:33:37.005Z</time></trkpt><trkpt lat="43.00186125936695" lon="10.923929088800083"><ele>301.0</ele><time>2026-04-11T08:33:39.005Z</time></trkpt><trkpt lat="43.00181138292823" lon="10.923998096919581"><ele>301.0</ele><time>2026-04-11T08:33:40.006Z</time></trkpt><trkpt lat="43.00174563800756" lon="10.924060667471705"><ele>301.0</ele><time>2026-04-11T08:33:41.006Z</time></trkpt><trkpt lat="43.00163653661107" lon="10.924129790987386"><ele>301.0</ele><time>2026-04-11T08:33:43.006Z</time></trkpt><trkpt lat="43.00153061045414" lon="10.924167667805774"><ele>301.0</ele><time>2026-04-11T08:33:45.006Z</time></trkpt><trkpt lat="43.001441715890195" lon="10.924234080514022"><ele>299.8333333333333</ele><time>2026-04-11T08:33:47.006Z</time></trkpt><trkpt lat="43.00135807885241" lon="10.92433671269669"><ele>298.66666666666663</ele><time>2026-04-11T08:33:49.006Z</time></trkpt><trkpt lat="43.001309266862336" lon="10.92439337996904"><ele>297.5</ele><time>2026-04-11T08:33:50.006Z</time></trkpt><trkpt lat="43.00125044762455" lon="10.924451675329065"><ele>296.3333333333333</ele><time>2026-04-11T08:33:51.006Z</time></trkpt><trkpt lat="43.00120172736841" lon="10.924510516614955"><ele>295.1666666666667</ele><time>2026-04-11T08:33:52.006Z</time></trkpt><trkpt lat="43.00115678327456" lon="10.924593535987299"><ele>294.0</ele><time>2026-04-11T08:33:53.006Z</time></trkpt><trkpt lat="43.0011190769199" lon="10.924682222964794"><ele>294.0</ele><time>2026-04-11T08:33:54.006Z</time></trkpt><trkpt lat="43.00107180977836" lon="10.92477536366547"><ele>294.0</ele><time>2026-04-11T08:33:55.006Z</time></trkpt><trkpt lat="43.00101635680402" lon="10.924841424267596"><ele>294.0</ele><time>2026-04-11T08:33:56.006Z</time></trkpt><trkpt lat="43.00092599305881" lon="10.924949212792782"><ele>294.0</ele><time>2026-04-11T08:33:58.006Z</time></trkpt><trkpt lat="43.0008639610536" lon="10.924971393909182"><ele>294.0</ele><time>2026-04-11T08:33:59.006Z</time></trkpt><trkpt lat="43.00078749046369" lon="10.924994896105"><ele>294.0</ele><time>2026-04-11T08:34:00.006Z</time></trkpt><trkpt lat="43.00072276680154" lon="10.925041436445955"><ele>294.1666666666667</ele><time>2026-04-11T08:34:01.006Z</time></trkpt><trkpt lat="43.00065868949803" lon="10.925099916072854"><ele>294.3333333333333</ele><time>2026-04-11T08:34:02.006Z</time></trkpt><trkpt lat="43.00058495925802" lon="10.925191118072668"><ele>294.5</ele><time>2026-04-11T08:34:03.006Z</time></trkpt><trkpt lat="43.000523466657995" lon="10.92526347165637"><ele>294.66666666666663</ele><time>2026-04-11T08:34:04.006Z</time></trkpt><trkpt lat="43.00046544188978" lon="10.925328004027959"><ele>294.8333333333333</ele><time>2026-04-11T08:34:05.006Z</time></trkpt><trkpt lat="43.00041085141233" lon="10.925386748029807"><ele>295.0</ele><time>2026-04-11T08:34:06.006Z</time></trkpt><trkpt lat="43.00035398516897" lon="10.92543210319524"><ele>295.0</ele><time>2026-04-11T08:34:07.006Z</time></trkpt><trkpt lat="43.000292676588344" lon="10.925460215856738"><ele>295.0</ele><time>2026-04-11T08:34:08.006Z</time></trkpt><trkpt lat="43.00019893268237" lon="10.925484844146965"><ele>295.0</ele><time>2026-04-11T08:34:10.006Z</time></trkpt><trkpt lat="43.00009629894186" lon="10.925431915957663"><ele>295.0</ele><time>2026-04-11T08:34:12.006Z</time></trkpt><trkpt lat="43.000002891919735" lon="10.92545582105635"><ele>295.0</ele><time>2026-04-11T08:34:14.006Z</time></trkpt><trkpt lat="42.999937580598825" lon="10.925537969423328"><ele>295.00000000000006</ele><time>2026-04-11T08:34:17.006Z</time></trkpt><trkpt lat="42.99989945504672" lon="10.925616548707026"><ele>295.0</ele><time>2026-04-11T08:34:19.006Z</time></trkpt><trkpt lat="42.99983369749263" lon="10.925703724551207"><ele>295.0</ele><time>2026-04-11T08:34:22.006Z</time></trkpt><trkpt lat="42.99978281266037" lon="10.925765089633899"><ele>295.0</ele><time>2026-04-11T08:34:30.006Z</time></trkpt><trkpt lat="42.99972123071071" lon="10.92582283243389"><ele>295.0</ele><time>2026-04-11T08:34:34.006Z</time></trkpt><trkpt lat="42.99966634796442" lon="10.925889238845734"><ele>295.00000000000006</ele><time>2026-04-11T08:34:38.006Z</time></trkpt><trkpt lat="42.99962052983577" lon="10.925955530194805"><ele>295.0</ele><time>2026-04-11T08:34:42.005Z</time></trkpt><trkpt lat="42.999576837419355" lon="10.926030958847864"><ele>293.42857142857144</ele><time>2026-04-11T08:34:45.005Z</time></trkpt><trkpt lat="42.999512727037356" lon="10.926040012090064"><ele>291.8571428571429</ele><time>2026-04-11T08:34:48.004Z</time></trkpt><trkpt lat="42.99944859386731" lon="10.926045277625455"><ele>290.2857142857143</ele><time>2026-04-11T08:34:50.003Z</time></trkpt><trkpt lat="42.99938116327247" lon="10.926018885272656"><ele>288.7142857142857</ele><time>2026-04-11T08:34:52.003Z</time></trkpt><trkpt lat="42.99931693281648" lon="10.92598568150714"><ele>287.1428571428571</ele><time>2026-04-11T08:34:55.002Z</time></trkpt><trkpt lat="42.9992475297348" lon="10.925926845431047"><ele>285.57142857142856</ele><time>2026-04-11T08:34:58.002Z</time></trkpt><trkpt lat="42.99918249226609" lon="10.925933047196144"><ele>284.0</ele><time>2026-04-11T08:35:00.002Z</time></trkpt><trkpt lat="42.999121947452196" lon="10.925961162509607"><ele>283.57142857142856</ele><time>2026-04-11T08:35:02.002Z</time></trkpt><trkpt lat="42.99904025893064" lon="10.925957524946904"><ele>283.1428571428571</ele><time>2026-04-11T08:35:04.001Z</time></trkpt><trkpt lat="42.99897318468751" lon="10.92599349546342"><ele>282.7142857142857</ele><time>2026-04-11T08:35:06.001Z</time></trkpt><trkpt lat="42.998912796117416" lon="10.92602006774526"><ele>282.2857142857143</ele><time>2026-04-11T08:35:08.001Z</time></trkpt><trkpt lat="42.998850865354825" lon="10.92607836733308"><ele>281.8571428571429</ele><time>2026-04-11T08:35:12.001Z</time></trkpt><trkpt lat="42.99881606913257" lon="10.926152095851036"><ele>281.42857142857144</ele><time>2026-04-11T08:35:14.001Z</time></trkpt><trkpt lat="42.99880446239695" lon="10.926243920358308"><ele>281.0</ele><time>2026-04-11T08:35:16.001Z</time></trkpt><trkpt lat="42.998809795643" lon="10.926358716735031"><ele>281.0</ele><time>2026-04-11T08:35:18.001Z</time></trkpt><trkpt lat="42.99882303763587" lon="10.926450807301439"><ele>281.0</ele><time>2026-04-11T08:35:20.001Z</time></trkpt><trkpt lat="42.998850371946155" lon="10.926596032126389"><ele>281.0</ele><time>2026-04-11T08:35:22.001Z</time></trkpt><trkpt lat="42.99887374788332" lon="10.926680736165123"><ele>281.0</ele><time>2026-04-11T08:35:23.001Z</time></trkpt><trkpt lat="42.99894060287434" lon="10.926797981431775"><ele>281.0</ele><time>2026-04-11T08:35:25.001Z</time></trkpt><trkpt lat="42.99899642991561" lon="10.926847993094858"><ele>281.0</ele><time>2026-04-11T08:35:26.001Z</time></trkpt><trkpt lat="42.999066497570595" lon="10.926977631899558"><ele>279.0</ele><time>2026-04-11T08:35:28.001Z</time></trkpt><trkpt lat="42.99910844957201" lon="10.927091721836653"><ele>277.0</ele><time>2026-04-11T08:35:30Z</time></trkpt><trkpt lat="42.99915519459012" lon="10.927171676299569"><ele>275.0</ele><time>2026-04-11T08:35:32Z</time></trkpt><trkpt lat="42.99922579989911" lon="10.927243768490246"><ele>273.0</ele><time>2026-04-11T08:35:34Z</time></trkpt><trkpt lat="42.999262359644334" lon="10.927336747124597"><ele>271.0</ele><time>2026-04-11T08:35:36Z</time></trkpt><trkpt lat="42.99933411072088" lon="10.92742966942617"><ele>269.0</ele><time>2026-04-11T08:35:39Z</time></trkpt><trkpt lat="42.99937688793313" lon="10.927542544941597"><ele>266.83333333333337</ele><time>2026-04-11T08:35:41Z</time></trkpt><trkpt lat="42.999466573099866" lon="10.927609781370032"><ele>264.6666666666667</ele><time>2026-04-11T08:35:43Z</time></trkpt><trkpt lat="42.999512723664786" lon="10.927710937908204"><ele>262.5</ele><time>2026-04-11T08:35:45Z</time></trkpt><trkpt lat="42.999547139219715" lon="10.927802506224266"><ele>260.3333333333333</ele><time>2026-04-11T08:35:47Z</time></trkpt><trkpt lat="42.99958544612744" lon="10.927889507451757"><ele>258.16666666666663</ele><time>2026-04-11T08:35:49Z</time></trkpt><trkpt lat="42.999613080383156" lon="10.927980270404056"><ele>256.0</ele><time>2026-04-11T08:35:51Z</time></trkpt><trkpt lat="42.99963635650883" lon="10.928082243735235"><ele>256.0</ele><time>2026-04-11T08:35:53Z</time></trkpt><trkpt lat="42.999699683317786" lon="10.928189327921894"><ele>256.0</ele><time>2026-04-11T08:35:56Z</time></trkpt><trkpt lat="42.99978045835624" lon="10.92827331362955"><ele>256.0</ele><time>2026-04-11T08:35:58Z</time></trkpt><trkpt lat="42.99984527685856" lon="10.928333921477343"><ele>256.0</ele><time>2026-04-11T08:36:00Z</time></trkpt><trkpt lat="42.99989923832336" lon="10.928471503012544"><ele>256.0</ele><time>2026-04-11T08:36:02Z</time></trkpt><trkpt lat="42.999924572340205" lon="10.928562531999331"><ele>254.49999999999997</ele><time>2026-04-11T08:36:04Z</time></trkpt><trkpt lat="42.999930705137935" lon="10.928658158669355"><ele>253.0</ele><time>2026-04-11T08:36:06Z</time></trkpt><trkpt lat="42.9999670233469" lon="10.92875586563008"><ele>251.5</ele><time>2026-04-11T08:36:08Z</time></trkpt><trkpt lat="42.99996976107344" lon="10.928872868330332"><ele>250.0</ele><time>2026-04-11T08:36:10Z</time></trkpt><trkpt lat="42.99997029133916" lon="10.928995269558094"><ele>248.49999999999997</ele><time>2026-04-11T08:36:13Z</time></trkpt><trkpt lat="42.99990149329071" lon="10.928951872730819"><ele>247.0</ele><time>2026-04-11T08:36:18Z</time></trkpt><trkpt lat="42.99983016841682" lon="10.928917109169426"><ele>247.0</ele><time>2026-04-11T08:36:21Z</time></trkpt><trkpt lat="42.99975989809766" lon="10.928940422845187"><ele>247.0</ele><time>2026-04-11T08:36:27Z</time></trkpt><trkpt lat="42.99975470476456" lon="10.929050013407181"><ele>247.0</ele><time>2026-04-11T08:36:31Z</time></trkpt><trkpt lat="42.999700814445625" lon="10.929207945116184"><ele>247.0</ele><time>2026-04-11T08:36:33Z</time></trkpt><trkpt lat="42.99966233174923" lon="10.929295896868934"><ele>247.0</ele><time>2026-04-11T08:36:34Z</time></trkpt><trkpt lat="42.99961095375038" lon="10.929433094710266"><ele>244.6</ele><time>2026-04-11T08:36:36Z</time></trkpt><trkpt lat="42.99957738418298" lon="10.9295810841692"><ele>242.2</ele><time>2026-04-11T08:36:38Z</time></trkpt><trkpt lat="42.999526415623464" lon="10.929705457352506"><ele>239.8</ele><time>2026-04-11T08:36:40Z</time></trkpt><trkpt lat="42.99946207105256" lon="10.92980924347605"><ele>237.4</ele><time>2026-04-11T08:36:42Z</time></trkpt><trkpt lat="42.99943428049677" lon="10.929924685765181"><ele>235.0</ele><time>2026-04-11T08:36:44Z</time></trkpt><trkpt lat="42.99943790760201" lon="10.930062051674723"><ele>233.4</ele><time>2026-04-11T08:36:46Z</time></trkpt><trkpt lat="42.999455709781955" lon="10.930203487550285"><ele>231.8</ele><time>2026-04-11T08:36:48Z</time></trkpt><trkpt lat="42.999497086889804" lon="10.930359792923124"><ele>230.2</ele><time>2026-04-11T08:36:50Z</time></trkpt><trkpt lat="42.99952713849031" lon="10.930493353527545"><ele>228.6</ele><time>2026-04-11T08:36:52Z</time></trkpt><trkpt lat="42.99954569724669" lon="10.930639774713661"><ele>227.0</ele><time>2026-04-11T08:36:54Z</time></trkpt><trkpt lat="42.99957141097498" lon="10.930750305719993"><ele>227.00000000000003</ele><time>2026-04-11T08:36:56Z</time></trkpt><trkpt lat="42.999584066163884" lon="10.930879839196095"><ele>227.0</ele><time>2026-04-11T08:36:58Z</time></trkpt><trkpt lat="42.999581383408064" lon="10.930989183259316"><ele>227.0</ele><time>2026-04-11T08:37:00Z</time></trkpt><trkpt lat="42.99957692998148" lon="10.931104352985715"><ele>227.0</ele><time>2026-04-11T08:37:03Z</time></trkpt><trkpt lat="42.99958087420824" lon="10.931200761273438"><ele>227.00000000000003</ele><time>2026-04-11T08:37:06Z</time></trkpt><trkpt lat="42.99955725236735" lon="10.931293116122708"><ele>227.0</ele><time>2026-04-11T08:37:08Z</time></trkpt><trkpt lat="42.99953359750768" lon="10.931427606533386"><ele>226.39999999999998</ele><time>2026-04-11T08:37:10Z</time></trkpt><trkpt lat="42.99950856078594" lon="10.931555620113572"><ele>225.79999999999998</ele><time>2026-04-11T08:37:12Z</time></trkpt><trkpt lat="42.999442471788434" lon="10.931679988570576"><ele>225.2</ele><time>2026-04-11T08:37:14Z</time></trkpt><trkpt lat="42.999360390342396" lon="10.931767315509344"><ele>224.6</ele><time>2026-04-11T08:37:16Z</time></trkpt><trkpt lat="42.99928382591612" lon="10.931859725990027"><ele>224.0</ele><time>2026-04-11T08:37:18Z</time></trkpt><trkpt lat="42.99923629928411" lon="10.93193685950244"><ele>223.00000000000003</ele><time>2026-04-11T08:37:20Z</time></trkpt><trkpt lat="42.999203002911855" lon="10.932018216860717"><ele>222.0</ele><time>2026-04-11T08:37:22Z</time></trkpt><trkpt lat="42.99915061794184" lon="10.932132399523223"><ele>221.0</ele><time>2026-04-11T08:37:24Z</time></trkpt><trkpt lat="42.99911306582842" lon="10.932231965756143"><ele>220.0</ele><time>2026-04-11T08:37:26Z</time></trkpt><trkpt lat="42.99903309259622" lon="10.932308363661367"><ele>219.00000000000003</ele><time>2026-04-11T08:37:28Z</time></trkpt><trkpt lat="42.99898990895102" lon="10.932400326076605"><ele>218.0</ele><time>2026-04-11T08:37:30Z</time></trkpt><trkpt lat="42.99893446967921" lon="10.932525444095392"><ele>216.66666666666669</ele><time>2026-04-11T08:37:32Z</time></trkpt><trkpt lat="42.99888563837169" lon="10.932608198833"><ele>215.33333333333334</ele><time>2026-04-11T08:37:33Z</time></trkpt><trkpt lat="42.998841750817824" lon="10.932700202705716"><ele>214.0</ele><time>2026-04-11T08:37:34Z</time></trkpt><trkpt lat="42.998815118750926" lon="10.932782399902676"><ele>212.66666666666669</ele><time>2026-04-11T08:37:35Z</time></trkpt><trkpt lat="42.998778191050256" lon="10.93285339991704"><ele>211.33333333333334</ele><time>2026-04-11T08:37:36Z</time></trkpt><trkpt lat="42.99870534763985" lon="10.932947899720276"><ele>210.0</ele><time>2026-04-11T08:37:38Z</time></trkpt><trkpt lat="42.99864583937848" lon="10.933002563319635"><ele>210.0</ele><time>2026-04-11T08:37:40Z</time></trkpt><trkpt lat="42.99858420147348" lon="10.933070969909478"><ele>210.0</ele><time>2026-04-11T08:37:42Z</time></trkpt><trkpt lat="42.99852513764663" lon="10.933134244615758"><ele>210.0</ele><time>2026-04-11T08:37:44Z</time></trkpt><trkpt lat="42.99848158433368" lon="10.933237721618493"><ele>210.0</ele><time>2026-04-11T08:37:46Z</time></trkpt><trkpt lat="42.99844304956458" lon="10.933324436406469"><ele>210.0</ele><time>2026-04-11T08:37:48Z</time></trkpt><trkpt lat="42.99846415985716" lon="10.93340857417142"><ele>210.0</ele><time>2026-04-11T08:37:52Z</time></trkpt><trkpt lat="42.99849613547628" lon="10.933485291260304"><ele>210.0</ele><time>2026-04-11T08:37:54.001Z</time></trkpt><trkpt lat="42.99855121187123" lon="10.933554977546521"><ele>208.33333333333334</ele><time>2026-04-11T08:37:57.001Z</time></trkpt><trkpt lat="42.99863173192549" lon="10.93360745224247"><ele>206.66666666666669</ele><time>2026-04-11T08:37:59.001Z</time></trkpt><trkpt lat="42.99870640444143" lon="10.933702636594166"><ele>205.0</ele><time>2026-04-11T08:38:01.001Z</time></trkpt><trkpt lat="42.99876323022077" lon="10.933777182680828"><ele>203.33333333333334</ele><time>2026-04-11T08:38:04.001Z</time></trkpt><trkpt lat="42.998824871517826" lon="10.93380700431736"><ele>201.66666666666669</ele><time>2026-04-11T08:38:07.001Z</time></trkpt><trkpt lat="42.99887699188359" lon="10.933858833864441"><ele>200.0</ele><time>2026-04-11T08:38:10.001Z</time></trkpt><trkpt lat="42.99896232510831" lon="10.93381436702054"><ele>200.0</ele><time>2026-04-11T08:38:14.001Z</time></trkpt><trkpt lat="42.999053295612185" lon="10.933781904205299"><ele>200.0</ele><time>2026-04-11T08:38:16.001Z</time></trkpt><trkpt lat="42.99915719528511" lon="10.933782526543228"><ele>200.0</ele><time>2026-04-11T08:38:18.001Z</time></trkpt><trkpt lat="42.999273929254834" lon="10.9337672287348"><ele>200.0</ele><time>2026-04-11T08:38:20.001Z</time></trkpt><trkpt lat="42.99934560016836" lon="10.933743504395323"><ele>200.0</ele><time>2026-04-11T08:38:22.001Z</time></trkpt><trkpt lat="42.99942763838114" lon="10.933706411227337"><ele>198.2</ele><time>2026-04-11T08:38:24.001Z</time></trkpt><trkpt lat="42.99951982224758" lon="10.933681195094042"><ele>196.4</ele><time>2026-04-11T08:38:26.001Z</time></trkpt><trkpt lat="42.99959936481841" lon="10.933665099415169"><ele>194.60000000000002</ele><time>2026-04-11T08:38:28.001Z</time></trkpt><trkpt lat="42.99968721363602" lon="10.93363089605089"><ele>192.8</ele><time>2026-04-11T08:38:30.001Z</time></trkpt><trkpt lat="42.999783321276134" lon="10.93357308466765"><ele>191.0</ele><time>2026-04-11T08:38:32.001Z</time></trkpt><trkpt lat="42.99986703681863" lon="10.933494260667823"><ele>191.0</ele><time>2026-04-11T08:38:34.001Z</time></trkpt><trkpt lat="42.99993437784004" lon="10.933462666933346"><ele>191.0</ele><time>2026-04-11T08:38:35.001Z</time></trkpt><trkpt lat="43.00002068013752" lon="10.933410451259657"><ele>191.0</ele><time>2026-04-11T08:38:37.001Z</time></trkpt><trkpt lat="43.00007498864684" lon="10.93335879304752"><ele>191.0</ele><time>2026-04-11T08:38:39.001Z</time></trkpt><trkpt lat="43.000175101881" lon="10.93332509243472"><ele>191.0</ele><time>2026-04-11T08:38:42.001Z</time></trkpt><trkpt lat="43.00024365630919" lon="10.933315571100676"><ele>191.0</ele><time>2026-04-11T08:38:43.001Z</time></trkpt><trkpt lat="43.00034145431545" lon="10.933318782813204"><ele>192.0</ele><time>2026-04-11T08:38:45.001Z</time></trkpt><trkpt lat="43.00041460172872" lon="10.933321033598911"><ele>193.0</ele><time>2026-04-11T08:38:47.001Z</time></trkpt><trkpt lat="43.00048663412926" lon="10.93330544306476"><ele>194.0</ele><time>2026-04-11T08:38:49.001Z</time></trkpt><trkpt lat="43.000553918610876" lon="10.933338695754616"><ele>195.0</ele><time>2026-04-11T08:38:51.001Z</time></trkpt><trkpt lat="43.000627945388004" lon="10.93335044246072"><ele>196.0</ele><time>2026-04-11T08:38:53.001Z</time></trkpt><trkpt lat="43.00070754278311" lon="10.933345971551086"><ele>197.0</ele><time>2026-04-11T08:38:56.001Z</time></trkpt><trkpt lat="43.00077786916672" lon="10.933385814559415"><ele>198.0</ele><time>2026-04-11T08:38:59.001Z</time></trkpt><trkpt lat="43.00085219502799" lon="10.933396017943585"><ele>195.2</ele><time>2026-04-11T08:39:01.001Z</time></trkpt><trkpt lat="43.00093032908096" lon="10.933432534538644"><ele>192.4</ele><time>2026-04-11T08:39:03.001Z</time></trkpt><trkpt lat="43.00100690119629" lon="10.933454423420796"><ele>189.6</ele><time>2026-04-11T08:39:05.001Z</time></trkpt><trkpt lat="43.001112911516756" lon="10.93345248120351"><ele>186.79999999999998</ele><time>2026-04-11T08:39:07.001Z</time></trkpt><trkpt lat="43.00124244368313" lon="10.933478364172023"><ele>184.0</ele><time>2026-04-11T08:39:10.001Z</time></trkpt><trkpt lat="43.0013728069584" lon="10.933447019849128"><ele>184.0</ele><time>2026-04-11T08:39:13.001Z</time></trkpt><trkpt lat="43.00144818904737" lon="10.9334313415591"><ele>184.0</ele><time>2026-04-11T08:39:15.001Z</time></trkpt><trkpt lat="43.0015681149589" lon="10.93351835084735"><ele>184.0</ele><time>2026-04-11T08:39:19.001Z</time></trkpt><trkpt lat="43.00162864905906" lon="10.93355459694233"><ele>184.0</ele><time>2026-04-11T08:39:21.001Z</time></trkpt><trkpt lat="43.001659067147656" lon="10.933661462134758"><ele>184.0</ele><time>2026-04-11T08:39:24.001Z</time></trkpt><trkpt lat="43.001714682320184" lon="10.933719971231694"><ele>184.0</ele><time>2026-04-11T08:39:26.001Z</time></trkpt><trkpt lat="43.00177167544228" lon="10.933787289467581"><ele>183.79999999999998</ele><time>2026-04-11T08:39:28.001Z</time></trkpt><trkpt lat="43.00186530817913" lon="10.933898556663392"><ele>183.6</ele><time>2026-04-11T08:39:30.001Z</time></trkpt><trkpt lat="43.00196999728912" lon="10.934038328944423"><ele>183.4</ele><time>2026-04-11T08:39:32.001Z</time></trkpt><trkpt lat="43.002005841675704" lon="10.93411317060506"><ele>183.2</ele><time>2026-04-11T08:39:33.001Z</time></trkpt><trkpt lat="43.00206775429834" lon="10.934237211256715"><ele>183.0</ele><time>2026-04-11T08:39:35.001Z</time></trkpt><trkpt lat="43.00206953018993" lon="10.934328944166225"><ele>181.66666666666666</ele><time>2026-04-11T08:39:37.001Z</time></trkpt><trkpt lat="43.00208676065457" lon="10.934439092269763"><ele>180.33333333333334</ele><time>2026-04-11T08:39:40.001Z</time></trkpt><trkpt lat="43.002124323233105" lon="10.93454254328513"><ele>179.0</ele><time>2026-04-11T08:39:42.001Z</time></trkpt><trkpt lat="43.00212954251289" lon="10.934655975498154"><ele>177.66666666666669</ele><time>2026-04-11T08:39:44.001Z</time></trkpt><trkpt lat="43.0021358507243" lon="10.934798582113789"><ele>176.33333333333334</ele><time>2026-04-11T08:39:46.001Z</time></trkpt><trkpt lat="43.002159420738515" lon="10.934879691523513"><ele>175.0</ele><time>2026-04-11T08:39:47.001Z</time></trkpt><trkpt lat="43.00218548737921" lon="10.934980141785056"><ele>173.0</ele><time>2026-04-11T08:39:48.001Z</time></trkpt><trkpt lat="43.0021811164607" lon="10.93511121985975"><ele>171.0</ele><time>2026-04-11T08:39:50.001Z</time></trkpt><trkpt lat="43.002226380166704" lon="10.935251183880197"><ele>169.0</ele><time>2026-04-11T08:39:52.001Z</time></trkpt><trkpt lat="43.00225568475215" lon="10.935339752134745"><ele>167.0</ele><time>2026-04-11T08:39:54.001Z</time></trkpt><trkpt lat="43.002274328086486" lon="10.93542207369338"><ele>165.0</ele><time>2026-04-11T08:39:56.001Z</time></trkpt><trkpt lat="43.00228508155798" lon="10.935536034605585"><ele>163.0</ele><time>2026-04-11T08:39:58.001Z</time></trkpt><trkpt lat="43.002305007318405" lon="10.93566669468687"><ele>163.0</ele><time>2026-04-11T08:40:00.001Z</time></trkpt><trkpt lat="43.00233969449344" lon="10.935774194869916"><ele>163.0</ele><time>2026-04-11T08:40:02.001Z</time></trkpt><trkpt lat="43.00232801904449" lon="10.935880402091097"><ele>163.0</ele><time>2026-04-11T08:40:04.001Z</time></trkpt><trkpt lat="43.002343421499624" lon="10.936023219985069"><ele>163.0</ele><time>2026-04-11T08:40:06.001Z</time></trkpt><trkpt lat="43.00234446247832" lon="10.936134214119074"><ele>163.0</ele><time>2026-04-11T08:40:09.001Z</time></trkpt><trkpt lat="43.002347730939654" lon="10.936235243030112"><ele>163.0</ele><time>2026-04-11T08:40:12.001Z</time></trkpt><trkpt lat="43.00234717842638" lon="10.93634595781728"><ele>162.16666666666669</ele><time>2026-04-11T08:40:14.001Z</time></trkpt><trkpt lat="43.00238143050081" lon="10.936463600221737"><ele>161.33333333333334</ele><time>2026-04-11T08:40:16.001Z</time></trkpt><trkpt lat="43.002463080109976" lon="10.936551001409965"><ele>160.5</ele><time>2026-04-11T08:40:18.001Z</time></trkpt><trkpt lat="43.00251371668802" lon="10.936613901283183"><ele>159.66666666666666</ele><time>2026-04-11T08:40:19.001Z</time></trkpt><trkpt lat="43.00255121060802" lon="10.936693294043454"><ele>158.83333333333331</ele><time>2026-04-11T08:40:20.001Z</time></trkpt><trkpt lat="43.00261232721099" lon="10.93677853639539"><ele>158.0</ele><time>2026-04-11T08:40:21.001Z</time></trkpt><trkpt lat="43.00266410074262" lon="10.93683941707315"><ele>156.16666666666666</ele><time>2026-04-11T08:40:22.001Z</time></trkpt><trkpt lat="43.002728309767555" lon="10.936948084145222"><ele>154.33333333333331</ele><time>2026-04-11T08:40:24.001Z</time></trkpt><trkpt lat="43.002780460216925" lon="10.93705678668094"><ele>152.5</ele><time>2026-04-11T08:40:27.001Z</time></trkpt><trkpt lat="43.00283379214643" lon="10.937126172377019"><ele>150.66666666666666</ele><time>2026-04-11T08:40:29.001Z</time></trkpt><trkpt lat="43.00289651362698" lon="10.937217634734672"><ele>148.83333333333334</ele><time>2026-04-11T08:40:31.001Z</time></trkpt><trkpt lat="43.00294357928307" lon="10.937289519042418"><ele>147.0</ele><time>2026-04-11T08:40:33.001Z</time></trkpt><trkpt lat="43.00300463501377" lon="10.937383827219755"><ele>147.0</ele><time>2026-04-11T08:40:35.001Z</time></trkpt><trkpt lat="43.00309035593722" lon="10.937506473376631"><ele>147.0</ele><time>2026-04-11T08:40:37.001Z</time></trkpt><trkpt lat="43.003139625107295" lon="10.937632272986255"><ele>147.0</ele><time>2026-04-11T08:40:39.001Z</time></trkpt><trkpt lat="43.00322202217721" lon="10.937751041286965"><ele>147.0</ele><time>2026-04-11T08:40:41.001Z</time></trkpt><trkpt lat="43.00328457497922" lon="10.937810161756435"><ele>147.0</ele><time>2026-04-11T08:40:42.001Z</time></trkpt><trkpt lat="43.00336991295626" lon="10.9378876348606"><ele>142.33333333333334</ele><time>2026-04-11T08:40:44.001Z</time></trkpt><trkpt lat="43.0033929796401" lon="10.9379896685699"><ele>137.66666666666666</ele><time>2026-04-11T08:40:47.001Z</time></trkpt><trkpt lat="43.00342711381252" lon="10.938117730847019"><ele>133.0</ele><time>2026-04-11T08:40:49.001Z</time></trkpt><trkpt lat="43.003440033190444" lon="10.938223985336938"><ele>128.33333333333331</ele><time>2026-04-11T08:40:51.001Z</time></trkpt><trkpt lat="43.00341240603672" lon="10.938323108791755"><ele>123.66666666666666</ele><time>2026-04-11T08:40:54.001Z</time></trkpt><trkpt lat="43.0033697439699" lon="10.938435804004188"><ele>119.0</ele><time>2026-04-11T08:40:57.001Z</time></trkpt><trkpt lat="43.00334251089371" lon="10.938546971597072"><ele>118.16666666666666</ele><time>2026-04-11T08:40:59.001Z</time></trkpt><trkpt lat="43.0033229489049" lon="10.938632435507879"><ele>117.33333333333333</ele><time>2026-04-11T08:41:00.001Z</time></trkpt><trkpt lat="43.00328529299043" lon="10.938723293129257"><ele>116.5</ele><time>2026-04-11T08:41:01.001Z</time></trkpt><trkpt lat="43.00324499989669" lon="10.93884073202371"><ele>115.66666666666666</ele><time>2026-04-11T08:41:03.001Z</time></trkpt><trkpt lat="43.00319294818379" lon="10.93893202901481"><ele>114.83333333333333</ele><time>2026-04-11T08:41:05.001Z</time></trkpt><trkpt lat="43.003147190264556" lon="10.939030367150027"><ele>114.0</ele><time>2026-04-11T08:41:07.001Z</time></trkpt><trkpt lat="43.00311859683232" lon="10.939114978892999"><ele>113.2</ele><time>2026-04-11T08:41:09.001Z</time></trkpt><trkpt lat="43.003118852155836" lon="10.939225480956996"><ele>112.4</ele><time>2026-04-11T08:41:12.001Z</time></trkpt><trkpt lat="43.00314139516078" lon="10.939321912581837"><ele>111.6</ele><time>2026-04-11T08:41:15.001Z</time></trkpt><trkpt lat="43.00323069980945" lon="10.939445149131526"><ele>110.8</ele><time>2026-04-11T08:41:28.001Z</time></trkpt><trkpt lat="43.00330188864921" lon="10.93935109129383"><ele>110.0</ele><time>2026-04-11T08:41:35.002Z</time></trkpt><trkpt lat="43.003350428101406" lon="10.939252104546437"><ele>109.99999999999999</ele><time>2026-04-11T08:41:37.002Z</time></trkpt><trkpt lat="43.00338635643294" lon="10.93916235579112"><ele>110.0</ele><time>2026-04-11T08:41:39.002Z</time></trkpt><trkpt lat="43.00345942664068" lon="10.939116637621256"><ele>110.0</ele><time>2026-04-11T08:43:58.001Z</time></trkpt><trkpt lat="43.00349049560826" lon="10.939037573570399"><ele>110.0</ele><time>2026-04-11T08:44:06.001Z</time></trkpt><trkpt lat="43.00346188545751" lon="10.938947478030924"><ele>110.0</ele><time>2026-04-11T08:44:28.001Z</time></trkpt><trkpt lat="43.00342233281262" lon="10.938854530040372"><ele>109.99999999999999</ele><time>2026-04-11T08:45:06.001Z</time></trkpt><trkpt lat="43.00348659210525" lon="10.938818986568368"><ele>110.0</ele><time>2026-04-11T08:45:55Z</time></trkpt><trkpt lat="43.00353621479675" lon="10.938766014287378"><ele>109.99999999999999</ele><time>2026-04-11T08:51:11Z</time></trkpt><trkpt lat="43.003460274789234" lon="10.938829243277272"><ele>110.0</ele><time>2026-04-11T08:51:44Z</time></trkpt><trkpt lat="43.003450943431424" lon="10.938914505359634"><ele>110.0</ele><time>2026-04-11T08:52:03Z</time></trkpt><trkpt lat="43.00344738353885" lon="10.939014009074459"><ele>110.0</ele><time>2026-04-11T08:52:30.001Z</time></trkpt><trkpt lat="43.00349857439317" lon="10.939079385014464"><ele>109.99999999999999</ele><time>2026-04-11T08:52:38.001Z</time></trkpt><trkpt lat="43.00354241169972" lon="10.939159122292912"><ele>110.0</ele><time>2026-04-11T08:53:36.001Z</time></trkpt><trkpt lat="43.00359563799898" lon="10.939245679475519"><ele>109.99999999999999</ele><time>2026-04-11T08:53:41.001Z</time></trkpt><trkpt lat="43.00367058095956" lon="10.939211474108218"><ele>110.0</ele><time>2026-04-11T08:53:46.001Z</time></trkpt><trkpt lat="43.00372674437011" lon="10.939144872477044"><ele>110.0</ele><time>2026-04-11T08:53:48.001Z</time></trkpt><trkpt lat="43.00377117378446" lon="10.93907532339284"><ele>110.0</ele><time>2026-04-11T08:53:50.001Z</time></trkpt><trkpt lat="43.00382341803867" lon="10.939010699985849"><ele>110.0</ele><time>2026-04-11T08:53:53.001Z</time></trkpt><trkpt lat="43.00386143644146" lon="10.938903490673612"><ele>109.99999999999999</ele><time>2026-04-11T08:53:57.001Z</time></trkpt><trkpt lat="43.003912093232486" lon="10.938835753730343"><ele>110.0</ele><time>2026-04-11T08:54:00.001Z</time></trkpt><trkpt lat="43.00396173651572" lon="10.938773781131792"><ele>109.99999999999999</ele><time>2026-04-11T08:54:03.001Z</time></trkpt><trkpt lat="43.00400827473144" lon="10.938707716675225"><ele>110.0</ele><time>2026-04-11T08:54:06.001Z</time></trkpt><trkpt lat="43.004088852666825" lon="10.938695018047426"><ele>110.0</ele><time>2026-04-11T08:54:11.001Z</time></trkpt><trkpt lat="43.004159677579146" lon="10.938749223559094"><ele>110.0</ele><time>2026-04-11T08:54:15.001Z</time></trkpt><trkpt lat="43.00422277113422" lon="10.938745062915425"><ele>109.99999999999999</ele><time>2026-04-11T08:54:19.001Z</time></trkpt><trkpt lat="43.004311483647825" lon="10.938769421420435"><ele>110.0</ele><time>2026-04-11T08:54:23.001Z</time></trkpt><trkpt lat="43.00437486289815" lon="10.938739348333812"><ele>109.99999999999999</ele><time>2026-04-11T08:54:26.001Z</time></trkpt><trkpt lat="43.004442599654894" lon="10.938688215763582"><ele>110.0</ele><time>2026-04-11T08:54:30.001Z</time></trkpt><trkpt lat="43.00451291502314" lon="10.938626782831708"><ele>110.0</ele><time>2026-04-11T08:54:34.001Z</time></trkpt><trkpt lat="43.00457490331434" lon="10.938570029318013"><ele>110.0</ele><time>2026-04-11T08:54:36.001Z</time></trkpt><trkpt lat="43.00464862678839" lon="10.938536450170826"><ele>109.99999999999999</ele><time>2026-04-11T08:54:38.001Z</time></trkpt><trkpt lat="43.004705573950545" lon="10.938495407640358"><ele>110.0</ele><time>2026-04-11T08:54:40.001Z</time></trkpt><trkpt lat="43.0047773110402" lon="10.938436315565667"><ele>110.16666666666666</ele><time>2026-04-11T08:54:42.001Z</time></trkpt><trkpt lat="43.0048531648127" lon="10.938383362545567"><ele>110.33333333333333</ele><time>2026-04-11T08:54:44.001Z</time></trkpt><trkpt lat="43.00493330607148" lon="10.938335715117319"><ele>110.5</ele><time>2026-04-11T08:54:46.001Z</time></trkpt><trkpt lat="43.00501591915471" lon="10.938287817893682"><ele>110.66666666666666</ele><time>2026-04-11T08:54:48.001Z</time></trkpt><trkpt lat="43.00508007093754" lon="10.938246651764231"><ele>110.83333333333333</ele><time>2026-04-11T08:54:50.001Z</time></trkpt><trkpt lat="43.005148086334984" lon="10.938227533766106"><ele>111.0</ele><time>2026-04-11T08:55:03.001Z</time></trkpt><trkpt lat="43.00516810988907" lon="10.938144619580441"><ele>111.19999999999999</ele><time>2026-04-11T08:55:05.001Z</time></trkpt><trkpt lat="43.005171047441785" lon="10.938039104235594"><ele>111.39999999999999</ele><time>2026-04-11T08:55:09.001Z</time></trkpt><trkpt lat="43.0052017157104" lon="10.937936734498395"><ele>111.6</ele><time>2026-04-11T08:55:12.001Z</time></trkpt><trkpt lat="43.005252483184925" lon="10.937826227399722"><ele>111.8</ele><time>2026-04-11T08:55:14.001Z</time></trkpt><trkpt lat="43.005350906412545" lon="10.937739104355593"><ele>112.0</ele><time>2026-04-11T08:55:16.001Z</time></trkpt><trkpt lat="43.00546588168889" lon="10.937667168146262"><ele>112.00000000000001</ele><time>2026-04-11T08:55:18.001Z</time></trkpt><trkpt lat="43.00555395887554" lon="10.93757289337031"><ele>112.0</ele><time>2026-04-11T08:55:20.001Z</time></trkpt><trkpt lat="43.00562376469661" lon="10.937539316767833"><ele>112.0</ele><time>2026-04-11T08:55:22.001Z</time></trkpt><trkpt lat="43.00568456756458" lon="10.937486840727408"><ele>112.0</ele><time>2026-04-11T08:55:24.001Z</time></trkpt><trkpt lat="43.00574715997945" lon="10.937418972382986"><ele>112.00000000000001</ele><time>2026-04-11T08:55:26.001Z</time></trkpt><trkpt lat="43.005794206550945" lon="10.937353848920981"><ele>112.0</ele><time>2026-04-11T08:55:28.001Z</time></trkpt><trkpt lat="43.005847981440276" lon="10.937290004377815"><ele>112.00000000000001</ele><time>2026-04-11T08:55:30.001Z</time></trkpt><trkpt lat="43.00590190879733" lon="10.937195196122147"><ele>112.0</ele><time>2026-04-11T08:55:33.001Z</time></trkpt><trkpt lat="43.00596107543858" lon="10.937109728758525"><ele>112.0</ele><time>2026-04-11T08:55:39.001Z</time></trkpt><trkpt lat="43.00602193203771" lon="10.937017719939279"><ele>112.0</ele><time>2026-04-11T08:55:42.001Z</time></trkpt><trkpt lat="43.0060805308427" lon="10.936964336343967"><ele>112.00000000000001</ele><time>2026-04-11T08:55:44.001Z</time></trkpt><trkpt lat="43.00611421481911" lon="10.936878226699305"><ele>112.0</ele><time>2026-04-11T08:55:46.001Z</time></trkpt><trkpt lat="43.00617809946536" lon="10.936847862353865"><ele>112.00000000000001</ele><time>2026-04-11T08:55:51.001Z</time></trkpt><trkpt lat="43.00617184645502" lon="10.936752356374324"><ele>112.0</ele><time>2026-04-11T08:56:06Z</time></trkpt><trkpt lat="43.00611413496002" lon="10.936825286866949"><ele>112.0</ele><time>2026-04-11T08:56:48Z</time></trkpt><trkpt lat="43.00606005031691" lon="10.936880234748664"><ele>112.0</ele><time>2026-04-11T08:56:51Z</time></trkpt><trkpt lat="43.0059943799693" lon="10.936928029789701"><ele>112.00000000000001</ele><time>2026-04-11T08:56:54Z</time></trkpt><trkpt lat="43.00592199887021" lon="10.93704162742923"><ele>112.0</ele><time>2026-04-11T08:56:57Z</time></trkpt><trkpt lat="43.005862924697034" lon="10.937106067623654"><ele>112.0</ele><time>2026-04-11T08:56:59Z</time></trkpt><trkpt lat="43.005804989263325" lon="10.937185086325696"><ele>111.99999999999999</ele><time>2026-04-11T08:57:01Z</time></trkpt><trkpt lat="43.00572787486093" lon="10.937299184610673"><ele>111.99999999999999</ele><time>2026-04-11T08:57:03Z</time></trkpt><trkpt lat="43.00566062917849" lon="10.937433831445784"><ele>112.0</ele><time>2026-04-11T08:57:04Z</time></trkpt><trkpt lat="43.00559112478495" lon="10.937579437813248"><ele>112.0</ele><time>2026-04-11T08:57:05Z</time></trkpt><trkpt lat="43.005538923308265" lon="10.937684428730453"><ele>112.00000000000001</ele><time>2026-04-11T08:57:06Z</time></trkpt><trkpt lat="43.005507615274055" lon="10.93777195476547"><ele>112.0</ele><time>2026-04-11T08:57:07Z</time></trkpt><trkpt lat="43.00549800974785" lon="10.937886835959825"><ele>112.0</ele><time>2026-04-11T08:57:09Z</time></trkpt><trkpt lat="43.00550913234259" lon="10.937994081798248"><ele>112.0</ele><time>2026-04-11T08:57:12Z</time></trkpt><trkpt lat="43.005542058121954" lon="10.938088469994756"><ele>112.00000000000001</ele><time>2026-04-11T08:57:23Z</time></trkpt><trkpt lat="43.00560433541812" lon="10.9381327474074"><ele>112.0</ele><time>2026-04-11T08:57:50Z</time></trkpt><trkpt lat="43.00563693859835" lon="10.938036970329534"><ele>112.0</ele><time>2026-04-11T08:57:54Z</time></trkpt><trkpt lat="43.005672259575945" lon="10.937925521581445"><ele>111.99999999999999</ele><time>2026-04-11T08:57:56Z</time></trkpt><trkpt lat="43.00571191022779" lon="10.937847366368377"><ele>111.99999999999999</ele><time>2026-04-11T08:57:57Z</time></trkpt><trkpt lat="43.00579185353429" lon="10.937749238515408"><ele>112.0</ele><time>2026-04-11T08:57:58Z</time></trkpt><trkpt lat="43.0058635797728" lon="10.937642444335358"><ele>112.0</ele><time>2026-04-11T08:57:59Z</time></trkpt><trkpt lat="43.005923889634275" lon="10.937564718719281"><ele>112.00000000000001</ele><time>2026-04-11T08:58:00Z</time></trkpt><trkpt lat="43.005999063574464" lon="10.937492360361539"><ele>112.0</ele><time>2026-04-11T08:58:01Z</time></trkpt><trkpt lat="43.00607828588834" lon="10.937435640478895"><ele>112.0</ele><time>2026-04-11T08:58:02Z</time></trkpt><trkpt lat="43.00616968595384" lon="10.937395088311519"><ele>112.0</ele><time>2026-04-11T08:58:03Z</time></trkpt><trkpt lat="43.00624434039305" lon="10.937352284699159"><ele>112.00000000000001</ele><time>2026-04-11T08:58:04Z</time></trkpt><trkpt lat="43.00630879069835" lon="10.937315658350792"><ele>112.0</ele><time>2026-04-11T08:58:06Z</time></trkpt><trkpt lat="43.006354213653985" lon="10.937203377040744"><ele>112.0</ele><time>2026-04-11T08:58:08Z</time></trkpt><trkpt lat="43.006363366970405" lon="10.937070793032083"><ele>111.99999999999999</ele><time>2026-04-11T08:58:10Z</time></trkpt><trkpt lat="43.00639650970994" lon="10.936951830637692"><ele>111.99999999999999</ele><time>2026-04-11T08:58:35Z</time></trkpt><trkpt lat="43.0063656280084" lon="10.937097834466941"><ele>112.0</ele><time>2026-04-11T08:59:29Z</time></trkpt><trkpt lat="43.00625299061266" lon="10.937140439011342"><ele>112.0</ele><time>2026-04-11T08:59:31Z</time></trkpt><trkpt lat="43.0061707471161" lon="10.937197924813749"><ele>112.0</ele><time>2026-04-11T08:59:32Z</time></trkpt><trkpt lat="43.00610258918154" lon="10.937279217050174"><ele>111.99999999999999</ele><time>2026-04-11T08:59:33Z</time></trkpt><trkpt lat="43.00602042200372" lon="10.937398716846507"><ele>111.99999999999999</ele><time>2026-04-11T08:59:34Z</time></trkpt><trkpt lat="43.005940329830935" lon="10.937512150306539"><ele>112.0</ele><time>2026-04-11T08:59:35Z</time></trkpt><trkpt lat="43.0058569249704" lon="10.937630544355608"><ele>112.0</ele><time>2026-04-11T08:59:36Z</time></trkpt><trkpt lat="43.00578897723691" lon="10.937725315985395"><ele>112.00000000000001</ele><time>2026-04-11T08:59:37Z</time></trkpt><trkpt lat="43.00572151004967" lon="10.937845940026401"><ele>112.0</ele><time>2026-04-11T08:59:38Z</time></trkpt><trkpt lat="43.005659884188645" lon="10.937937684675841"><ele>112.0</ele><time>2026-04-11T08:59:39Z</time></trkpt><trkpt lat="43.00562091388562" lon="10.938037666261621"><ele>112.0</ele><time>2026-04-11T08:59:41Z</time></trkpt><trkpt lat="43.00559246093174" lon="10.938114741815346"><ele>112.00000000000001</ele><time>2026-04-11T08:59:52Z</time></trkpt><trkpt lat="43.005572995038925" lon="10.93820892111823"><ele>112.0</ele><time>2026-04-11T09:00:04Z</time></trkpt><trkpt lat="43.00563540124563" lon="10.938228294888159"><ele>112.00000000000001</ele><time>2026-04-11T09:01:46Z</time></trkpt><trkpt lat="43.00569727061952" lon="10.93826290017805"><ele>112.0</ele><time>2026-04-11T09:02:07Z</time></trkpt><trkpt lat="43.005637712128625" lon="10.938304614415513"><ele>112.0</ele><time>2026-04-11T09:02:11Z</time></trkpt><trkpt lat="43.0055497877309" lon="10.938343543225372"><ele>112.0</ele><time>2026-04-11T09:02:13Z</time></trkpt><trkpt lat="43.005464171435214" lon="10.93841987956966"><ele>112.00000000000001</ele><time>2026-04-11T09:02:15Z</time></trkpt><trkpt lat="43.0054123623478" lon="10.938485728605404"><ele>112.0</ele><time>2026-04-11T09:02:16Z</time></trkpt><trkpt lat="43.00532687976767" lon="10.93854347418947"><ele>111.33333333333334</ele><time>2026-04-11T09:02:17Z</time></trkpt><trkpt lat="43.00518452970442" lon="10.938596196222884"><ele>110.66666666666666</ele><time>2026-04-11T09:02:18Z</time></trkpt><trkpt lat="43.005019076661924" lon="10.938651701912686"><ele>110.0</ele><time>2026-04-11T09:02:19Z</time></trkpt><trkpt lat="43.0048536078798" lon="10.93872916986823"><ele>110.0</ele><time>2026-04-11T09:02:20Z</time></trkpt><trkpt lat="43.00470917921247" lon="10.938785870268106"><ele>110.0</ele><time>2026-04-11T09:02:21Z</time></trkpt><trkpt lat="43.004566325944886" lon="10.938858292408613"><ele>110.0</ele><time>2026-04-11T09:02:22Z</time></trkpt><trkpt lat="43.00445844565044" lon="10.938920917660052"><ele>110.0</ele><time>2026-04-11T09:02:23Z</time></trkpt><trkpt lat="43.00436648891668" lon="10.93898720032887"><ele>110.0</ele><time>2026-04-11T09:02:24Z</time></trkpt><trkpt lat="43.004275676926405" lon="10.939056461206256"><ele>110.0</ele><time>2026-04-11T09:02:25Z</time></trkpt><trkpt lat="43.004153494938144" lon="10.93912176989908"><ele>110.0</ele><time>2026-04-11T09:02:26Z</time></trkpt><trkpt lat="43.00402482065676" lon="10.939202941627574"><ele>110.0</ele><time>2026-04-11T09:02:27Z</time></trkpt><trkpt lat="43.00392364265349" lon="10.939284040698624"><ele>110.0</ele><time>2026-04-11T09:02:28Z</time></trkpt><trkpt lat="43.00384025875593" lon="10.939375259167631"><ele>110.0</ele><time>2026-04-11T09:02:29Z</time></trkpt><trkpt lat="43.00377779845975" lon="10.93947211592926"><ele>110.0</ele><time>2026-04-11T09:02:30Z</time></trkpt><trkpt lat="43.00372847051429" lon="10.93957155204183"><ele>110.0</ele><time>2026-04-11T09:02:31Z</time></trkpt><trkpt lat="43.00367337088289" lon="10.939684865117249"><ele>110.0</ele><time>2026-04-11T09:02:32Z</time></trkpt><trkpt lat="43.003597774304204" lon="10.93980027901746"><ele>110.0</ele><time>2026-04-11T09:02:33Z</time></trkpt><trkpt lat="43.00351076516808" lon="10.939924372957575"><ele>110.0</ele><time>2026-04-11T09:02:34Z</time></trkpt><trkpt lat="43.003441023353815" lon="10.94002830050868"><ele>110.0</ele><time>2026-04-11T09:02:35Z</time></trkpt><trkpt lat="43.00337540576423" lon="10.940092511622298"><ele>110.0</ele><time>2026-04-11T09:02:36Z</time></trkpt><trkpt lat="43.00329930911608" lon="10.940161030517597"><ele>110.0</ele><time>2026-04-11T09:02:37Z</time></trkpt><trkpt lat="43.003228757708975" lon="10.940215630489053"><ele>109.83333333333333</ele><time>2026-04-11T09:02:38Z</time></trkpt><trkpt lat="43.0031488324377" lon="10.940253411950417"><ele>109.66666666666666</ele><time>2026-04-11T09:02:39Z</time></trkpt><trkpt lat="43.003054066402676" lon="10.940270032823722"><ele>109.5</ele><time>2026-04-11T09:02:40Z</time></trkpt><trkpt lat="43.00296898203698" lon="10.940285295279402"><ele>109.33333333333334</ele><time>2026-04-11T09:02:41Z</time></trkpt><trkpt lat="43.00289859051817" lon="10.940282600874555"><ele>109.16666666666667</ele><time>2026-04-11T09:02:42Z</time></trkpt><trkpt lat="43.00283160127189" lon="10.940292826183834"><ele>109.0</ele><time>2026-04-11T09:02:43Z</time></trkpt><trkpt lat="43.0027732422806" lon="10.940328462069226"><ele>109.00000000000001</ele><time>2026-04-11T09:02:44Z</time></trkpt><trkpt lat="43.00271991081152" lon="10.940390818389599"><ele>109.0</ele><time>2026-04-11T09:02:45Z</time></trkpt><trkpt lat="43.00265762806277" lon="10.940433780307558"><ele>109.0</ele><time>2026-04-11T09:02:46Z</time></trkpt><trkpt lat="43.00258262954021" lon="10.940459349094025"><ele>109.0</ele><time>2026-04-11T09:02:47Z</time></trkpt><trkpt lat="43.00247744808913" lon="10.940485387868657"><ele>109.00000000000001</ele><time>2026-04-11T09:02:48Z</time></trkpt><trkpt lat="43.002391909156835" lon="10.94049458815453"><ele>109.0</ele><time>2026-04-11T09:02:49Z</time></trkpt><trkpt lat="43.00229587758285" lon="10.940517013143547"><ele>108.4</ele><time>2026-04-11T09:02:50Z</time></trkpt><trkpt lat="43.00218824079925" lon="10.940553891744493"><ele>107.80000000000001</ele><time>2026-04-11T09:02:51Z</time></trkpt><trkpt lat="43.00209627386147" lon="10.940582439079446"><ele>107.19999999999999</ele><time>2026-04-11T09:02:52Z</time></trkpt><trkpt lat="43.00200180507194" lon="10.94061762300388"><ele>106.6</ele><time>2026-04-11T09:02:53Z</time></trkpt><trkpt lat="43.00191608311925" lon="10.940660456913625"><ele>106.0</ele><time>2026-04-11T09:02:54Z</time></trkpt><trkpt lat="43.00183908779021" lon="10.940717230097295"><ele>106.0</ele><time>2026-04-11T09:02:55Z</time></trkpt><trkpt lat="43.00176050552638" lon="10.940779583026726"><ele>106.0</ele><time>2026-04-11T09:02:56Z</time></trkpt><trkpt lat="43.001679130467195" lon="10.94083868862948"><ele>106.0</ele><time>2026-04-11T09:02:57Z</time></trkpt><trkpt lat="43.00158867391359" lon="10.94090015518976"><ele>106.0</ele><time>2026-04-11T09:02:58Z</time></trkpt><trkpt lat="43.00150533641701" lon="10.94097564229964"><ele>106.0</ele><time>2026-04-11T09:02:59Z</time></trkpt><trkpt lat="43.00143614355609" lon="10.941066891380617"><ele>106.00000000000001</ele><time>2026-04-11T09:03:00Z</time></trkpt><trkpt lat="43.00135915726802" lon="10.941165993341844"><ele>106.0</ele><time>2026-04-11T09:03:00.999Z</time></trkpt><trkpt lat="43.001310733801276" lon="10.941249689091777"><ele>106.0</ele><time>2026-04-11T09:03:01.999Z</time></trkpt><trkpt lat="43.001260729728465" lon="10.941333950862191"><ele>106.0</ele><time>2026-04-11T09:03:02.999Z</time></trkpt><trkpt lat="43.0012024985374" lon="10.94141104507131"><ele>106.00000000000001</ele><time>2026-04-11T09:03:03.999Z</time></trkpt><trkpt lat="43.00112865335576" lon="10.941485798432211"><ele>106.0</ele><time>2026-04-11T09:03:04.999Z</time></trkpt><trkpt lat="43.0010455371098" lon="10.941536191322767"><ele>106.0</ele><time>2026-04-11T09:03:05.999Z</time></trkpt><trkpt lat="43.00095614909593" lon="10.941580248266613"><ele>106.0</ele><time>2026-04-11T09:03:06.999Z</time></trkpt><trkpt lat="43.00086731532763" lon="10.941617518639767"><ele>106.0</ele><time>2026-04-11T09:03:07.999Z</time></trkpt><trkpt lat="43.000771052378894" lon="10.941641367189273"><ele>106.0</ele><time>2026-04-11T09:03:08.999Z</time></trkpt><trkpt lat="43.00066645844351" lon="10.941668835779366"><ele>106.0</ele><time>2026-04-11T09:03:09.999Z</time></trkpt><trkpt lat="43.00057899942218" lon="10.94171412474056"><ele>105.00000000000001</ele><time>2026-04-11T09:03:10.999Z</time></trkpt><trkpt lat="43.00050888959378" lon="10.94175806708844"><ele>104.0</ele><time>2026-04-11T09:03:11.999Z</time></trkpt><trkpt lat="43.00045745004257" lon="10.94182061995886"><ele>103.0</ele><time>2026-04-11T09:03:12.999Z</time></trkpt><trkpt lat="43.00042165658939" lon="10.941898335359475"><ele>102.0</ele><time>2026-04-11T09:03:13.999Z</time></trkpt><trkpt lat="43.000375161099285" lon="10.941995614946334"><ele>101.00000000000001</ele><time>2026-04-11T09:03:14.999Z</time></trkpt><trkpt lat="43.00033990131338" lon="10.942118591478685"><ele>100.0</ele><time>2026-04-11T09:03:15.999Z</time></trkpt><trkpt lat="43.000294891052235" lon="10.942254101559504"><ele>100.00000000000001</ele><time>2026-04-11T09:03:16.999Z</time></trkpt><trkpt lat="43.00025373847245" lon="10.94235444552631"><ele>100.0</ele><time>2026-04-11T09:03:17.999Z</time></trkpt><trkpt lat="43.00019170319761" lon="10.94242573773097"><ele>100.0</ele><time>2026-04-11T09:03:18.999Z</time></trkpt><trkpt lat="43.000105555185215" lon="10.942485251838564"><ele>100.0</ele><time>2026-04-11T09:03:19.999Z</time></trkpt><trkpt lat="43.000021023856185" lon="10.942547262327748"><ele>100.00000000000001</ele><time>2026-04-11T09:03:20.999Z</time></trkpt><trkpt lat="42.999952177511524" lon="10.942611806023672"><ele>100.0</ele><time>2026-04-11T09:03:21.999Z</time></trkpt><trkpt lat="42.99990298112517" lon="10.942741091525297"><ele>100.66666666666667</ele><time>2026-04-11T09:03:24Z</time></trkpt><trkpt lat="42.99989860893383" lon="10.942832448724884"><ele>101.33333333333334</ele><time>2026-04-11T09:03:26Z</time></trkpt><trkpt lat="42.999884334035464" lon="10.942938550293814"><ele>102.0</ele><time>2026-04-11T09:03:28Z</time></trkpt><trkpt lat="42.99989003965497" lon="10.943036629453927"><ele>102.66666666666666</ele><time>2026-04-11T09:03:30Z</time></trkpt><trkpt lat="42.99982519367573" lon="10.943086359342013"><ele>103.33333333333333</ele><time>2026-04-11T09:03:33Z</time></trkpt><trkpt lat="42.99974810618877" lon="10.943088695559242"><ele>104.0</ele><time>2026-04-11T09:03:37Z</time></trkpt><trkpt lat="42.99964297204644" lon="10.943133241411442"><ele>103.99999999999999</ele><time>2026-04-11T09:03:39.001Z</time></trkpt><trkpt lat="42.999519545141716" lon="10.943182082424794"><ele>104.0</ele><time>2026-04-11T09:03:41.001Z</time></trkpt><trkpt lat="42.99945451154028" lon="10.943197063353272"><ele>104.0</ele><time>2026-04-11T09:03:42.001Z</time></trkpt><trkpt lat="42.99938996681194" lon="10.943213776415774"><ele>104.0</ele><time>2026-04-11T09:03:43.001Z</time></trkpt><trkpt lat="42.99928528264283" lon="10.94324184179383"><ele>103.99999999999999</ele><time>2026-04-11T09:03:45.001Z</time></trkpt><trkpt lat="42.9992064250052" lon="10.94326416003785"><ele>104.0</ele><time>2026-04-11T09:03:46.001Z</time></trkpt><trkpt lat="42.99909872937411" lon="10.943296254081497"><ele>104.16666666666666</ele><time>2026-04-11T09:03:47.001Z</time></trkpt><trkpt lat="42.99901165876464" lon="10.943321019201196"><ele>104.33333333333333</ele><time>2026-04-11T09:03:48.001Z</time></trkpt><trkpt lat="42.998942370217925" lon="10.9433474651565"><ele>104.5</ele><time>2026-04-11T09:03:49.001Z</time></trkpt><trkpt lat="42.99887827862663" lon="10.943388012427056"><ele>104.66666666666666</ele><time>2026-04-11T09:03:52.001Z</time></trkpt><trkpt lat="42.99885015262528" lon="10.943476078520751"><ele>104.83333333333333</ele><time>2026-04-11T09:04:18.001Z</time></trkpt><trkpt lat="42.99885359663452" lon="10.943579073772526"><ele>105.0</ele><time>2026-04-11T09:04:39.001Z</time></trkpt><trkpt lat="42.99885411126348" lon="10.94368645044991"><ele>105.0</ele><time>2026-04-11T09:04:44.001Z</time></trkpt><trkpt lat="42.99887540626089" lon="10.943801436109364"><ele>105.0</ele><time>2026-04-11T09:04:46.001Z</time></trkpt><trkpt lat="42.99891686725948" lon="10.943954894362356"><ele>105.0</ele><time>2026-04-11T09:04:48.001Z</time></trkpt><trkpt lat="42.998959176906574" lon="10.944061070878533"><ele>105.0</ele><time>2026-04-11T09:04:49.001Z</time></trkpt><trkpt lat="42.99902741832803" lon="10.944245991971856"><ele>105.0</ele><time>2026-04-11T09:04:51.001Z</time></trkpt><trkpt lat="42.999062155442445" lon="10.944346155644435"><ele>106.33333333333333</ele><time>2026-04-11T09:04:52.001Z</time></trkpt><trkpt lat="42.99908593802624" lon="10.944449771241475"><ele>107.66666666666666</ele><time>2026-04-11T09:04:53.001Z</time></trkpt><trkpt lat="42.999110848557976" lon="10.944532372867872"><ele>109.0</ele><time>2026-04-11T09:04:54.001Z</time></trkpt><trkpt lat="42.99915804665009" lon="10.944645875102337"><ele>110.33333333333333</ele><time>2026-04-11T09:04:56.001Z</time></trkpt><trkpt lat="42.99923566040796" lon="10.944760586277146"><ele>111.66666666666666</ele><time>2026-04-11T09:04:58.001Z</time></trkpt><trkpt lat="42.99929888428825" lon="10.944842219283496"><ele>113.0</ele><time>2026-04-11T09:05:00.001Z</time></trkpt><trkpt lat="42.99935395027645" lon="10.944900467352843"><ele>114.16666666666666</ele><time>2026-04-11T09:05:03.001Z</time></trkpt><trkpt lat="42.99940096547184" lon="10.944967313975278"><ele>115.33333333333333</ele><time>2026-04-11T09:05:07.001Z</time></trkpt><trkpt lat="42.999484036671454" lon="10.945013138370854"><ele>116.5</ele><time>2026-04-11T09:05:14.001Z</time></trkpt><trkpt lat="42.99954828791192" lon="10.945105844315007"><ele>117.66666666666666</ele><time>2026-04-11T09:05:56.001Z</time></trkpt><trkpt lat="42.99959434806677" lon="10.945198675115751"><ele>118.83333333333333</ele><time>2026-04-11T09:06:14.001Z</time></trkpt><trkpt lat="42.99955188007681" lon="10.94527370776663"><ele>120.0</ele><time>2026-04-11T09:06:36.001Z</time></trkpt><trkpt lat="42.99955408178405" lon="10.945384806573191"><ele>120.33333333333333</ele><time>2026-04-11T09:06:42.001Z</time></trkpt><trkpt lat="42.99955055068483" lon="10.945491792123807"><ele>120.66666666666666</ele><time>2026-04-11T09:06:45.001Z</time></trkpt><trkpt lat="42.999556279176836" lon="10.945591746465558"><ele>121.0</ele><time>2026-04-11T09:06:47.001Z</time></trkpt><trkpt lat="42.999551912645884" lon="10.945695932685146"><ele>121.33333333333333</ele><time>2026-04-11T09:06:49.001Z</time></trkpt><trkpt lat="42.99954364593697" lon="10.945829487938452"><ele>121.66666666666666</ele><time>2026-04-11T09:06:51.001Z</time></trkpt><trkpt lat="42.99955691449796" lon="10.945928521562967"><ele>122.0</ele><time>2026-04-11T09:06:53.001Z</time></trkpt><trkpt lat="42.99959697824372" lon="10.946030146288726"><ele>122.7142857142857</ele><time>2026-04-11T09:06:56.001Z</time></trkpt><trkpt lat="42.99960052086447" lon="10.946138415389624"><ele>123.42857142857142</ele><time>2026-04-11T09:06:59.001Z</time></trkpt><trkpt lat="42.99961248415838" lon="10.94624467064698"><ele>124.14285714285714</ele><time>2026-04-11T09:07:02.001Z</time></trkpt><trkpt lat="42.99957615935807" lon="10.946351748535532"><ele>124.85714285714285</ele><time>2026-04-11T09:07:04.001Z</time></trkpt><trkpt lat="42.999547467750645" lon="10.946435015968602"><ele>125.57142857142856</ele><time>2026-04-11T09:07:05.001Z</time></trkpt><trkpt lat="42.99953296826164" lon="10.946519537024813"><ele>126.28571428571429</ele><time>2026-04-11T09:07:07.001Z</time></trkpt><trkpt lat="42.999552984921806" lon="10.946602967498654"><ele>127.0</ele><time>2026-04-11T09:07:11.001Z</time></trkpt><trkpt lat="42.99966648147818" lon="10.946637429014554"><ele>127.0</ele><time>2026-04-11T09:07:14.001Z</time></trkpt><trkpt lat="42.99977805539867" lon="10.94668580293546"><ele>126.99999999999999</ele><time>2026-04-11T09:07:16.001Z</time></trkpt><trkpt lat="42.99986187274866" lon="10.946729132251335"><ele>126.99999999999999</ele><time>2026-04-11T09:07:17.001Z</time></trkpt><trkpt lat="42.99994545762119" lon="10.946748095547632"><ele>127.0</ele><time>2026-04-11T09:07:18.001Z</time></trkpt><trkpt lat="43.000046351120346" lon="10.946755703202703"><ele>127.0</ele><time>2026-04-11T09:07:20.001Z</time></trkpt><trkpt lat="43.00010205644372" lon="10.946810473637086"><ele>126.50000000000001</ele><time>2026-04-11T09:07:22.001Z</time></trkpt><trkpt lat="43.00020841032245" lon="10.946872575560763"><ele>126.0</ele><time>2026-04-11T09:07:24.001Z</time></trkpt><trkpt lat="43.00029146686141" lon="10.94691593919223"><ele>125.5</ele><time>2026-04-11T09:07:25.001Z</time></trkpt><trkpt lat="43.000359893914656" lon="10.946946747618572"><ele>125.0</ele><time>2026-04-11T09:07:26.001Z</time></trkpt><trkpt lat="43.00042600340802" lon="10.946966900136035"><ele>124.50000000000001</ele><time>2026-04-11T09:07:27.001Z</time></trkpt><trkpt lat="43.00051375577022" lon="10.946954439700205"><ele>124.0</ele><time>2026-04-11T09:07:29.001Z</time></trkpt><trkpt lat="43.00060228301872" lon="10.946893232674569"><ele>124.00000000000001</ele><time>2026-04-11T09:07:31.001Z</time></trkpt><trkpt lat="43.00067461557297" lon="10.9468662704378"><ele>124.0</ele><time>2026-04-11T09:07:34.001Z</time></trkpt><trkpt lat="43.00074903704739" lon="10.946861229146641"><ele>124.0</ele><time>2026-04-11T09:07:36.001Z</time></trkpt><trkpt lat="43.00082341288655" lon="10.946850210720697"><ele>124.0</ele><time>2026-04-11T09:07:38.001Z</time></trkpt><trkpt lat="43.000902955782024" lon="10.946888223056249"><ele>124.00000000000001</ele><time>2026-04-11T09:07:40.001Z</time></trkpt><trkpt lat="43.000991003813596" lon="10.946966324528141"><ele>124.0</ele><time>2026-04-11T09:07:42.001Z</time></trkpt><trkpt lat="43.00105418927588" lon="10.947034091109646"><ele>125.16666666666667</ele><time>2026-04-11T09:07:44.001Z</time></trkpt><trkpt lat="43.00114295007255" lon="10.947082421674063"><ele>126.33333333333334</ele><time>2026-04-11T09:07:46.001Z</time></trkpt><trkpt lat="43.001213056537395" lon="10.947114906432104"><ele>127.5</ele><time>2026-04-11T09:07:48.001Z</time></trkpt><trkpt lat="43.00129112704224" lon="10.947145356630482"><ele>128.66666666666666</ele><time>2026-04-11T09:07:50.001Z</time></trkpt><trkpt lat="43.00135897942796" lon="10.947108467574324"><ele>129.83333333333331</ele><time>2026-04-11T09:07:52.001Z</time></trkpt><trkpt lat="43.001444031887225" lon="10.947048087555135"><ele>131.0</ele><time>2026-04-11T09:07:55.001Z</time></trkpt><trkpt lat="43.001524607750284" lon="10.947037057209142"><ele>131.0</ele><time>2026-04-11T09:07:57.001Z</time></trkpt><trkpt lat="43.001585257917476" lon="10.947011181445188"><ele>131.0</ele><time>2026-04-11T09:07:58.001Z</time></trkpt><trkpt lat="43.00170992076677" lon="10.946990382791599"><ele>131.0</ele><time>2026-04-11T09:08:00.001Z</time></trkpt><trkpt lat="43.001835691831836" lon="10.94697662122529"><ele>131.0</ele><time>2026-04-11T09:08:02.001Z</time></trkpt><trkpt lat="43.00192248539975" lon="10.947004968602613"><ele>131.0</ele><time>2026-04-11T09:08:03.001Z</time></trkpt><trkpt lat="43.0020202989526" lon="10.947041977070006"><ele>133.8</ele><time>2026-04-11T09:08:04.001Z</time></trkpt><trkpt lat="43.002124407989875" lon="10.947051271626512"><ele>136.6</ele><time>2026-04-11T09:08:05.001Z</time></trkpt><trkpt lat="43.00221407120012" lon="10.947054688641025"><ele>139.4</ele><time>2026-04-11T09:08:06.001Z</time></trkpt><trkpt lat="43.00229419165069" lon="10.947054321953823"><ele>142.2</ele><time>2026-04-11T09:08:07.001Z</time></trkpt><trkpt lat="43.00240720949888" lon="10.947028155304736"><ele>145.0</ele><time>2026-04-11T09:08:09.001Z</time></trkpt><trkpt lat="43.00248879386267" lon="10.947052285128235"><ele>146.2</ele><time>2026-04-11T09:08:11.001Z</time></trkpt><trkpt lat="43.00260072763066" lon="10.947103314439742"><ele>147.4</ele><time>2026-04-11T09:08:13.001Z</time></trkpt><trkpt lat="43.002692430110336" lon="10.947079896680172"><ele>148.6</ele><time>2026-04-11T09:08:15.001Z</time></trkpt><trkpt lat="43.00279513077608" lon="10.9470535030959"><ele>149.8</ele><time>2026-04-11T09:08:16.001Z</time></trkpt><trkpt lat="43.00289134741569" lon="10.947026109266867"><ele>151.0</ele><time>2026-04-11T09:08:17.001Z</time></trkpt><trkpt lat="43.002969586296594" lon="10.946972239366593"><ele>151.0</ele><time>2026-04-11T09:08:18.001Z</time></trkpt><trkpt lat="43.00304273821297" lon="10.946893405585753"><ele>151.0</ele><time>2026-04-11T09:08:19.001Z</time></trkpt><trkpt lat="43.003109102616556" lon="10.946803578753297"><ele>151.0</ele><time>2026-04-11T09:08:20.001Z</time></trkpt><trkpt lat="43.00314879323849" lon="10.9467195438429"><ele>151.0</ele><time>2026-04-11T09:08:21.001Z</time></trkpt><trkpt lat="43.0031807746728" lon="10.946638945365141"><ele>151.0</ele><time>2026-04-11T09:08:22.001Z</time></trkpt><trkpt lat="43.00322387098015" lon="10.946567441884923"><ele>151.0</ele><time>2026-04-11T09:08:24.001Z</time></trkpt><trkpt lat="43.00327716538818" lon="10.946482298740369"><ele>150.83333333333334</ele><time>2026-04-11T09:08:27.001Z</time></trkpt><trkpt lat="43.00330312606571" lon="10.946400118699477"><ele>150.66666666666669</ele><time>2026-04-11T09:08:29.001Z</time></trkpt><trkpt lat="43.00334810934517" lon="10.946313023013182"><ele>150.5</ele><time>2026-04-11T09:08:31.001Z</time></trkpt><trkpt lat="43.003385134052735" lon="10.946223147709299"><ele>150.33333333333334</ele><time>2026-04-11T09:08:33.001Z</time></trkpt><trkpt lat="43.00346506629377" lon="10.946088427666611"><ele>150.16666666666666</ele><time>2026-04-11T09:08:35.001Z</time></trkpt><trkpt lat="43.003519983181036" lon="10.946027365264362"><ele>150.0</ele><time>2026-04-11T09:08:37.001Z</time></trkpt><trkpt lat="43.00356453446446" lon="10.9459347783548"><ele>152.5</ele><time>2026-04-11T09:08:45.001Z</time></trkpt><trkpt lat="43.0035506645154" lon="10.945806679025614"><ele>155.0</ele><time>2026-04-11T09:08:49.001Z</time></trkpt><trkpt lat="43.00352868118705" lon="10.94571486748348"><ele>157.5</ele><time>2026-04-11T09:08:51.001Z</time></trkpt><trkpt lat="43.00353458902839" lon="10.945623739915316"><ele>160.0</ele><time>2026-04-11T09:08:54.001Z</time></trkpt><trkpt lat="43.00352496235298" lon="10.945524478571679"><ele>162.5</ele><time>2026-04-11T09:08:56.001Z</time></trkpt><trkpt lat="43.00354049400046" lon="10.945428763371332"><ele>165.0</ele><time>2026-04-11T09:08:58.001Z</time></trkpt><trkpt lat="43.003555581888946" lon="10.945328413862086"><ele>165.0</ele><time>2026-04-11T09:09:00.001Z</time></trkpt><trkpt lat="43.003558163679145" lon="10.945182852232273"><ele>165.0</ele><time>2026-04-11T09:09:12.001Z</time></trkpt><trkpt lat="43.00362864599043" lon="10.945180176107517"><ele>165.0</ele><time>2026-04-11T09:09:16.001Z</time></trkpt><trkpt lat="43.00369418487776" lon="10.945156160973271"><ele>165.0</ele><time>2026-04-11T09:09:24.001Z</time></trkpt><trkpt lat="43.003760757157956" lon="10.945156847313957"><ele>165.0</ele><time>2026-04-11T09:09:27.001Z</time></trkpt><trkpt lat="43.00382413559671" lon="10.94516574927494"><ele>165.0</ele><time>2026-04-11T09:09:31.001Z</time></trkpt><trkpt lat="43.00390860238925" lon="10.945186196636659"><ele>165.0</ele><time>2026-04-11T09:09:39.001Z</time></trkpt><trkpt lat="43.003978231460955" lon="10.94522129361252"><ele>165.0</ele><time>2026-04-11T09:09:41.001Z</time></trkpt><trkpt lat="43.00406522255014" lon="10.945243084399738"><ele>165.0</ele><time>2026-04-11T09:09:43.001Z</time></trkpt><trkpt lat="43.00418414589447" lon="10.945270885488878"><ele>165.0</ele><time>2026-04-11T09:09:45.001Z</time></trkpt><trkpt lat="43.00428192558845" lon="10.94522278273255"><ele>165.0</ele><time>2026-04-11T09:09:47.001Z</time></trkpt><trkpt lat="43.00437671208035" lon="10.945229433801902"><ele>167.2</ele><time>2026-04-11T09:09:49.001Z</time></trkpt><trkpt lat="43.00447767453091" lon="10.945216148498414"><ele>169.4</ele><time>2026-04-11T09:09:51.001Z</time></trkpt><trkpt lat="43.00457236615459" lon="10.94517354624543"><ele>171.60000000000002</ele><time>2026-04-11T09:09:53.001Z</time></trkpt><trkpt lat="43.00467830094001" lon="10.94514036222028"><ele>173.8</ele><time>2026-04-11T09:09:55.001Z</time></trkpt><trkpt lat="43.004757473129196" lon="10.945072202160762"><ele>176.0</ele><time>2026-04-11T09:09:57.001Z</time></trkpt><trkpt lat="43.00484913926777" lon="10.944990076515568"><ele>178.0</ele><time>2026-04-11T09:09:59.001Z</time></trkpt><trkpt lat="43.004907568540865" lon="10.944938305440916"><ele>180.0</ele><time>2026-04-11T09:10:00.001Z</time></trkpt><trkpt lat="43.004963963584345" lon="10.944887635326939"><ele>182.0</ele><time>2026-04-11T09:10:01.001Z</time></trkpt><trkpt lat="43.00501851483603" lon="10.944840702627072"><ele>184.0</ele><time>2026-04-11T09:10:02.001Z</time></trkpt><trkpt lat="43.00512302722413" lon="10.944745343007622"><ele>186.0</ele><time>2026-04-11T09:10:04.001Z</time></trkpt><trkpt lat="43.00518965035221" lon="10.944654441433489"><ele>188.0</ele><time>2026-04-11T09:10:06.001Z</time></trkpt><trkpt lat="43.00526414888828" lon="10.944536917472378"><ele>187.83333333333331</ele><time>2026-04-11T09:10:08Z</time></trkpt><trkpt lat="43.00534826586418" lon="10.944427872887017"><ele>187.66666666666666</ele><time>2026-04-11T09:10:10Z</time></trkpt><trkpt lat="43.00540315370855" lon="10.944370815311386"><ele>187.5</ele><time>2026-04-11T09:10:11Z</time></trkpt><trkpt lat="43.005460158778746" lon="10.944305977660656"><ele>187.33333333333334</ele><time>2026-04-11T09:10:12Z</time></trkpt><trkpt lat="43.00552055244421" lon="10.94424383812776"><ele>187.16666666666669</ele><time>2026-04-11T09:10:13Z</time></trkpt><trkpt lat="43.00557851390141" lon="10.944187382370984"><ele>187.0</ele><time>2026-04-11T09:10:14Z</time></trkpt><trkpt lat="43.005688861119815" lon="10.944127749221346"><ele>187.0</ele><time>2026-04-11T09:10:16Z</time></trkpt><trkpt lat="43.00576461069709" lon="10.944143097873582"><ele>187.0</ele><time>2026-04-11T09:10:18Z</time></trkpt><trkpt lat="43.005844417395316" lon="10.944174144197502"><ele>187.0</ele><time>2026-04-11T09:10:20Z</time></trkpt><trkpt lat="43.00592216674063" lon="10.944190042740612"><ele>187.0</ele><time>2026-04-11T09:10:22Z</time></trkpt><trkpt lat="43.00598812832872" lon="10.944201632053646"><ele>187.0</ele><time>2026-04-11T09:10:26Z</time></trkpt><trkpt lat="43.00608476337511" lon="10.944242233136622"><ele>187.0</ele><time>2026-04-11T09:10:28Z</time></trkpt><trkpt lat="43.006149904963074" lon="10.944259192968843"><ele>189.0</ele><time>2026-04-11T09:10:29Z</time></trkpt><trkpt lat="43.00622647804942" lon="10.944282518415918"><ele>191.0</ele><time>2026-04-11T09:10:30Z</time></trkpt><trkpt lat="43.006300819315314" lon="10.944311113115408"><ele>193.0</ele><time>2026-04-11T09:10:31Z</time></trkpt><trkpt lat="43.006411316559316" lon="10.944344237234267"><ele>195.0</ele><time>2026-04-11T09:10:33Z</time></trkpt><trkpt lat="43.006483426655706" lon="10.944379563408333"><ele>196.99999999999997</ele><time>2026-04-11T09:10:35Z</time></trkpt><trkpt lat="43.006548771801384" lon="10.944444713502604"><ele>199.0</ele><time>2026-04-11T09:10:37Z</time></trkpt><trkpt lat="43.00663077486586" lon="10.944506615089674"><ele>197.0</ele><time>2026-04-11T09:10:39Z</time></trkpt><trkpt lat="43.00671373327428" lon="10.944494555422377"><ele>195.0</ele><time>2026-04-11T09:10:41Z</time></trkpt><trkpt lat="43.00681049653296" lon="10.94451165463323"><ele>193.0</ele><time>2026-04-11T09:10:43Z</time></trkpt><trkpt lat="43.00693303431944" lon="10.944501830209427"><ele>191.0</ele><time>2026-04-11T09:10:45Z</time></trkpt><trkpt lat="43.00706166393819" lon="10.94451043629365"><ele>189.0</ele><time>2026-04-11T09:10:47Z</time></trkpt><trkpt lat="43.00712783773731" lon="10.944520890415113"><ele>189.0</ele><time>2026-04-11T09:10:48Z</time></trkpt><trkpt lat="43.00723751725767" lon="10.9445848357538"><ele>189.0</ele><time>2026-04-11T09:10:50Z</time></trkpt><trkpt lat="43.00731900234058" lon="10.9446707031194"><ele>189.0</ele><time>2026-04-11T09:10:52Z</time></trkpt><trkpt lat="43.00737225736083" lon="10.94472640488544"><ele>189.0</ele><time>2026-04-11T09:10:53Z</time></trkpt><trkpt lat="43.007430104343115" lon="10.94477470147086"><ele>189.0</ele><time>2026-04-11T09:10:54Z</time></trkpt><trkpt lat="43.00748599839966" lon="10.94482137348357"><ele>189.0</ele><time>2026-04-11T09:10:55Z</time></trkpt><trkpt lat="43.007588833118334" lon="10.944896393601725"><ele>188.66666666666666</ele><time>2026-04-11T09:10:57Z</time></trkpt><trkpt lat="43.007669406242414" lon="10.94493607547094"><ele>188.33333333333334</ele><time>2026-04-11T09:10:59Z</time></trkpt><trkpt lat="43.00777071077048" lon="10.944952009124865"><ele>188.0</ele><time>2026-04-11T09:11:02Z</time></trkpt><trkpt lat="43.00783354332969" lon="10.94498352826284"><ele>187.66666666666669</ele><time>2026-04-11T09:11:04Z</time></trkpt><trkpt lat="43.00790574413066" lon="10.945053526523337"><ele>187.33333333333334</ele><time>2026-04-11T09:11:06Z</time></trkpt><trkpt lat="43.0079853815874" lon="10.945115070080966"><ele>187.0</ele><time>2026-04-11T09:11:08Z</time></trkpt><trkpt lat="43.008053512890996" lon="10.945157820054082"><ele>185.16666666666669</ele><time>2026-04-11T09:11:10Z</time></trkpt><trkpt lat="43.00813435924887" lon="10.94519635278215"><ele>183.33333333333334</ele><time>2026-04-11T09:11:12Z</time></trkpt><trkpt lat="43.00820822374084" lon="10.945251082045392"><ele>181.5</ele><time>2026-04-11T09:11:14Z</time></trkpt><trkpt lat="43.00828424157392" lon="10.945278920968613"><ele>179.66666666666666</ele><time>2026-04-11T09:11:17Z</time></trkpt><trkpt lat="43.008349183523286" lon="10.94527758335859"><ele>177.83333333333331</ele><time>2026-04-11T09:11:24Z</time></trkpt><trkpt lat="43.00844932875255" lon="10.945279540494544"><ele>176.0</ele><time>2026-04-11T09:11:38Z</time></trkpt><trkpt lat="43.008591555416636" lon="10.945346053137769"><ele>180.16666666666666</ele><time>2026-04-11T09:12:14Z</time></trkpt><trkpt lat="43.00866757957472" lon="10.945391465512712"><ele>184.33333333333331</ele><time>2026-04-11T09:12:24Z</time></trkpt><trkpt lat="43.00873246796118" lon="10.945363406586921"><ele>188.5</ele><time>2026-04-11T09:12:27Z</time></trkpt><trkpt lat="43.00879849396337" lon="10.945338591274439"><ele>192.66666666666666</ele><time>2026-04-11T09:12:30Z</time></trkpt><trkpt lat="43.0088781496378" lon="10.945312853408783"><ele>196.83333333333334</ele><time>2026-04-11T09:12:43Z</time></trkpt><trkpt lat="43.00893314636726" lon="10.945362074691731"><ele>201.0</ele><time>2026-04-11T09:14:43.001Z</time></trkpt><trkpt lat="43.008930724751025" lon="10.9454839418818"><ele>201.0</ele><time>2026-04-11T09:15:41.001Z</time></trkpt><trkpt lat="43.00887579387198" lon="10.945421044146746"><ele>201.0</ele><time>2026-04-11T09:16:02.001Z</time></trkpt><trkpt lat="43.00895506845889" lon="10.945367092320978"><ele>201.0</ele><time>2026-04-11T09:16:29.001Z</time></trkpt><trkpt lat="43.00902822103379" lon="10.945376280715344"><ele>201.0</ele><time>2026-04-11T09:16:33.001Z</time></trkpt><trkpt lat="43.009099068053644" lon="10.945392692246417"><ele>201.0</ele><time>2026-04-11T09:16:37.001Z</time></trkpt><trkpt lat="43.00917074047734" lon="10.945366226640392"><ele>201.0</ele><time>2026-04-11T09:16:39.001Z</time></trkpt><trkpt lat="43.00921022563237" lon="10.94529490307526"><ele>201.0</ele><time>2026-04-11T09:16:40.001Z</time></trkpt><trkpt lat="43.009292770017176" lon="10.945242998779154"><ele>203.4</ele><time>2026-04-11T09:16:42.001Z</time></trkpt><trkpt lat="43.00938950856355" lon="10.945230225416017"><ele>205.8</ele><time>2026-04-11T09:16:44.001Z</time></trkpt><trkpt lat="43.00951661664705" lon="10.945175970044602"><ele>208.20000000000002</ele><time>2026-04-11T09:16:46.001Z</time></trkpt><trkpt lat="43.009589402634944" lon="10.945142445756122"><ele>210.60000000000002</ele><time>2026-04-11T09:16:47.001Z</time></trkpt><trkpt lat="43.009650548036134" lon="10.945121045140668"><ele>213.0</ele><time>2026-04-11T09:16:48.001Z</time></trkpt><trkpt lat="43.00974887620496" lon="10.945120201165365"><ele>213.0</ele><time>2026-04-11T09:16:50.001Z</time></trkpt><trkpt lat="43.00981478318017" lon="10.945059368024591"><ele>213.0</ele><time>2026-04-11T09:16:52.001Z</time></trkpt><trkpt lat="43.009881875355376" lon="10.945035947495056"><ele>213.0</ele><time>2026-04-11T09:16:54.001Z</time></trkpt><trkpt lat="43.009971226597486" lon="10.945036603675012"><ele>213.0</ele><time>2026-04-11T09:16:56.001Z</time></trkpt><trkpt lat="43.01006564241171" lon="10.945008949830024"><ele>213.0</ele><time>2026-04-11T09:16:58.001Z</time></trkpt><trkpt lat="43.01013839424887" lon="10.944989086595397"><ele>213.0</ele><time>2026-04-11T09:17:00.001Z</time></trkpt><trkpt lat="43.010222327527494" lon="10.94500192009392"><ele>213.5</ele><time>2026-04-11T09:17:02.001Z</time></trkpt><trkpt lat="43.01029833409155" lon="10.944969423694474"><ele>214.0</ele><time>2026-04-11T09:17:04.001Z</time></trkpt><trkpt lat="43.01039481312334" lon="10.944994877440934"><ele>214.5</ele><time>2026-04-11T09:17:07.001Z</time></trkpt><trkpt lat="43.01045519515929" lon="10.945020324004247"><ele>215.0</ele><time>2026-04-11T09:17:09.001Z</time></trkpt><trkpt lat="43.0105261538386" lon="10.945052945049465"><ele>215.5</ele><time>2026-04-11T09:17:11.001Z</time></trkpt><trkpt lat="43.01059964124019" lon="10.945109749714788"><ele>216.0</ele><time>2026-04-11T09:17:14Z</time></trkpt><trkpt lat="43.01065536786846" lon="10.945185246469496"><ele>216.0</ele><time>2026-04-11T09:17:16Z</time></trkpt><trkpt lat="43.01070887024614" lon="10.945235340217112"><ele>216.0</ele><time>2026-04-11T09:17:18Z</time></trkpt><trkpt lat="43.01076415814409" lon="10.945287406622967"><ele>216.0</ele><time>2026-04-11T09:17:24Z</time></trkpt><trkpt lat="43.010866212702034" lon="10.945280320817409"><ele>216.0</ele><time>2026-04-11T09:17:36Z</time></trkpt><trkpt lat="43.01092677337317" lon="10.9453140371483"><ele>216.0</ele><time>2026-04-11T09:17:39Z</time></trkpt><trkpt lat="43.011016753411944" lon="10.945289905319529"><ele>216.0</ele><time>2026-04-11T09:18:06Z</time></trkpt><trkpt lat="43.011073746936965" lon="10.945342380093138"><ele>218.66666666666666</ele><time>2026-04-11T09:18:11Z</time></trkpt><trkpt lat="43.01114318693586" lon="10.945309484273823"><ele>221.33333333333331</ele><time>2026-04-11T09:18:25Z</time></trkpt><trkpt lat="43.011221150814656" lon="10.945340910624669"><ele>224.0</ele><time>2026-04-11T09:18:29Z</time></trkpt><trkpt lat="43.01129744367091" lon="10.945338551490401"><ele>226.66666666666666</ele><time>2026-04-11T09:18:32Z</time></trkpt><trkpt lat="43.01136678744541" lon="10.94533434067149"><ele>229.33333333333331</ele><time>2026-04-11T09:18:35Z</time></trkpt><trkpt lat="43.011446532027065" lon="10.945336684208096"><ele>232.0</ele><time>2026-04-11T09:18:39Z</time></trkpt><trkpt lat="43.011512926854245" lon="10.945293772619973"><ele>231.99999999999997</ele><time>2026-04-11T09:18:42Z</time></trkpt><trkpt lat="43.01158880642972" lon="10.945273921518176"><ele>232.0</ele><time>2026-04-11T09:18:44Z</time></trkpt><trkpt lat="43.011671251883506" lon="10.945243104577946"><ele>232.0</ele><time>2026-04-11T09:18:46Z</time></trkpt><trkpt lat="43.01175504213862" lon="10.945197103572104"><ele>232.0</ele><time>2026-04-11T09:18:48Z</time></trkpt><trkpt lat="43.01182535925813" lon="10.945200266431671"><ele>231.99999999999997</ele><time>2026-04-11T09:18:51Z</time></trkpt><trkpt lat="43.011913074125985" lon="10.945187358440116"><ele>232.0</ele><time>2026-04-11T09:18:54Z</time></trkpt><trkpt lat="43.01198397442854" lon="10.945170002191194"><ele>233.16666666666666</ele><time>2026-04-11T09:18:56Z</time></trkpt><trkpt lat="43.01205502659437" lon="10.945122414691687"><ele>234.33333333333331</ele><time>2026-04-11T09:18:59Z</time></trkpt><trkpt lat="43.01213790309112" lon="10.94509133210986"><ele>235.5</ele><time>2026-04-11T09:19:02Z</time></trkpt><trkpt lat="43.01220765845896" lon="10.945048838204595"><ele>236.66666666666669</ele><time>2026-04-11T09:19:06Z</time></trkpt><trkpt lat="43.012288431379446" lon="10.945020008596813"><ele>237.83333333333334</ele><time>2026-04-11T09:19:09Z</time></trkpt><trkpt lat="43.012339226684595" lon="10.944964546788496"><ele>239.0</ele><time>2026-04-11T09:19:12Z</time></trkpt><trkpt lat="43.012394365725186" lon="10.94488708610925"><ele>240.66666666666669</ele><time>2026-04-11T09:19:15Z</time></trkpt><trkpt lat="43.01243758699266" lon="10.94480655944733"><ele>242.33333333333334</ele><time>2026-04-11T09:19:18Z</time></trkpt><trkpt lat="43.01247926908577" lon="10.944726175659117"><ele>244.0</ele><time>2026-04-11T09:19:21Z</time></trkpt><trkpt lat="43.01252944537271" lon="10.944668918066593"><ele>245.66666666666669</ele><time>2026-04-11T09:19:23Z</time></trkpt><trkpt lat="43.01260520503074" lon="10.944599000605372"><ele>247.33333333333334</ele><time>2026-04-11T09:19:26Z</time></trkpt><trkpt lat="43.012678194432816" lon="10.944552175026113"><ele>249.0</ele><time>2026-04-11T09:19:29Z</time></trkpt><trkpt lat="43.012731422207054" lon="10.944479095951479"><ele>250.85714285714283</ele><time>2026-04-11T09:19:32Z</time></trkpt><trkpt lat="43.012783483137824" lon="10.944429316795521"><ele>252.7142857142857</ele><time>2026-04-11T09:19:34Z</time></trkpt><trkpt lat="43.01287326609957" lon="10.944392708179208"><ele>254.57142857142856</ele><time>2026-04-11T09:19:37Z</time></trkpt><trkpt lat="43.01293189315035" lon="10.94434526720633"><ele>256.42857142857144</ele><time>2026-04-11T09:19:39Z</time></trkpt><trkpt lat="43.0129723058698" lon="10.944275823351179"><ele>258.28571428571433</ele><time>2026-04-11T09:19:41Z</time></trkpt><trkpt lat="43.01301935694383" lon="10.944213885843556"><ele>260.14285714285717</ele><time>2026-04-11T09:19:43Z</time></trkpt><trkpt lat="43.01308742239434" lon="10.944135920146342"><ele>262.0</ele><time>2026-04-11T09:19:45Z</time></trkpt><trkpt lat="43.013151402138305" lon="10.944084279224418"><ele>262.16666666666663</ele><time>2026-04-11T09:19:47Z</time></trkpt><trkpt lat="43.01321444297311" lon="10.944035588332863"><ele>262.3333333333333</ele><time>2026-04-11T09:19:49Z</time></trkpt><trkpt lat="43.013279918227184" lon="10.943992475825938"><ele>262.5</ele><time>2026-04-11T09:19:51Z</time></trkpt><trkpt lat="43.01334351617498" lon="10.943924694922105"><ele>262.6666666666667</ele><time>2026-04-11T09:19:53Z</time></trkpt><trkpt lat="43.01339725166916" lon="10.94385700883485"><ele>262.83333333333337</ele><time>2026-04-11T09:19:55Z</time></trkpt><trkpt lat="43.01346122637957" lon="10.943785288795404"><ele>263.0</ele><time>2026-04-11T09:19:57Z</time></trkpt><trkpt lat="43.01353322109411" lon="10.943705950153552"><ele>265.2</ele><time>2026-04-11T09:19:59Z</time></trkpt><trkpt lat="43.01360519465468" lon="10.943610626259844"><ele>267.4</ele><time>2026-04-11T09:20:01Z</time></trkpt><trkpt lat="43.01367482774565" lon="10.943530764160913"><ele>269.59999999999997</ele><time>2026-04-11T09:20:03Z</time></trkpt><trkpt lat="43.01375739568103" lon="10.943419322877782"><ele>271.8</ele><time>2026-04-11T09:20:05Z</time></trkpt><trkpt lat="43.01380378328896" lon="10.943360244787767"><ele>274.0</ele><time>2026-04-11T09:20:06Z</time></trkpt><trkpt lat="43.013891319585845" lon="10.943252002005105"><ele>274.5</ele><time>2026-04-11T09:20:08Z</time></trkpt><trkpt lat="43.01394891813359" lon="10.943203995258648"><ele>275.0</ele><time>2026-04-11T09:20:09Z</time></trkpt><trkpt lat="43.01400755838797" lon="10.943167448460146"><ele>275.5</ele><time>2026-04-11T09:20:10Z</time></trkpt><trkpt lat="43.0141103068184" lon="10.943059216726056"><ele>276.0</ele><time>2026-04-11T09:20:12Z</time></trkpt><trkpt lat="43.01416447533344" lon="10.94301245808139"><ele>276.5</ele><time>2026-04-11T09:20:13Z</time></trkpt><trkpt lat="43.01422884466181" lon="10.942981614914348"><ele>277.0</ele><time>2026-04-11T09:20:14Z</time></trkpt><trkpt lat="43.0143059151258" lon="10.942946176307098"><ele>278.66666666666663</ele><time>2026-04-11T09:20:15Z</time></trkpt><trkpt lat="43.01437425342014" lon="10.942908052867848"><ele>280.3333333333333</ele><time>2026-04-11T09:20:16Z</time></trkpt><trkpt lat="43.014436724024975" lon="10.94289217780677"><ele>282.0</ele><time>2026-04-11T09:20:17Z</time></trkpt><trkpt lat="43.01450528805671" lon="10.942902112363305"><ele>283.6666666666667</ele><time>2026-04-11T09:20:18Z</time></trkpt><trkpt lat="43.01458694441746" lon="10.942918429442678"><ele>285.33333333333337</ele><time>2026-04-11T09:20:19Z</time></trkpt><trkpt lat="43.01466643511573" lon="10.942937306479285"><ele>287.0</ele><time>2026-04-11T09:20:20Z</time></trkpt><trkpt lat="43.01474828011456" lon="10.942968146101258"><ele>287.0</ele><time>2026-04-11T09:20:21Z</time></trkpt><trkpt lat="43.01484970625161" lon="10.94299048167514"><ele>287.0</ele><time>2026-04-11T09:20:22Z</time></trkpt><trkpt lat="43.01493981114452" lon="10.942997768127489"><ele>287.0</ele><time>2026-04-11T09:20:23Z</time></trkpt><trkpt lat="43.01501427765822" lon="10.942989860706225"><ele>287.0</ele><time>2026-04-11T09:20:24Z</time></trkpt><trkpt lat="43.01508416667603" lon="10.9429914015648"><ele>287.0</ele><time>2026-04-11T09:20:25Z</time></trkpt><trkpt lat="43.01517100633683" lon="10.943006997951095"><ele>287.0</ele><time>2026-04-11T09:20:26Z</time></trkpt><trkpt lat="43.01525475844826" lon="10.943054296206654"><ele>286.83333333333337</ele><time>2026-04-11T09:20:27Z</time></trkpt><trkpt lat="43.015320127191075" lon="10.943092183652105"><ele>286.6666666666667</ele><time>2026-04-11T09:20:28Z</time></trkpt><trkpt lat="43.01538939246084" lon="10.943096801042536"><ele>286.5</ele><time>2026-04-11T09:20:29Z</time></trkpt><trkpt lat="43.015465266612814" lon="10.94310989379185"><ele>286.3333333333333</ele><time>2026-04-11T09:20:30Z</time></trkpt><trkpt lat="43.0155524415781" lon="10.94311181502058"><ele>286.16666666666663</ele><time>2026-04-11T09:20:31Z</time></trkpt><trkpt lat="43.015620448669836" lon="10.94311987264657"><ele>286.0</ele><time>2026-04-11T09:20:32Z</time></trkpt><trkpt lat="43.01569548391821" lon="10.943157820743826"><ele>286.0</ele><time>2026-04-11T09:20:33Z</time></trkpt><trkpt lat="43.01577243720126" lon="10.943200941188772"><ele>286.0</ele><time>2026-04-11T09:20:34Z</time></trkpt><trkpt lat="43.01584261913273" lon="10.943233766207602"><ele>286.0</ele><time>2026-04-11T09:20:35Z</time></trkpt><trkpt lat="43.015923921089716" lon="10.94326459138478"><ele>286.0</ele><time>2026-04-11T09:20:36Z</time></trkpt><trkpt lat="43.01604542971007" lon="10.943313528580386"><ele>286.0</ele><time>2026-04-11T09:20:38Z</time></trkpt><trkpt lat="43.01616922948155" lon="10.943355019287843"><ele>284.66666666666663</ele><time>2026-04-11T09:20:40Z</time></trkpt><trkpt lat="43.01623776023939" lon="10.943376883618615"><ele>283.3333333333333</ele><time>2026-04-11T09:20:41Z</time></trkpt><trkpt lat="43.0163622510817" lon="10.943402380642715"><ele>282.0</ele><time>2026-04-11T09:20:43Z</time></trkpt><trkpt lat="43.01644972955175" lon="10.94340894578402"><ele>280.6666666666667</ele><time>2026-04-11T09:20:44Z</time></trkpt><trkpt lat="43.016540192616944" lon="10.943418557595795"><ele>279.33333333333337</ele><time>2026-04-11T09:20:45Z</time></trkpt><trkpt lat="43.01661314171656" lon="10.943425743991238"><ele>278.0</ele><time>2026-04-11T09:20:46Z</time></trkpt><trkpt lat="43.01669027643603" lon="10.94343785169672"><ele>275.6666666666667</ele><time>2026-04-11T09:20:48Z</time></trkpt><trkpt lat="43.016753262576046" lon="10.9435524477648"><ele>273.33333333333337</ele><time>2026-04-11T09:20:51Z</time></trkpt><trkpt lat="43.016807850906204" lon="10.943633634554985"><ele>271.0</ele><time>2026-04-11T09:20:53Z</time></trkpt><trkpt lat="43.01685131054711" lon="10.943727340564005"><ele>268.6666666666667</ele><time>2026-04-11T09:20:55Z</time></trkpt><trkpt lat="43.016886367129615" lon="10.943815771205042"><ele>266.3333333333333</ele><time>2026-04-11T09:20:57Z</time></trkpt><trkpt lat="43.01694334670678" lon="10.94388310522287"><ele>264.0</ele><time>2026-04-11T09:21:00Z</time></trkpt><trkpt lat="43.01701492173516" lon="10.943956204422411"><ele>264.0</ele><time>2026-04-11T09:21:03Z</time></trkpt><trkpt lat="43.0171068115464" lon="10.943982346471515"><ele>264.0</ele><time>2026-04-11T09:21:05Z</time></trkpt><trkpt lat="43.017182093227056" lon="10.944001234989482"><ele>264.0</ele><time>2026-04-11T09:21:06Z</time></trkpt><trkpt lat="43.01725022267131" lon="10.94403372268471"><ele>264.0</ele><time>2026-04-11T09:21:07Z</time></trkpt><trkpt lat="43.017314002307096" lon="10.944059460536861"><ele>264.0</ele><time>2026-04-11T09:21:08Z</time></trkpt><trkpt lat="43.01738039904883" lon="10.944087054507255"><ele>264.0</ele><time>2026-04-11T09:21:09Z</time></trkpt><trkpt lat="43.01745923403964" lon="10.94409773734828"><ele>264.0</ele><time>2026-04-11T09:21:10Z</time></trkpt><trkpt lat="43.017600514579456" lon="10.944092757473195"><ele>264.0</ele><time>2026-04-11T09:21:12Z</time></trkpt><trkpt lat="43.01767922184595" lon="10.94406460181998"><ele>264.0</ele><time>2026-04-11T09:21:13Z</time></trkpt><trkpt lat="43.017753508225375" lon="10.94403351662745"><ele>264.0</ele><time>2026-04-11T09:21:14Z</time></trkpt><trkpt lat="43.01782100246619" lon="10.943974514621726"><ele>264.0</ele><time>2026-04-11T09:21:16Z</time></trkpt><trkpt lat="43.01787025597357" lon="10.943897088619948"><ele>264.0</ele><time>2026-04-11T09:21:19Z</time></trkpt><trkpt lat="43.017955914551706" lon="10.9438408405995"><ele>264.0</ele><time>2026-04-11T09:21:21Z</time></trkpt><trkpt lat="43.018012347903955" lon="10.943797518045002"><ele>264.0</ele><time>2026-04-11T09:21:23Z</time></trkpt><trkpt lat="43.0180842759006" lon="10.943753478405034"><ele>264.0</ele><time>2026-04-11T09:21:31Z</time></trkpt><trkpt lat="43.01817450970064" lon="10.94374408939089"><ele>264.0</ele><time>2026-04-11T09:21:33Z</time></trkpt><trkpt lat="43.01827422311793" lon="10.943725600691966"><ele>264.0</ele><time>2026-04-11T09:21:35Z</time></trkpt><trkpt lat="43.01837133971187" lon="10.943731270982237"><ele>265.59999999999997</ele><time>2026-04-11T09:21:37Z</time></trkpt><trkpt lat="43.018482436990574" lon="10.943747519240912"><ele>267.2</ele><time>2026-04-11T09:21:39Z</time></trkpt><trkpt lat="43.0186093839732" lon="10.943700143260354"><ele>268.79999999999995</ele><time>2026-04-11T09:21:41Z</time></trkpt><trkpt lat="43.01870228446808" lon="10.943676046385292"><ele>270.4</ele><time>2026-04-11T09:21:43Z</time></trkpt><trkpt lat="43.01877238187851" lon="10.943677580791553"><ele>272.0</ele><time>2026-04-11T09:21:45Z</time></trkpt><trkpt lat="43.01883523507415" lon="10.943689548424116"><ele>272.0</ele><time>2026-04-11T09:22:00Z</time></trkpt><trkpt lat="43.0189028060706" lon="10.943723816450406"><ele>272.0</ele><time>2026-04-11T09:22:08Z</time></trkpt><trkpt lat="43.018954352149734" lon="10.943774725408494"><ele>272.0</ele><time>2026-04-11T09:22:22Z</time></trkpt><trkpt lat="43.01906946905623" lon="10.94377191575456"><ele>272.0</ele><time>2026-04-11T09:22:48Z</time></trkpt><trkpt lat="43.01914977452658" lon="10.943838055135577"><ele>272.0</ele><time>2026-04-11T09:22:52Z</time></trkpt><trkpt lat="43.01923121863564" lon="10.943907291215588"><ele>272.0</ele><time>2026-04-11T09:22:54Z</time></trkpt><trkpt lat="43.0192924840913" lon="10.943947525845212"><ele>273.6</ele><time>2026-04-11T09:22:55Z</time></trkpt><trkpt lat="43.019370382461645" lon="10.94399663074054"><ele>275.2</ele><time>2026-04-11T09:22:56Z</time></trkpt><trkpt lat="43.019438821980124" lon="10.94403394363452"><ele>276.8</ele><time>2026-04-11T09:22:57Z</time></trkpt><trkpt lat="43.019515132269866" lon="10.944051704420833"><ele>278.4</ele><time>2026-04-11T09:22:58Z</time></trkpt><trkpt lat="43.019641356659676" lon="10.944053570344044"><ele>280.0</ele><time>2026-04-11T09:23:00Z</time></trkpt><trkpt lat="43.0197298509255" lon="10.943944879592339"><ele>280.0</ele><time>2026-04-11T09:23:02Z</time></trkpt><trkpt lat="43.01982223011317" lon="10.943853041157752"><ele>280.0</ele><time>2026-04-11T09:23:04Z</time></trkpt><trkpt lat="43.01991468363489" lon="10.943793537217811"><ele>280.0</ele><time>2026-04-11T09:23:06Z</time></trkpt><trkpt lat="43.01997504308227" lon="10.943749247310377"><ele>280.0</ele><time>2026-04-11T09:23:07Z</time></trkpt><trkpt lat="43.02007941056402" lon="10.943690095215267"><ele>280.0</ele><time>2026-04-11T09:23:09Z</time></trkpt><trkpt lat="43.02017558616905" lon="10.94359480339579"><ele>280.8333333333333</ele><time>2026-04-11T09:23:11Z</time></trkpt><trkpt lat="43.02022853812026" lon="10.94351615951583"><ele>281.66666666666663</ele><time>2026-04-11T09:23:12Z</time></trkpt><trkpt lat="43.02026841234893" lon="10.943442195263696"><ele>282.5</ele><time>2026-04-11T09:23:13Z</time></trkpt><trkpt lat="43.02030305078843" lon="10.94336768684861"><ele>283.3333333333333</ele><time>2026-04-11T09:23:14Z</time></trkpt><trkpt lat="43.0203702320457" lon="10.943239775009166"><ele>284.1666666666667</ele><time>2026-04-11T09:23:16Z</time></trkpt><trkpt lat="43.02045599238412" lon="10.943185642541899"><ele>285.0</ele><time>2026-04-11T09:23:18Z</time></trkpt><trkpt lat="43.02051210849638" lon="10.943135967616206"><ele>285.0</ele><time>2026-04-11T09:23:20Z</time></trkpt><trkpt lat="43.02057723830636" lon="10.94310142494699"><ele>285.0</ele><time>2026-04-11T09:23:22Z</time></trkpt><trkpt lat="43.02069169393411" lon="10.943094478885927"><ele>285.0</ele><time>2026-04-11T09:23:24Z</time></trkpt><trkpt lat="43.0208180872945" lon="10.943091615858295"><ele>285.0</ele><time>2026-04-11T09:23:26Z</time></trkpt><trkpt lat="43.02090349762665" lon="10.943078316623916"><ele>285.0</ele><time>2026-04-11T09:23:27Z</time></trkpt><trkpt lat="43.02099460876889" lon="10.94307328265653"><ele>283.6666666666667</ele><time>2026-04-11T09:23:28Z</time></trkpt><trkpt lat="43.0210849687826" lon="10.943050983638065"><ele>282.3333333333333</ele><time>2026-04-11T09:23:29Z</time></trkpt><trkpt lat="43.021179019028565" lon="10.943004251493646"><ele>281.0</ele><time>2026-04-11T09:23:30Z</time></trkpt><trkpt lat="43.02125200183418" lon="10.94296617807448"><ele>279.66666666666663</ele><time>2026-04-11T09:23:31Z</time></trkpt><trkpt lat="43.02131959191091" lon="10.942900371027639"><ele>278.3333333333333</ele><time>2026-04-11T09:23:32Z</time></trkpt><trkpt lat="43.02137330296313" lon="10.942839337885"><ele>277.0</ele><time>2026-04-11T09:23:33Z</time></trkpt><trkpt lat="43.02144963155244" lon="10.942801428140667"><ele>277.0</ele><time>2026-04-11T09:23:35Z</time></trkpt><trkpt lat="43.02154697680296" lon="10.942789566711197"><ele>277.0</ele><time>2026-04-11T09:23:37Z</time></trkpt><trkpt lat="43.02161325194704" lon="10.94278430685427"><ele>277.0</ele><time>2026-04-11T09:23:38Z</time></trkpt><trkpt lat="43.021736568160875" lon="10.942731554560861"><ele>277.0</ele><time>2026-04-11T09:23:40Z</time></trkpt><trkpt lat="43.02181177650713" lon="10.942678061763461"><ele>277.0</ele><time>2026-04-11T09:23:41Z</time></trkpt><trkpt lat="43.02188448046609" lon="10.942639870480253"><ele>277.0</ele><time>2026-04-11T09:23:42Z</time></trkpt><trkpt lat="43.02195951182619" lon="10.942608761433107"><ele>277.0</ele><time>2026-04-11T09:23:43Z</time></trkpt><trkpt lat="43.0220280690404" lon="10.942585139614103"><ele>277.0</ele><time>2026-04-11T09:23:44Z</time></trkpt><trkpt lat="43.02210072389665" lon="10.942549588755545"><ele>277.0</ele><time>2026-04-11T09:23:45Z</time></trkpt><trkpt lat="43.022189729936954" lon="10.942497598311528"><ele>277.0</ele><time>2026-04-11T09:23:46Z</time></trkpt><trkpt lat="43.02227017816347" lon="10.942422017276803"><ele>277.0</ele><time>2026-04-11T09:23:47Z</time></trkpt><trkpt lat="43.022351912196484" lon="10.94235778836549"><ele>277.5</ele><time>2026-04-11T09:23:48Z</time></trkpt><trkpt lat="43.02241367148908" lon="10.942315419644729"><ele>278.0</ele><time>2026-04-11T09:23:49Z</time></trkpt><trkpt lat="43.0224975807137" lon="10.942235610302422"><ele>278.5</ele><time>2026-04-11T09:23:51Z</time></trkpt><trkpt lat="43.022559187031526" lon="10.94218659576224"><ele>279.0</ele><time>2026-04-11T09:23:52Z</time></trkpt><trkpt lat="43.02262208247725" lon="10.942127445315638"><ele>279.5</ele><time>2026-04-11T09:23:53Z</time></trkpt><trkpt lat="43.02269173473241" lon="10.942064372339232"><ele>280.0</ele><time>2026-04-11T09:23:54Z</time></trkpt><trkpt lat="43.02275074467371" lon="10.942005015360676"><ele>279.8</ele><time>2026-04-11T09:23:55Z</time></trkpt><trkpt lat="43.02283280225662" lon="10.941928482635602"><ele>279.6</ele><time>2026-04-11T09:23:56Z</time></trkpt><trkpt lat="43.02288819602573" lon="10.941874709368484"><ele>279.4</ele><time>2026-04-11T09:23:57Z</time></trkpt><trkpt lat="43.0229387834925" lon="10.941811252178285"><ele>279.2</ele><time>2026-04-11T09:23:58Z</time></trkpt><trkpt lat="43.02305197391619" lon="10.94173429060456"><ele>279.0</ele><time>2026-04-11T09:24:00Z</time></trkpt><trkpt lat="43.023173550752716" lon="10.941679474397032"><ele>279.0</ele><time>2026-04-11T09:24:02Z</time></trkpt><trkpt lat="43.0232567794526" lon="10.941676660600265"><ele>279.0</ele><time>2026-04-11T09:24:03Z</time></trkpt><trkpt lat="43.02337179028992" lon="10.941760695961463"><ele>279.0</ele><time>2026-04-11T09:24:04Z</time></trkpt><trkpt lat="43.02346261643973" lon="10.941835811274265"><ele>279.0</ele><time>2026-04-11T09:24:05Z</time></trkpt><trkpt lat="43.0235459694656" lon="10.941899742881422"><ele>279.0</ele><time>2026-04-11T09:24:06Z</time></trkpt><trkpt lat="43.02362856221875" lon="10.941930640855709"><ele>278.0</ele><time>2026-04-11T09:24:07Z</time></trkpt><trkpt lat="43.02371150747924" lon="10.941925368638527"><ele>277.0</ele><time>2026-04-11T09:24:08Z</time></trkpt><trkpt lat="43.02379868188034" lon="10.94192167980582"><ele>276.0</ele><time>2026-04-11T09:24:09Z</time></trkpt><trkpt lat="43.023867754086915" lon="10.941924896072653"><ele>275.0</ele><time>2026-04-11T09:24:10Z</time></trkpt><trkpt lat="43.02395209212034" lon="10.9419379780044"><ele>274.0</ele><time>2026-04-11T09:24:11Z</time></trkpt><trkpt lat="43.02402623380405" lon="10.941976468450811"><ele>273.0</ele><time>2026-04-11T09:24:12Z</time></trkpt><trkpt lat="43.02410255687318" lon="10.942026615995859"><ele>272.1666666666667</ele><time>2026-04-11T09:24:13Z</time></trkpt><trkpt lat="43.024178186977466" lon="10.942070540426375"><ele>271.3333333333333</ele><time>2026-04-11T09:24:14Z</time></trkpt><trkpt lat="43.024262762258424" lon="10.942069349912394"><ele>270.5</ele><time>2026-04-11T09:24:15Z</time></trkpt><trkpt lat="43.024342154076265" lon="10.942075481606919"><ele>269.66666666666663</ele><time>2026-04-11T09:24:16Z</time></trkpt><trkpt lat="43.02443280478433" lon="10.942092076071797"><ele>268.8333333333333</ele><time>2026-04-11T09:24:17Z</time></trkpt><trkpt lat="43.02450402177518" lon="10.942100131933326"><ele>268.0</ele><time>2026-04-11T09:24:18Z</time></trkpt><trkpt lat="43.02456632522107" lon="10.942075797243824"><ele>268.0</ele><time>2026-04-11T09:24:20Z</time></trkpt><trkpt lat="43.024652407598495" lon="10.942015748084595"><ele>268.0</ele><time>2026-04-11T09:24:24Z</time></trkpt><trkpt lat="43.02474082055222" lon="10.941944729052206"><ele>268.0</ele><time>2026-04-11T09:24:26Z</time></trkpt><trkpt lat="43.024807272519766" lon="10.941889660806993"><ele>268.0</ele><time>2026-04-11T09:24:27Z</time></trkpt><trkpt lat="43.02488567690197" lon="10.941823978154584"><ele>268.0</ele><time>2026-04-11T09:24:28Z</time></trkpt><trkpt lat="43.024958489340655" lon="10.941763944765093"><ele>267.2</ele><time>2026-04-11T09:24:29Z</time></trkpt><trkpt lat="43.02503582425151" lon="10.941701643937291"><ele>266.4</ele><time>2026-04-11T09:24:30Z</time></trkpt><trkpt lat="43.025113988102625" lon="10.941665994661637"><ele>265.59999999999997</ele><time>2026-04-11T09:24:31Z</time></trkpt><trkpt lat="43.02519870572727" lon="10.94168461638646"><ele>264.8</ele><time>2026-04-11T09:24:32Z</time></trkpt><trkpt lat="43.02531284965143" lon="10.941726746697249"><ele>264.0</ele><time>2026-04-11T09:24:33Z</time></trkpt><trkpt lat="43.025392515204686" lon="10.941749184179963"><ele>264.0</ele><time>2026-04-11T09:24:34Z</time></trkpt><trkpt lat="43.025485866149616" lon="10.941796443912413"><ele>264.0</ele><time>2026-04-11T09:24:35Z</time></trkpt><trkpt lat="43.02557984099942" lon="10.941842844741569"><ele>264.0</ele><time>2026-04-11T09:24:36Z</time></trkpt><trkpt lat="43.02566329100337" lon="10.941875074662423"><ele>264.0</ele><time>2026-04-11T09:24:37Z</time></trkpt><trkpt lat="43.02575343003838" lon="10.94191154655843"><ele>264.0</ele><time>2026-04-11T09:24:38Z</time></trkpt><trkpt lat="43.025851284482385" lon="10.941944253065534"><ele>263.8333333333333</ele><time>2026-04-11T09:24:39Z</time></trkpt><trkpt lat="43.02594369247131" lon="10.941956991603309"><ele>263.6666666666667</ele><time>2026-04-11T09:24:40Z</time></trkpt><trkpt lat="43.026021640831246" lon="10.94195217876936"><ele>263.5</ele><time>2026-04-11T09:24:41Z</time></trkpt><trkpt lat="43.0261006605378" lon="10.94193157145409"><ele>263.33333333333337</ele><time>2026-04-11T09:24:42Z</time></trkpt><trkpt lat="43.02618695777372" lon="10.941865186495567"><ele>263.1666666666667</ele><time>2026-04-11T09:24:43Z</time></trkpt><trkpt lat="43.026271367790564" lon="10.941814162030173"><ele>263.0</ele><time>2026-04-11T09:24:44Z</time></trkpt><trkpt lat="43.02634883465491" lon="10.941755112575757"><ele>263.4</ele><time>2026-04-11T09:24:45Z</time></trkpt><trkpt lat="43.026431801758214" lon="10.941693053089073"><ele>263.8</ele><time>2026-04-11T09:24:46Z</time></trkpt><trkpt lat="43.02652018136093" lon="10.941622275422551"><ele>264.2</ele><time>2026-04-11T09:24:47Z</time></trkpt><trkpt lat="43.026624295414976" lon="10.941550552465802"><ele>264.6</ele><time>2026-04-11T09:24:48Z</time></trkpt><trkpt lat="43.02672289699027" lon="10.941506538778672"><ele>265.0</ele><time>2026-04-11T09:24:49Z</time></trkpt><trkpt lat="43.02681947120038" lon="10.94147664116761"><ele>265.8</ele><time>2026-04-11T09:24:50Z</time></trkpt><trkpt lat="43.02691976605503" lon="10.941444162979332"><ele>266.6</ele><time>2026-04-11T09:24:51Z</time></trkpt><trkpt lat="43.027011451769695" lon="10.941406890863597"><ele>267.4</ele><time>2026-04-11T09:24:52Z</time></trkpt><trkpt lat="43.02713476564908" lon="10.941397936056978"><ele>268.2</ele><time>2026-04-11T09:24:54Z</time></trkpt><trkpt lat="43.02719555232606" lon="10.941467118399029"><ele>269.0</ele><time>2026-04-11T09:24:55Z</time></trkpt><trkpt lat="43.02727622628732" lon="10.941567478771171"><ele>269.0</ele><time>2026-04-11T09:24:56Z</time></trkpt><trkpt lat="43.02733911502962" lon="10.941646648265191"><ele>269.0</ele><time>2026-04-11T09:24:57Z</time></trkpt><trkpt lat="43.027411229560784" lon="10.941737833396905"><ele>269.0</ele><time>2026-04-11T09:24:58Z</time></trkpt><trkpt lat="43.027466754430776" lon="10.941802815038418"><ele>269.0</ele><time>2026-04-11T09:24:59Z</time></trkpt><trkpt lat="43.02752832117135" lon="10.941859887029517"><ele>269.0</ele><time>2026-04-11T09:25:00Z</time></trkpt><trkpt lat="43.027591800710184" lon="10.941880456561265"><ele>269.0</ele><time>2026-04-11T09:25:01Z</time></trkpt><trkpt lat="43.0276629622736" lon="10.94186345107025"><ele>269.2</ele><time>2026-04-11T09:25:02Z</time></trkpt><trkpt lat="43.02773680056056" lon="10.94181397745578"><ele>269.4</ele><time>2026-04-11T09:25:03Z</time></trkpt><trkpt lat="43.02781488924065" lon="10.941734614694875"><ele>269.6</ele><time>2026-04-11T09:25:04Z</time></trkpt><trkpt lat="43.02787473039057" lon="10.941641703734769"><ele>269.8</ele><time>2026-04-11T09:25:05Z</time></trkpt><trkpt lat="43.02795295191497" lon="10.94154472930195"><ele>270.0</ele><time>2026-04-11T09:25:06Z</time></trkpt><trkpt lat="43.028056942293425" lon="10.941496603113428"><ele>270.0</ele><time>2026-04-11T09:25:07Z</time></trkpt><trkpt lat="43.028150475333575" lon="10.94147254472051"><ele>270.0</ele><time>2026-04-11T09:25:08Z</time></trkpt><trkpt lat="43.02825442694446" lon="10.941468256555776"><ele>270.0</ele><time>2026-04-11T09:25:09Z</time></trkpt><trkpt lat="43.02836114370367" lon="10.941494249269757"><ele>270.0</ele><time>2026-04-11T09:25:10Z</time></trkpt><trkpt lat="43.028470814597476" lon="10.941551375580541"><ele>270.0</ele><time>2026-04-11T09:25:11Z</time></trkpt><trkpt lat="43.02856058899773" lon="10.941604366150488"><ele>270.6666666666667</ele><time>2026-04-11T09:25:12Z</time></trkpt><trkpt lat="43.02865490937066" lon="10.941638375645095"><ele>271.3333333333333</ele><time>2026-04-11T09:25:12.999Z</time></trkpt><trkpt lat="43.02873311167379" lon="10.941653896527683"><ele>272.0</ele><time>2026-04-11T09:25:14.999Z</time></trkpt><trkpt lat="43.028798718847035" lon="10.9416445563627"><ele>272.66666666666663</ele><time>2026-04-11T09:25:16.999Z</time></trkpt><trkpt lat="43.028863287007724" lon="10.941614119190683"><ele>273.3333333333333</ele><time>2026-04-11T09:25:17.999Z</time></trkpt><trkpt lat="43.02894105387099" lon="10.941562248529001"><ele>274.0</ele><time>2026-04-11T09:25:19Z</time></trkpt><trkpt lat="43.0290361820843" lon="10.941490514675394"><ele>274.0</ele><time>2026-04-11T09:25:20Z</time></trkpt><trkpt lat="43.0291346665299" lon="10.94141706022456"><ele>274.0</ele><time>2026-04-11T09:25:21Z</time></trkpt><trkpt lat="43.02922403615508" lon="10.941352463049405"><ele>274.0</ele><time>2026-04-11T09:25:22Z</time></trkpt><trkpt lat="43.02931940961404" lon="10.941294792024946"><ele>274.0</ele><time>2026-04-11T09:25:23Z</time></trkpt><trkpt lat="43.02942838111941" lon="10.941237058303457"><ele>274.0</ele><time>2026-04-11T09:25:24Z</time></trkpt><trkpt lat="43.02952928642583" lon="10.941230533565655"><ele>274.2</ele><time>2026-04-11T09:25:25Z</time></trkpt><trkpt lat="43.02961684751582" lon="10.941199706537985"><ele>274.4</ele><time>2026-04-11T09:25:26Z</time></trkpt><trkpt lat="43.029713013398556" lon="10.941214103809456"><ele>274.6</ele><time>2026-04-11T09:25:27Z</time></trkpt><trkpt lat="43.02980528011507" lon="10.941300913571808"><ele>274.8</ele><time>2026-04-11T09:25:28Z</time></trkpt><trkpt lat="43.02991134029861" lon="10.941391795837566"><ele>275.0</ele><time>2026-04-11T09:25:29Z</time></trkpt><trkpt lat="43.03001628092368" lon="10.94152349177861"><ele>276.25</ele><time>2026-04-11T09:25:30Z</time></trkpt><trkpt lat="43.03012167343832" lon="10.941660300116018"><ele>277.5</ele><time>2026-04-11T09:25:31Z</time></trkpt><trkpt lat="43.03020922683362" lon="10.941765225012285"><ele>278.75</ele><time>2026-04-11T09:25:32Z</time></trkpt><trkpt lat="43.03027715052138" lon="10.941832690599348"><ele>280.0</ele><time>2026-04-11T09:25:33Z</time></trkpt><trkpt lat="43.030387476413964" lon="10.941896385587752"><ele>280.6</ele><time>2026-04-11T09:25:34Z</time></trkpt><trkpt lat="43.030506350522714" lon="10.941945991011186"><ele>281.2</ele><time>2026-04-11T09:25:35Z</time></trkpt><trkpt lat="43.03061501932179" lon="10.94199065627275"><ele>281.8</ele><time>2026-04-11T09:25:36Z</time></trkpt><trkpt lat="43.03072567210956" lon="10.94203494871525"><ele>282.4</ele><time>2026-04-11T09:25:37Z</time></trkpt><trkpt lat="43.030808382324885" lon="10.94208013348736"><ele>283.0</ele><time>2026-04-11T09:25:38Z</time></trkpt><trkpt lat="43.03093292713026" lon="10.94213056102615"><ele>283.0</ele><time>2026-04-11T09:25:39Z</time></trkpt><trkpt lat="43.03103617105645" lon="10.942158903975928"><ele>283.0</ele><time>2026-04-11T09:25:40Z</time></trkpt><trkpt lat="43.03113279759756" lon="10.942181276399937"><ele>283.0</ele><time>2026-04-11T09:25:41Z</time></trkpt><trkpt lat="43.03123480903917" lon="10.942184782176211"><ele>283.0</ele><time>2026-04-11T09:25:42Z</time></trkpt><trkpt lat="43.031352833009315" lon="10.942189232177263"><ele>283.0</ele><time>2026-04-11T09:25:43Z</time></trkpt><trkpt lat="43.03146884749228" lon="10.942188591348236"><ele>283.0</ele><time>2026-04-11T09:25:44Z</time></trkpt><trkpt lat="43.03158215145993" lon="10.942189037814062"><ele>283.0</ele><time>2026-04-11T09:25:45Z</time></trkpt><trkpt lat="43.03171442229403" lon="10.942203656377"><ele>283.0</ele><time>2026-04-11T09:25:46Z</time></trkpt><trkpt lat="43.031833450986916" lon="10.942223495262667"><ele>283.0</ele><time>2026-04-11T09:25:47Z</time></trkpt><trkpt lat="43.03196562980995" lon="10.942285204178924"><ele>282.0</ele><time>2026-04-11T09:25:48Z</time></trkpt><trkpt lat="43.03207192223576" lon="10.942338274465559"><ele>281.0</ele><time>2026-04-11T09:25:49Z</time></trkpt><trkpt lat="43.03215776220405" lon="10.94238745843162"><ele>280.0</ele><time>2026-04-11T09:25:50Z</time></trkpt><trkpt lat="43.03222335033177" lon="10.942422584574274"><ele>279.0</ele><time>2026-04-11T09:25:51Z</time></trkpt><trkpt lat="43.032342150992825" lon="10.942411318027657"><ele>278.0</ele><time>2026-04-11T09:25:53Z</time></trkpt><trkpt lat="43.0324053469561" lon="10.942324986788185"><ele>277.6</ele><time>2026-04-11T09:25:54Z</time></trkpt><trkpt lat="43.032475150965894" lon="10.942242407545084"><ele>277.20000000000005</ele><time>2026-04-11T09:25:55Z</time></trkpt><trkpt lat="43.03254841633523" lon="10.942154490462984"><ele>276.8</ele><time>2026-04-11T09:25:56Z</time></trkpt><trkpt lat="43.03262208780711" lon="10.942077639084424"><ele>276.40000000000003</ele><time>2026-04-11T09:25:57Z</time></trkpt><trkpt lat="43.03272591901454" lon="10.942037327147183"><ele>276.0</ele><time>2026-04-11T09:25:58Z</time></trkpt><trkpt lat="43.03284972771153" lon="10.942019836322368"><ele>276.0</ele><time>2026-04-11T09:25:59Z</time></trkpt><trkpt lat="43.033003157661085" lon="10.942001859791889"><ele>276.0</ele><time>2026-04-11T09:26:00Z</time></trkpt><trkpt lat="43.033135819296035" lon="10.94195404038558"><ele>276.0</ele><time>2026-04-11T09:26:01Z</time></trkpt><trkpt lat="43.033236355354965" lon="10.941912814221432"><ele>276.0</ele><time>2026-04-11T09:26:02Z</time></trkpt><trkpt lat="43.03334835752749" lon="10.94185079986003"><ele>275.0</ele><time>2026-04-11T09:26:03Z</time></trkpt><trkpt lat="43.03344867990233" lon="10.941763509038648"><ele>274.0</ele><time>2026-04-11T09:26:04Z</time></trkpt><trkpt lat="43.03353868456811" lon="10.941655081687628"><ele>273.0</ele><time>2026-04-11T09:26:05Z</time></trkpt><trkpt lat="43.03363357854049" lon="10.941551287035262"><ele>272.0</ele><time>2026-04-11T09:26:06Z</time></trkpt><trkpt lat="43.03372967851068" lon="10.94144540624901"><ele>272.0</ele><time>2026-04-11T09:26:07Z</time></trkpt><trkpt lat="43.03382661349505" lon="10.941355566395007"><ele>272.0</ele><time>2026-04-11T09:26:08Z</time></trkpt><trkpt lat="43.03391192112016" lon="10.941274117642493"><ele>272.0</ele><time>2026-04-11T09:26:09Z</time></trkpt><trkpt lat="43.03399664939289" lon="10.941189358286676"><ele>272.0</ele><time>2026-04-11T09:26:10Z</time></trkpt><trkpt lat="43.03406426887132" lon="10.941116115218895"><ele>272.0</ele><time>2026-04-11T09:26:11Z</time></trkpt><trkpt lat="43.034132454012486" lon="10.941071235569092"><ele>271.6</ele><time>2026-04-11T09:26:12Z</time></trkpt><trkpt lat="43.034233799385234" lon="10.941070537266489"><ele>271.2</ele><time>2026-04-11T09:26:13Z</time></trkpt><trkpt lat="43.034346738513655" lon="10.941094032159608"><ele>270.8</ele><time>2026-04-11T09:26:14Z</time></trkpt><trkpt lat="43.03445104175062" lon="10.941093420465432"><ele>270.4</ele><time>2026-04-11T09:26:15Z</time></trkpt><trkpt lat="43.034559971568584" lon="10.941050476120617"><ele>270.0</ele><time>2026-04-11T09:26:16Z</time></trkpt><trkpt lat="43.03467158904422" lon="10.94101969810163"><ele>270.0</ele><time>2026-04-11T09:26:17Z</time></trkpt><trkpt lat="43.034811595158146" lon="10.941002617191234"><ele>270.0</ele><time>2026-04-11T09:26:18Z</time></trkpt><trkpt lat="43.03492875347216" lon="10.941002623956237"><ele>270.0</ele><time>2026-04-11T09:26:19Z</time></trkpt><trkpt lat="43.03505499603481" lon="10.941007017824715"><ele>270.0</ele><time>2026-04-11T09:26:20Z</time></trkpt><trkpt lat="43.03516354169708" lon="10.940998024349762"><ele>268.25</ele><time>2026-04-11T09:26:21Z</time></trkpt><trkpt lat="43.03527360011714" lon="10.94097604035961"><ele>266.5</ele><time>2026-04-11T09:26:22Z</time></trkpt><trkpt lat="43.03538444123089" lon="10.940948724404826"><ele>264.75</ele><time>2026-04-11T09:26:23Z</time></trkpt><trkpt lat="43.035498926271245" lon="10.940923452556232"><ele>263.0</ele><time>2026-04-11T09:26:24Z</time></trkpt><trkpt lat="43.035612424027" lon="10.940885197131468"><ele>262.25</ele><time>2026-04-11T09:26:25Z</time></trkpt><trkpt lat="43.035719186071475" lon="10.940828154804802"><ele>261.5</ele><time>2026-04-11T09:26:26Z</time></trkpt><trkpt lat="43.03582645554618" lon="10.94075671590841"><ele>260.75</ele><time>2026-04-11T09:26:27Z</time></trkpt><trkpt lat="43.03593558145985" lon="10.940704172811435"><ele>260.0</ele><time>2026-04-11T09:26:28Z</time></trkpt><trkpt lat="43.03606111832016" lon="10.940648590789113"><ele>259.5</ele><time>2026-04-11T09:26:29Z</time></trkpt><trkpt lat="43.03620122905812" lon="10.940621541076014"><ele>259.0</ele><time>2026-04-11T09:26:30Z</time></trkpt><trkpt lat="43.036329267660804" lon="10.940630114168727"><ele>258.5</ele><time>2026-04-11T09:26:31Z</time></trkpt><trkpt lat="43.03644951074693" lon="10.940681142690757"><ele>258.0</ele><time>2026-04-11T09:26:32Z</time></trkpt><trkpt lat="43.036563829471575" lon="10.940724323530885"><ele>257.25</ele><time>2026-04-11T09:26:33Z</time></trkpt><trkpt lat="43.03667999688244" lon="10.940735108941716"><ele>256.5</ele><time>2026-04-11T09:26:34Z</time></trkpt><trkpt lat="43.03680031290347" lon="10.940722857407955"><ele>255.75</ele><time>2026-04-11T09:26:35Z</time></trkpt><trkpt lat="43.03692756744127" lon="10.94066479847715"><ele>255.0</ele><time>2026-04-11T09:26:36Z</time></trkpt><trkpt lat="43.037034729723445" lon="10.940603034269932"><ele>255.0</ele><time>2026-04-11T09:26:37Z</time></trkpt><trkpt lat="43.03713946645291" lon="10.940553923017493"><ele>255.0</ele><time>2026-04-11T09:26:38Z</time></trkpt><trkpt lat="43.037263121426996" lon="10.94054126398017"><ele>255.0</ele><time>2026-04-11T09:26:39Z</time></trkpt><trkpt lat="43.037386182977954" lon="10.940532262790056"><ele>255.0</ele><time>2026-04-11T09:26:40Z</time></trkpt><trkpt lat="43.037496937841276" lon="10.940531727257325"><ele>255.0</ele><time>2026-04-11T09:26:41Z</time></trkpt><trkpt lat="43.03759974724702" lon="10.940535764887821"><ele>255.0</ele><time>2026-04-11T09:26:42Z</time></trkpt><trkpt lat="43.03766596908503" lon="10.940530125416716"><ele>255.0</ele><time>2026-04-11T09:26:43Z</time></trkpt><trkpt lat="43.037729500205366" lon="10.940516003291934"><ele>255.0</ele><time>2026-04-11T09:26:44Z</time></trkpt><trkpt lat="43.037786343703445" lon="10.940467987044165"><ele>255.0</ele><time>2026-04-11T09:26:53Z</time></trkpt><trkpt lat="43.03780412389052" lon="10.940353844822143"><ele>255.0</ele><time>2026-04-11T09:26:55Z</time></trkpt><trkpt lat="43.037797642544966" lon="10.940229484141392"><ele>255.0</ele><time>2026-04-11T09:26:56Z</time></trkpt><trkpt lat="43.037777917045275" lon="10.940101704591127"><ele>255.0</ele><time>2026-04-11T09:26:57Z</time></trkpt><trkpt lat="43.03773975669787" lon="10.939983912308696"><ele>255.0</ele><time>2026-04-11T09:26:58Z</time></trkpt><trkpt lat="43.0377107350641" lon="10.939877632084867"><ele>255.0</ele><time>2026-04-11T09:26:59Z</time></trkpt><trkpt lat="43.03767181135984" lon="10.939769883466395"><ele>255.0</ele><time>2026-04-11T09:27:00Z</time></trkpt><trkpt lat="43.03764532458932" lon="10.939687951797328"><ele>255.0</ele><time>2026-04-11T09:27:01Z</time></trkpt><trkpt lat="43.03762119237501" lon="10.93959966577523"><ele>254.66666666666666</ele><time>2026-04-11T09:27:02Z</time></trkpt><trkpt lat="43.03759105987539" lon="10.939512571608114"><ele>254.33333333333331</ele><time>2026-04-11T09:27:03Z</time></trkpt><trkpt lat="43.03755883737588" lon="10.939392078379168"><ele>254.0</ele><time>2026-04-11T09:27:04Z</time></trkpt><trkpt lat="43.03752636099981" lon="10.93929256116547"><ele>253.66666666666666</ele><time>2026-04-11T09:27:05Z</time></trkpt><trkpt lat="43.03749680476627" lon="10.939196236130096"><ele>253.33333333333331</ele><time>2026-04-11T09:27:06Z</time></trkpt><trkpt lat="43.03746089653525" lon="10.939079089003808"><ele>253.0</ele><time>2026-04-11T09:27:07Z</time></trkpt><trkpt lat="43.037421263017215" lon="10.93894911999216"><ele>251.2</ele><time>2026-04-11T09:27:08Z</time></trkpt><trkpt lat="43.03738639146544" lon="10.938828813562736"><ele>249.4</ele><time>2026-04-11T09:27:09Z</time></trkpt><trkpt lat="43.0373436764739" lon="10.938710129592687"><ele>247.59999999999997</ele><time>2026-04-11T09:27:10Z</time></trkpt><trkpt lat="43.03731354267683" lon="10.938597287748598"><ele>245.79999999999998</ele><time>2026-04-11T09:27:11Z</time></trkpt><trkpt lat="43.037277602175116" lon="10.938466401372517"><ele>244.0</ele><time>2026-04-11T09:27:12Z</time></trkpt><trkpt lat="43.03724925803417" lon="10.938350854707835"><ele>243.49999999999997</ele><time>2026-04-11T09:27:13Z</time></trkpt><trkpt lat="43.037243989131944" lon="10.93824107116417"><ele>243.0</ele><time>2026-04-11T09:27:14Z</time></trkpt><trkpt lat="43.03724207518911" lon="10.938126366016705"><ele>242.5</ele><time>2026-04-11T09:27:15Z</time></trkpt><trkpt lat="43.03723687098721" lon="10.938016254845172"><ele>242.0</ele><time>2026-04-11T09:27:16Z</time></trkpt><trkpt lat="43.037228539192604" lon="10.937910751033238"><ele>241.49999999999997</ele><time>2026-04-11T09:27:17Z</time></trkpt><trkpt lat="43.03722053335767" lon="10.937815341570436"><ele>241.0</ele><time>2026-04-11T09:27:18Z</time></trkpt><trkpt lat="43.0372042604865" lon="10.937707821286024"><ele>240.99999999999997</ele><time>2026-04-11T09:27:19Z</time></trkpt><trkpt lat="43.03717159897824" lon="10.937621019622753"><ele>241.0</ele><time>2026-04-11T09:27:20Z</time></trkpt><trkpt lat="43.03711127236875" lon="10.937543887827767"><ele>241.0</ele><time>2026-04-11T09:27:21Z</time></trkpt><trkpt lat="43.03703294580532" lon="10.937463578478864"><ele>241.0</ele><time>2026-04-11T09:27:22Z</time></trkpt><trkpt lat="43.03695641712901" lon="10.937394214867552"><ele>240.99999999999997</ele><time>2026-04-11T09:27:23Z</time></trkpt><trkpt lat="43.03688795453176" lon="10.937322634376198"><ele>241.0</ele><time>2026-04-11T09:27:24Z</time></trkpt><trkpt lat="43.036827681997664" lon="10.937239983188496"><ele>240.8</ele><time>2026-04-11T09:27:25Z</time></trkpt><trkpt lat="43.03676963338267" lon="10.93716659623527"><ele>240.60000000000002</ele><time>2026-04-11T09:27:26Z</time></trkpt><trkpt lat="43.03669677076592" lon="10.937070181795418"><ele>240.4</ele><time>2026-04-11T09:27:27Z</time></trkpt><trkpt lat="43.03662727273104" lon="10.936944400054932"><ele>240.2</ele><time>2026-04-11T09:27:28Z</time></trkpt><trkpt lat="43.03656292408565" lon="10.936834265318296"><ele>240.0</ele><time>2026-04-11T09:27:29Z</time></trkpt><trkpt lat="43.03651057102082" lon="10.936740136518138"><ele>238.0</ele><time>2026-04-11T09:27:30Z</time></trkpt><trkpt lat="43.03645978010682" lon="10.936633871159906"><ele>236.0</ele><time>2026-04-11T09:27:31Z</time></trkpt><trkpt lat="43.03642528062955" lon="10.936536324212529"><ele>234.0</ele><time>2026-04-11T09:27:32Z</time></trkpt><trkpt lat="43.03634899669483" lon="10.936456960231409"><ele>232.0</ele><time>2026-04-11T09:27:34Z</time></trkpt><trkpt lat="43.0362867744467" lon="10.936473134167501"><ele>230.0</ele><time>2026-04-11T09:27:35Z</time></trkpt><trkpt lat="43.03619252714402" lon="10.93657426801633"><ele>230.00000000000003</ele><time>2026-04-11T09:27:37Z</time></trkpt><trkpt lat="43.03614657659921" lon="10.93665487962896"><ele>230.0</ele><time>2026-04-11T09:27:39Z</time></trkpt><trkpt lat="43.036111989590815" lon="10.936573315116826"><ele>230.0</ele><time>2026-04-11T09:27:43Z</time></trkpt><trkpt lat="43.0361104863602" lon="10.93648328772164"><ele>230.0</ele><time>2026-04-11T09:27:44Z</time></trkpt><trkpt lat="43.03606907441094" lon="10.936389185365494"><ele>230.00000000000003</ele><time>2026-04-11T09:27:45Z</time></trkpt><trkpt lat="43.036022809147575" lon="10.936288151257479"><ele>230.0</ele><time>2026-04-11T09:27:46Z</time></trkpt><trkpt lat="43.03598698912491" lon="10.936188923940433"><ele>230.00000000000003</ele><time>2026-04-11T09:27:47Z</time></trkpt><trkpt lat="43.03595730223296" lon="10.936097423151367"><ele>230.0</ele><time>2026-04-11T09:27:48Z</time></trkpt><trkpt lat="43.03596661373969" lon="10.935948575163083"><ele>230.0</ele><time>2026-04-11T09:27:50Z</time></trkpt><trkpt lat="43.036016235276065" lon="10.935872868136105"><ele>230.0</ele><time>2026-04-11T09:27:53Z</time></trkpt><trkpt lat="43.03604228924461" lon="10.935792432364934"><ele>230.00000000000003</ele><time>2026-04-11T09:27:55Z</time></trkpt><trkpt lat="43.03609803144554" lon="10.935681811415899"><ele>230.0</ele><time>2026-04-11T09:27:57Z</time></trkpt><trkpt lat="43.03615432113678" lon="10.935569207298697"><ele>230.16666666666669</ele><time>2026-04-11T09:27:59Z</time></trkpt><trkpt lat="43.03618925835726" lon="10.935492886772678"><ele>230.33333333333334</ele><time>2026-04-11T09:28:01Z</time></trkpt><trkpt lat="43.036240564166604" lon="10.935420712622689"><ele>230.5</ele><time>2026-04-11T09:28:03Z</time></trkpt><trkpt lat="43.036299795524805" lon="10.93536851330229"><ele>230.66666666666669</ele><time>2026-04-11T09:28:06Z</time></trkpt><trkpt lat="43.03638246086064" lon="10.935372150003996"><ele>230.83333333333334</ele><time>2026-04-11T09:28:08Z</time></trkpt><trkpt lat="43.0364984180604" lon="10.935333534590159"><ele>231.0</ele><time>2026-04-11T09:28:10Z</time></trkpt><trkpt lat="43.03660445364253" lon="10.935356121058232"><ele>230.16666666666666</ele><time>2026-04-11T09:28:12Z</time></trkpt><trkpt lat="43.036649198153754" lon="10.935418008215162"><ele>229.33333333333331</ele><time>2026-04-11T09:28:13Z</time></trkpt><trkpt lat="43.036676967779634" lon="10.935588886906427"><ele>228.5</ele><time>2026-04-11T09:28:15Z</time></trkpt><trkpt lat="43.036692919185114" lon="10.935674484019575"><ele>227.66666666666666</ele><time>2026-04-11T09:28:16Z</time></trkpt><trkpt lat="43.03674750956417" lon="10.93577413196972"><ele>226.83333333333331</ele><time>2026-04-11T09:28:18Z</time></trkpt><trkpt lat="43.036833676031854" lon="10.9358301255366"><ele>226.0</ele><time>2026-04-11T09:28:21Z</time></trkpt><trkpt lat="43.03688752925594" lon="10.935721823260058"><ele>226.0</ele><time>2026-04-11T09:28:24Z</time></trkpt><trkpt lat="43.036916160319834" lon="10.935637619662224"><ele>226.0</ele><time>2026-04-11T09:28:25Z</time></trkpt><trkpt lat="43.03694761749788" lon="10.935562660145203"><ele>226.0</ele><time>2026-04-11T09:28:26Z</time></trkpt><trkpt lat="43.03700551976993" lon="10.935491099724608"><ele>226.0</ele><time>2026-04-11T09:28:28Z</time></trkpt><trkpt lat="43.03705596728867" lon="10.935401280030927"><ele>226.0</ele><time>2026-04-11T09:28:31Z</time></trkpt><trkpt lat="43.03707483786541" lon="10.935315218304863"><ele>226.0</ele><time>2026-04-11T09:28:33Z</time></trkpt><trkpt lat="43.03706512372834" lon="10.935219336401133"><ele>226.0</ele><time>2026-04-11T09:28:35Z</time></trkpt><trkpt lat="43.03697686875328" lon="10.935052341438121"><ele>225.20000000000002</ele><time>2026-04-11T09:28:37Z</time></trkpt><trkpt lat="43.036938851910584" lon="10.934982149982156"><ele>224.40000000000003</ele><time>2026-04-11T09:28:38Z</time></trkpt><trkpt lat="43.036909444546886" lon="10.934885329025246"><ele>223.6</ele><time>2026-04-11T09:28:39Z</time></trkpt><trkpt lat="43.036878315957395" lon="10.934771325781448"><ele>222.8</ele><time>2026-04-11T09:28:40Z</time></trkpt><trkpt lat="43.03683183113126" lon="10.934643687775509"><ele>222.0</ele><time>2026-04-11T09:28:41Z</time></trkpt><trkpt lat="43.0367564639315" lon="10.934481498472715"><ele>222.0</ele><time>2026-04-11T09:28:42Z</time></trkpt><trkpt lat="43.036688955393636" lon="10.934353905720869"><ele>222.0</ele><time>2026-04-11T09:28:43Z</time></trkpt><trkpt lat="43.03661920993597" lon="10.934248642587699"><ele>222.0</ele><time>2026-04-11T09:28:44Z</time></trkpt><trkpt lat="43.036568377964706" lon="10.934166438832811"><ele>222.0</ele><time>2026-04-11T09:28:45Z</time></trkpt><trkpt lat="43.03650844273652" lon="10.934073466812572"><ele>222.0</ele><time>2026-04-11T09:28:46Z</time></trkpt><trkpt lat="43.036465444984564" lon="10.933980433895437"><ele>222.16666666666666</ele><time>2026-04-11T09:28:47Z</time></trkpt><trkpt lat="43.03643800893811" lon="10.933887264062752"><ele>222.33333333333331</ele><time>2026-04-11T09:28:48Z</time></trkpt><trkpt lat="43.03641435690099" lon="10.933738539468756"><ele>222.5</ele><time>2026-04-11T09:28:50Z</time></trkpt><trkpt lat="43.0363809078297" lon="10.933601942895223"><ele>222.66666666666666</ele><time>2026-04-11T09:28:52Z</time></trkpt><trkpt lat="43.03635466864336" lon="10.93350797020607"><ele>222.83333333333331</ele><time>2026-04-11T09:28:53Z</time></trkpt><trkpt lat="43.03631701949382" lon="10.93342002145534"><ele>223.0</ele><time>2026-04-11T09:28:55Z</time></trkpt><trkpt lat="43.036283114580975" lon="10.933332060582792"><ele>221.16666666666666</ele><time>2026-04-11T09:28:58Z</time></trkpt><trkpt lat="43.0363734665836" lon="10.93332657703278"><ele>219.33333333333331</ele><time>2026-04-11T09:29:06Z</time></trkpt><trkpt lat="43.03643987645439" lon="10.93332775808699"><ele>217.5</ele><time>2026-04-11T09:29:07Z</time></trkpt><trkpt lat="43.03651308131665" lon="10.933321438500652"><ele>215.66666666666669</ele><time>2026-04-11T09:29:08Z</time></trkpt><trkpt lat="43.036643286941825" lon="10.933306639142222"><ele>213.83333333333334</ele><time>2026-04-11T09:29:10Z</time></trkpt><trkpt lat="43.0367317624998" lon="10.933304648168672"><ele>212.0</ele><time>2026-04-11T09:29:11Z</time></trkpt><trkpt lat="43.03680616958699" lon="10.933289394746554"><ele>211.50000000000003</ele><time>2026-04-11T09:29:12Z</time></trkpt><trkpt lat="43.0369199447535" lon="10.93328057170879"><ele>211.0</ele><time>2026-04-11T09:29:13Z</time></trkpt><trkpt lat="43.036996457711695" lon="10.93325959394589"><ele>210.5</ele><time>2026-04-11T09:29:14Z</time></trkpt><trkpt lat="43.03706226964173" lon="10.933217994815864"><ele>210.0</ele><time>2026-04-11T09:29:16Z</time></trkpt><trkpt lat="43.037075658114944" lon="10.933125693772459"><ele>209.50000000000003</ele><time>2026-04-11T09:29:18Z</time></trkpt><trkpt lat="43.03712837894075" lon="10.933043058015079"><ele>209.0</ele><time>2026-04-11T09:29:20Z</time></trkpt><trkpt lat="43.03721358847287" lon="10.933129982831627"><ele>209.0</ele><time>2026-04-11T09:29:23Z</time></trkpt><trkpt lat="43.03733190013129" lon="10.93317905033083"><ele>209.0</ele><time>2026-04-11T09:29:25Z</time></trkpt><trkpt lat="43.03743344224787" lon="10.933216858135047"><ele>209.0</ele><time>2026-04-11T09:29:27Z</time></trkpt><trkpt lat="43.03750487796629" lon="10.933196463026434"><ele>209.0</ele><time>2026-04-11T09:29:29Z</time></trkpt><trkpt lat="43.037420054810894" lon="10.933107493092946"><ele>209.0</ele><time>2026-04-11T09:29:32Z</time></trkpt><trkpt lat="43.03735607442708" lon="10.932991367088015"><ele>209.00000000000003</ele><time>2026-04-11T09:29:34Z</time></trkpt><trkpt lat="43.037373123434215" lon="10.932858973794053"><ele>209.0</ele><time>2026-04-11T09:29:37Z</time></trkpt><trkpt lat="43.03741881038034" lon="10.932926868096443"><ele>209.0</ele><time>2026-04-11T09:29:41Z</time></trkpt><trkpt lat="43.037502981111274" lon="10.932984766069287"><ele>209.0</ele><time>2026-04-11T09:29:43Z</time></trkpt><trkpt lat="43.03758207361171" lon="10.933033999117734"><ele>209.00000000000003</ele><time>2026-04-11T09:29:45Z</time></trkpt><trkpt lat="43.03754239521067" lon="10.93296312963131"><ele>209.0</ele><time>2026-04-11T09:29:48Z</time></trkpt><trkpt lat="43.03749337293998" lon="10.93285672682883"><ele>209.79999999999998</ele><time>2026-04-11T09:29:50Z</time></trkpt><trkpt lat="43.037539260089176" lon="10.932739339661037"><ele>210.6</ele><time>2026-04-11T09:29:52Z</time></trkpt><trkpt lat="43.03759996451849" lon="10.932656420385317"><ele>211.4</ele><time>2026-04-11T09:29:53Z</time></trkpt><trkpt lat="43.037661794211516" lon="10.932556074390003"><ele>212.2</ele><time>2026-04-11T09:29:54Z</time></trkpt><trkpt lat="43.03772141160315" lon="10.932444473245745"><ele>213.0</ele><time>2026-04-11T09:29:55Z</time></trkpt><trkpt lat="43.03777621929888" lon="10.932376827426479"><ele>215.5</ele><time>2026-04-11T09:29:56Z</time></trkpt><trkpt lat="43.037835823216284" lon="10.932326911846936"><ele>218.0</ele><time>2026-04-11T09:29:57Z</time></trkpt><trkpt lat="43.03789879314858" lon="10.932281387736587"><ele>220.5</ele><time>2026-04-11T09:29:58Z</time></trkpt><trkpt lat="43.037984387710466" lon="10.932243130842565"><ele>223.0</ele><time>2026-04-11T09:29:59Z</time></trkpt><trkpt lat="43.038078126456625" lon="10.932212466410155"><ele>225.5</ele><time>2026-04-11T09:30:00Z</time></trkpt><trkpt lat="43.03817730728495" lon="10.932180639409198"><ele>228.0</ele><time>2026-04-11T09:30:01Z</time></trkpt><trkpt lat="43.03828977306268" lon="10.93214955371029"><ele>230.2</ele><time>2026-04-11T09:30:02Z</time></trkpt><trkpt lat="43.03837260117312" lon="10.932127241953781"><ele>232.4</ele><time>2026-04-11T09:30:03Z</time></trkpt><trkpt lat="43.03845193228347" lon="10.932103494957303"><ele>234.59999999999997</ele><time>2026-04-11T09:30:04Z</time></trkpt><trkpt lat="43.038510879920345" lon="10.932037571401276"><ele>236.79999999999998</ele><time>2026-04-11T09:30:05Z</time></trkpt><trkpt lat="43.038571202155744" lon="10.931941626328724"><ele>239.0</ele><time>2026-04-11T09:30:06Z</time></trkpt><trkpt lat="43.038649393966125" lon="10.93180643470784"><ele>240.2</ele><time>2026-04-11T09:30:07Z</time></trkpt><trkpt lat="43.03872094608128" lon="10.931692284134263"><ele>241.39999999999998</ele><time>2026-04-11T09:30:08Z</time></trkpt><trkpt lat="43.038783666260336" lon="10.931598493400463"><ele>242.6</ele><time>2026-04-11T09:30:09Z</time></trkpt><trkpt lat="43.03883697525633" lon="10.931524258097205"><ele>243.8</ele><time>2026-04-11T09:30:10Z</time></trkpt><trkpt lat="43.03894123560257" lon="10.931479067032987"><ele>245.0</ele><time>2026-04-11T09:30:12Z</time></trkpt><trkpt lat="43.039028256930706" lon="10.931478783475429"><ele>245.0</ele><time>2026-04-11T09:30:14Z</time></trkpt><trkpt lat="43.039079626306766" lon="10.931336517681846"><ele>245.0</ele><time>2026-04-11T09:30:16Z</time></trkpt><trkpt lat="43.03909084091646" lon="10.931181123936566"><ele>245.0</ele><time>2026-04-11T09:30:18Z</time></trkpt><trkpt lat="43.03914522416459" lon="10.931015392904223"><ele>245.0</ele><time>2026-04-11T09:30:20Z</time></trkpt><trkpt lat="43.03915949586183" lon="10.9308883181617"><ele>245.66666666666669</ele><time>2026-04-11T09:30:21Z</time></trkpt><trkpt lat="43.03916044253838" lon="10.930780123178591"><ele>246.33333333333334</ele><time>2026-04-11T09:30:22Z</time></trkpt><trkpt lat="43.03915527746691" lon="10.930693799415108"><ele>247.0</ele><time>2026-04-11T09:30:23Z</time></trkpt><trkpt lat="43.039148374048104" lon="10.930602613608102"><ele>247.66666666666669</ele><time>2026-04-11T09:30:24Z</time></trkpt><trkpt lat="43.039126989689734" lon="10.930459464100084"><ele>248.33333333333334</ele><time>2026-04-11T09:30:26Z</time></trkpt><trkpt lat="43.03916540482079" lon="10.930354129942037"><ele>249.0</ele><time>2026-04-11T09:30:30Z</time></trkpt><trkpt lat="43.03925832351688" lon="10.93033109774206"><ele>249.75</ele><time>2026-04-11T09:30:33Z</time></trkpt><trkpt lat="43.03935275267915" lon="10.930324257724212"><ele>250.5</ele><time>2026-04-11T09:30:34Z</time></trkpt><trkpt lat="43.03945799628333" lon="10.930300138248608"><ele>251.25</ele><time>2026-04-11T09:30:35Z</time></trkpt><trkpt lat="43.03958479054214" lon="10.930294333189407"><ele>252.0</ele><time>2026-04-11T09:30:36Z</time></trkpt><trkpt lat="43.03977858998186" lon="10.9302908729122"><ele>252.0</ele><time>2026-04-11T09:30:37Z</time></trkpt><trkpt lat="43.03993607141482" lon="10.930266175587118"><ele>252.0</ele><time>2026-04-11T09:30:38Z</time></trkpt><trkpt lat="43.040072703573856" lon="10.930252030161734"><ele>252.0</ele><time>2026-04-11T09:30:39Z</time></trkpt><trkpt lat="43.040182558973385" lon="10.930245837522529"><ele>252.0</ele><time>2026-04-11T09:30:40Z</time></trkpt><trkpt lat="43.04027924976586" lon="10.930244782648055"><ele>254.39999999999998</ele><time>2026-04-11T09:30:41Z</time></trkpt><trkpt lat="43.04038957155835" lon="10.930254859593644"><ele>256.79999999999995</ele><time>2026-04-11T09:30:42Z</time></trkpt><trkpt lat="43.04048941959837" lon="10.930269013638442"><ele>259.2</ele><time>2026-04-11T09:30:43Z</time></trkpt><trkpt lat="43.04058774301284" lon="10.930281430944493"><ele>261.59999999999997</ele><time>2026-04-11T09:30:44Z</time></trkpt><trkpt lat="43.04065354263768" lon="10.93029454977821"><ele>264.0</ele><time>2026-04-11T09:30:45Z</time></trkpt><trkpt lat="43.0407241296323" lon="10.930233782518856"><ele>264.0</ele><time>2026-04-11T09:30:57Z</time></trkpt><trkpt lat="43.04077865414139" lon="10.930143260361774"><ele>264.0</ele><time>2026-04-11T09:31:02Z</time></trkpt><trkpt lat="43.040769931543714" lon="10.930044577081143"><ele>264.0</ele><time>2026-04-11T09:31:08Z</time></trkpt><trkpt lat="43.040689720037044" lon="10.929988813490562"><ele>264.0</ele><time>2026-04-11T09:31:10Z</time></trkpt><trkpt lat="43.04062483600018" lon="10.92994435521624"><ele>264.0</ele><time>2026-04-11T09:31:11Z</time></trkpt><trkpt lat="43.0405496104635" lon="10.929917059536091"><ele>264.0</ele><time>2026-04-11T09:31:12Z</time></trkpt><trkpt lat="43.04046991168579" lon="10.929895855323748"><ele>263.1666666666667</ele><time>2026-04-11T09:31:13Z</time></trkpt><trkpt lat="43.04039415378342" lon="10.92986765800889"><ele>262.3333333333333</ele><time>2026-04-11T09:31:14Z</time></trkpt><trkpt lat="43.04032522867739" lon="10.929834103408911"><ele>261.5</ele><time>2026-04-11T09:31:15Z</time></trkpt><trkpt lat="43.040250190427976" lon="10.929800187080614"><ele>260.66666666666663</ele><time>2026-04-11T09:31:16Z</time></trkpt><trkpt lat="43.040138248522624" lon="10.929735498057532"><ele>259.8333333333333</ele><time>2026-04-11T09:31:18Z</time></trkpt><trkpt lat="43.040071475076054" lon="10.929690439636232"><ele>259.0</ele><time>2026-04-11T09:31:19Z</time></trkpt><trkpt lat="43.040008301704" lon="10.929637220778243"><ele>257.8333333333333</ele><time>2026-04-11T09:31:20Z</time></trkpt><trkpt lat="43.03993556741577" lon="10.929573422203157"><ele>256.66666666666663</ele><time>2026-04-11T09:31:21Z</time></trkpt><trkpt lat="43.03987534728467" lon="10.929516769326069"><ele>255.5</ele><time>2026-04-11T09:31:22Z</time></trkpt><trkpt lat="43.039824146896116" lon="10.929458679036125"><ele>254.33333333333331</ele><time>2026-04-11T09:31:23Z</time></trkpt><trkpt lat="43.03975369083599" lon="10.92946051112775"><ele>253.16666666666666</ele><time>2026-04-11T09:31:42Z</time></trkpt><trkpt lat="43.03963172247993" lon="10.929446349394853"><ele>252.0</ele><time>2026-04-11T09:31:44Z</time></trkpt><trkpt lat="43.03950911867496" lon="10.92944179193919"><ele>252.0</ele><time>2026-04-11T09:31:46Z</time></trkpt><trkpt lat="43.039433379132184" lon="10.929437577037037"><ele>252.0</ele><time>2026-04-11T09:31:47Z</time></trkpt><trkpt lat="43.039357695472155" lon="10.92943093225357"><ele>252.0</ele><time>2026-04-11T09:31:48Z</time></trkpt><trkpt lat="43.039269500990045" lon="10.929433793179147"><ele>252.0</ele><time>2026-04-11T09:31:49Z</time></trkpt><trkpt lat="43.03918035484687" lon="10.929448795579411"><ele>252.0</ele><time>2026-04-11T09:31:50Z</time></trkpt><trkpt lat="43.0391081994407" lon="10.929458719576326"><ele>252.0</ele><time>2026-04-11T09:31:51Z</time></trkpt><trkpt lat="43.039016221183466" lon="10.929468265030373"><ele>251.33333333333334</ele><time>2026-04-11T09:31:52Z</time></trkpt><trkpt lat="43.03891912118254" lon="10.929482189333218"><ele>250.66666666666669</ele><time>2026-04-11T09:31:53Z</time></trkpt><trkpt lat="43.03883339389854" lon="10.929497761760961"><ele>250.0</ele><time>2026-04-11T09:31:54Z</time></trkpt><trkpt lat="43.038766224886" lon="10.929512339399766"><ele>249.33333333333334</ele><time>2026-04-11T09:31:55Z</time></trkpt><trkpt lat="43.03870422253631" lon="10.92953681792219"><ele>248.66666666666669</ele><time>2026-04-11T09:31:56Z</time></trkpt><trkpt lat="43.03862235590586" lon="10.929548197877937"><ele>248.0</ele><time>2026-04-11T09:31:57Z</time></trkpt><trkpt lat="43.03850023726787" lon="10.929520076371457"><ele>248.0</ele><time>2026-04-11T09:31:59Z</time></trkpt><trkpt lat="43.03843314642708" lon="10.929477749555296"><ele>248.0</ele><time>2026-04-11T09:32:00Z</time></trkpt><trkpt lat="43.03830580487619" lon="10.929409453851324"><ele>248.0</ele><time>2026-04-11T09:32:02Z</time></trkpt><trkpt lat="43.038229454157985" lon="10.929369351008502"><ele>248.0</ele><time>2026-04-11T09:32:03Z</time></trkpt><trkpt lat="43.038154720307524" lon="10.929312534104602"><ele>248.0</ele><time>2026-04-11T09:32:04Z</time></trkpt><trkpt lat="43.03808583886939" lon="10.929257696086204"><ele>244.2</ele><time>2026-04-11T09:32:05Z</time></trkpt><trkpt lat="43.03801324008272" lon="10.929217683204214"><ele>240.4</ele><time>2026-04-11T09:32:06Z</time></trkpt><trkpt lat="43.03793420898986" lon="10.929178463946545"><ele>236.59999999999997</ele><time>2026-04-11T09:32:07Z</time></trkpt><trkpt lat="43.0378293485586" lon="10.92915046461291"><ele>232.79999999999998</ele><time>2026-04-11T09:32:08Z</time></trkpt><trkpt lat="43.03773076472371" lon="10.929128843164827"><ele>229.0</ele><time>2026-04-11T09:32:09Z</time></trkpt><trkpt lat="43.03761973496354" lon="10.929103371897718"><ele>228.99999999999997</ele><time>2026-04-11T09:32:10Z</time></trkpt><trkpt lat="43.03752437201051" lon="10.929080662121496"><ele>229.0</ele><time>2026-04-11T09:32:11Z</time></trkpt><trkpt lat="43.03743885248054" lon="10.92906086588137"><ele>229.0</ele><time>2026-04-11T09:32:12Z</time></trkpt><trkpt lat="43.03737034711094" lon="10.929054645052755"><ele>229.0</ele><time>2026-04-11T09:32:13Z</time></trkpt><trkpt lat="43.03729401759787" lon="10.929048840620304"><ele>228.99999999999997</ele><time>2026-04-11T09:32:15Z</time></trkpt><trkpt lat="43.037221804085455" lon="10.92910194182007"><ele>229.0</ele><time>2026-04-11T09:32:19Z</time></trkpt><trkpt lat="43.037224628069836" lon="10.929014297679661"><ele>228.2</ele><time>2026-04-11T09:32:26Z</time></trkpt><trkpt lat="43.037253501447154" lon="10.928872049298475"><ele>227.39999999999998</ele><time>2026-04-11T09:32:28Z</time></trkpt><trkpt lat="43.03725878512226" lon="10.928780517964539"><ele>226.6</ele><time>2026-04-11T09:32:29Z</time></trkpt><trkpt lat="43.03724084216263" lon="10.928647321008844"><ele>225.8</ele><time>2026-04-11T09:32:31Z</time></trkpt><trkpt lat="43.03714755439307" lon="10.928606841803644"><ele>225.0</ele><time>2026-04-11T09:32:33Z</time></trkpt><trkpt lat="43.03706860929885" lon="10.92861790884706"><ele>225.0</ele><time>2026-04-11T09:32:34Z</time></trkpt><trkpt lat="43.03695069361081" lon="10.928639120811434"><ele>225.0</ele><time>2026-04-11T09:32:35Z</time></trkpt><trkpt lat="43.03685353160403" lon="10.928656818675416"><ele>225.0</ele><time>2026-04-11T09:32:36Z</time></trkpt><trkpt lat="43.036764895258415" lon="10.928681259969657"><ele>225.0</ele><time>2026-04-11T09:32:37Z</time></trkpt><trkpt lat="43.036688803681415" lon="10.928697136449507"><ele>225.0</ele><time>2026-04-11T09:32:38Z</time></trkpt><trkpt lat="43.036623805600954" lon="10.928707679970186"><ele>224.66666666666666</ele><time>2026-04-11T09:32:39Z</time></trkpt><trkpt lat="43.036545139571494" lon="10.928688978057995"><ele>224.33333333333331</ele><time>2026-04-11T09:32:40Z</time></trkpt><trkpt lat="43.036453764502035" lon="10.928639569166487"><ele>224.0</ele><time>2026-04-11T09:32:41Z</time></trkpt><trkpt lat="43.03635712544792" lon="10.928588360747497"><ele>223.66666666666666</ele><time>2026-04-11T09:32:42Z</time></trkpt><trkpt lat="43.03628953516887" lon="10.928552829406172"><ele>223.33333333333331</ele><time>2026-04-11T09:32:43Z</time></trkpt><trkpt lat="43.03620436175287" lon="10.928541322492228"><ele>223.0</ele><time>2026-04-11T09:32:44Z</time></trkpt><trkpt lat="43.03609211988817" lon="10.928538019753507"><ele>222.99999999999997</ele><time>2026-04-11T09:32:45Z</time></trkpt><trkpt lat="43.035995287194645" lon="10.92850585290169"><ele>223.0</ele><time>2026-04-11T09:32:46Z</time></trkpt><trkpt lat="43.0358985131829" lon="10.928545332358011"><ele>223.0</ele><time>2026-04-11T09:32:47Z</time></trkpt><trkpt lat="43.0358125900877" lon="10.928582439751796"><ele>223.0</ele><time>2026-04-11T09:32:48Z</time></trkpt><trkpt lat="43.03574561163928" lon="10.928613527284334"><ele>222.99999999999997</ele><time>2026-04-11T09:32:49Z</time></trkpt><trkpt lat="43.03568889485752" lon="10.928655006306728"><ele>223.0</ele><time>2026-04-11T09:32:50Z</time></trkpt><trkpt lat="43.03559567151648" lon="10.928753030411215"><ele>222.66666666666666</ele><time>2026-04-11T09:32:52Z</time></trkpt><trkpt lat="43.035527425011175" lon="10.928817354066869"><ele>222.33333333333331</ele><time>2026-04-11T09:32:53Z</time></trkpt><trkpt lat="43.03546301164664" lon="10.928862558627586"><ele>222.0</ele><time>2026-04-11T09:32:54Z</time></trkpt><trkpt lat="43.03539750859302" lon="10.928914154719644"><ele>221.66666666666669</ele><time>2026-04-11T09:32:55Z</time></trkpt><trkpt lat="43.03532989852825" lon="10.928965765223857"><ele>221.33333333333334</ele><time>2026-04-11T09:32:56Z</time></trkpt><trkpt lat="43.03526188331906" lon="10.929023514389673"><ele>221.0</ele><time>2026-04-11T09:32:58Z</time></trkpt><trkpt lat="43.03520852501368" lon="10.929070623763748"><ele>221.00000000000003</ele><time>2026-04-11T09:33:00Z</time></trkpt><trkpt lat="43.03514441439916" lon="10.929185088257286"><ele>221.0</ele><time>2026-04-11T09:33:02Z</time></trkpt><trkpt lat="43.03509513113144" lon="10.929278539760645"><ele>221.0</ele><time>2026-04-11T09:33:03Z</time></trkpt><trkpt lat="43.03503424605837" lon="10.929379597120445"><ele>221.0</ele><time>2026-04-11T09:33:04Z</time></trkpt><trkpt lat="43.03498879456185" lon="10.929445065561815"><ele>221.00000000000003</ele><time>2026-04-11T09:33:05Z</time></trkpt><trkpt lat="43.03493652980797" lon="10.92955690240952"><ele>221.0</ele><time>2026-04-11T09:33:08Z</time></trkpt><trkpt lat="43.03489412286176" lon="10.929639069845795"><ele>219.0</ele><time>2026-04-11T09:33:10Z</time></trkpt><trkpt lat="43.03479657477902" lon="10.929719571072441"><ele>217.00000000000003</ele><time>2026-04-11T09:33:12Z</time></trkpt><trkpt lat="43.0347319516162" lon="10.929758275782081"><ele>215.0</ele><time>2026-04-11T09:33:13Z</time></trkpt><trkpt lat="43.03467240372814" lon="10.929806490956588"><ele>213.0</ele><time>2026-04-11T09:33:14Z</time></trkpt><trkpt lat="43.03458484520632" lon="10.92992088633259"><ele>211.0</ele><time>2026-04-11T09:33:16Z</time></trkpt><trkpt lat="43.034529785482164" lon="10.930011433280303"><ele>209.49999999999997</ele><time>2026-04-11T09:33:18Z</time></trkpt><trkpt lat="43.03448394472983" lon="10.93007818939309"><ele>208.0</ele><time>2026-04-11T09:33:20Z</time></trkpt><trkpt lat="43.034424255265975" lon="10.930115612750456"><ele>206.5</ele><time>2026-04-11T09:33:21Z</time></trkpt><trkpt lat="43.034331644369" lon="10.93018255526524"><ele>205.0</ele><time>2026-04-11T09:33:23Z</time></trkpt><trkpt lat="43.03425607564629" lon="10.930219037558185"><ele>203.49999999999997</ele><time>2026-04-11T09:33:25Z</time></trkpt><trkpt lat="43.03417410974103" lon="10.930257987315205"><ele>202.0</ele><time>2026-04-11T09:33:27Z</time></trkpt><trkpt lat="43.03408549522216" lon="10.93028027488606"><ele>201.39999999999998</ele><time>2026-04-11T09:33:29Z</time></trkpt><trkpt lat="43.03399917477194" lon="10.930295301699601"><ele>200.79999999999998</ele><time>2026-04-11T09:33:31Z</time></trkpt><trkpt lat="43.033898807032145" lon="10.93029456392272"><ele>200.2</ele><time>2026-04-11T09:33:34Z</time></trkpt><trkpt lat="43.03378901249305" lon="10.930312829862833"><ele>199.6</ele><time>2026-04-11T09:33:36Z</time></trkpt><trkpt lat="43.03367603299147" lon="10.930385953643254"><ele>199.0</ele><time>2026-04-11T09:33:38Z</time></trkpt><trkpt lat="43.03358266166528" lon="10.930420753750898"><ele>198.99999999999997</ele><time>2026-04-11T09:33:39Z</time></trkpt><trkpt lat="43.033508357142786" lon="10.93043534160811"><ele>199.0</ele><time>2026-04-11T09:33:40Z</time></trkpt><trkpt lat="43.033438544432045" lon="10.930443493170774"><ele>199.0</ele><time>2026-04-11T09:33:41Z</time></trkpt><trkpt lat="43.033356207369415" lon="10.93048674542241"><ele>199.0</ele><time>2026-04-11T09:33:42Z</time></trkpt><trkpt lat="43.03328987369549" lon="10.930520548242063"><ele>198.99999999999997</ele><time>2026-04-11T09:33:43Z</time></trkpt><trkpt lat="43.03322300798462" lon="10.930568814726895"><ele>199.0</ele><time>2026-04-11T09:33:44Z</time></trkpt><trkpt lat="43.03314762311356" lon="10.930597723009486"><ele>197.0</ele><time>2026-04-11T09:33:45Z</time></trkpt><trkpt lat="43.03307127299713" lon="10.930628602408248"><ele>195.0</ele><time>2026-04-11T09:33:46Z</time></trkpt><trkpt lat="43.032990061952496" lon="10.93063527534353"><ele>193.0</ele><time>2026-04-11T09:33:47Z</time></trkpt><trkpt lat="43.03287795148002" lon="10.930642198651173"><ele>191.0</ele><time>2026-04-11T09:33:49Z</time></trkpt><trkpt lat="43.032768506252964" lon="10.930676078691825"><ele>189.0</ele><time>2026-04-11T09:33:51Z</time></trkpt><trkpt lat="43.03265879435818" lon="10.930758435259621"><ele>189.0</ele><time>2026-04-11T09:33:53Z</time></trkpt><trkpt lat="43.03257282063699" lon="10.930784813294935"><ele>189.0</ele><time>2026-04-11T09:33:54Z</time></trkpt><trkpt lat="43.0324944729107" lon="10.930800149502028"><ele>189.0</ele><time>2026-04-11T09:33:55Z</time></trkpt><trkpt lat="43.0324276126441" lon="10.930841854647365"><ele>189.0</ele><time>2026-04-11T09:33:56Z</time></trkpt><trkpt lat="43.03235532134802" lon="10.930917005000069"><ele>189.0</ele><time>2026-04-11T09:33:58Z</time></trkpt><trkpt lat="43.03231034132724" lon="10.930986793953217"><ele>189.0</ele><time>2026-04-11T09:33:59Z</time></trkpt><trkpt lat="43.03225000126941" lon="10.93106562743354"><ele>187.39999999999998</ele><time>2026-04-11T09:34:00Z</time></trkpt><trkpt lat="43.0321701112423" lon="10.931125549583664"><ele>185.8</ele><time>2026-04-11T09:34:01Z</time></trkpt><trkpt lat="43.032083828946405" lon="10.931205934108986"><ele>184.2</ele><time>2026-04-11T09:34:02Z</time></trkpt><trkpt lat="43.03203180216222" lon="10.931281283026543"><ele>182.60000000000002</ele><time>2026-04-11T09:34:03Z</time></trkpt><trkpt lat="43.03197135693481" lon="10.931365051067072"><ele>181.0</ele><time>2026-04-11T09:34:05Z</time></trkpt><trkpt lat="43.03190535808285" lon="10.931458933507342"><ele>181.0</ele><time>2026-04-11T09:34:07Z</time></trkpt><trkpt lat="43.031863069733504" lon="10.931529321644017"><ele>181.0</ele><time>2026-04-11T09:34:09Z</time></trkpt><trkpt lat="43.03179534844905" lon="10.931649297807565"><ele>181.0</ele><time>2026-04-11T09:34:11Z</time></trkpt><trkpt lat="43.0317481726834" lon="10.931724080573433"><ele>181.0</ele><time>2026-04-11T09:34:12Z</time></trkpt><trkpt lat="43.03169557117178" lon="10.931797124275587"><ele>181.0</ele><time>2026-04-11T09:34:14Z</time></trkpt><trkpt lat="43.03165730477686" lon="10.93188571895391"><ele>181.0</ele><time>2026-04-11T09:34:23Z</time></trkpt><trkpt lat="43.0316114665233" lon="10.93195838554047"><ele>181.16666666666669</ele><time>2026-04-11T09:34:32Z</time></trkpt><trkpt lat="43.03163949135409" lon="10.932090092119077"><ele>181.33333333333334</ele><time>2026-04-11T09:34:49Z</time></trkpt><trkpt lat="43.03158887992055" lon="10.93215687449876"><ele>181.5</ele><time>2026-04-11T09:34:55Z</time></trkpt><trkpt lat="43.03152625978619" lon="10.932309352444978"><ele>181.66666666666666</ele><time>2026-04-11T09:35:31Z</time></trkpt><trkpt lat="43.03147121466456" lon="10.93225545241497"><ele>181.83333333333331</ele><time>2026-04-11T09:35:39Z</time></trkpt><trkpt lat="43.03143804540688" lon="10.93215390878613"><ele>182.0</ele><time>2026-04-11T09:35:42Z</time></trkpt><trkpt lat="43.03141135095395" lon="10.932068611144153"><ele>182.0</ele><time>2026-04-11T09:35:44Z</time></trkpt><trkpt lat="43.031344300287465" lon="10.932044357677643"><ele>182.0</ele><time>2026-04-11T09:35:47Z</time></trkpt><trkpt lat="43.03128760909951" lon="10.932087186484464"><ele>182.0</ele><time>2026-04-11T09:35:48Z</time></trkpt><trkpt lat="43.03120538400284" lon="10.932119999756335"><ele>182.0</ele><time>2026-04-11T09:35:49Z</time></trkpt><trkpt lat="43.031128349234045" lon="10.932114558402377"><ele>182.0</ele><time>2026-04-11T09:35:50Z</time></trkpt><trkpt lat="43.03103822544354" lon="10.93211447980801"><ele>182.0</ele><time>2026-04-11T09:35:51Z</time></trkpt><trkpt lat="43.03094154650635" lon="10.932120547348747"><ele>182.0</ele><time>2026-04-11T09:35:52Z</time></trkpt><trkpt lat="43.03088411545778" lon="10.9321636157351"><ele>182.0</ele><time>2026-04-11T09:35:53Z</time></trkpt><trkpt lat="43.03077441037844" lon="10.932192875046953"><ele>182.0</ele><time>2026-04-11T09:35:55Z</time></trkpt><trkpt lat="43.0307061817381" lon="10.932198896304492"><ele>182.0</ele><time>2026-04-11T09:35:56Z</time></trkpt><trkpt lat="43.03061203932223" lon="10.932241596253371"><ele>182.0</ele><time>2026-04-11T09:35:57Z</time></trkpt><trkpt lat="43.03051635276749" lon="10.932290781002534"><ele>182.0</ele><time>2026-04-11T09:35:58Z</time></trkpt><trkpt lat="43.030416765913486" lon="10.932330294616582"><ele>182.16666666666666</ele><time>2026-04-11T09:35:59Z</time></trkpt><trkpt lat="43.030343324923656" lon="10.932356340363418"><ele>182.33333333333331</ele><time>2026-04-11T09:36:00Z</time></trkpt><trkpt lat="43.03024335236864" lon="10.932371420155317"><ele>182.5</ele><time>2026-04-11T09:36:02Z</time></trkpt><trkpt lat="43.0301318974668" lon="10.932356553865638"><ele>182.66666666666666</ele><time>2026-04-11T09:36:04Z</time></trkpt><trkpt lat="43.03006654993902" lon="10.932348536847103"><ele>182.83333333333334</ele><time>2026-04-11T09:36:05Z</time></trkpt><trkpt lat="43.029990978225094" lon="10.93234219898479"><ele>183.0</ele><time>2026-04-11T09:36:06Z</time></trkpt><trkpt lat="43.02990550663624" lon="10.932328317815914"><ele>182.5</ele><time>2026-04-11T09:36:07Z</time></trkpt><trkpt lat="43.02982400426446" lon="10.932336076060977"><ele>182.0</ele><time>2026-04-11T09:36:08Z</time></trkpt><trkpt lat="43.02975051725086" lon="10.932311507718417"><ele>181.5</ele><time>2026-04-11T09:36:09Z</time></trkpt><trkpt lat="43.02965710111201" lon="10.932286056668968"><ele>181.0</ele><time>2026-04-11T09:36:11Z</time></trkpt><trkpt lat="43.029584423745526" lon="10.93230493196992"><ele>180.5</ele><time>2026-04-11T09:36:13Z</time></trkpt><trkpt lat="43.029497994745526" lon="10.932385809613244"><ele>180.0</ele><time>2026-04-11T09:36:15Z</time></trkpt><trkpt lat="43.029436734238786" lon="10.93246354537298"><ele>180.0</ele><time>2026-04-11T09:36:17Z</time></trkpt><trkpt lat="43.029359837363344" lon="10.932549936972583"><ele>180.0</ele><time>2026-04-11T09:36:19.001Z</time></trkpt><trkpt lat="43.02929655458969" lon="10.932617334277488"><ele>180.0</ele><time>2026-04-11T09:36:22.001Z</time></trkpt><trkpt lat="43.02920764293795" lon="10.932658525300969"><ele>180.0</ele><time>2026-04-11T09:36:25.001Z</time></trkpt><trkpt lat="43.02916124855568" lon="10.932718315083049"><ele>180.0</ele><time>2026-04-11T09:36:27.001Z</time></trkpt><trkpt lat="43.029103850715344" lon="10.932783970914468"><ele>180.0</ele><time>2026-04-11T09:36:30.001Z</time></trkpt><trkpt lat="43.029054716084076" lon="10.932861190180775"><ele>179.0</ele><time>2026-04-11T09:36:32.001Z</time></trkpt><trkpt lat="43.029020576835165" lon="10.932941377004854"><ele>178.0</ele><time>2026-04-11T09:36:34.001Z</time></trkpt><trkpt lat="43.028913355567816" lon="10.933034466740319"><ele>177.0</ele><time>2026-04-11T09:36:36.001Z</time></trkpt><trkpt lat="43.028832675060045" lon="10.933064338878332"><ele>176.0</ele><time>2026-04-11T09:36:37.001Z</time></trkpt><trkpt lat="43.028741574004115" lon="10.933102980176633"><ele>175.0</ele><time>2026-04-11T09:36:38.001Z</time></trkpt><trkpt lat="43.028651752250326" lon="10.933137429041414"><ele>175.0</ele><time>2026-04-11T09:36:39.001Z</time></trkpt><trkpt lat="43.02856327091951" lon="10.93317766577486"><ele>175.0</ele><time>2026-04-11T09:36:40.001Z</time></trkpt><trkpt lat="43.02848522749567" lon="10.93320852750001"><ele>175.0</ele><time>2026-04-11T09:36:41.001Z</time></trkpt><trkpt lat="43.02842134024128" lon="10.93324006491931"><ele>175.0</ele><time>2026-04-11T09:36:42.001Z</time></trkpt><trkpt lat="43.02834561798878" lon="10.93327643041722"><ele>175.0</ele><time>2026-04-11T09:36:43.001Z</time></trkpt><trkpt lat="43.028247557833886" lon="10.933307502112608"><ele>175.0</ele><time>2026-04-11T09:36:44.001Z</time></trkpt><trkpt lat="43.028163913996586" lon="10.93333122191636"><ele>175.6</ele><time>2026-04-11T09:36:45.001Z</time></trkpt><trkpt lat="43.02805880796503" lon="10.933356596767057"><ele>176.2</ele><time>2026-04-11T09:36:46.001Z</time></trkpt><trkpt lat="43.02795112102495" lon="10.933387457944072"><ele>176.8</ele><time>2026-04-11T09:36:47.001Z</time></trkpt><trkpt lat="43.02787055581044" lon="10.933417850144012"><ele>177.4</ele><time>2026-04-11T09:36:48.001Z</time></trkpt><trkpt lat="43.02777917966256" lon="10.933449573439587"><ele>178.0</ele><time>2026-04-11T09:36:49.001Z</time></trkpt><trkpt lat="43.02768918403757" lon="10.933470930127877"><ele>176.0</ele><time>2026-04-11T09:36:50.001Z</time></trkpt><trkpt lat="43.02759940719309" lon="10.933499036278448"><ele>174.0</ele><time>2026-04-11T09:36:51.001Z</time></trkpt><trkpt lat="43.02750160527177" lon="10.933517544050316"><ele>172.0</ele><time>2026-04-11T09:36:52.001Z</time></trkpt><trkpt lat="43.02740008108254" lon="10.933567411008129"><ele>170.0</ele><time>2026-04-11T09:36:53.001Z</time></trkpt><trkpt lat="43.02732176410303" lon="10.93361275952926"><ele>168.0</ele><time>2026-04-11T09:36:54.001Z</time></trkpt><trkpt lat="43.02724830180341" lon="10.933656721361055"><ele>168.0</ele><time>2026-04-11T09:36:55.001Z</time></trkpt><trkpt lat="43.027187012206426" lon="10.93370728892669"><ele>168.0</ele><time>2026-04-11T09:36:56.001Z</time></trkpt><trkpt lat="43.02708745266852" lon="10.933797679350521"><ele>168.0</ele><time>2026-04-11T09:36:58.001Z</time></trkpt><trkpt lat="43.027018016919634" lon="10.933834247508157"><ele>168.0</ele><time>2026-04-11T09:36:59.001Z</time></trkpt><trkpt lat="43.026925536491255" lon="10.933892336124964"><ele>168.0</ele><time>2026-04-11T09:37:00.001Z</time></trkpt><trkpt lat="43.02682015447862" lon="10.933936638051694"><ele>168.0</ele><time>2026-04-11T09:37:01.001Z</time></trkpt><trkpt lat="43.02671401593291" lon="10.933976621575622"><ele>168.0</ele><time>2026-04-11T09:37:02.001Z</time></trkpt><trkpt lat="43.026616976148055" lon="10.934002761453124"><ele>168.0</ele><time>2026-04-11T09:37:03.001Z</time></trkpt><trkpt lat="43.026528982802034" lon="10.934023959231542"><ele>168.0</ele><time>2026-04-11T09:37:04.001Z</time></trkpt><trkpt lat="43.02644782330326" lon="10.93405315231658"><ele>168.0</ele><time>2026-04-11T09:37:05.001Z</time></trkpt><trkpt lat="43.026372406413614" lon="10.934095612226017"><ele>168.66666666666666</ele><time>2026-04-11T09:37:06.001Z</time></trkpt><trkpt lat="43.026301692010456" lon="10.934147042591015"><ele>169.33333333333334</ele><time>2026-04-11T09:37:07.001Z</time></trkpt><trkpt lat="43.02624455712015" lon="10.934190540101442"><ele>170.0</ele><time>2026-04-11T09:37:08.001Z</time></trkpt><trkpt lat="43.0261476020165" lon="10.93420408529726"><ele>170.66666666666669</ele><time>2026-04-11T09:37:10.001Z</time></trkpt><trkpt lat="43.026077058651566" lon="10.934231727503558"><ele>171.33333333333334</ele><time>2026-04-11T09:37:12.001Z</time></trkpt><trkpt lat="43.02597598791515" lon="10.934283479219353"><ele>172.0</ele><time>2026-04-11T09:37:15.001Z</time></trkpt><trkpt lat="43.02587420108141" lon="10.93429515902212"><ele>171.6</ele><time>2026-04-11T09:37:17.001Z</time></trkpt><trkpt lat="43.02578590610994" lon="10.934271232054652"><ele>171.2</ele><time>2026-04-11T09:37:19.001Z</time></trkpt><trkpt lat="43.0257203620795" lon="10.934251789143913"><ele>170.8</ele><time>2026-04-11T09:37:20.001Z</time></trkpt><trkpt lat="43.025620001366704" lon="10.934207179715546"><ele>170.4</ele><time>2026-04-11T09:37:21.001Z</time></trkpt><trkpt lat="43.02550514608689" lon="10.934177273948642"><ele>170.0</ele><time>2026-04-11T09:37:22.001Z</time></trkpt><trkpt lat="43.02541321743739" lon="10.934141706985082"><ele>169.66666666666666</ele><time>2026-04-11T09:37:23.001Z</time></trkpt><trkpt lat="43.02531900358154" lon="10.93411627508273"><ele>169.33333333333331</ele><time>2026-04-11T09:37:24.001Z</time></trkpt><trkpt lat="43.02524523409224" lon="10.934102310143746"><ele>169.0</ele><time>2026-04-11T09:37:25.001Z</time></trkpt><trkpt lat="43.02516331516086" lon="10.934083138866642"><ele>168.66666666666666</ele><time>2026-04-11T09:37:26.001Z</time></trkpt><trkpt lat="43.02508817207568" lon="10.93405846201657"><ele>168.33333333333334</ele><time>2026-04-11T09:37:27.001Z</time></trkpt><trkpt lat="43.02500334361414" lon="10.934057790578287"><ele>168.0</ele><time>2026-04-11T09:37:29.001Z</time></trkpt><trkpt lat="43.024944382928986" lon="10.934106830563698"><ele>168.0</ele><time>2026-04-11T09:37:32.001Z</time></trkpt><trkpt lat="43.02487122771206" lon="10.934170031187238"><ele>168.0</ele><time>2026-04-11T09:37:34.001Z</time></trkpt><trkpt lat="43.02480762109661" lon="10.934285352162112"><ele>168.0</ele><time>2026-04-11T09:37:36.001Z</time></trkpt><trkpt lat="43.02477370958216" lon="10.934366300683127"><ele>168.0</ele><time>2026-04-11T09:37:38.001Z</time></trkpt><trkpt lat="43.02466896121229" lon="10.934423102313076"><ele>168.0</ele><time>2026-04-11T09:37:40.001Z</time></trkpt><trkpt lat="43.024574064316084" lon="10.934436190256761"><ele>168.8</ele><time>2026-04-11T09:37:42.001Z</time></trkpt><trkpt lat="43.02449707587732" lon="10.934473780914294"><ele>169.60000000000002</ele><time>2026-04-11T09:37:45.001Z</time></trkpt><trkpt lat="43.02441255967771" lon="10.934412222981672"><ele>170.39999999999998</ele><time>2026-04-11T09:37:48.001Z</time></trkpt><trkpt lat="43.02434464392973" lon="10.934362352389982"><ele>171.2</ele><time>2026-04-11T09:37:50.001Z</time></trkpt><trkpt lat="43.02422970846359" lon="10.934305024976085"><ele>172.0</ele><time>2026-04-11T09:37:52.001Z</time></trkpt><trkpt lat="43.024138070190695" lon="10.934262406555073"><ele>172.0</ele><time>2026-04-11T09:37:54.001Z</time></trkpt><trkpt lat="43.0240638833265" lon="10.934231342569477"><ele>172.0</ele><time>2026-04-11T09:37:56.001Z</time></trkpt><trkpt lat="43.02400083423566" lon="10.934206954015606"><ele>172.0</ele><time>2026-04-11T09:37:58.001Z</time></trkpt><trkpt lat="43.02393278202441" lon="10.934189915910649"><ele>172.0</ele><time>2026-04-11T09:37:59.001Z</time></trkpt><trkpt lat="43.02383154519536" lon="10.934184331886742"><ele>172.0</ele><time>2026-04-11T09:38:01.001Z</time></trkpt><trkpt lat="43.023756138424446" lon="10.934196967538055"><ele>172.0</ele><time>2026-04-11T09:38:03.001Z</time></trkpt><trkpt lat="43.023692072299376" lon="10.934226582613531"><ele>171.2</ele><time>2026-04-11T09:38:05.001Z</time></trkpt><trkpt lat="43.02361567579088" lon="10.934204395414449"><ele>170.39999999999998</ele><time>2026-04-11T09:38:07.001Z</time></trkpt><trkpt lat="43.0235281025534" lon="10.934167978602158"><ele>169.60000000000002</ele><time>2026-04-11T09:38:09.001Z</time></trkpt><trkpt lat="43.02340540503389" lon="10.934093383537748"><ele>168.8</ele><time>2026-04-11T09:38:11.001Z</time></trkpt><trkpt lat="43.02331335823081" lon="10.934102620337647"><ele>168.0</ele><time>2026-04-11T09:38:12.001Z</time></trkpt><trkpt lat="43.0231957026846" lon="10.934069571475682"><ele>167.5</ele><time>2026-04-11T09:38:13.001Z</time></trkpt><trkpt lat="43.0230915598447" lon="10.934027882680242"><ele>167.0</ele><time>2026-04-11T09:38:14.001Z</time></trkpt><trkpt lat="43.023004266939" lon="10.93401637680862"><ele>166.5</ele><time>2026-04-11T09:38:15.001Z</time></trkpt><trkpt lat="43.02294200719667" lon="10.93398432915947"><ele>166.0</ele><time>2026-04-11T09:38:16.001Z</time></trkpt><trkpt lat="43.02288140475036" lon="10.933944558099926"><ele>165.5</ele><time>2026-04-11T09:38:18.001Z</time></trkpt><trkpt lat="43.02280213607651" lon="10.933935809096765"><ele>165.0</ele><time>2026-04-11T09:38:22.001Z</time></trkpt><trkpt lat="43.02271406573916" lon="10.933903365444184"><ele>165.0</ele><time>2026-04-11T09:38:24.001Z</time></trkpt><trkpt lat="43.02259168263474" lon="10.933871142513631"><ele>165.0</ele><time>2026-04-11T09:38:26.001Z</time></trkpt><trkpt lat="43.022519680871454" lon="10.93385142634016"><ele>165.0</ele><time>2026-04-11T09:38:27.001Z</time></trkpt><trkpt lat="43.02245415740248" lon="10.933823187192658"><ele>165.0</ele><time>2026-04-11T09:38:28.001Z</time></trkpt><trkpt lat="43.02238115887295" lon="10.933794393628643"><ele>165.0</ele><time>2026-04-11T09:38:29.001Z</time></trkpt><trkpt lat="43.02228432589918" lon="10.933775666134196"><ele>165.0</ele><time>2026-04-11T09:38:30.001Z</time></trkpt><trkpt lat="43.022192362152886" lon="10.933758080212352"><ele>164.85714285714286</ele><time>2026-04-11T09:38:31Z</time></trkpt><trkpt lat="43.022122171003154" lon="10.9337403219516"><ele>164.71428571428572</ele><time>2026-04-11T09:38:32Z</time></trkpt><trkpt lat="43.022049699906916" lon="10.933739985375695"><ele>164.57142857142856</ele><time>2026-04-11T09:38:33Z</time></trkpt><trkpt lat="43.021976026144834" lon="10.933703316551203"><ele>164.42857142857144</ele><time>2026-04-11T09:38:34Z</time></trkpt><trkpt lat="43.02191028166088" lon="10.933673921104802"><ele>164.28571428571428</ele><time>2026-04-11T09:38:35Z</time></trkpt><trkpt lat="43.02183999622562" lon="10.933628047667186"><ele>164.14285714285714</ele><time>2026-04-11T09:38:36Z</time></trkpt><trkpt lat="43.02177715344876" lon="10.933581585493469"><ele>164.0</ele><time>2026-04-11T09:38:37Z</time></trkpt><trkpt lat="43.021686564501216" lon="10.933491714465223"><ele>162.0</ele><time>2026-04-11T09:38:39Z</time></trkpt><trkpt lat="43.021621495325306" lon="10.933471310811136"><ele>160.0</ele><time>2026-04-11T09:38:41Z</time></trkpt><trkpt lat="43.0215329224857" lon="10.933495316320322"><ele>158.0</ele><time>2026-04-11T09:38:43Z</time></trkpt><trkpt lat="43.021470897020826" lon="10.933523785810563"><ele>156.0</ele><time>2026-04-11T09:38:44Z</time></trkpt><trkpt lat="43.02137002388911" lon="10.9335672829454"><ele>154.0</ele><time>2026-04-11T09:38:46Z</time></trkpt><trkpt lat="43.021291310962006" lon="10.933556007362762"><ele>152.0</ele><time>2026-04-11T09:38:48Z</time></trkpt><trkpt lat="43.021201468261395" lon="10.933549577454043"><ele>152.0</ele><time>2026-04-11T09:38:50Z</time></trkpt><trkpt lat="43.021107887342644" lon="10.933523525843457"><ele>152.0</ele><time>2026-04-11T09:38:52Z</time></trkpt><trkpt lat="43.02101041713298" lon="10.93344600148241"><ele>152.0</ele><time>2026-04-11T09:38:54Z</time></trkpt><trkpt lat="43.020892363771885" lon="10.933377000682178"><ele>152.0</ele><time>2026-04-11T09:38:56Z</time></trkpt><trkpt lat="43.020828630762864" lon="10.933343100979432"><ele>152.0</ele><time>2026-04-11T09:38:57Z</time></trkpt><trkpt lat="43.02070331282763" lon="10.933284195414476"><ele>151.83333333333331</ele><time>2026-04-11T09:38:59Z</time></trkpt><trkpt lat="43.020624496328864" lon="10.933257685633741"><ele>151.66666666666666</ele><time>2026-04-11T09:39:00Z</time></trkpt><trkpt lat="43.02055325845304" lon="10.933242798504978"><ele>151.5</ele><time>2026-04-11T09:39:01Z</time></trkpt><trkpt lat="43.020464240804166" lon="10.93321449201296"><ele>151.33333333333334</ele><time>2026-04-11T09:39:02Z</time></trkpt><trkpt lat="43.020349114158954" lon="10.933176533543813"><ele>151.16666666666669</ele><time>2026-04-11T09:39:04Z</time></trkpt><trkpt lat="43.02028444070867" lon="10.933163875480336"><ele>151.0</ele><time>2026-04-11T09:39:05Z</time></trkpt><trkpt lat="43.02015666733147" lon="10.93309038440964"><ele>151.0</ele><time>2026-04-11T09:39:07Z</time></trkpt><trkpt lat="43.020064297275766" lon="10.933065190629101"><ele>151.0</ele><time>2026-04-11T09:39:08Z</time></trkpt><trkpt lat="43.019986748772574" lon="10.933039836484461"><ele>151.0</ele><time>2026-04-11T09:39:09Z</time></trkpt><trkpt lat="43.01991241345081" lon="10.933030517749343"><ele>151.0</ele><time>2026-04-11T09:39:10Z</time></trkpt><trkpt lat="43.01981404338345" lon="10.933015150305728"><ele>151.0</ele><time>2026-04-11T09:39:12Z</time></trkpt><trkpt lat="43.01972372981446" lon="10.9330127412015"><ele>151.0</ele><time>2026-04-11T09:39:15Z</time></trkpt><trkpt lat="43.01965907768605" lon="10.932989754730349"><ele>150.2</ele><time>2026-04-11T09:39:17Z</time></trkpt><trkpt lat="43.0195725780326" lon="10.932956464455806"><ele>149.39999999999998</ele><time>2026-04-11T09:39:19Z</time></trkpt><trkpt lat="43.019476486359" lon="10.932924471567736"><ele>148.6</ele><time>2026-04-11T09:39:21Z</time></trkpt><trkpt lat="43.01937444768963" lon="10.932894815549377"><ele>147.79999999999998</ele><time>2026-04-11T09:39:23Z</time></trkpt><trkpt lat="43.0192899537892" lon="10.93288938330739"><ele>147.0</ele><time>2026-04-11T09:39:25Z</time></trkpt><trkpt lat="43.01921993634614" lon="10.932919457573343"><ele>147.0</ele><time>2026-04-11T09:40:06Z</time></trkpt><trkpt lat="43.01914945933221" lon="10.932929267891469"><ele>147.0</ele><time>2026-04-11T09:40:09Z</time></trkpt><trkpt lat="43.01905041292562" lon="10.932933392946032"><ele>147.0</ele><time>2026-04-11T09:40:11Z</time></trkpt><trkpt lat="43.01894229868648" lon="10.932924494849917"><ele>147.0</ele><time>2026-04-11T09:40:13Z</time></trkpt><trkpt lat="43.01885387160199" lon="10.932931013802335"><ele>147.0</ele><time>2026-04-11T09:40:16Z</time></trkpt><trkpt lat="43.01873701564678" lon="10.932908658217128"><ele>147.0</ele><time>2026-04-11T09:40:19Z</time></trkpt><trkpt lat="43.018652975641025" lon="10.932853768870794"><ele>147.0</ele><time>2026-04-11T09:40:21Z</time></trkpt><trkpt lat="43.018564147767364" lon="10.932818167576958"><ele>147.0</ele><time>2026-04-11T09:40:23Z</time></trkpt><trkpt lat="43.01846215082306" lon="10.932773209120537"><ele>147.0</ele><time>2026-04-11T09:40:25Z</time></trkpt><trkpt lat="43.018391957268605" lon="10.93273211580251"><ele>147.0</ele><time>2026-04-11T09:40:27Z</time></trkpt><trkpt lat="43.018323289658404" lon="10.932695634269558"><ele>147.0</ele><time>2026-04-11T09:40:29Z</time></trkpt><trkpt lat="43.01823850821725" lon="10.932650964239201"><ele>146.79999999999998</ele><time>2026-04-11T09:40:31Z</time></trkpt><trkpt lat="43.018164263321545" lon="10.93258396276334"><ele>146.6</ele><time>2026-04-11T09:40:34Z</time></trkpt><trkpt lat="43.01806520197103" lon="10.932587838305743"><ele>146.39999999999998</ele><time>2026-04-11T09:40:37Z</time></trkpt><trkpt lat="43.01799941571436" lon="10.93258105806368"><ele>146.2</ele><time>2026-04-11T09:40:38Z</time></trkpt><trkpt lat="43.0179274872027" lon="10.93258686564827"><ele>146.0</ele><time>2026-04-11T09:40:39Z</time></trkpt><trkpt lat="43.017812323746156" lon="10.932661552805415"><ele>146.0</ele><time>2026-04-11T09:40:41Z</time></trkpt><trkpt lat="43.01774557441416" lon="10.932671596890025"><ele>146.0</ele><time>2026-04-11T09:40:42Z</time></trkpt><trkpt lat="43.01766446660562" lon="10.932659147032524"><ele>146.0</ele><time>2026-04-11T09:40:43Z</time></trkpt><trkpt lat="43.0175734423223" lon="10.932633279667618"><ele>146.0</ele><time>2026-04-11T09:40:44Z</time></trkpt><trkpt lat="43.01748578279463" lon="10.932619037392538"><ele>146.0</ele><time>2026-04-11T09:40:45Z</time></trkpt><trkpt lat="43.01740764335298" lon="10.9326010246217"><ele>146.0</ele><time>2026-04-11T09:40:46Z</time></trkpt><trkpt lat="43.01733884598311" lon="10.932576768529662"><ele>145.5</ele><time>2026-04-11T09:40:47Z</time></trkpt><trkpt lat="43.01726718357464" lon="10.932567092060205"><ele>145.0</ele><time>2026-04-11T09:40:48Z</time></trkpt><trkpt lat="43.017196024785974" lon="10.932559327643508"><ele>144.5</ele><time>2026-04-11T09:40:49Z</time></trkpt><trkpt lat="43.017117103027054" lon="10.93256894233174"><ele>144.0</ele><time>2026-04-11T09:40:50Z</time></trkpt><trkpt lat="43.01702293815942" lon="10.932622443777456"><ele>143.5</ele><time>2026-04-11T09:40:51Z</time></trkpt><trkpt lat="43.01691804506531" lon="10.932647285501393"><ele>143.0</ele><time>2026-04-11T09:40:52Z</time></trkpt><trkpt lat="43.01681262844752" lon="10.932673387392136"><ele>143.0</ele><time>2026-04-11T09:40:53Z</time></trkpt><trkpt lat="43.01671140344953" lon="10.932687661971519"><ele>143.0</ele><time>2026-04-11T09:40:54Z</time></trkpt><trkpt lat="43.01660922157332" lon="10.93269941359421"><ele>143.0</ele><time>2026-04-11T09:40:55Z</time></trkpt><trkpt lat="43.016513523171824" lon="10.93269075472731"><ele>143.0</ele><time>2026-04-11T09:40:56Z</time></trkpt><trkpt lat="43.01642051635575" lon="10.932682318823549"><ele>143.0</ele><time>2026-04-11T09:40:57Z</time></trkpt><trkpt lat="43.016333292802635" lon="10.932676660859995"><ele>142.20000000000002</ele><time>2026-04-11T09:40:58Z</time></trkpt><trkpt lat="43.0162284761963" lon="10.932681583493535"><ele>141.4</ele><time>2026-04-11T09:40:59Z</time></trkpt><trkpt lat="43.01612227914609" lon="10.93270219879996"><ele>140.60000000000002</ele><time>2026-04-11T09:41:00Z</time></trkpt><trkpt lat="43.016036941876784" lon="10.932727948976277"><ele>139.8</ele><time>2026-04-11T09:41:01Z</time></trkpt><trkpt lat="43.015946702620404" lon="10.932737866094218"><ele>139.0</ele><time>2026-04-11T09:41:02Z</time></trkpt><trkpt lat="43.01584983860749" lon="10.932735158398946"><ele>139.0</ele><time>2026-04-11T09:41:03Z</time></trkpt><trkpt lat="43.01576302379461" lon="10.932729266945795"><ele>139.0</ele><time>2026-04-11T09:41:04Z</time></trkpt><trkpt lat="43.01567761114495" lon="10.932726785152678"><ele>139.0</ele><time>2026-04-11T09:41:05Z</time></trkpt><trkpt lat="43.01560426512869" lon="10.932701901759426"><ele>139.0</ele><time>2026-04-11T09:41:06Z</time></trkpt><trkpt lat="43.01552864743026" lon="10.932671394592035"><ele>139.0</ele><time>2026-04-11T09:41:07Z</time></trkpt><trkpt lat="43.01544507253207" lon="10.93261384726901"><ele>139.0</ele><time>2026-04-11T09:41:08Z</time></trkpt><trkpt lat="43.01536326987247" lon="10.932568073522539"><ele>138.66666666666669</ele><time>2026-04-11T09:41:09Z</time></trkpt><trkpt lat="43.01529125027689" lon="10.93252604417935"><ele>138.33333333333334</ele><time>2026-04-11T09:41:10Z</time></trkpt><trkpt lat="43.01521549334824" lon="10.932473619716434"><ele>138.0</ele><time>2026-04-11T09:41:11Z</time></trkpt><trkpt lat="43.01513642213697" lon="10.932415373242701"><ele>137.66666666666666</ele><time>2026-04-11T09:41:12Z</time></trkpt><trkpt lat="43.01507187738483" lon="10.93236911432045"><ele>137.33333333333331</ele><time>2026-04-11T09:41:13Z</time></trkpt><trkpt lat="43.01499924372937" lon="10.932340446336116"><ele>137.0</ele><time>2026-04-11T09:41:14Z</time></trkpt><trkpt lat="43.01489363594818" lon="10.93232555213816"><ele>137.0</ele><time>2026-04-11T09:41:15Z</time></trkpt><trkpt lat="43.01479091312959" lon="10.932318429676961"><ele>137.0</ele><time>2026-04-11T09:41:16Z</time></trkpt><trkpt lat="43.01469427458401" lon="10.932321022031486"><ele>137.0</ele><time>2026-04-11T09:41:17Z</time></trkpt><trkpt lat="43.01461178769736" lon="10.932316770386906"><ele>137.0</ele><time>2026-04-11T09:41:18Z</time></trkpt><trkpt lat="43.01452340983539" lon="10.932319254961493"><ele>137.0</ele><time>2026-04-11T09:41:19Z</time></trkpt><trkpt lat="43.014443525195226" lon="10.932313200145096"><ele>137.0</ele><time>2026-04-11T09:41:20Z</time></trkpt><trkpt lat="43.01434715090967" lon="10.932315941700077"><ele>137.0</ele><time>2026-04-11T09:41:21Z</time></trkpt><trkpt lat="43.01424933208138" lon="10.932327697510846"><ele>137.0</ele><time>2026-04-11T09:41:22Z</time></trkpt><trkpt lat="43.01416778390734" lon="10.932341236031627"><ele>137.0</ele><time>2026-04-11T09:41:23Z</time></trkpt><trkpt lat="43.01407821958918" lon="10.932345674239075"><ele>137.0</ele><time>2026-04-11T09:41:24Z</time></trkpt><trkpt lat="43.01399733185811" lon="10.932326561657419"><ele>137.0</ele><time>2026-04-11T09:41:25Z</time></trkpt><trkpt lat="43.01392275621253" lon="10.932296836213478"><ele>136.83333333333331</ele><time>2026-04-11T09:41:26Z</time></trkpt><trkpt lat="43.01385780014855" lon="10.932257163622456"><ele>136.66666666666666</ele><time>2026-04-11T09:41:27Z</time></trkpt><trkpt lat="43.01378390069666" lon="10.93222123940484"><ele>136.5</ele><time>2026-04-11T09:41:28Z</time></trkpt><trkpt lat="43.01371051719923" lon="10.932172346458783"><ele>136.33333333333334</ele><time>2026-04-11T09:41:29Z</time></trkpt><trkpt lat="43.01363900820688" lon="10.932155527550197"><ele>136.16666666666669</ele><time>2026-04-11T09:41:30Z</time></trkpt><trkpt lat="43.01356806378917" lon="10.93213280784922"><ele>136.0</ele><time>2026-04-11T09:41:31Z</time></trkpt><trkpt lat="43.013490348562534" lon="10.932105216151857"><ele>135.99999999999997</ele><time>2026-04-11T09:41:32Z</time></trkpt><trkpt lat="43.013422134308406" lon="10.932082098596494"><ele>136.0</ele><time>2026-04-11T09:41:33Z</time></trkpt><trkpt lat="43.01336012500829" lon="10.932044740186514"><ele>136.0</ele><time>2026-04-11T09:41:34Z</time></trkpt><trkpt lat="43.013297586966" lon="10.932025935818027"><ele>136.0</ele><time>2026-04-11T09:41:35Z</time></trkpt><trkpt lat="43.01322787840939" lon="10.931993304080287"><ele>136.0</ele><time>2026-04-11T09:41:36Z</time></trkpt><trkpt lat="43.01314877898343" lon="10.931968017167364"><ele>135.99999999999997</ele><time>2026-04-11T09:41:37Z</time></trkpt><trkpt lat="43.01308862336845" lon="10.93193814730109"><ele>136.0</ele><time>2026-04-11T09:41:38Z</time></trkpt><trkpt lat="43.01303585113176" lon="10.931889239226383"><ele>135.57142857142856</ele><time>2026-04-11T09:41:39Z</time></trkpt><trkpt lat="43.01298678983788" lon="10.931819776616914"><ele>135.14285714285714</ele><time>2026-04-11T09:41:40Z</time></trkpt><trkpt lat="43.01294219563036" lon="10.931736192993906"><ele>134.71428571428572</ele><time>2026-04-11T09:41:41Z</time></trkpt><trkpt lat="43.01289521003162" lon="10.93166136059269"><ele>134.28571428571428</ele><time>2026-04-11T09:41:42Z</time></trkpt><trkpt lat="43.012838203898205" lon="10.931604987264803"><ele>133.85714285714286</ele><time>2026-04-11T09:41:43Z</time></trkpt><trkpt lat="43.01277660304283" lon="10.931551488720691"><ele>133.42857142857142</ele><time>2026-04-11T09:41:44Z</time></trkpt><trkpt lat="43.01271100724844" lon="10.931516597761533"><ele>133.0</ele><time>2026-04-11T09:41:45Z</time></trkpt><trkpt lat="43.01262268361915" lon="10.931484017076432"><ele>133.0</ele><time>2026-04-11T09:41:46Z</time></trkpt><trkpt lat="43.01253259088079" lon="10.931463979755948"><ele>133.0</ele><time>2026-04-11T09:41:47Z</time></trkpt><trkpt lat="43.01244699286219" lon="10.931453434585661"><ele>133.0</ele><time>2026-04-11T09:41:48Z</time></trkpt><trkpt lat="43.01237031646653" lon="10.931454125846175"><ele>133.0</ele><time>2026-04-11T09:41:49Z</time></trkpt><trkpt lat="43.01229645173031" lon="10.931475952248814"><ele>133.0</ele><time>2026-04-11T09:41:50Z</time></trkpt><trkpt lat="43.012227385145664" lon="10.931509451145889"><ele>133.0</ele><time>2026-04-11T09:41:51Z</time></trkpt><trkpt lat="43.0121514033238" lon="10.9315563241899"><ele>133.0</ele><time>2026-04-11T09:41:52Z</time></trkpt><trkpt lat="43.01208912943556" lon="10.931605141125377"><ele>133.0</ele><time>2026-04-11T09:41:53Z</time></trkpt><trkpt lat="43.01197830047547" lon="10.931624606029834"><ele>133.0</ele><time>2026-04-11T09:41:55Z</time></trkpt><trkpt lat="43.01189808663236" lon="10.93159864290911"><ele>133.0</ele><time>2026-04-11T09:41:56Z</time></trkpt><trkpt lat="43.01181547786919" lon="10.931570702478902"><ele>133.0</ele><time>2026-04-11T09:41:57Z</time></trkpt><trkpt lat="43.01172895942229" lon="10.931536944011416"><ele>133.0</ele><time>2026-04-11T09:41:58Z</time></trkpt><trkpt lat="43.01163416854927" lon="10.931513177815617"><ele>133.0</ele><time>2026-04-11T09:41:59Z</time></trkpt><trkpt lat="43.011547641346105" lon="10.93151067988471"><ele>133.0</ele><time>2026-04-11T09:42:00Z</time></trkpt><trkpt lat="43.01145889841535" lon="10.931511549321195"><ele>133.0</ele><time>2026-04-11T09:42:01Z</time></trkpt><trkpt lat="43.011374859935685" lon="10.93149602278148"><ele>133.0</ele><time>2026-04-11T09:42:02Z</time></trkpt><trkpt lat="43.011306785963505" lon="10.931492661151356"><ele>133.0</ele><time>2026-04-11T09:42:03Z</time></trkpt><trkpt lat="43.011235723229404" lon="10.931474839682899"><ele>133.0</ele><time>2026-04-11T09:42:04Z</time></trkpt><trkpt lat="43.01116057309809" lon="10.931466327236606"><ele>133.0</ele><time>2026-04-11T09:42:05Z</time></trkpt><trkpt lat="43.011088975853795" lon="10.931462336820303"><ele>133.0</ele><time>2026-04-11T09:42:06Z</time></trkpt><trkpt lat="43.01100916248741" lon="10.931460721180486"><ele>133.0</ele><time>2026-04-11T09:42:07Z</time></trkpt><trkpt lat="43.01093855052238" lon="10.93145522159012"><ele>133.0</ele><time>2026-04-11T09:42:08Z</time></trkpt><trkpt lat="43.01086994795595" lon="10.931452928732375"><ele>133.0</ele><time>2026-04-11T09:42:09Z</time></trkpt><trkpt lat="43.01073091545949" lon="10.931493914778388"><ele>133.0</ele><time>2026-04-11T09:42:11Z</time></trkpt><trkpt lat="43.010653817765494" lon="10.931542796577064"><ele>133.33333333333334</ele><time>2026-04-11T09:42:12Z</time></trkpt><trkpt lat="43.01059289184584" lon="10.931586615533353"><ele>133.66666666666669</ele><time>2026-04-11T09:42:13Z</time></trkpt><trkpt lat="43.01051568239246" lon="10.931639254599661"><ele>134.0</ele><time>2026-04-11T09:42:14Z</time></trkpt><trkpt lat="43.010437120383585" lon="10.931667150186607"><ele>134.33333333333334</ele><time>2026-04-11T09:42:15Z</time></trkpt><trkpt lat="43.01034025729064" lon="10.9316777148789"><ele>134.66666666666666</ele><time>2026-04-11T09:42:16Z</time></trkpt><trkpt lat="43.01024273827618" lon="10.931696432874334"><ele>135.0</ele><time>2026-04-11T09:42:17Z</time></trkpt><trkpt lat="43.0101405193774" lon="10.931735122024827"><ele>133.2</ele><time>2026-04-11T09:42:18Z</time></trkpt><trkpt lat="43.010037163293504" lon="10.931779656577394"><ele>131.4</ele><time>2026-04-11T09:42:19Z</time></trkpt><trkpt lat="43.009943351329646" lon="10.931823785590373"><ele>129.6</ele><time>2026-04-11T09:42:20Z</time></trkpt><trkpt lat="43.00986835592795" lon="10.931857638018073"><ele>127.8</ele><time>2026-04-11T09:42:21Z</time></trkpt><trkpt lat="43.00979243257366" lon="10.931873234757202"><ele>126.0</ele><time>2026-04-11T09:42:22Z</time></trkpt><trkpt lat="43.00970442658648" lon="10.931890950180742"><ele>125.8</ele><time>2026-04-11T09:42:23Z</time></trkpt><trkpt lat="43.009610133108445" lon="10.931904960313785"><ele>125.6</ele><time>2026-04-11T09:42:24Z</time></trkpt><trkpt lat="43.00952410645167" lon="10.93190689857347"><ele>125.4</ele><time>2026-04-11T09:42:25Z</time></trkpt><trkpt lat="43.00942763769755" lon="10.931915889638102"><ele>125.2</ele><time>2026-04-11T09:42:26Z</time></trkpt><trkpt lat="43.009339448769026" lon="10.931912207440332"><ele>125.0</ele><time>2026-04-11T09:42:27Z</time></trkpt><trkpt lat="43.00925463022176" lon="10.931907921394183"><ele>124.99999999999999</ele><time>2026-04-11T09:42:28Z</time></trkpt><trkpt lat="43.0091796961723" lon="10.931894188874239"><ele>125.0</ele><time>2026-04-11T09:42:29Z</time></trkpt><trkpt lat="43.009110074775435" lon="10.931867602492257"><ele>125.0</ele><time>2026-04-11T09:42:30Z</time></trkpt><trkpt lat="43.009017422512535" lon="10.93182550259376"><ele>125.0</ele><time>2026-04-11T09:42:32Z</time></trkpt><trkpt lat="43.008929142705554" lon="10.931765593083512"><ele>124.99999999999999</ele><time>2026-04-11T09:42:35Z</time></trkpt><trkpt lat="43.008876894056264" lon="10.931713914958143"><ele>125.0</ele><time>2026-04-11T09:42:38Z</time></trkpt><trkpt lat="43.00893700332135" lon="10.931676518811875"><ele>125.49999999999999</ele><time>2026-04-11T09:43:29Z</time></trkpt><trkpt lat="43.00893777826541" lon="10.931581930880776"><ele>126.0</ele><time>2026-04-11T09:43:47Z</time></trkpt><trkpt lat="43.00895649438001" lon="10.931495346882581"><ele>126.5</ele><time>2026-04-11T09:43:49Z</time></trkpt><trkpt lat="43.00898475090137" lon="10.931341400116624"><ele>127.0</ele><time>2026-04-11T09:43:51Z</time></trkpt><trkpt lat="43.0090141233789" lon="10.931240956112216"><ele>127.49999999999999</ele><time>2026-04-11T09:43:52Z</time></trkpt><trkpt lat="43.009045712092586" lon="10.931151419950899"><ele>128.0</ele><time>2026-04-11T09:43:53Z</time></trkpt><trkpt lat="43.0090739282922" lon="10.931039615367764"><ele>128.0</ele><time>2026-04-11T09:43:54Z</time></trkpt><trkpt lat="43.00910111925999" lon="10.930913280649586"><ele>128.0</ele><time>2026-04-11T09:43:55Z</time></trkpt><trkpt lat="43.009128464754525" lon="10.930804148792172"><ele>128.0</ele><time>2026-04-11T09:43:56Z</time></trkpt><trkpt lat="43.00914554569844" lon="10.930611643611044"><ele>128.0</ele><time>2026-04-11T09:43:57Z</time></trkpt><trkpt lat="43.009204970791394" lon="10.930441080014942"><ele>129.20000000000002</ele><time>2026-04-11T09:43:58Z</time></trkpt><trkpt lat="43.009268751913055" lon="10.930300237931007"><ele>130.4</ele><time>2026-04-11T09:43:59Z</time></trkpt><trkpt lat="43.009321709323935" lon="10.930161279582512"><ele>131.60000000000002</ele><time>2026-04-11T09:44:00Z</time></trkpt><trkpt lat="43.00935724878466" lon="10.930023094062244"><ele>132.8</ele><time>2026-04-11T09:44:01Z</time></trkpt><trkpt lat="43.009395411351626" lon="10.929897252613513"><ele>134.0</ele><time>2026-04-11T09:44:02Z</time></trkpt><trkpt lat="43.00943554338251" lon="10.929766464152426"><ele>134.0</ele><time>2026-04-11T09:44:03Z</time></trkpt><trkpt lat="43.00948980694234" lon="10.929647941009561"><ele>134.0</ele><time>2026-04-11T09:44:04Z</time></trkpt><trkpt lat="43.009542429152965" lon="10.9295432081917"><ele>134.0</ele><time>2026-04-11T09:44:05Z</time></trkpt><trkpt lat="43.009602576435014" lon="10.929422328841985"><ele>134.0</ele><time>2026-04-11T09:44:06Z</time></trkpt><trkpt lat="43.00966850178473" lon="10.929278775330529"><ele>134.0</ele><time>2026-04-11T09:44:07Z</time></trkpt><trkpt lat="43.00971990156667" lon="10.92916957596337"><ele>135.8</ele><time>2026-04-11T09:44:08Z</time></trkpt><trkpt lat="43.009771682293" lon="10.929080355849651"><ele>137.60000000000002</ele><time>2026-04-11T09:44:09Z</time></trkpt><trkpt lat="43.00983640836844" lon="10.928971960663922"><ele>139.4</ele><time>2026-04-11T09:44:10Z</time></trkpt><trkpt lat="43.00989884680182" lon="10.928871949590185"><ele>141.20000000000002</ele><time>2026-04-11T09:44:11Z</time></trkpt><trkpt lat="43.0099525208041" lon="10.928773515675674"><ele>143.0</ele><time>2026-04-11T09:44:12Z</time></trkpt><trkpt lat="43.00999756426422" lon="10.928652204946333"><ele>143.0</ele><time>2026-04-11T09:44:13Z</time></trkpt><trkpt lat="43.010042631698155" lon="10.928527954546817"><ele>143.0</ele><time>2026-04-11T09:44:14Z</time></trkpt><trkpt lat="43.01007847692057" lon="10.928424240110816"><ele>143.0</ele><time>2026-04-11T09:44:15Z</time></trkpt><trkpt lat="43.01010984095239" lon="10.928297689431966"><ele>143.0</ele><time>2026-04-11T09:44:16Z</time></trkpt><trkpt lat="43.01013618770561" lon="10.928153337354722"><ele>143.0</ele><time>2026-04-11T09:44:17Z</time></trkpt><trkpt lat="43.010141901635485" lon="10.92804937922572"><ele>142.33333333333331</ele><time>2026-04-11T09:44:18Z</time></trkpt><trkpt lat="43.010126401816215" lon="10.927950899836683"><ele>141.66666666666666</ele><time>2026-04-11T09:44:19Z</time></trkpt><trkpt lat="43.0100970470515" lon="10.927872620487328"><ele>141.0</ele><time>2026-04-11T09:44:20Z</time></trkpt><trkpt lat="43.010057046731" lon="10.92778762016347"><ele>140.33333333333334</ele><time>2026-04-11T09:44:21Z</time></trkpt><trkpt lat="43.01002338221406" lon="10.927687275989962"><ele>139.66666666666669</ele><time>2026-04-11T09:44:22Z</time></trkpt><trkpt lat="43.00999603362182" lon="10.927566645807298"><ele>139.0</ele><time>2026-04-11T09:44:23Z</time></trkpt><trkpt lat="43.00997193417291" lon="10.92745615582475"><ele>142.6</ele><time>2026-04-11T09:44:24Z</time></trkpt><trkpt lat="43.00993847080057" lon="10.927328212434551"><ele>146.2</ele><time>2026-04-11T09:44:25Z</time></trkpt><trkpt lat="43.00989880840307" lon="10.927214444847284"><ele>149.79999999999998</ele><time>2026-04-11T09:44:26Z</time></trkpt><trkpt lat="43.009870160304644" lon="10.927054570917802"><ele>153.4</ele><time>2026-04-11T09:44:27Z</time></trkpt><trkpt lat="43.009858310589145" lon="10.926909797237215"><ele>157.0</ele><time>2026-04-11T09:44:28Z</time></trkpt><trkpt lat="43.009833985455124" lon="10.926765008144628"><ele>156.2</ele><time>2026-04-11T09:44:29Z</time></trkpt><trkpt lat="43.00980726086924" lon="10.926621905103012"><ele>155.39999999999998</ele><time>2026-04-11T09:44:30Z</time></trkpt><trkpt lat="43.00978360731988" lon="10.92647758831266"><ele>154.60000000000002</ele><time>2026-04-11T09:44:31Z</time></trkpt><trkpt lat="43.009763167894405" lon="10.926313838321155"><ele>153.8</ele><time>2026-04-11T09:44:32Z</time></trkpt><trkpt lat="43.00974972752029" lon="10.926178910813347"><ele>153.0</ele><time>2026-04-11T09:44:33Z</time></trkpt><trkpt lat="43.00974145731547" lon="10.926042954150967"><ele>153.0</ele><time>2026-04-11T09:44:34Z</time></trkpt><trkpt lat="43.009732497814106" lon="10.92594639143399"><ele>153.0</ele><time>2026-04-11T09:44:35Z</time></trkpt><trkpt lat="43.009716874850504" lon="10.92585486186101"><ele>153.0</ele><time>2026-04-11T09:44:36Z</time></trkpt><trkpt lat="43.00972649261494" lon="10.925732771380902"><ele>153.0</ele><time>2026-04-11T09:44:37Z</time></trkpt><trkpt lat="43.00974686340729" lon="10.925599344300714"><ele>153.0</ele><time>2026-04-11T09:44:38Z</time></trkpt><trkpt lat="43.00976104835488" lon="10.925461458239429"><ele>153.0</ele><time>2026-04-11T09:44:39Z</time></trkpt><trkpt lat="43.00975648111014" lon="10.92533063989209"><ele>152.8</ele><time>2026-04-11T09:44:40Z</time></trkpt><trkpt lat="43.009755530236234" lon="10.925193035223556"><ele>152.60000000000002</ele><time>2026-04-11T09:44:41Z</time></trkpt><trkpt lat="43.00976662377974" lon="10.925078774883314"><ele>152.39999999999998</ele><time>2026-04-11T09:44:42Z</time></trkpt><trkpt lat="43.0097898721443" lon="10.924937791540469"><ele>152.2</ele><time>2026-04-11T09:44:43Z</time></trkpt><trkpt lat="43.00982200382326" lon="10.924800024528242"><ele>152.0</ele><time>2026-04-11T09:44:44Z</time></trkpt><trkpt lat="43.00985122751491" lon="10.924672551963992"><ele>153.0</ele><time>2026-04-11T09:44:45Z</time></trkpt><trkpt lat="43.00989185361659" lon="10.92455337330586"><ele>154.0</ele><time>2026-04-11T09:44:46Z</time></trkpt><trkpt lat="43.009939480336186" lon="10.924460277499284"><ele>155.0</ele><time>2026-04-11T09:44:47Z</time></trkpt><trkpt lat="43.00997376537226" lon="10.924347744011726"><ele>156.0</ele><time>2026-04-11T09:44:48Z</time></trkpt><trkpt lat="43.009998566217966" lon="10.924228244849886"><ele>157.0</ele><time>2026-04-11T09:44:49Z</time></trkpt><trkpt lat="43.01002800003037" lon="10.924038621670356"><ele>157.33333333333334</ele><time>2026-04-11T09:44:51Z</time></trkpt><trkpt lat="43.010037696266124" lon="10.923921338654198"><ele>157.66666666666669</ele><time>2026-04-11T09:44:52Z</time></trkpt><trkpt lat="43.010039884105005" lon="10.92382147283301"><ele>158.0</ele><time>2026-04-11T09:44:53Z</time></trkpt><trkpt lat="43.01002839404955" lon="10.92372618911428"><ele>158.33333333333334</ele><time>2026-04-11T09:44:54Z</time></trkpt><trkpt lat="43.01000279162236" lon="10.92364253449006"><ele>158.66666666666666</ele><time>2026-04-11T09:44:55Z</time></trkpt><trkpt lat="43.009960276767835" lon="10.923497229903054"><ele>159.0</ele><time>2026-04-11T09:44:57Z</time></trkpt><trkpt lat="43.009980373029805" lon="10.923342934849588"><ele>159.0</ele><time>2026-04-11T09:44:59Z</time></trkpt><trkpt lat="43.009999112168934" lon="10.92325194998462"><ele>159.0</ele><time>2026-04-11T09:45:00Z</time></trkpt><trkpt lat="43.01000572806817" lon="10.9231260918348"><ele>159.0</ele><time>2026-04-11T09:45:01Z</time></trkpt><trkpt lat="43.00999831993401" lon="10.923002995099212"><ele>159.0</ele><time>2026-04-11T09:45:02Z</time></trkpt><trkpt lat="43.0099923370843" lon="10.922882263124995"><ele>159.0</ele><time>2026-04-11T09:45:03Z</time></trkpt><trkpt lat="43.009987328795724" lon="10.922789584443056"><ele>159.0</ele><time>2026-04-11T09:45:04Z</time></trkpt><trkpt lat="43.01000685892835" lon="10.922671901245815"><ele>157.6</ele><time>2026-04-11T09:45:05Z</time></trkpt><trkpt lat="43.009995176405546" lon="10.922538855558424"><ele>156.2</ele><time>2026-04-11T09:45:06Z</time></trkpt><trkpt lat="43.00997330039491" lon="10.92241401179483"><ele>154.79999999999998</ele><time>2026-04-11T09:45:07Z</time></trkpt><trkpt lat="43.00996646915691" lon="10.922317398635192"><ele>153.4</ele><time>2026-04-11T09:45:08Z</time></trkpt><trkpt lat="43.00995244222424" lon="10.922191873550501"><ele>152.0</ele><time>2026-04-11T09:45:10Z</time></trkpt><trkpt lat="43.0099845384454" lon="10.922065188017685"><ele>151.79999999999998</ele><time>2026-04-11T09:45:12Z</time></trkpt><trkpt lat="43.01005192571148" lon="10.922009616569445"><ele>151.6</ele><time>2026-04-11T09:45:13Z</time></trkpt><trkpt lat="43.01012820273664" lon="10.921926256558248"><ele>151.39999999999998</ele><time>2026-04-11T09:45:14Z</time></trkpt><trkpt lat="43.010206210032365" lon="10.921810670885941"><ele>151.2</ele><time>2026-04-11T09:45:15Z</time></trkpt><trkpt lat="43.01027904025805" lon="10.921721120402692"><ele>151.0</ele><time>2026-04-11T09:45:16Z</time></trkpt><trkpt lat="43.01034407560779" lon="10.921603613414831"><ele>151.0</ele><time>2026-04-11T09:45:17Z</time></trkpt><trkpt lat="43.010398683622505" lon="10.921524745442785"><ele>151.0</ele><time>2026-04-11T09:45:18Z</time></trkpt><trkpt lat="43.01048359205537" lon="10.921484555439115"><ele>151.0</ele><time>2026-04-11T09:45:20Z</time></trkpt><trkpt lat="43.01054227114007" lon="10.92157243749306"><ele>151.0</ele><time>2026-04-11T09:45:22Z</time></trkpt><trkpt lat="43.010556190878894" lon="10.921728118050849"><ele>151.0</ele><time>2026-04-11T09:45:24Z</time></trkpt><trkpt lat="43.01053820715552" lon="10.921817692546606"><ele>151.0</ele><time>2026-04-11T09:45:25Z</time></trkpt><trkpt lat="43.01052677044646" lon="10.921921236081321"><ele>150.4</ele><time>2026-04-11T09:45:26Z</time></trkpt><trkpt lat="43.01052945568668" lon="10.922019783587162"><ele>149.8</ele><time>2026-04-11T09:45:27Z</time></trkpt><trkpt lat="43.01053376044986" lon="10.922108830426907"><ele>149.20000000000002</ele><time>2026-04-11T09:45:28Z</time></trkpt><trkpt lat="43.010543336182636" lon="10.922265661011295"><ele>148.6</ele><time>2026-04-11T09:45:30Z</time></trkpt><trkpt lat="43.010604515258876" lon="10.922376748233892"><ele>148.0</ele><time>2026-04-11T09:45:32Z</time></trkpt><trkpt lat="43.01067136366918" lon="10.922262746115857"><ele>148.0</ele><time>2026-04-11T09:45:35Z</time></trkpt><trkpt lat="43.010718801060456" lon="10.922165017005138"><ele>148.0</ele><time>2026-04-11T09:45:36Z</time></trkpt><trkpt lat="43.010763839883786" lon="10.922081534953964"><ele>148.0</ele><time>2026-04-11T09:45:37Z</time></trkpt><trkpt lat="43.01081832622597" lon="10.921999417622377"><ele>148.0</ele><time>2026-04-11T09:45:38Z</time></trkpt><trkpt lat="43.01088973750739" lon="10.921905203078188"><ele>148.0</ele><time>2026-04-11T09:45:40Z</time></trkpt><trkpt lat="43.01088722597493" lon="10.922040339591558"><ele>148.0</ele><time>2026-04-11T09:45:45Z</time></trkpt><trkpt lat="43.01089578748343" lon="10.922152728241352"><ele>151.0</ele><time>2026-04-11T09:45:46Z</time></trkpt><trkpt lat="43.01097011249994" lon="10.9222683697895"><ele>154.0</ele><time>2026-04-11T09:45:48Z</time></trkpt><trkpt lat="43.01108448989733" lon="10.922277026924581"><ele>157.0</ele><time>2026-04-11T09:45:50Z</time></trkpt><trkpt lat="43.01114861449567" lon="10.922216675905778"><ele>160.0</ele><time>2026-04-11T09:45:51Z</time></trkpt><trkpt lat="43.01121797658543" lon="10.92214161301662"><ele>163.0</ele><time>2026-04-11T09:45:52Z</time></trkpt><trkpt lat="43.01127528543382" lon="10.922076262825684"><ele>163.0</ele><time>2026-04-11T09:45:53Z</time></trkpt><trkpt lat="43.011335449683834" lon="10.922018237189178"><ele>163.0</ele><time>2026-04-11T09:45:54Z</time></trkpt><trkpt lat="43.01139633783845" lon="10.9219564504503"><ele>163.0</ele><time>2026-04-11T09:45:55Z</time></trkpt><trkpt lat="43.011455242358124" lon="10.921891648414869"><ele>163.0</ele><time>2026-04-11T09:45:56Z</time></trkpt><trkpt lat="43.011523334221415" lon="10.921822050695999"><ele>163.0</ele><time>2026-04-11T09:45:57Z</time></trkpt><trkpt lat="43.01157169172822" lon="10.92175043268045"><ele>163.0</ele><time>2026-04-11T09:45:58Z</time></trkpt><trkpt lat="43.01163662278315" lon="10.921683300270061"><ele>167.0</ele><time>2026-04-11T09:45:59Z</time></trkpt><trkpt lat="43.011714669866834" lon="10.921623690638258"><ele>171.0</ele><time>2026-04-11T09:46:00Z</time></trkpt><trkpt lat="43.011812911421224" lon="10.921550074604609"><ele>175.0</ele><time>2026-04-11T09:46:01Z</time></trkpt><trkpt lat="43.01192280856548" lon="10.92147808235595"><ele>179.0</ele><time>2026-04-11T09:46:02Z</time></trkpt><trkpt lat="43.01202205550283" lon="10.921414690444958"><ele>183.0</ele><time>2026-04-11T09:46:03Z</time></trkpt><trkpt lat="43.012107817343065" lon="10.921359871901027"><ele>183.0</ele><time>2026-04-11T09:46:04Z</time></trkpt><trkpt lat="43.01219613111671" lon="10.921322929775542"><ele>183.0</ele><time>2026-04-11T09:46:05Z</time></trkpt><trkpt lat="43.01228263950024" lon="10.921298154887666"><ele>183.0</ele><time>2026-04-11T09:46:06Z</time></trkpt><trkpt lat="43.01237460394699" lon="10.921279844625847"><ele>183.0</ele><time>2026-04-11T09:46:07Z</time></trkpt><trkpt lat="43.01246084992458" lon="10.921256850423804"><ele>183.0</ele><time>2026-04-11T09:46:08Z</time></trkpt><trkpt lat="43.01253402137318" lon="10.921239206554999"><ele>183.0</ele><time>2026-04-11T09:46:09Z</time></trkpt><trkpt lat="43.0126051807682" lon="10.921211614949714"><ele>185.5</ele><time>2026-04-11T09:46:10Z</time></trkpt><trkpt lat="43.01269641380242" lon="10.92118340560201"><ele>188.0</ele><time>2026-04-11T09:46:11Z</time></trkpt><trkpt lat="43.012791703574386" lon="10.921170334565879"><ele>190.5</ele><time>2026-04-11T09:46:12Z</time></trkpt><trkpt lat="43.01287848748201" lon="10.9211541843086"><ele>193.0</ele><time>2026-04-11T09:46:13Z</time></trkpt><trkpt lat="43.01295075159047" lon="10.921118005207456"><ele>195.5</ele><time>2026-04-11T09:46:14Z</time></trkpt><trkpt lat="43.01301004301668" lon="10.921067294558158"><ele>198.0</ele><time>2026-04-11T09:46:15Z</time></trkpt><trkpt lat="43.013058351021606" lon="10.920989217779363"><ele>196.0</ele><time>2026-04-11T09:46:16Z</time></trkpt><trkpt lat="43.01308446704707" lon="10.9208909359776"><ele>194.0</ele><time>2026-04-11T09:46:17Z</time></trkpt><trkpt lat="43.01310211772198" lon="10.920804841888149"><ele>192.0</ele><time>2026-04-11T09:46:18Z</time></trkpt><trkpt lat="43.013101202738234" lon="10.920703859219325"><ele>190.0</ele><time>2026-04-11T09:46:19Z</time></trkpt><trkpt lat="43.01305507121913" lon="10.920613437628841"><ele>188.0</ele><time>2026-04-11T09:46:20Z</time></trkpt><trkpt lat="43.01300003596425" lon="10.920522971502614"><ele>186.0</ele><time>2026-04-11T09:46:21Z</time></trkpt><trkpt lat="43.01294865105035" lon="10.920436213510646"><ele>186.0</ele><time>2026-04-11T09:46:22Z</time></trkpt><trkpt lat="43.01294505770195" lon="10.92028906117695"><ele>186.0</ele><time>2026-04-11T09:46:24Z</time></trkpt><trkpt lat="43.01303851240752" lon="10.920155051759135"><ele>186.0</ele><time>2026-04-11T09:46:26Z</time></trkpt><trkpt lat="43.01309407629821" lon="10.920109707786334"><ele>186.0</ele><time>2026-04-11T09:46:27Z</time></trkpt><trkpt lat="43.01315509538187" lon="10.920080061957574"><ele>186.0</ele><time>2026-04-11T09:46:28Z</time></trkpt><trkpt lat="43.013219044199715" lon="10.920053306912896"><ele>186.0</ele><time>2026-04-11T09:46:29Z</time></trkpt><trkpt lat="43.01328963867489" lon="10.920029712201723"><ele>187.0</ele><time>2026-04-11T09:46:30Z</time></trkpt><trkpt lat="43.01335147662143" lon="10.920009315861035"><ele>188.0</ele><time>2026-04-11T09:46:31Z</time></trkpt><trkpt lat="43.013456626592465" lon="10.919967494608144"><ele>189.0</ele><time>2026-04-11T09:46:33Z</time></trkpt><trkpt lat="43.013521532437764" lon="10.919914991301058"><ele>190.0</ele><time>2026-04-11T09:46:34Z</time></trkpt><trkpt lat="43.013577089386494" lon="10.919866920338121"><ele>191.0</ele><time>2026-04-11T09:46:35Z</time></trkpt><trkpt lat="43.013701961879484" lon="10.919824182563046"><ele>192.0</ele><time>2026-04-11T09:46:37Z</time></trkpt><trkpt lat="43.013788349575904" lon="10.919853717155414"><ele>192.0</ele><time>2026-04-11T09:46:38Z</time></trkpt><trkpt lat="43.013865968912114" lon="10.919863820733168"><ele>192.0</ele><time>2026-04-11T09:46:39Z</time></trkpt><trkpt lat="43.013929473051476" lon="10.919872712601045"><ele>192.0</ele><time>2026-04-11T09:46:40Z</time></trkpt><trkpt lat="43.01399945050286" lon="10.919858684071652"><ele>192.0</ele><time>2026-04-11T09:46:41Z</time></trkpt><trkpt lat="43.014101084087535" lon="10.919752706502877"><ele>192.0</ele><time>2026-04-11T09:46:43Z</time></trkpt><trkpt lat="43.01415793624831" lon="10.919583104891917"><ele>192.5</ele><time>2026-04-11T09:46:45Z</time></trkpt><trkpt lat="43.014188946545076" lon="10.919420822909085"><ele>193.0</ele><time>2026-04-11T09:46:47Z</time></trkpt><trkpt lat="43.01419137195989" lon="10.919325663879553"><ele>193.5</ele><time>2026-04-11T09:46:48Z</time></trkpt><trkpt lat="43.014187751646695" lon="10.91923256335785"><ele>194.0</ele><time>2026-04-11T09:46:49Z</time></trkpt><trkpt lat="43.01417315618549" lon="10.919140105057783"><ele>194.5</ele><time>2026-04-11T09:46:50Z</time></trkpt><trkpt lat="43.014143625950624" lon="10.919037557667851"><ele>195.0</ele><time>2026-04-11T09:46:51Z</time></trkpt><trkpt lat="43.014118415408525" lon="10.918940049636431"><ele>194.33333333333334</ele><time>2026-04-11T09:46:52Z</time></trkpt><trkpt lat="43.01406911385617" lon="10.918869078944073"><ele>193.66666666666666</ele><time>2026-04-11T09:46:53Z</time></trkpt><trkpt lat="43.014010775794205" lon="10.918758385676524"><ele>193.0</ele><time>2026-04-11T09:46:54Z</time></trkpt><trkpt lat="43.01396724572042" lon="10.918654895914552"><ele>192.33333333333331</ele><time>2026-04-11T09:46:55Z</time></trkpt><trkpt lat="43.01393529970954" lon="10.918557667488658"><ele>191.66666666666666</ele><time>2026-04-11T09:46:56Z</time></trkpt><trkpt lat="43.01391166910366" lon="10.918470578148396"><ele>191.0</ele><time>2026-04-11T09:46:57Z</time></trkpt><trkpt lat="43.013855044636095" lon="10.918352781609984"><ele>191.0</ele><time>2026-04-11T09:46:59Z</time></trkpt><trkpt lat="43.013806618483486" lon="10.918285457608036"><ele>191.0</ele><time>2026-04-11T09:47:00Z</time></trkpt><trkpt lat="43.013750331016965" lon="10.918203481056304"><ele>191.0</ele><time>2026-04-11T09:47:01Z</time></trkpt><trkpt lat="43.013685782035985" lon="10.918120311773052"><ele>191.0</ele><time>2026-04-11T09:47:02Z</time></trkpt><trkpt lat="43.013620928277206" lon="10.918069125279697"><ele>191.0</ele><time>2026-04-11T09:47:03Z</time></trkpt><trkpt lat="43.01353846728414" lon="10.918004687890377"><ele>191.0</ele><time>2026-04-11T09:47:04Z</time></trkpt><trkpt lat="43.01345558323331" lon="10.917953727084596"><ele>191.0</ele><time>2026-04-11T09:47:05Z</time></trkpt><trkpt lat="43.013395619246516" lon="10.917890004493122"><ele>191.0</ele><time>2026-04-11T09:47:06Z</time></trkpt><trkpt lat="43.01336806283583" lon="10.917801365778542"><ele>191.0</ele><time>2026-04-11T09:47:07Z</time></trkpt><trkpt lat="43.01339293825752" lon="10.91764883098111"><ele>191.0</ele><time>2026-04-11T09:47:09Z</time></trkpt><trkpt lat="43.01342083742402" lon="10.91755710630969"><ele>191.0</ele><time>2026-04-11T09:47:10Z</time></trkpt><trkpt lat="43.01346191731273" lon="10.917439157984484"><ele>191.0</ele><time>2026-04-11T09:47:11Z</time></trkpt><trkpt lat="43.013499105281426" lon="10.91733587191795"><ele>192.60000000000002</ele><time>2026-04-11T09:47:12Z</time></trkpt><trkpt lat="43.013531306560715" lon="10.917218025448095"><ele>194.2</ele><time>2026-04-11T09:47:13Z</time></trkpt><trkpt lat="43.01357554092915" lon="10.917096212801523"><ele>195.8</ele><time>2026-04-11T09:47:14Z</time></trkpt><trkpt lat="43.01362232029582" lon="10.916967328758453"><ele>197.39999999999998</ele><time>2026-04-11T09:47:15Z</time></trkpt><trkpt lat="43.01366828611998" lon="10.916830450295805"><ele>199.0</ele><time>2026-04-11T09:47:16Z</time></trkpt><trkpt lat="43.01371544456612" lon="10.916687907422158"><ele>199.2</ele><time>2026-04-11T09:47:17Z</time></trkpt><trkpt lat="43.01376267341565" lon="10.916562498265604"><ele>199.39999999999998</ele><time>2026-04-11T09:47:18Z</time></trkpt><trkpt lat="43.0138066534646" lon="10.916428320377182"><ele>199.6</ele><time>2026-04-11T09:47:19Z</time></trkpt><trkpt lat="43.01384325121305" lon="10.916311198389126"><ele>199.8</ele><time>2026-04-11T09:47:20Z</time></trkpt><trkpt lat="43.013891693781325" lon="10.916179528897935"><ele>200.0</ele><time>2026-04-11T09:47:21Z</time></trkpt><trkpt lat="43.01394514958382" lon="10.916046082715576"><ele>199.5</ele><time>2026-04-11T09:47:22.001Z</time></trkpt><trkpt lat="43.013990354860425" lon="10.915902137658815"><ele>199.0</ele><time>2026-04-11T09:47:23.001Z</time></trkpt><trkpt lat="43.01403969084367" lon="10.91575978056262"><ele>198.5</ele><time>2026-04-11T09:47:24.001Z</time></trkpt><trkpt lat="43.01409895638597" lon="10.91561872582871"><ele>198.0</ele><time>2026-04-11T09:47:25.001Z</time></trkpt><trkpt lat="43.014151835514696" lon="10.915474519636355"><ele>199.25</ele><time>2026-04-11T09:47:26.001Z</time></trkpt><trkpt lat="43.014203918822176" lon="10.915337338399604"><ele>200.5</ele><time>2026-04-11T09:47:27.001Z</time></trkpt><trkpt lat="43.014253288187625" lon="10.915198573688338"><ele>201.75</ele><time>2026-04-11T09:47:28.001Z</time></trkpt><trkpt lat="43.01430816999899" lon="10.91506352484227"><ele>203.0</ele><time>2026-04-11T09:47:29.001Z</time></trkpt><trkpt lat="43.0143631572026" lon="10.914930220998302"><ele>203.0</ele><time>2026-04-11T09:47:30.001Z</time></trkpt><trkpt lat="43.014418471438965" lon="10.914783177843509"><ele>203.0</ele><time>2026-04-11T09:47:31.001Z</time></trkpt><trkpt lat="43.014473264198315" lon="10.91464609455709"><ele>203.0</ele><time>2026-04-11T09:47:32.001Z</time></trkpt><trkpt lat="43.01453366369515" lon="10.91452461902875"><ele>203.0</ele><time>2026-04-11T09:47:33.001Z</time></trkpt><trkpt lat="43.01459889320838" lon="10.914423680308209"><ele>203.0</ele><time>2026-04-11T09:47:34.001Z</time></trkpt><trkpt lat="43.01465732180536" lon="10.914360168959945"><ele>203.0</ele><time>2026-04-11T09:47:35.001Z</time></trkpt><trkpt lat="43.01474020541662" lon="10.914267144910283"><ele>203.0</ele><time>2026-04-11T09:47:37.001Z</time></trkpt><trkpt lat="43.01481426580206" lon="10.91416617213943"><ele>203.0</ele><time>2026-04-11T09:47:39.001Z</time></trkpt><trkpt lat="43.01486833937715" lon="10.914040626588857"><ele>203.0</ele><time>2026-04-11T09:47:41.001Z</time></trkpt><trkpt lat="43.014878905700385" lon="10.913948013376329"><ele>203.0</ele><time>2026-04-11T09:47:42.001Z</time></trkpt><trkpt lat="43.01488523248112" lon="10.913833066667115"><ele>203.16666666666669</ele><time>2026-04-11T09:47:43.001Z</time></trkpt><trkpt lat="43.01489447712963" lon="10.913690225099131"><ele>203.33333333333334</ele><time>2026-04-11T09:47:45.001Z</time></trkpt><trkpt lat="43.0148893182674" lon="10.91359116565125"><ele>203.5</ele><time>2026-04-11T09:47:47.001Z</time></trkpt><trkpt lat="43.01490215836253" lon="10.913448342317375"><ele>203.66666666666669</ele><time>2026-04-11T09:47:57.001Z</time></trkpt><trkpt lat="43.014850381636535" lon="10.913393500858199"><ele>203.83333333333334</ele><time>2026-04-11T09:48:01.001Z</time></trkpt><trkpt lat="43.01479335051776" lon="10.91330668832846"><ele>204.0</ele><time>2026-04-11T09:48:03.001Z</time></trkpt><trkpt lat="43.01475749712655" lon="10.913201792205578"><ele>203.66666666666666</ele><time>2026-04-11T09:48:05.001Z</time></trkpt><trkpt lat="43.01476902164558" lon="10.913087989575331"><ele>203.33333333333331</ele><time>2026-04-11T09:48:07.001Z</time></trkpt><trkpt lat="43.01487017822068" lon="10.913002547321105"><ele>203.0</ele><time>2026-04-11T09:48:09.001Z</time></trkpt><trkpt lat="43.01493827919287" lon="10.912961532042479"><ele>202.66666666666666</ele><time>2026-04-11T09:48:10.001Z</time></trkpt><trkpt lat="43.01501463468733" lon="10.912918076794154"><ele>202.33333333333331</ele><time>2026-04-11T09:48:11.001Z</time></trkpt><trkpt lat="43.01509288114301" lon="10.9128691424275"><ele>202.0</ele><time>2026-04-11T09:48:12.001Z</time></trkpt><trkpt lat="43.015181970515584" lon="10.912813146210315"><ele>203.83333333333331</ele><time>2026-04-11T09:48:13.001Z</time></trkpt><trkpt lat="43.015270529685324" lon="10.912772688865937"><ele>205.66666666666666</ele><time>2026-04-11T09:48:14.001Z</time></trkpt><trkpt lat="43.01533387308466" lon="10.91273865705623"><ele>207.5</ele><time>2026-04-11T09:48:15.001Z</time></trkpt><trkpt lat="43.01541432536761" lon="10.912732831395532"><ele>209.33333333333331</ele><time>2026-04-11T09:48:16.001Z</time></trkpt><trkpt lat="43.015484641619956" lon="10.912788237805362"><ele>211.16666666666666</ele><time>2026-04-11T09:48:17.001Z</time></trkpt><trkpt lat="43.01552346061473" lon="10.912894200066432"><ele>213.0</ele><time>2026-04-11T09:48:18.001Z</time></trkpt><trkpt lat="43.015536112929475" lon="10.912985067407256"><ele>213.0</ele><time>2026-04-11T09:48:19.001Z</time></trkpt><trkpt lat="43.01554242754412" lon="10.91311696365543"><ele>213.0</ele><time>2026-04-11T09:48:20.001Z</time></trkpt><trkpt lat="43.015568862489175" lon="10.91321621299667"><ele>213.0</ele><time>2026-04-11T09:48:21.001Z</time></trkpt><trkpt lat="43.01562841767651" lon="10.913255594916288"><ele>213.0</ele><time>2026-04-11T09:48:22.001Z</time></trkpt><trkpt lat="43.01569278939593" lon="10.91329810510412"><ele>213.0</ele><time>2026-04-11T09:48:23.001Z</time></trkpt><trkpt lat="43.01576860631788" lon="10.913311216887857"><ele>213.0</ele><time>2026-04-11T09:48:24.001Z</time></trkpt><trkpt lat="43.01583389496701" lon="10.91331994863976"><ele>212.83333333333334</ele><time>2026-04-11T09:48:25.001Z</time></trkpt><trkpt lat="43.01591203298949" lon="10.913293106566002"><ele>212.66666666666669</ele><time>2026-04-11T09:48:26.001Z</time></trkpt><trkpt lat="43.01598659074569" lon="10.913261854843817"><ele>212.5</ele><time>2026-04-11T09:48:27.001Z</time></trkpt><trkpt lat="43.01606381268489" lon="10.913217183042656"><ele>212.33333333333334</ele><time>2026-04-11T09:48:28.001Z</time></trkpt><trkpt lat="43.01612316192062" lon="10.9131664006983"><ele>212.16666666666669</ele><time>2026-04-11T09:48:29.001Z</time></trkpt><trkpt lat="43.01618002273582" lon="10.913109298521562"><ele>212.0</ele><time>2026-04-11T09:48:30.001Z</time></trkpt><trkpt lat="43.016241433229915" lon="10.913037620351657"><ele>212.0</ele><time>2026-04-11T09:48:31.001Z</time></trkpt><trkpt lat="43.01628649298891" lon="10.9129671972384"><ele>212.0</ele><time>2026-04-11T09:48:32.001Z</time></trkpt><trkpt lat="43.016317646195226" lon="10.912883470790016"><ele>212.0</ele><time>2026-04-11T09:48:33.001Z</time></trkpt><trkpt lat="43.01635540546698" lon="10.912745105395652"><ele>212.0</ele><time>2026-04-11T09:48:35.001Z</time></trkpt><trkpt lat="43.01637556331544" lon="10.912610178156726"><ele>212.0</ele><time>2026-04-11T09:48:37.001Z</time></trkpt><trkpt lat="43.01639305891088" lon="10.912457394933876"><ele>210.33333333333334</ele><time>2026-04-11T09:48:39.001Z</time></trkpt><trkpt lat="43.016407318768" lon="10.912364373774126"><ele>208.66666666666669</ele><time>2026-04-11T09:48:40.001Z</time></trkpt><trkpt lat="43.016390775613964" lon="10.91224653977195"><ele>207.0</ele><time>2026-04-11T09:48:41.001Z</time></trkpt><trkpt lat="43.01637154508152" lon="10.912147594967674"><ele>205.33333333333331</ele><time>2026-04-11T09:48:42.001Z</time></trkpt><trkpt lat="43.01632496363669" lon="10.912013821129648"><ele>203.66666666666666</ele><time>2026-04-11T09:48:44.001Z</time></trkpt><trkpt lat="43.01629870113054" lon="10.911899995631739"><ele>202.0</ele><time>2026-04-11T09:48:46.001Z</time></trkpt><trkpt lat="43.016266160683045" lon="10.911822186744738"><ele>202.0</ele><time>2026-04-11T09:48:57.001Z</time></trkpt><trkpt lat="43.01620906554143" lon="10.911778612510403"><ele>202.0</ele><time>2026-04-11T09:49:16.001Z</time></trkpt><trkpt lat="43.01618184786857" lon="10.91169238306389"><ele>202.0</ele><time>2026-04-11T09:49:24.001Z</time></trkpt><trkpt lat="43.01624642782574" lon="10.911661464225459"><ele>202.0</ele><time>2026-04-11T09:51:04.001Z</time></trkpt><trkpt lat="43.0163363424077" lon="10.911670080032778"><ele>202.0</ele><time>2026-04-11T09:51:53.001Z</time></trkpt><trkpt lat="43.01641267365213" lon="10.911615527560853"><ele>202.0</ele><time>2026-04-11T09:52:15.001Z</time></trkpt><trkpt lat="43.01643683523439" lon="10.911533098200575"><ele>202.0</ele><time>2026-04-11T09:52:17.001Z</time></trkpt><trkpt lat="43.016500877689694" lon="10.911479201100303"><ele>201.66666666666666</ele><time>2026-04-11T09:52:20.001Z</time></trkpt><trkpt lat="43.01657178733531" lon="10.9114186149743"><ele>201.33333333333331</ele><time>2026-04-11T09:52:22.001Z</time></trkpt><trkpt lat="43.01663453628556" lon="10.911380828594057"><ele>201.0</ele><time>2026-04-11T09:52:24.001Z</time></trkpt><trkpt lat="43.01666070415268" lon="10.91128322774063"><ele>200.66666666666669</ele><time>2026-04-11T09:52:26.001Z</time></trkpt><trkpt lat="43.01664138805904" lon="10.911185115370058"><ele>200.33333333333334</ele><time>2026-04-11T09:52:27.001Z</time></trkpt><trkpt lat="43.01661930733324" lon="10.911088204097808"><ele>200.0</ele><time>2026-04-11T09:52:28.001Z</time></trkpt><trkpt lat="43.01657042159218" lon="10.910902366416273"><ele>197.8</ele><time>2026-04-11T09:52:30.001Z</time></trkpt><trkpt lat="43.01655229588411" lon="10.910797850321204"><ele>195.6</ele><time>2026-04-11T09:52:31.001Z</time></trkpt><trkpt lat="43.01654160154618" lon="10.91069628865384"><ele>193.39999999999998</ele><time>2026-04-11T09:52:32.001Z</time></trkpt><trkpt lat="43.01655707293112" lon="10.910567280312769"><ele>191.2</ele><time>2026-04-11T09:52:33.001Z</time></trkpt><trkpt lat="43.01657192020482" lon="10.910435076290382"><ele>189.0</ele><time>2026-04-11T09:52:34.001Z</time></trkpt><trkpt lat="43.01659399313318" lon="10.910270566922957"><ele>189.0</ele><time>2026-04-11T09:52:35.001Z</time></trkpt><trkpt lat="43.01663253493212" lon="10.91011929355542"><ele>189.0</ele><time>2026-04-11T09:52:36.001Z</time></trkpt><trkpt lat="43.0166745892649" lon="10.90995955913582"><ele>189.0</ele><time>2026-04-11T09:52:37.001Z</time></trkpt><trkpt lat="43.01672282585791" lon="10.909796733793094"><ele>189.0</ele><time>2026-04-11T09:52:38.001Z</time></trkpt><trkpt lat="43.01676441341602" lon="10.909661744990245"><ele>190.5</ele><time>2026-04-11T09:52:39.001Z</time></trkpt><trkpt lat="43.01681172534883" lon="10.90955648947301"><ele>192.0</ele><time>2026-04-11T09:52:40.001Z</time></trkpt><trkpt lat="43.016877833690394" lon="10.909509743427325"><ele>193.5</ele><time>2026-04-11T09:52:41.001Z</time></trkpt><trkpt lat="43.0169530711175" lon="10.9094698727305"><ele>195.0</ele><time>2026-04-11T09:52:43.001Z</time></trkpt><trkpt lat="43.01692741330907" lon="10.909387696838898"><ele>196.5</ele><time>2026-04-11T09:52:47.001Z</time></trkpt><trkpt lat="43.01684148168704" lon="10.909385458353452"><ele>198.0</ele><time>2026-04-11T09:52:50.001Z</time></trkpt><trkpt lat="43.0167615574509" lon="10.909383267841378"><ele>198.0</ele><time>2026-04-11T09:52:52.001Z</time></trkpt><trkpt lat="43.016664782827455" lon="10.909313746197505"><ele>198.0</ele><time>2026-04-11T09:52:54.001Z</time></trkpt><trkpt lat="43.016604086990476" lon="10.90919381019805"><ele>198.0</ele><time>2026-04-11T09:52:56Z</time></trkpt><trkpt lat="43.01660953739067" lon="10.909084454728704"><ele>198.0</ele><time>2026-04-11T09:52:58Z</time></trkpt><trkpt lat="43.016635200831" lon="10.908972348398175"><ele>198.0</ele><time>2026-04-11T09:53:00Z</time></trkpt><trkpt lat="43.01667192678073" lon="10.908805863519696"><ele>198.4</ele><time>2026-04-11T09:53:02Z</time></trkpt><trkpt lat="43.016703292741774" lon="10.90865216734689"><ele>198.8</ele><time>2026-04-11T09:53:04Z</time></trkpt><trkpt lat="43.01671358941297" lon="10.908565637294368"><ele>199.2</ele><time>2026-04-11T09:53:05Z</time></trkpt><trkpt lat="43.01672604960151" lon="10.90841434135294"><ele>199.6</ele><time>2026-04-11T09:53:07Z</time></trkpt><trkpt lat="43.016760272686156" lon="10.9082670193253"><ele>200.0</ele><time>2026-04-11T09:53:09Z</time></trkpt><trkpt lat="43.01680737397529" lon="10.908180870870279"><ele>201.8</ele><time>2026-04-11T09:53:11Z</time></trkpt><trkpt lat="43.0168025337366" lon="10.908058333101856"><ele>203.6</ele><time>2026-04-11T09:53:15Z</time></trkpt><trkpt lat="43.01679857437429" lon="10.907934127245582"><ele>205.39999999999998</ele><time>2026-04-11T09:53:17Z</time></trkpt><trkpt lat="43.01680289323302" lon="10.907780569019044"><ele>207.2</ele><time>2026-04-11T09:53:19Z</time></trkpt><trkpt lat="43.01679365086928" lon="10.907607852523634"><ele>209.0</ele><time>2026-04-11T09:53:21Z</time></trkpt><trkpt lat="43.01679182142619" lon="10.907503095163882"><ele>211.2</ele><time>2026-04-11T09:53:22Z</time></trkpt><trkpt lat="43.0167908399299" lon="10.90740002465277"><ele>213.39999999999998</ele><time>2026-04-11T09:53:23Z</time></trkpt><trkpt lat="43.0167888133653" lon="10.907310203947995"><ele>215.6</ele><time>2026-04-11T09:53:24Z</time></trkpt><trkpt lat="43.01677823353721" lon="10.907141826288157"><ele>217.8</ele><time>2026-04-11T09:53:26Z</time></trkpt><trkpt lat="43.01675175468345" lon="10.907008517530924"><ele>220.0</ele><time>2026-04-11T09:53:28Z</time></trkpt><trkpt lat="43.016816034268274" lon="10.906886602080274"><ele>219.99999999999997</ele><time>2026-04-11T09:53:30Z</time></trkpt><trkpt lat="43.01686948136828" lon="10.906827059917482"><ele>220.0</ele><time>2026-04-11T09:53:31Z</time></trkpt><trkpt lat="43.0169311997022" lon="10.906743901934128"><ele>220.0</ele><time>2026-04-11T09:53:32Z</time></trkpt><trkpt lat="43.017003936931765" lon="10.906673187488948"><ele>220.0</ele><time>2026-04-11T09:53:33Z</time></trkpt><trkpt lat="43.01708062166891" lon="10.906602511364298"><ele>219.99999999999997</ele><time>2026-04-11T09:53:34Z</time></trkpt><trkpt lat="43.01715859795485" lon="10.906547534203497"><ele>220.0</ele><time>2026-04-11T09:53:35Z</time></trkpt><trkpt lat="43.01722772126754" lon="10.906478257136463"><ele>221.49999999999997</ele><time>2026-04-11T09:53:36Z</time></trkpt><trkpt lat="43.017285411183934" lon="10.906419849014034"><ele>223.0</ele><time>2026-04-11T09:53:37Z</time></trkpt><trkpt lat="43.017337618991995" lon="10.906349885469167"><ele>224.5</ele><time>2026-04-11T09:53:38Z</time></trkpt><trkpt lat="43.01738338821044" lon="10.90627829197341"><ele>226.0</ele><time>2026-04-11T09:53:39Z</time></trkpt><trkpt lat="43.0174226649249" lon="10.906209025558528"><ele>227.49999999999997</ele><time>2026-04-11T09:53:40Z</time></trkpt><trkpt lat="43.017479168760254" lon="10.906097929390027"><ele>229.0</ele><time>2026-04-11T09:53:42Z</time></trkpt><trkpt lat="43.01748521146322" lon="10.905983651196495"><ele>232.2</ele><time>2026-04-11T09:53:44Z</time></trkpt><trkpt lat="43.01746069625842" lon="10.90581536612"><ele>235.39999999999998</ele><time>2026-04-11T09:53:46Z</time></trkpt><trkpt lat="43.01743928788481" lon="10.90570957122158"><ele>238.6</ele><time>2026-04-11T09:53:47Z</time></trkpt><trkpt lat="43.0174207016637" lon="10.90559842022989"><ele>241.8</ele><time>2026-04-11T09:53:48Z</time></trkpt><trkpt lat="43.01740313362191" lon="10.905477080442573"><ele>245.0</ele><time>2026-04-11T09:53:49Z</time></trkpt><trkpt lat="43.01739339853067" lon="10.90535903876795"><ele>245.00000000000003</ele><time>2026-04-11T09:53:50Z</time></trkpt><trkpt lat="43.01738577176109" lon="10.905243312760492"><ele>245.0</ele><time>2026-04-11T09:53:51Z</time></trkpt><trkpt lat="43.01737353994503" lon="10.905144027708456"><ele>245.0</ele><time>2026-04-11T09:53:52Z</time></trkpt><trkpt lat="43.01737113147773" lon="10.90504507516443"><ele>245.0</ele><time>2026-04-11T09:53:53Z</time></trkpt><trkpt lat="43.017369693979" lon="10.904946070710617"><ele>245.00000000000003</ele><time>2026-04-11T09:53:54Z</time></trkpt><trkpt lat="43.01737384510934" lon="10.904855906093518"><ele>245.0</ele><time>2026-04-11T09:53:55Z</time></trkpt><trkpt lat="43.017386488851905" lon="10.904688270275297"><ele>247.33333333333334</ele><time>2026-04-11T09:53:57Z</time></trkpt><trkpt lat="43.01737976694016" lon="10.9045886174716"><ele>249.66666666666669</ele><time>2026-04-11T09:53:58Z</time></trkpt><trkpt lat="43.017361506973664" lon="10.904476841788341"><ele>252.0</ele><time>2026-04-11T09:53:59Z</time></trkpt><trkpt lat="43.01734216449189" lon="10.90436426540152"><ele>254.33333333333331</ele><time>2026-04-11T09:54:00Z</time></trkpt><trkpt lat="43.017320598690006" lon="10.904256889149275"><ele>256.66666666666663</ele><time>2026-04-11T09:54:01Z</time></trkpt><trkpt lat="43.01731009889086" lon="10.904161595323533"><ele>259.0</ele><time>2026-04-11T09:54:02Z</time></trkpt><trkpt lat="43.01729639163497" lon="10.90404834398299"><ele>259.5</ele><time>2026-04-11T09:54:03Z</time></trkpt><trkpt lat="43.01727702143593" lon="10.903933172797919"><ele>260.0</ele><time>2026-04-11T09:54:04Z</time></trkpt><trkpt lat="43.017245127713224" lon="10.903817093640438"><ele>260.5</ele><time>2026-04-11T09:54:05Z</time></trkpt><trkpt lat="43.017201976071675" lon="10.903708101131814"><ele>261.0</ele><time>2026-04-11T09:54:06Z</time></trkpt><trkpt lat="43.01716297071626" lon="10.903614313350944"><ele>261.5</ele><time>2026-04-11T09:54:07Z</time></trkpt><trkpt lat="43.01712508445611" lon="10.903516424522667"><ele>262.0</ele><time>2026-04-11T09:54:08Z</time></trkpt><trkpt lat="43.01708675578856" lon="10.90341502294042"><ele>261.16666666666663</ele><time>2026-04-11T09:54:09Z</time></trkpt><trkpt lat="43.01705376457751" lon="10.903306644369195"><ele>260.3333333333333</ele><time>2026-04-11T09:54:10Z</time></trkpt><trkpt lat="43.01703136430369" lon="10.903226108803791"><ele>259.5</ele><time>2026-04-11T09:54:11Z</time></trkpt><trkpt lat="43.0170409775573" lon="10.90307905727773"><ele>258.6666666666667</ele><time>2026-04-11T09:54:13Z</time></trkpt><trkpt lat="43.01714022306441" lon="10.90301546534607"><ele>257.83333333333337</ele><time>2026-04-11T09:54:15Z</time></trkpt><trkpt lat="43.01722181865314" lon="10.903014092354248"><ele>257.0</ele><time>2026-04-11T09:54:16Z</time></trkpt><trkpt lat="43.0173616634521" lon="10.903050632111446"><ele>257.0</ele><time>2026-04-11T09:54:18Z</time></trkpt><trkpt lat="43.01743792411253" lon="10.90307643128523"><ele>257.0</ele><time>2026-04-11T09:54:19Z</time></trkpt><trkpt lat="43.01751201842664" lon="10.903095937180801"><ele>257.0</ele><time>2026-04-11T09:54:20Z</time></trkpt><trkpt lat="43.01759293269545" lon="10.903125000110615"><ele>257.0</ele><time>2026-04-11T09:54:21Z</time></trkpt><trkpt lat="43.01766164346028" lon="10.903155313887723"><ele>257.0</ele><time>2026-04-11T09:54:22Z</time></trkpt><trkpt lat="43.017740229238825" lon="10.90318643875653"><ele>257.0</ele><time>2026-04-11T09:54:23Z</time></trkpt><trkpt lat="43.017818468093566" lon="10.903225488357052"><ele>255.00000000000003</ele><time>2026-04-11T09:54:24Z</time></trkpt><trkpt lat="43.017894139508755" lon="10.903267575241255"><ele>253.0</ele><time>2026-04-11T09:54:25Z</time></trkpt><trkpt lat="43.01797701440307" lon="10.903294162754959"><ele>251.0</ele><time>2026-04-11T09:54:26Z</time></trkpt><trkpt lat="43.01806424142348" lon="10.903314443023643"><ele>249.0</ele><time>2026-04-11T09:54:27Z</time></trkpt><trkpt lat="43.01813446725537" lon="10.903336475229791"><ele>247.00000000000003</ele><time>2026-04-11T09:54:28Z</time></trkpt><trkpt lat="43.018218345122264" lon="10.903352709440439"><ele>245.0</ele><time>2026-04-11T09:54:30Z</time></trkpt><trkpt lat="43.01829656014754" lon="10.903320230853522"><ele>246.2</ele><time>2026-04-11T09:54:33Z</time></trkpt><trkpt lat="43.01837271382746" lon="10.903208840506903"><ele>247.4</ele><time>2026-04-11T09:54:35Z</time></trkpt><trkpt lat="43.01843109476642" lon="10.903121613235408"><ele>248.60000000000002</ele><time>2026-04-11T09:54:36Z</time></trkpt><trkpt lat="43.018509890171025" lon="10.903056495894385"><ele>249.8</ele><time>2026-04-11T09:54:37Z</time></trkpt><trkpt lat="43.01858878080532" lon="10.90295888639798"><ele>251.0</ele><time>2026-04-11T09:54:39Z</time></trkpt><trkpt lat="43.018633331973604" lon="10.902888922714265"><ele>250.99999999999997</ele><time>2026-04-11T09:54:42Z</time></trkpt><trkpt lat="43.01866296816375" lon="10.90281254659626"><ele>251.0</ele><time>2026-04-11T09:54:50Z</time></trkpt><trkpt lat="43.018653026019734" lon="10.902725797180715"><ele>250.99999999999997</ele><time>2026-04-11T09:55:28Z</time></trkpt><trkpt lat="43.01871498165418" lon="10.902705922256327"><ele>250.99999999999997</ele><time>2026-04-11T09:55:39Z</time></trkpt><trkpt lat="43.018741111840036" lon="10.90261940389029"><ele>251.0</ele><time>2026-04-11T09:56:09Z</time></trkpt><trkpt lat="43.018678711872276" lon="10.90259028195735"><ele>250.99999999999997</ele><time>2026-04-11T09:56:34Z</time></trkpt><trkpt lat="43.018630666630926" lon="10.902524379132014"><ele>250.99999999999997</ele><time>2026-04-11T09:56:42Z</time></trkpt><trkpt lat="43.01860660378749" lon="10.90260527430168"><ele>251.00000000000003</ele><time>2026-04-11T09:57:02Z</time></trkpt><trkpt lat="43.01866954903378" lon="10.902623733830936"><ele>251.0</ele><time>2026-04-11T09:57:22Z</time></trkpt><trkpt lat="43.01873612219719" lon="10.902635255073081"><ele>251.0</ele><time>2026-04-11T09:58:19Z</time></trkpt><trkpt lat="43.018794220241055" lon="10.902586024738657"><ele>251.0</ele><time>2026-04-11T09:58:25Z</time></trkpt><trkpt lat="43.01885125552243" lon="10.902475021709902"><ele>251.00000000000003</ele><time>2026-04-11T09:58:29Z</time></trkpt><trkpt lat="43.01890021575075" lon="10.902404409748584"><ele>251.0</ele><time>2026-04-11T09:58:32Z</time></trkpt><trkpt lat="43.01898733296994" lon="10.902481876485826"><ele>251.00000000000003</ele><time>2026-04-11T09:58:36Z</time></trkpt><trkpt lat="43.019038889183854" lon="10.90254706184441"><ele>251.0</ele><time>2026-04-11T09:58:37Z</time></trkpt><trkpt lat="43.01908809532331" lon="10.90261814495617"><ele>251.0</ele><time>2026-04-11T09:58:38Z</time></trkpt><trkpt lat="43.01913913072993" lon="10.90267738454167"><ele>251.0</ele><time>2026-04-11T09:58:39Z</time></trkpt><trkpt lat="43.01924542735083" lon="10.902746970447389"><ele>251.00000000000003</ele><time>2026-04-11T09:58:41Z</time></trkpt><trkpt lat="43.01931845251669" lon="10.902788594005738"><ele>251.0</ele><time>2026-04-11T09:58:42.001Z</time></trkpt><trkpt lat="43.01938683547066" lon="10.902805428838928"><ele>251.16666666666669</ele><time>2026-04-11T09:58:43.001Z</time></trkpt><trkpt lat="43.019460905304335" lon="10.902806402678246"><ele>251.33333333333334</ele><time>2026-04-11T09:58:44.001Z</time></trkpt><trkpt lat="43.01953279018122" lon="10.902808295452758"><ele>251.5</ele><time>2026-04-11T09:58:45.001Z</time></trkpt><trkpt lat="43.01960737392585" lon="10.902822803593576"><ele>251.66666666666669</ele><time>2026-04-11T09:58:47.001Z</time></trkpt><trkpt lat="43.01967182082001" lon="10.902847760821706"><ele>251.83333333333334</ele><time>2026-04-11T09:58:49.001Z</time></trkpt><trkpt lat="43.01974888780696" lon="10.902846308639639"><ele>252.0</ele><time>2026-04-11T09:58:51.001Z</time></trkpt><trkpt lat="43.01984474260096" lon="10.902856425116424"><ele>252.0</ele><time>2026-04-11T09:58:53.001Z</time></trkpt><trkpt lat="43.01995027755684" lon="10.902825089304274"><ele>252.0</ele><time>2026-04-11T09:58:55.001Z</time></trkpt><trkpt lat="43.02004700549061" lon="10.902789256271491"><ele>252.0</ele><time>2026-04-11T09:58:57.001Z</time></trkpt><trkpt lat="43.02014036978232" lon="10.902769228651914"><ele>252.0</ele><time>2026-04-11T09:58:59.001Z</time></trkpt><trkpt lat="43.020268765125245" lon="10.902688028417197"><ele>252.0</ele><time>2026-04-11T09:59:01.001Z</time></trkpt><trkpt lat="43.02034325203781" lon="10.902681942844005"><ele>250.66666666666669</ele><time>2026-04-11T09:59:02.001Z</time></trkpt><trkpt lat="43.020533400562364" lon="10.902656697424833"><ele>249.33333333333334</ele><time>2026-04-11T09:59:06.001Z</time></trkpt><trkpt lat="43.020642194771604" lon="10.902582689305495"><ele>248.0</ele><time>2026-04-11T09:59:08.001Z</time></trkpt><trkpt lat="43.02077089262025" lon="10.902503982796214"><ele>249.33333333333334</ele><time>2026-04-11T09:59:10.001Z</time></trkpt><trkpt lat="43.020866228885566" lon="10.902448848732805"><ele>250.66666666666669</ele><time>2026-04-11T09:59:11.001Z</time></trkpt><trkpt lat="43.020931092521245" lon="10.902387933973722"><ele>252.0</ele><time>2026-04-11T09:59:12.001Z</time></trkpt><trkpt lat="43.020992016310316" lon="10.902330840444224"><ele>253.33333333333331</ele><time>2026-04-11T09:59:13.001Z</time></trkpt><trkpt lat="43.021048308290375" lon="10.902258277485045"><ele>254.66666666666666</ele><time>2026-04-11T09:59:14.001Z</time></trkpt><trkpt lat="43.02110527731327" lon="10.902171633134447"><ele>256.0</ele><time>2026-04-11T09:59:15.001Z</time></trkpt><trkpt lat="43.02117391278749" lon="10.902083151866812"><ele>256.0</ele><time>2026-04-11T09:59:16.001Z</time></trkpt><trkpt lat="43.02124776117684" lon="10.902000275379024"><ele>256.0</ele><time>2026-04-11T09:59:17.001Z</time></trkpt><trkpt lat="43.0213124638728" lon="10.901933947495374"><ele>256.0</ele><time>2026-04-11T09:59:18.001Z</time></trkpt><trkpt lat="43.021394795338125" lon="10.901833148287878"><ele>256.0</ele><time>2026-04-11T09:59:19.001Z</time></trkpt><trkpt lat="43.0214695973054" lon="10.90173158469672"><ele>256.0</ele><time>2026-04-11T09:59:20.001Z</time></trkpt><trkpt lat="43.02153740077135" lon="10.901644422553042"><ele>256.0</ele><time>2026-04-11T09:59:21.001Z</time></trkpt><trkpt lat="43.021605140947386" lon="10.90155140679172"><ele>256.0</ele><time>2026-04-11T09:59:22.001Z</time></trkpt><trkpt lat="43.021664755654385" lon="10.901465621256742"><ele>256.0</ele><time>2026-04-11T09:59:23.001Z</time></trkpt><trkpt lat="43.02175318939784" lon="10.901335999257991"><ele>256.0</ele><time>2026-04-11T09:59:24.001Z</time></trkpt><trkpt lat="43.02182769996658" lon="10.901210396339481"><ele>256.0</ele><time>2026-04-11T09:59:25.001Z</time></trkpt><trkpt lat="43.0218974978406" lon="10.901080604204855"><ele>256.0</ele><time>2026-04-11T09:59:26.001Z</time></trkpt><trkpt lat="43.021948926638416" lon="10.900969028545775"><ele>256.0</ele><time>2026-04-11T09:59:27.001Z</time></trkpt><trkpt lat="43.021987847462384" lon="10.900841761893096"><ele>256.0</ele><time>2026-04-11T09:59:28.001Z</time></trkpt><trkpt lat="43.022034882007524" lon="10.900699044839529"><ele>256.0</ele><time>2026-04-11T09:59:29.001Z</time></trkpt><trkpt lat="43.02207565426337" lon="10.900577399272745"><ele>256.0</ele><time>2026-04-11T09:59:30.001Z</time></trkpt><trkpt lat="43.022109781269876" lon="10.900445045671951"><ele>257.3333333333333</ele><time>2026-04-11T09:59:31.001Z</time></trkpt><trkpt lat="43.02214764888841" lon="10.900328458958503"><ele>258.66666666666663</ele><time>2026-04-11T09:59:32.001Z</time></trkpt><trkpt lat="43.02218042819512" lon="10.900199923841045"><ele>260.0</ele><time>2026-04-11T09:59:33.001Z</time></trkpt><trkpt lat="43.02220877332976" lon="10.90008641935299"><ele>261.3333333333333</ele><time>2026-04-11T09:59:34.001Z</time></trkpt><trkpt lat="43.02223302409553" lon="10.899967188614392"><ele>262.6666666666667</ele><time>2026-04-11T09:59:35.001Z</time></trkpt><trkpt lat="43.02225601281261" lon="10.89986476853513"><ele>264.0</ele><time>2026-04-11T09:59:36.001Z</time></trkpt><trkpt lat="43.02226963144239" lon="10.899752853508314"><ele>265.6666666666667</ele><time>2026-04-11T09:59:37.001Z</time></trkpt><trkpt lat="43.02228640855005" lon="10.899648303449139"><ele>267.3333333333333</ele><time>2026-04-11T09:59:38.001Z</time></trkpt><trkpt lat="43.022309823829914" lon="10.89953974128015"><ele>269.0</ele><time>2026-04-11T09:59:39.001Z</time></trkpt><trkpt lat="43.02233561065817" lon="10.899442044703955"><ele>270.66666666666663</ele><time>2026-04-11T09:59:40.001Z</time></trkpt><trkpt lat="43.02235613866606" lon="10.899341437275666"><ele>272.3333333333333</ele><time>2026-04-11T09:59:41.001Z</time></trkpt><trkpt lat="43.022370441191555" lon="10.899249693418373"><ele>274.0</ele><time>2026-04-11T09:59:42.001Z</time></trkpt><trkpt lat="43.0223669674024" lon="10.899096142355068"><ele>275.0</ele><time>2026-04-11T09:59:44.001Z</time></trkpt><trkpt lat="43.02240943784599" lon="10.898954044272578"><ele>276.0</ele><time>2026-04-11T09:59:46.001Z</time></trkpt><trkpt lat="43.022433921604915" lon="10.898798094903048"><ele>277.0</ele><time>2026-04-11T09:59:48.001Z</time></trkpt><trkpt lat="43.02244283928014" lon="10.898660175141341"><ele>278.0</ele><time>2026-04-11T09:59:50.001Z</time></trkpt><trkpt lat="43.0224583324583" lon="10.89850580122692"><ele>279.0</ele><time>2026-04-11T09:59:52.001Z</time></trkpt><trkpt lat="43.02245031526491" lon="10.89834834155822"><ele>279.2</ele><time>2026-04-11T09:59:54.001Z</time></trkpt><trkpt lat="43.02244596204983" lon="10.898202835457592"><ele>279.4</ele><time>2026-04-11T09:59:56.001Z</time></trkpt><trkpt lat="43.02243948828089" lon="10.898090576029807"><ele>279.6</ele><time>2026-04-11T09:59:58.001Z</time></trkpt><trkpt lat="43.02240133086344" lon="10.898003320714675"><ele>279.8</ele><time>2026-04-11T09:59:59.001Z</time></trkpt><trkpt lat="43.02235392613397" lon="10.897841145943234"><ele>280.0</ele><time>2026-04-11T10:00:01.001Z</time></trkpt><trkpt lat="43.02232882252733" lon="10.897757479872398"><ele>280.0</ele><time>2026-04-11T10:00:02.001Z</time></trkpt><trkpt lat="43.02230208022501" lon="10.8976752116875"><ele>280.0</ele><time>2026-04-11T10:00:03.001Z</time></trkpt><trkpt lat="43.02229186791271" lon="10.897574048312404"><ele>280.0</ele><time>2026-04-11T10:00:04.001Z</time></trkpt><trkpt lat="43.02231005807903" lon="10.897452552642232"><ele>280.0</ele><time>2026-04-11T10:00:05.001Z</time></trkpt><trkpt lat="43.02232659606626" lon="10.897314350212893"><ele>280.0</ele><time>2026-04-11T10:00:06.001Z</time></trkpt><trkpt lat="43.02233906798625" lon="10.897185707481034"><ele>280.0</ele><time>2026-04-11T10:00:07.001Z</time></trkpt><trkpt lat="43.02234716933096" lon="10.897054104643324"><ele>281.4</ele><time>2026-04-11T10:00:08.001Z</time></trkpt><trkpt lat="43.02235442762199" lon="10.896926321276732"><ele>282.8</ele><time>2026-04-11T10:00:09.001Z</time></trkpt><trkpt lat="43.0223750289426" lon="10.89680695711322"><ele>284.2</ele><time>2026-04-11T10:00:10.001Z</time></trkpt><trkpt lat="43.0223982379223" lon="10.89669313836555"><ele>285.6</ele><time>2026-04-11T10:00:11.001Z</time></trkpt><trkpt lat="43.0224183732436" lon="10.896565616863343"><ele>287.0</ele><time>2026-04-11T10:00:12.001Z</time></trkpt><trkpt lat="43.02245818464237" lon="10.896435692040077"><ele>284.83333333333337</ele><time>2026-04-11T10:00:14.001Z</time></trkpt><trkpt lat="43.02248514259053" lon="10.896345260542516"><ele>282.6666666666667</ele><time>2026-04-11T10:00:15.001Z</time></trkpt><trkpt lat="43.0224978690471" lon="10.896259690858974"><ele>280.5</ele><time>2026-04-11T10:00:16.001Z</time></trkpt><trkpt lat="43.02251847537412" lon="10.896153288950154"><ele>278.3333333333333</ele><time>2026-04-11T10:00:17.001Z</time></trkpt><trkpt lat="43.02253917085684" lon="10.896032584329914"><ele>276.16666666666663</ele><time>2026-04-11T10:00:18.001Z</time></trkpt><trkpt lat="43.02256383745752" lon="10.89591558123863"><ele>274.0</ele><time>2026-04-11T10:00:19.001Z</time></trkpt><trkpt lat="43.02259426703845" lon="10.895813999848867"><ele>274.0</ele><time>2026-04-11T10:00:20.001Z</time></trkpt><trkpt lat="43.022628025790134" lon="10.89566281795245"><ele>274.0</ele><time>2026-04-11T10:00:22.001Z</time></trkpt><trkpt lat="43.022615383461535" lon="10.895467771855587"><ele>274.0</ele><time>2026-04-11T10:00:24.001Z</time></trkpt><trkpt lat="43.02258155976594" lon="10.895378450683772"><ele>274.0</ele><time>2026-04-11T10:00:25.001Z</time></trkpt><trkpt lat="43.02254083871997" lon="10.895298169289477"><ele>274.0</ele><time>2026-04-11T10:00:26.001Z</time></trkpt><trkpt lat="43.022490188282674" lon="10.895230573990647"><ele>276.5</ele><time>2026-04-11T10:00:27.001Z</time></trkpt><trkpt lat="43.022422361386845" lon="10.895164879781996"><ele>279.0</ele><time>2026-04-11T10:00:28.001Z</time></trkpt><trkpt lat="43.02236554864484" lon="10.895093532500633"><ele>281.5</ele><time>2026-04-11T10:00:29.001Z</time></trkpt><trkpt lat="43.022306064181784" lon="10.894998739796247"><ele>284.0</ele><time>2026-04-11T10:00:30.001Z</time></trkpt><trkpt lat="43.02224072631101" lon="10.894902668640562"><ele>286.5</ele><time>2026-04-11T10:00:31.001Z</time></trkpt><trkpt lat="43.02217127475575" lon="10.89480095488066"><ele>289.0</ele><time>2026-04-11T10:00:32.001Z</time></trkpt><trkpt lat="43.02213215740304" lon="10.894706985328355"><ele>289.0</ele><time>2026-04-11T10:00:33Z</time></trkpt><trkpt lat="43.02210474218487" lon="10.894606121027163"><ele>289.0</ele><time>2026-04-11T10:00:34Z</time></trkpt><trkpt lat="43.022071311937744" lon="10.894502888630182"><ele>289.0</ele><time>2026-04-11T10:00:35Z</time></trkpt><trkpt lat="43.0220283717139" lon="10.894411865784193"><ele>289.0</ele><time>2026-04-11T10:00:36Z</time></trkpt><trkpt lat="43.02197646315857" lon="10.89429443464509"><ele>289.0</ele><time>2026-04-11T10:00:37Z</time></trkpt><trkpt lat="43.02193161334803" lon="10.894176678020555"><ele>289.0</ele><time>2026-04-11T10:00:38Z</time></trkpt><trkpt lat="43.02188475215821" lon="10.894054656145359"><ele>289.66666666666663</ele><time>2026-04-11T10:00:39Z</time></trkpt><trkpt lat="43.02183380835781" lon="10.893926740310109"><ele>290.3333333333333</ele><time>2026-04-11T10:00:40Z</time></trkpt><trkpt lat="43.02178968183307" lon="10.893835865285341"><ele>291.0</ele><time>2026-04-11T10:00:41Z</time></trkpt><trkpt lat="43.021760944369504" lon="10.89373175633413"><ele>291.6666666666667</ele><time>2026-04-11T10:00:42Z</time></trkpt><trkpt lat="43.02174012979533" lon="10.89364555320726"><ele>292.33333333333337</ele><time>2026-04-11T10:00:43Z</time></trkpt><trkpt lat="43.021697553791185" lon="10.89350319303884"><ele>293.0</ele><time>2026-04-11T10:00:45Z</time></trkpt><trkpt lat="43.021640320216484" lon="10.893358074794696"><ele>293.0</ele><time>2026-04-11T10:00:47Z</time></trkpt><trkpt lat="43.0216086289881" lon="10.893283209573314"><ele>293.0</ele><time>2026-04-11T10:00:48Z</time></trkpt><trkpt lat="43.02151221418415" lon="10.893214259392874"><ele>293.0</ele><time>2026-04-11T10:00:50Z</time></trkpt><trkpt lat="43.021436765932215" lon="10.893285715782786"><ele>293.0</ele><time>2026-04-11T10:00:53Z</time></trkpt><trkpt lat="43.021406857985596" lon="10.893407034965932"><ele>293.0</ele><time>2026-04-11T10:00:55Z</time></trkpt><trkpt lat="43.02138921431054" lon="10.89349480844749"><ele>293.0</ele><time>2026-04-11T10:00:56Z</time></trkpt><trkpt lat="43.021335787803814" lon="10.893590013661168"><ele>296.2</ele><time>2026-04-11T10:00:57Z</time></trkpt><trkpt lat="43.02126359579212" lon="10.893696506048464"><ele>299.4</ele><time>2026-04-11T10:00:59Z</time></trkpt><trkpt lat="43.02118749329669" lon="10.89378368655273"><ele>302.59999999999997</ele><time>2026-04-11T10:01:02Z</time></trkpt><trkpt lat="43.02108255978708" lon="10.89380238211966"><ele>305.8</ele><time>2026-04-11T10:01:04Z</time></trkpt><trkpt lat="43.021018257108366" lon="10.893812299737151"><ele>309.0</ele><time>2026-04-11T10:01:05Z</time></trkpt><trkpt lat="43.020942799687646" lon="10.893805225134884"><ele>309.0</ele><time>2026-04-11T10:01:06Z</time></trkpt><trkpt lat="43.020852287725084" lon="10.893801226522847"><ele>309.0</ele><time>2026-04-11T10:01:07Z</time></trkpt><trkpt lat="43.02077195952253" lon="10.893789692745436"><ele>309.0</ele><time>2026-04-11T10:01:08Z</time></trkpt><trkpt lat="43.02070599107027" lon="10.893770994759915"><ele>309.0</ele><time>2026-04-11T10:01:09Z</time></trkpt><trkpt lat="43.02063333792808" lon="10.893749096026788"><ele>309.0</ele><time>2026-04-11T10:01:10Z</time></trkpt><trkpt lat="43.02053852178463" lon="10.893753444289018"><ele>309.0</ele><time>2026-04-11T10:01:11Z</time></trkpt><trkpt lat="43.020450311453274" lon="10.893750917132696"><ele>311.2</ele><time>2026-04-11T10:01:12Z</time></trkpt><trkpt lat="43.020361100277896" lon="10.893748708231294"><ele>313.4</ele><time>2026-04-11T10:01:13Z</time></trkpt><trkpt lat="43.02028573925925" lon="10.89375828629107"><ele>315.6</ele><time>2026-04-11T10:01:14Z</time></trkpt><trkpt lat="43.020154221425855" lon="10.893788669192153"><ele>317.8</ele><time>2026-04-11T10:01:16Z</time></trkpt><trkpt lat="43.02004411617253" lon="10.893805087711813"><ele>320.0</ele><time>2026-04-11T10:01:18Z</time></trkpt><trkpt lat="43.019977144781855" lon="10.893800201340936"><ele>322.0</ele><time>2026-04-11T10:01:19Z</time></trkpt><trkpt lat="43.01988366187217" lon="10.893734779647366"><ele>324.0</ele><time>2026-04-11T10:01:21Z</time></trkpt><trkpt lat="43.019795479663934" lon="10.893634762040607"><ele>326.0</ele><time>2026-04-11T10:01:23Z</time></trkpt><trkpt lat="43.01974145070707" lon="10.893586961228225"><ele>328.0</ele><time>2026-04-11T10:01:24Z</time></trkpt><trkpt lat="43.019641563099526" lon="10.893514851407557"><ele>330.0</ele><time>2026-04-11T10:01:26Z</time></trkpt><trkpt lat="43.019545403054444" lon="10.893413173954912"><ele>326.4</ele><time>2026-04-11T10:01:28Z</time></trkpt><trkpt lat="43.01940719369" lon="10.893389537651803"><ele>322.8</ele><time>2026-04-11T10:01:30Z</time></trkpt><trkpt lat="43.019318878547885" lon="10.893398827197341"><ele>319.2</ele><time>2026-04-11T10:01:31Z</time></trkpt><trkpt lat="43.0192267801073" lon="10.893377376129948"><ele>315.6</ele><time>2026-04-11T10:01:32Z</time></trkpt><trkpt lat="43.01915643298064" lon="10.893374369210923"><ele>312.0</ele><time>2026-04-11T10:01:33Z</time></trkpt><trkpt lat="43.01908498512342" lon="10.893394589316918"><ele>312.0</ele><time>2026-04-11T10:01:34Z</time></trkpt><trkpt lat="43.019014176758226" lon="10.893416900167338"><ele>312.0</ele><time>2026-04-11T10:01:35Z</time></trkpt><trkpt lat="43.01894113094805" lon="10.893438137265658"><ele>312.0</ele><time>2026-04-11T10:01:36Z</time></trkpt><trkpt lat="43.018872773241064" lon="10.893455205023008"><ele>312.0</ele><time>2026-04-11T10:01:37Z</time></trkpt><trkpt lat="43.01880614492469" lon="10.89347710455992"><ele>312.0</ele><time>2026-04-11T10:01:38Z</time></trkpt><trkpt lat="43.0187364904889" lon="10.893495845743473"><ele>312.0</ele><time>2026-04-11T10:01:39Z</time></trkpt><trkpt lat="43.01867482633623" lon="10.893520500742202"><ele>312.0</ele><time>2026-04-11T10:01:40Z</time></trkpt><trkpt lat="43.01858864713931" lon="10.893559603936145"><ele>312.8</ele><time>2026-04-11T10:01:41Z</time></trkpt><trkpt lat="43.01852007412397" lon="10.89358361620049"><ele>313.6</ele><time>2026-04-11T10:01:42Z</time></trkpt><trkpt lat="43.01842034274579" lon="10.893576483482134"><ele>314.40000000000003</ele><time>2026-04-11T10:01:44Z</time></trkpt><trkpt lat="43.018376801625436" lon="10.893430706856815"><ele>315.2</ele><time>2026-04-11T10:01:46Z</time></trkpt><trkpt lat="43.018300932357384" lon="10.893289761332092"><ele>316.0</ele><time>2026-04-11T10:01:48Z</time></trkpt><trkpt lat="43.01820367098308" lon="10.893185888789706"><ele>316.0</ele><time>2026-04-11T10:01:50Z</time></trkpt><trkpt lat="43.01807925708458" lon="10.893160132889319"><ele>316.0</ele><time>2026-04-11T10:01:52Z</time></trkpt><trkpt lat="43.01798440698677" lon="10.893152984435265"><ele>316.0</ele><time>2026-04-11T10:01:53Z</time></trkpt><trkpt lat="43.017877725676954" lon="10.893155213596092"><ele>316.0</ele><time>2026-04-11T10:01:54Z</time></trkpt><trkpt lat="43.017762637686246" lon="10.89315800967829"><ele>316.0</ele><time>2026-04-11T10:01:55Z</time></trkpt><trkpt lat="43.017639785006374" lon="10.893167277360199"><ele>316.0</ele><time>2026-04-11T10:01:56Z</time></trkpt><trkpt lat="43.017531389661336" lon="10.893182159096929"><ele>316.0</ele><time>2026-04-11T10:01:57Z</time></trkpt><trkpt lat="43.01743641984364" lon="10.893212356372391"><ele>316.0</ele><time>2026-04-11T10:01:58Z</time></trkpt><trkpt lat="43.017336545562735" lon="10.893238269127217"><ele>316.0</ele><time>2026-04-11T10:01:59Z</time></trkpt><trkpt lat="43.017251223784015" lon="10.893255472514442"><ele>316.0</ele><time>2026-04-11T10:02:00Z</time></trkpt><trkpt lat="43.01718014249291" lon="10.893276826842579"><ele>315.40000000000003</ele><time>2026-04-11T10:02:01Z</time></trkpt><trkpt lat="43.0170902088566" lon="10.893278182408457"><ele>314.8</ele><time>2026-04-11T10:02:02Z</time></trkpt><trkpt lat="43.01700669717693" lon="10.893300453094033"><ele>314.20000000000005</ele><time>2026-04-11T10:02:03Z</time></trkpt><trkpt lat="43.016903148321006" lon="10.89332555024774"><ele>313.6</ele><time>2026-04-11T10:02:04Z</time></trkpt><trkpt lat="43.01680623508335" lon="10.893354551119153"><ele>313.0</ele><time>2026-04-11T10:02:05Z</time></trkpt><trkpt lat="43.016702603457304" lon="10.893380435530586"><ele>313.5</ele><time>2026-04-11T10:02:06Z</time></trkpt><trkpt lat="43.01660685087708" lon="10.893410107672805"><ele>314.0</ele><time>2026-04-11T10:02:07Z</time></trkpt><trkpt lat="43.01652217255365" lon="10.8934338427812"><ele>314.5</ele><time>2026-04-11T10:02:08Z</time></trkpt><trkpt lat="43.01645447910236" lon="10.89343684369292"><ele>315.0</ele><time>2026-04-11T10:02:09Z</time></trkpt><trkpt lat="43.01634932336139" lon="10.8933889436423"><ele>315.5</ele><time>2026-04-11T10:02:11Z</time></trkpt><trkpt lat="43.01627846990301" lon="10.893340310809608"><ele>316.0</ele><time>2026-04-11T10:02:12Z</time></trkpt><trkpt lat="43.0162228950905" lon="10.893296945026972"><ele>316.0</ele><time>2026-04-11T10:02:13Z</time></trkpt><trkpt lat="43.01614995576228" lon="10.893250249962124"><ele>316.0</ele><time>2026-04-11T10:02:14Z</time></trkpt><trkpt lat="43.01607113856603" lon="10.893263286046924"><ele>316.0</ele><time>2026-04-11T10:02:16Z</time></trkpt><trkpt lat="43.016026165806274" lon="10.89332946388155"><ele>316.0</ele><time>2026-04-11T10:02:19Z</time></trkpt><trkpt lat="43.01592579690573" lon="10.893327464790497"><ele>316.0</ele><time>2026-04-11T10:02:23Z</time></trkpt><trkpt lat="43.01581165074902" lon="10.893265098957217"><ele>316.0</ele><time>2026-04-11T10:02:25Z</time></trkpt><trkpt lat="43.01574928488165" lon="10.89323254999043"><ele>314.0</ele><time>2026-04-11T10:02:26Z</time></trkpt><trkpt lat="43.01562037222563" lon="10.893162610299013"><ele>312.0</ele><time>2026-04-11T10:02:28Z</time></trkpt><trkpt lat="43.01556648580927" lon="10.893108233848306"><ele>310.0</ele><time>2026-04-11T10:02:29Z</time></trkpt><trkpt lat="43.015512590812115" lon="10.893053710926157"><ele>308.0</ele><time>2026-04-11T10:02:30Z</time></trkpt><trkpt lat="43.01540478177388" lon="10.892961470850402"><ele>306.0</ele><time>2026-04-11T10:02:32Z</time></trkpt><trkpt lat="43.015330855040396" lon="10.89294750559729"><ele>306.0</ele><time>2026-04-11T10:02:34Z</time></trkpt><trkpt lat="43.01523688290417" lon="10.892962035608388"><ele>306.0</ele><time>2026-04-11T10:02:36Z</time></trkpt><trkpt lat="43.01514112675069" lon="10.893015329724166"><ele>306.0</ele><time>2026-04-11T10:02:38Z</time></trkpt><trkpt lat="43.01505915525562" lon="10.893103451297259"><ele>306.0</ele><time>2026-04-11T10:02:40Z</time></trkpt><trkpt lat="43.014997246888726" lon="10.893159648937946"><ele>306.0</ele><time>2026-04-11T10:02:42Z</time></trkpt><trkpt lat="43.01493867180699" lon="10.893196634752881"><ele>306.0</ele><time>2026-04-11T10:02:46Z</time></trkpt><trkpt lat="43.014939696173464" lon="10.893088131048732"><ele>303.0</ele><time>2026-04-11T10:03:37Z</time></trkpt><trkpt lat="43.01494856440124" lon="10.892986899968005"><ele>300.0</ele><time>2026-04-11T10:03:40Z</time></trkpt><trkpt lat="43.01495447949673" lon="10.892892545583635"><ele>297.0</ele><time>2026-04-11T10:03:42Z</time></trkpt><trkpt lat="43.01494590267914" lon="10.892784469638656"><ele>294.0</ele><time>2026-04-11T10:03:44Z</time></trkpt><trkpt lat="43.01492004863805" lon="10.892638712152886"><ele>291.0</ele><time>2026-04-11T10:03:46Z</time></trkpt><trkpt lat="43.01490860194365" lon="10.892509011334573"><ele>288.0</ele><time>2026-04-11T10:03:48Z</time></trkpt><trkpt lat="43.01494566351637" lon="10.892398335449194"><ele>287.6666666666667</ele><time>2026-04-11T10:03:51Z</time></trkpt><trkpt lat="43.014945886997644" lon="10.892311975308946"><ele>287.3333333333333</ele><time>2026-04-11T10:03:53Z</time></trkpt><trkpt lat="43.014933881891814" lon="10.892225646333648"><ele>287.0</ele><time>2026-04-11T10:04:06Z</time></trkpt><trkpt lat="43.0149580759031" lon="10.892115227928103"><ele>286.66666666666663</ele><time>2026-04-11T10:04:11Z</time></trkpt><trkpt lat="43.01493855058444" lon="10.892008448880295"><ele>286.3333333333333</ele><time>2026-04-11T10:04:13Z</time></trkpt><trkpt lat="43.014941936136665" lon="10.891863006298346"><ele>286.0</ele><time>2026-04-11T10:04:15Z</time></trkpt><trkpt lat="43.01493235652354" lon="10.891732495576399"><ele>286.8</ele><time>2026-04-11T10:04:17Z</time></trkpt><trkpt lat="43.01493396399408" lon="10.891587265204876"><ele>287.6</ele><time>2026-04-11T10:04:19Z</time></trkpt><trkpt lat="43.014945955890965" lon="10.891460743865531"><ele>288.4</ele><time>2026-04-11T10:04:21Z</time></trkpt><trkpt lat="43.014878682393" lon="10.89142298824236"><ele>289.2</ele><time>2026-04-11T10:04:26Z</time></trkpt><trkpt lat="43.014803786270186" lon="10.891494833227647"><ele>290.0</ele><time>2026-04-11T10:04:28Z</time></trkpt><trkpt lat="43.01472092082968" lon="10.891593622183613"><ele>290.0</ele><time>2026-04-11T10:04:30Z</time></trkpt><trkpt lat="43.01463999389584" lon="10.891712064414858"><ele>290.0</ele><time>2026-04-11T10:04:32Z</time></trkpt><trkpt lat="43.01456935041483" lon="10.891789148468453"><ele>290.0</ele><time>2026-04-11T10:04:33Z</time></trkpt><trkpt lat="43.014504189091596" lon="10.891862850599212"><ele>290.0</ele><time>2026-04-11T10:04:34Z</time></trkpt><trkpt lat="43.014418730879356" lon="10.891944423610985"><ele>290.0</ele><time>2026-04-11T10:04:36Z</time></trkpt><trkpt lat="43.01434230484172" lon="10.892014080423403"><ele>289.6</ele><time>2026-04-11T10:04:38Z</time></trkpt><trkpt lat="43.01425827198417" lon="10.892069287301066"><ele>289.2</ele><time>2026-04-11T10:04:40Z</time></trkpt><trkpt lat="43.014201932799395" lon="10.892110506683846"><ele>288.8</ele><time>2026-04-11T10:04:41Z</time></trkpt><trkpt lat="43.014132082716195" lon="10.892180762294426"><ele>288.4</ele><time>2026-04-11T10:04:43Z</time></trkpt><trkpt lat="43.01406018475806" lon="10.892274554639595"><ele>288.0</ele><time>2026-04-11T10:04:45Z</time></trkpt><trkpt lat="43.013980441769284" lon="10.892371370426051"><ele>288.0</ele><time>2026-04-11T10:04:47Z</time></trkpt><trkpt lat="43.0139296269593" lon="10.892433460290434"><ele>288.0</ele><time>2026-04-11T10:04:48Z</time></trkpt><trkpt lat="43.013866454724955" lon="10.892566583345907"><ele>288.0</ele><time>2026-04-11T10:04:50Z</time></trkpt><trkpt lat="43.01384459311441" lon="10.892711833154095"><ele>288.0</ele><time>2026-04-11T10:04:52Z</time></trkpt><trkpt lat="43.01378749276425" lon="10.892821030377013"><ele>288.0</ele><time>2026-04-11T10:04:54Z</time></trkpt><trkpt lat="43.01370099864622" lon="10.892888192498956"><ele>286.8333333333333</ele><time>2026-04-11T10:04:56Z</time></trkpt><trkpt lat="43.01361120459688" lon="10.892947415514408"><ele>285.6666666666667</ele><time>2026-04-11T10:04:58Z</time></trkpt><trkpt lat="43.013557388711725" lon="10.892998272388683"><ele>284.5</ele><time>2026-04-11T10:04:59Z</time></trkpt><trkpt lat="43.01349374794954" lon="10.893057123813001"><ele>283.33333333333337</ele><time>2026-04-11T10:05:00Z</time></trkpt><trkpt lat="43.013419892396556" lon="10.893118497185215"><ele>282.1666666666667</ele><time>2026-04-11T10:05:01Z</time></trkpt><trkpt lat="43.0133451390317" lon="10.89318473379329"><ele>281.0</ele><time>2026-04-11T10:05:02Z</time></trkpt><trkpt lat="43.01326931551775" lon="10.8932562045763"><ele>281.0</ele><time>2026-04-11T10:05:03Z</time></trkpt><trkpt lat="43.01320040606143" lon="10.89331392572715"><ele>281.0</ele><time>2026-04-11T10:05:04Z</time></trkpt><trkpt lat="43.01310892131554" lon="10.893400043129962"><ele>281.0</ele><time>2026-04-11T10:05:05Z</time></trkpt><trkpt lat="43.012999452331336" lon="10.893490365811436"><ele>281.0</ele><time>2026-04-11T10:05:06Z</time></trkpt><trkpt lat="43.012910551650776" lon="10.893554164553192"><ele>281.0</ele><time>2026-04-11T10:05:07Z</time></trkpt><trkpt lat="43.01282173130705" lon="10.89362255257666"><ele>280.0</ele><time>2026-04-11T10:05:08Z</time></trkpt><trkpt lat="43.01273439955164" lon="10.89368869524999"><ele>279.0</ele><time>2026-04-11T10:05:09Z</time></trkpt><trkpt lat="43.01265374822869" lon="10.89373553203606"><ele>278.0</ele><time>2026-04-11T10:05:10Z</time></trkpt><trkpt lat="43.012585807336286" lon="10.893779635587956"><ele>277.0</ele><time>2026-04-11T10:05:11Z</time></trkpt><trkpt lat="43.01251322307744" lon="10.893819130139098"><ele>276.0</ele><time>2026-04-11T10:05:12Z</time></trkpt><trkpt lat="43.01243472308021" lon="10.893845811062556"><ele>275.0</ele><time>2026-04-11T10:05:13Z</time></trkpt><trkpt lat="43.012348185354156" lon="10.893884631009481"><ele>274.0</ele><time>2026-04-11T10:05:14Z</time></trkpt><trkpt lat="43.012232408607666" lon="10.893959183294914"><ele>273.0</ele><time>2026-04-11T10:05:16Z</time></trkpt><trkpt lat="43.01216319640102" lon="10.89397933755201"><ele>272.0</ele><time>2026-04-11T10:05:17Z</time></trkpt><trkpt lat="43.012089514476436" lon="10.893977104595509"><ele>271.0</ele><time>2026-04-11T10:05:19Z</time></trkpt><trkpt lat="43.01202723831511" lon="10.893950987369482"><ele>270.0</ele><time>2026-04-11T10:05:21Z</time></trkpt><trkpt lat="43.011955643138904" lon="10.893924554474484"><ele>269.0</ele><time>2026-04-11T10:05:23Z</time></trkpt><trkpt lat="43.01182527391207" lon="10.893913260210187"><ele>269.0</ele><time>2026-04-11T10:05:25Z</time></trkpt><trkpt lat="43.0117361320948" lon="10.893914483577564"><ele>269.0</ele><time>2026-04-11T10:05:26Z</time></trkpt><trkpt lat="43.011648367048664" lon="10.893914519672071"><ele>269.0</ele><time>2026-04-11T10:05:27Z</time></trkpt><trkpt lat="43.01155681582427" lon="10.893909915188294"><ele>269.0</ele><time>2026-04-11T10:05:28Z</time></trkpt><trkpt lat="43.01147986829085" lon="10.893909516286495"><ele>269.0</ele><time>2026-04-11T10:05:29Z</time></trkpt><trkpt lat="43.011416138812905" lon="10.893887945762344"><ele>269.0</ele><time>2026-04-11T10:05:30Z</time></trkpt><trkpt lat="43.0113563508985" lon="10.893832345527413"><ele>267.83333333333337</ele><time>2026-04-11T10:05:36Z</time></trkpt><trkpt lat="43.011344076367" lon="10.893747900974143"><ele>266.6666666666667</ele><time>2026-04-11T10:05:47Z</time></trkpt><trkpt lat="43.01136213271675" lon="10.893652836654121"><ele>265.5</ele><time>2026-04-11T10:05:51Z</time></trkpt><trkpt lat="43.01134883161005" lon="10.893545421594665"><ele>264.3333333333333</ele><time>2026-04-11T10:05:54Z</time></trkpt><trkpt lat="43.01133445897161" lon="10.893456128148001"><ele>263.16666666666663</ele><time>2026-04-11T10:05:56Z</time></trkpt><trkpt lat="43.01132278420429" lon="10.893330599233048"><ele>262.0</ele><time>2026-04-11T10:05:59Z</time></trkpt><trkpt lat="43.011318917916306" lon="10.893207477654345"><ele>262.0</ele><time>2026-04-11T10:06:01Z</time></trkpt><trkpt lat="43.01129356789274" lon="10.893064677581604"><ele>262.0</ele><time>2026-04-11T10:06:03Z</time></trkpt><trkpt lat="43.011273033065685" lon="10.892930804221828"><ele>262.0</ele><time>2026-04-11T10:06:05Z</time></trkpt><trkpt lat="43.01127424693637" lon="10.892830875022423"><ele>262.0</ele><time>2026-04-11T10:06:07Z</time></trkpt><trkpt lat="43.011265802706205" lon="10.892727875771136"><ele>262.0</ele><time>2026-04-11T10:06:09Z</time></trkpt><trkpt lat="43.01125186822917" lon="10.892608319267891"><ele>262.0</ele><time>2026-04-11T10:06:11Z</time></trkpt><trkpt lat="43.01126347495299" lon="10.892485156867382"><ele>262.6</ele><time>2026-04-11T10:06:13Z</time></trkpt><trkpt lat="43.01125362547715" lon="10.89231884272903"><ele>263.2</ele><time>2026-04-11T10:06:15Z</time></trkpt><trkpt lat="43.01124588531512" lon="10.892141868990286"><ele>263.8</ele><time>2026-04-11T10:06:17Z</time></trkpt><trkpt lat="43.01124865496481" lon="10.892047617829405"><ele>264.4</ele><time>2026-04-11T10:06:18Z</time></trkpt><trkpt lat="43.011261782487004" lon="10.89193309538542"><ele>265.0</ele><time>2026-04-11T10:06:19Z</time></trkpt><trkpt lat="43.01127810672709" lon="10.891791695514245"><ele>265.2</ele><time>2026-04-11T10:06:20Z</time></trkpt><trkpt lat="43.01128029946132" lon="10.891667996197935"><ele>265.4</ele><time>2026-04-11T10:06:21Z</time></trkpt><trkpt lat="43.011281547367716" lon="10.891548958344401"><ele>265.6</ele><time>2026-04-11T10:06:22Z</time></trkpt><trkpt lat="43.01127549064318" lon="10.891417628566218"><ele>265.8</ele><time>2026-04-11T10:06:23Z</time></trkpt><trkpt lat="43.01128346740132" lon="10.8913050009549"><ele>266.0</ele><time>2026-04-11T10:06:24Z</time></trkpt><trkpt lat="43.01126422326905" lon="10.891169892633426"><ele>266.0</ele><time>2026-04-11T10:06:25Z</time></trkpt><trkpt lat="43.011255875361705" lon="10.891059884465347"><ele>266.0</ele><time>2026-04-11T10:06:26Z</time></trkpt><trkpt lat="43.011256084978356" lon="10.89092264954137"><ele>266.0</ele><time>2026-04-11T10:06:27Z</time></trkpt><trkpt lat="43.01126608088426" lon="10.890790003560202"><ele>266.0</ele><time>2026-04-11T10:06:28Z</time></trkpt><trkpt lat="43.011276587623314" lon="10.890681592562444"><ele>266.0</ele><time>2026-04-11T10:06:29Z</time></trkpt><trkpt lat="43.01128724764108" lon="10.89057394367069"><ele>266.0</ele><time>2026-04-11T10:06:30Z</time></trkpt><trkpt lat="43.01130425450792" lon="10.890471510673386"><ele>266.25</ele><time>2026-04-11T10:06:31Z</time></trkpt><trkpt lat="43.011317112396235" lon="10.890379071251155"><ele>266.5</ele><time>2026-04-11T10:06:32Z</time></trkpt><trkpt lat="43.011347434713414" lon="10.890197049475079"><ele>266.75</ele><time>2026-04-11T10:06:34Z</time></trkpt><trkpt lat="43.01139516474169" lon="10.890043854885267"><ele>267.0</ele><time>2026-04-11T10:06:36Z</time></trkpt><trkpt lat="43.01139757267057" lon="10.889866157589584"><ele>266.6666666666667</ele><time>2026-04-11T10:06:38Z</time></trkpt><trkpt lat="43.011388456860736" lon="10.889754483778201"><ele>266.3333333333333</ele><time>2026-04-11T10:06:39Z</time></trkpt><trkpt lat="43.01136194630712" lon="10.889646913726658"><ele>266.0</ele><time>2026-04-11T10:06:40Z</time></trkpt><trkpt lat="43.011312101104" lon="10.889516113199674"><ele>265.66666666666663</ele><time>2026-04-11T10:06:41Z</time></trkpt><trkpt lat="43.01127600958246" lon="10.88943916651078"><ele>265.3333333333333</ele><time>2026-04-11T10:06:42Z</time></trkpt><trkpt lat="43.01122318480209" lon="10.889335096535186"><ele>265.0</ele><time>2026-04-11T10:06:43Z</time></trkpt><trkpt lat="43.01117562065357" lon="10.889235674361574"><ele>266.16666666666663</ele><time>2026-04-11T10:06:44Z</time></trkpt><trkpt lat="43.01113140648512" lon="10.889143513382157"><ele>267.3333333333333</ele><time>2026-04-11T10:06:45Z</time></trkpt><trkpt lat="43.011090094610914" lon="10.88903882205011"><ele>268.5</ele><time>2026-04-11T10:06:46Z</time></trkpt><trkpt lat="43.01105473827078" lon="10.88892755676724"><ele>269.6666666666667</ele><time>2026-04-11T10:06:47Z</time></trkpt><trkpt lat="43.01102149325549" lon="10.888847760316812"><ele>270.83333333333337</ele><time>2026-04-11T10:06:48Z</time></trkpt><trkpt lat="43.01098556952497" lon="10.888765919239031"><ele>272.0</ele><time>2026-04-11T10:06:49Z</time></trkpt><trkpt lat="43.010948178645954" lon="10.888670880279083"><ele>272.0</ele><time>2026-04-11T10:06:50Z</time></trkpt><trkpt lat="43.010904046312724" lon="10.88859187615099"><ele>272.0</ele><time>2026-04-11T10:06:51Z</time></trkpt><trkpt lat="43.01085165482971" lon="10.888491444200751"><ele>272.0</ele><time>2026-04-11T10:06:52Z</time></trkpt><trkpt lat="43.01078591368058" lon="10.888376494359742"><ele>272.0</ele><time>2026-04-11T10:06:53Z</time></trkpt><trkpt lat="43.01073339312082" lon="10.888263723438026"><ele>272.0</ele><time>2026-04-11T10:06:54Z</time></trkpt><trkpt lat="43.01066867044643" lon="10.888144097845677"><ele>272.8</ele><time>2026-04-11T10:06:55Z</time></trkpt><trkpt lat="43.010606659452776" lon="10.888033305152671"><ele>273.6</ele><time>2026-04-11T10:06:56Z</time></trkpt><trkpt lat="43.01055821507752" lon="10.88794057465399"><ele>274.40000000000003</ele><time>2026-04-11T10:06:57Z</time></trkpt><trkpt lat="43.01049955607765" lon="10.887852890872308"><ele>275.2</ele><time>2026-04-11T10:06:58Z</time></trkpt><trkpt lat="43.0104367519016" lon="10.887773954484647"><ele>276.0</ele><time>2026-04-11T10:06:59Z</time></trkpt><trkpt lat="43.01035809199891" lon="10.887639209748077"><ele>276.5</ele><time>2026-04-11T10:07:01Z</time></trkpt><trkpt lat="43.0103274496047" lon="10.887559385307489"><ele>277.0</ele><time>2026-04-11T10:07:02Z</time></trkpt><trkpt lat="43.01024285838541" lon="10.887495384285362"><ele>277.5</ele><time>2026-04-11T10:07:05Z</time></trkpt><trkpt lat="43.0101587138354" lon="10.887505432832391"><ele>278.0</ele><time>2026-04-11T10:07:08Z</time></trkpt><trkpt lat="43.010093504963145" lon="10.887521742828318"><ele>278.5</ele><time>2026-04-11T10:07:10Z</time></trkpt><trkpt lat="43.01001509169679" lon="10.887537337089826"><ele>279.0</ele><time>2026-04-11T10:07:13Z</time></trkpt><trkpt lat="43.00993010934562" lon="10.887541206403546"><ele>279.0</ele><time>2026-04-11T10:07:15Z</time></trkpt><trkpt lat="43.009838020150006" lon="10.887522487189187"><ele>279.0</ele><time>2026-04-11T10:07:17Z</time></trkpt><trkpt lat="43.009752128944776" lon="10.887522461228746"><ele>279.0</ele><time>2026-04-11T10:07:19Z</time></trkpt><trkpt lat="43.009631656462375" lon="10.887540100342814"><ele>279.0</ele><time>2026-04-11T10:07:21Z</time></trkpt><trkpt lat="43.009559951867985" lon="10.887537174764551"><ele>279.0</ele><time>2026-04-11T10:07:22Z</time></trkpt><trkpt lat="43.009478938111805" lon="10.887531342470337"><ele>279.0</ele><time>2026-04-11T10:07:23Z</time></trkpt><trkpt lat="43.00941386772951" lon="10.887526861140174"><ele>279.0</ele><time>2026-04-11T10:07:24Z</time></trkpt><trkpt lat="43.00928483662564" lon="10.88752557834028"><ele>279.0</ele><time>2026-04-11T10:07:26Z</time></trkpt><trkpt lat="43.009194769537245" lon="10.887525167198808"><ele>279.0</ele><time>2026-04-11T10:07:27Z</time></trkpt><trkpt lat="43.00911792805076" lon="10.887505094725041"><ele>279.0</ele><time>2026-04-11T10:07:28Z</time></trkpt><trkpt lat="43.00902560821488" lon="10.88748724347926"><ele>279.5</ele><time>2026-04-11T10:07:29Z</time></trkpt><trkpt lat="43.00895216671833" lon="10.887472762038412"><ele>280.0</ele><time>2026-04-11T10:07:30Z</time></trkpt><trkpt lat="43.00888749030276" lon="10.88746163045255"><ele>280.5</ele><time>2026-04-11T10:07:31Z</time></trkpt><trkpt lat="43.00880508265653" lon="10.88745208164472"><ele>281.0</ele><time>2026-04-11T10:07:32Z</time></trkpt><trkpt lat="43.00871887011075" lon="10.887445185519136"><ele>281.5</ele><time>2026-04-11T10:07:33Z</time></trkpt><trkpt lat="43.00865417932703" lon="10.887421310391133"><ele>282.0</ele><time>2026-04-11T10:07:34Z</time></trkpt><trkpt lat="43.008566794433925" lon="10.887389178162545"><ele>282.0</ele><time>2026-04-11T10:07:35Z</time></trkpt><trkpt lat="43.00846033841943" lon="10.887356433756405"><ele>282.0</ele><time>2026-04-11T10:07:36Z</time></trkpt><trkpt lat="43.008327596328726" lon="10.887320346460577"><ele>282.0</ele><time>2026-04-11T10:07:37Z</time></trkpt><trkpt lat="43.00823748460182" lon="10.887288559942284"><ele>282.0</ele><time>2026-04-11T10:07:38Z</time></trkpt><trkpt lat="43.00814246089009" lon="10.887250645270067"><ele>282.0</ele><time>2026-04-11T10:07:39Z</time></trkpt><trkpt lat="43.008062752044324" lon="10.88722841268918"><ele>281.8333333333333</ele><time>2026-04-11T10:07:40Z</time></trkpt><trkpt lat="43.007981812299974" lon="10.887231710934737"><ele>281.6666666666667</ele><time>2026-04-11T10:07:41Z</time></trkpt><trkpt lat="43.00790909956136" lon="10.887240905822924"><ele>281.5</ele><time>2026-04-11T10:07:42Z</time></trkpt><trkpt lat="43.00784000354862" lon="10.887246322360436"><ele>281.33333333333337</ele><time>2026-04-11T10:07:43Z</time></trkpt><trkpt lat="43.00771335750195" lon="10.887252036398921"><ele>281.1666666666667</ele><time>2026-04-11T10:07:45Z</time></trkpt><trkpt lat="43.0076336472274" lon="10.88724284256651"><ele>281.0</ele><time>2026-04-11T10:07:46Z</time></trkpt><trkpt lat="43.007543303747575" lon="10.887232505708461"><ele>280.6</ele><time>2026-04-11T10:07:47Z</time></trkpt><trkpt lat="43.00745486413601" lon="10.887219895214484"><ele>280.20000000000005</ele><time>2026-04-11T10:07:48Z</time></trkpt><trkpt lat="43.00737135007248" lon="10.887206838322557"><ele>279.79999999999995</ele><time>2026-04-11T10:07:49Z</time></trkpt><trkpt lat="43.00726529181971" lon="10.887171148396892"><ele>279.4</ele><time>2026-04-11T10:07:50Z</time></trkpt><trkpt lat="43.00717234557678" lon="10.887129664086714"><ele>279.0</ele><time>2026-04-11T10:07:51Z</time></trkpt><trkpt lat="43.00708067169234" lon="10.887093401430329"><ele>279.0</ele><time>2026-04-11T10:07:52Z</time></trkpt><trkpt lat="43.006987282498585" lon="10.887056711827091"><ele>279.0</ele><time>2026-04-11T10:07:53Z</time></trkpt><trkpt lat="43.006908247583304" lon="10.88702322530603"><ele>279.0</ele><time>2026-04-11T10:07:54Z</time></trkpt><trkpt lat="43.00681504075414" lon="10.887003205605524"><ele>279.0</ele><time>2026-04-11T10:07:55Z</time></trkpt><trkpt lat="43.00673513197064" lon="10.886974184459916"><ele>279.0</ele><time>2026-04-11T10:07:56Z</time></trkpt><trkpt lat="43.00666090249517" lon="10.886946621053758"><ele>279.0</ele><time>2026-04-11T10:07:57Z</time></trkpt><trkpt lat="43.0065808140265" lon="10.886927192718439"><ele>278.1666666666667</ele><time>2026-04-11T10:07:58Z</time></trkpt><trkpt lat="43.00650994465661" lon="10.88690931263486"><ele>277.3333333333333</ele><time>2026-04-11T10:07:59Z</time></trkpt><trkpt lat="43.006447419917926" lon="10.886887799164397"><ele>276.5</ele><time>2026-04-11T10:08:00Z</time></trkpt><trkpt lat="43.00637671940989" lon="10.886861919942548"><ele>275.66666666666663</ele><time>2026-04-11T10:08:01Z</time></trkpt><trkpt lat="43.0062995756908" lon="10.886836975431379"><ele>274.8333333333333</ele><time>2026-04-11T10:08:02Z</time></trkpt><trkpt lat="43.00623552069341" lon="10.88681940025732"><ele>274.0</ele><time>2026-04-11T10:08:03Z</time></trkpt><trkpt lat="43.00613984296134" lon="10.886792244683337"><ele>274.0</ele><time>2026-04-11T10:08:05Z</time></trkpt><trkpt lat="43.00603487170044" lon="10.886789557934478"><ele>274.0</ele><time>2026-04-11T10:08:07Z</time></trkpt><trkpt lat="43.00597037550905" lon="10.886791846756575"><ele>274.0</ele><time>2026-04-11T10:08:08Z</time></trkpt><trkpt lat="43.005879969053304" lon="10.886752296248053"><ele>274.0</ele><time>2026-04-11T10:08:10Z</time></trkpt><trkpt lat="43.005778432811255" lon="10.886699543756379"><ele>274.0</ele><time>2026-04-11T10:08:12Z</time></trkpt><trkpt lat="43.00563591600141" lon="10.886707204656243"><ele>273.2</ele><time>2026-04-11T10:08:14Z</time></trkpt><trkpt lat="43.005566696041974" lon="10.886713558939796"><ele>272.4</ele><time>2026-04-11T10:08:15Z</time></trkpt><trkpt lat="43.00550139300788" lon="10.88670702061451"><ele>271.6</ele><time>2026-04-11T10:08:16Z</time></trkpt><trkpt lat="43.005389377804114" lon="10.886685258419387"><ele>270.8</ele><time>2026-04-11T10:08:18Z</time></trkpt><trkpt lat="43.00528380784549" lon="10.886631556497683"><ele>270.0</ele><time>2026-04-11T10:08:20Z</time></trkpt><trkpt lat="43.005187124893475" lon="10.886531337601516"><ele>270.0</ele><time>2026-04-11T10:08:22Z</time></trkpt><trkpt lat="43.00513457739455" lon="10.886476277200352"><ele>270.0</ele><time>2026-04-11T10:08:23Z</time></trkpt><trkpt lat="43.005057775748604" lon="10.886389309357313"><ele>270.0</ele><time>2026-04-11T10:08:25Z</time></trkpt><trkpt lat="43.004987683959364" lon="10.886386598065952"><ele>270.0</ele><time>2026-04-11T10:08:26Z</time></trkpt><trkpt lat="43.004865026148316" lon="10.886400832308569"><ele>270.0</ele><time>2026-04-11T10:08:28Z</time></trkpt><trkpt lat="43.004746212771614" lon="10.886406841262623"><ele>270.1666666666667</ele><time>2026-04-11T10:08:30Z</time></trkpt><trkpt lat="43.00468234325647" lon="10.886399753697665"><ele>270.3333333333333</ele><time>2026-04-11T10:08:31Z</time></trkpt><trkpt lat="43.00458119456159" lon="10.88636875005499"><ele>270.5</ele><time>2026-04-11T10:08:33Z</time></trkpt><trkpt lat="43.00448007944568" lon="10.886351940513043"><ele>270.66666666666663</ele><time>2026-04-11T10:08:35Z</time></trkpt><trkpt lat="43.00437163014271" lon="10.886349528634387"><ele>270.8333333333333</ele><time>2026-04-11T10:08:37Z</time></trkpt><trkpt lat="43.0043064000888" lon="10.886354942559711"><ele>271.0</ele><time>2026-04-11T10:08:38Z</time></trkpt><trkpt lat="43.00424038605404" lon="10.886355696676588"><ele>271.0</ele><time>2026-04-11T10:08:39Z</time></trkpt><trkpt lat="43.00416485313962" lon="10.886370817144389"><ele>271.0</ele><time>2026-04-11T10:08:40Z</time></trkpt><trkpt lat="43.00407838575633" lon="10.886371135292386"><ele>271.0</ele><time>2026-04-11T10:08:41Z</time></trkpt><trkpt lat="43.003977918579835" lon="10.88636048016754"><ele>271.0</ele><time>2026-04-11T10:08:43Z</time></trkpt><trkpt lat="43.003901553482926" lon="10.886340400220568"><ele>271.0</ele><time>2026-04-11T10:08:45Z</time></trkpt><trkpt lat="43.00381665352477" lon="10.886319447745004"><ele>271.0</ele><time>2026-04-11T10:08:48Z</time></trkpt><trkpt lat="43.003749539237226" lon="10.886275297556885"><ele>270.0</ele><time>2026-04-11T10:08:55Z</time></trkpt><trkpt lat="43.003676486581234" lon="10.886247880319218"><ele>269.0</ele><time>2026-04-11T10:08:58Z</time></trkpt><trkpt lat="43.00360695034379" lon="10.886227135631907"><ele>268.0</ele><time>2026-04-11T10:09:00Z</time></trkpt><trkpt lat="43.00351909430705" lon="10.8862080439913"><ele>267.0</ele><time>2026-04-11T10:09:02Z</time></trkpt><trkpt lat="43.003432050305186" lon="10.886155132933643"><ele>266.0</ele><time>2026-04-11T10:09:04Z</time></trkpt><trkpt lat="43.00333467454662" lon="10.88613642067309"><ele>265.0</ele><time>2026-04-11T10:09:06Z</time></trkpt><trkpt lat="43.003247066445226" lon="10.886112218511402"><ele>264.16666666666663</ele><time>2026-04-11T10:09:08Z</time></trkpt><trkpt lat="43.003160879157356" lon="10.88611404110599"><ele>263.3333333333333</ele><time>2026-04-11T10:09:10Z</time></trkpt><trkpt lat="43.00307569078943" lon="10.886114020072233"><ele>262.5</ele><time>2026-04-11T10:09:12Z</time></trkpt><trkpt lat="43.00300948865039" lon="10.8861041506178"><ele>261.6666666666667</ele><time>2026-04-11T10:09:14Z</time></trkpt><trkpt lat="43.002935361628886" lon="10.886087217277106"><ele>260.83333333333337</ele><time>2026-04-11T10:09:16Z</time></trkpt><trkpt lat="43.00283003497242" lon="10.886070614060039"><ele>260.0</ele><time>2026-04-11T10:09:18Z</time></trkpt><trkpt lat="43.002747282175356" lon="10.88605464909853"><ele>260.0</ele><time>2026-04-11T10:09:19Z</time></trkpt><trkpt lat="43.00263761831341" lon="10.886033968482362"><ele>260.0</ele><time>2026-04-11T10:09:20Z</time></trkpt><trkpt lat="43.00253765557983" lon="10.886022884866556"><ele>260.0</ele><time>2026-04-11T10:09:21Z</time></trkpt><trkpt lat="43.00246911956492" lon="10.88601895903904"><ele>260.0</ele><time>2026-04-11T10:09:22Z</time></trkpt><trkpt lat="43.00239674522313" lon="10.886020679758655"><ele>260.0</ele><time>2026-04-11T10:09:23Z</time></trkpt><trkpt lat="43.00233120131879" lon="10.886014499928198"><ele>260.0</ele><time>2026-04-11T10:09:24Z</time></trkpt><trkpt lat="43.002262867277466" lon="10.886002530116077"><ele>260.33333333333337</ele><time>2026-04-11T10:09:25Z</time></trkpt><trkpt lat="43.00218731677855" lon="10.88599599617784"><ele>260.6666666666667</ele><time>2026-04-11T10:09:26Z</time></trkpt><trkpt lat="43.00212187562779" lon="10.885999405012058"><ele>261.0</ele><time>2026-04-11T10:09:27Z</time></trkpt><trkpt lat="43.00204701900493" lon="10.886018224981902"><ele>261.3333333333333</ele><time>2026-04-11T10:09:28Z</time></trkpt><trkpt lat="43.001980542050205" lon="10.886035160848069"><ele>261.66666666666663</ele><time>2026-04-11T10:09:29Z</time></trkpt><trkpt lat="43.00187100704819" lon="10.886051923406946"><ele>262.0</ele><time>2026-04-11T10:09:31Z</time></trkpt><trkpt lat="43.00180559991546" lon="10.886048771028957"><ele>262.0</ele><time>2026-04-11T10:09:32Z</time></trkpt><trkpt lat="43.00172465234575" lon="10.886041164285295"><ele>262.0</ele><time>2026-04-11T10:09:34Z</time></trkpt><trkpt lat="43.0016458271538" lon="10.886026416839158"><ele>262.0</ele><time>2026-04-11T10:09:39Z</time></trkpt><trkpt lat="43.00157704209251" lon="10.886017383891357"><ele>262.0</ele><time>2026-04-11T10:09:41Z</time></trkpt><trkpt lat="43.0014873893647" lon="10.885967284849253"><ele>262.0</ele><time>2026-04-11T10:09:43Z</time></trkpt><trkpt lat="43.00140414468634" lon="10.885905305481085"><ele>262.0</ele><time>2026-04-11T10:09:45Z</time></trkpt><trkpt lat="43.00131237465751" lon="10.8858611815764"><ele>262.3333333333333</ele><time>2026-04-11T10:09:47Z</time></trkpt><trkpt lat="43.00120061667637" lon="10.885786454350338"><ele>262.66666666666663</ele><time>2026-04-11T10:09:49Z</time></trkpt><trkpt lat="43.00114142071418" lon="10.885740884373815"><ele>263.0</ele><time>2026-04-11T10:09:50Z</time></trkpt><trkpt lat="43.00105728601906" lon="10.88566385424241"><ele>263.3333333333333</ele><time>2026-04-11T10:09:51.999Z</time></trkpt><trkpt lat="43.001026589432044" lon="10.885583055012482"><ele>263.6666666666667</ele><time>2026-04-11T10:09:53.999Z</time></trkpt><trkpt lat="43.00102452596118" lon="10.8854687771829"><ele>264.0</ele><time>2026-04-11T10:09:55.999Z</time></trkpt><trkpt lat="43.00101871622355" lon="10.885326263642924"><ele>264.0</ele><time>2026-04-11T10:09:57.999Z</time></trkpt><trkpt lat="43.00099900029963" lon="10.885242771358946"><ele>264.0</ele><time>2026-04-11T10:09:58.999Z</time></trkpt><trkpt lat="43.00093648067489" lon="10.88511798764777"><ele>264.0</ele><time>2026-04-11T10:10:00.999Z</time></trkpt><trkpt lat="43.00087896747588" lon="10.884990682763931"><ele>264.0</ele><time>2026-04-11T10:10:02.999Z</time></trkpt><trkpt lat="43.00080500623565" lon="10.884841463774366"><ele>264.0</ele><time>2026-04-11T10:10:04.999Z</time></trkpt><trkpt lat="43.00076039447808" lon="10.884757080806967"><ele>263.3333333333333</ele><time>2026-04-11T10:10:05.999Z</time></trkpt><trkpt lat="43.00070865797131" lon="10.884690089817726"><ele>262.6666666666667</ele><time>2026-04-11T10:10:07Z</time></trkpt><trkpt lat="43.000661818749855" lon="10.884627810700874"><ele>262.0</ele><time>2026-04-11T10:10:08Z</time></trkpt><trkpt lat="43.000616147323285" lon="10.884566251540093"><ele>261.33333333333337</ele><time>2026-04-11T10:10:09Z</time></trkpt><trkpt lat="43.000528724513025" lon="10.884441732938038"><ele>260.6666666666667</ele><time>2026-04-11T10:10:11Z</time></trkpt><trkpt lat="43.00043760796185" lon="10.884382346763571"><ele>260.0</ele><time>2026-04-11T10:10:13Z</time></trkpt><trkpt lat="43.000323412844125" lon="10.884343965834091"><ele>260.0</ele><time>2026-04-11T10:10:15Z</time></trkpt><trkpt lat="43.00026667740836" lon="10.884306272973253"><ele>260.0</ele><time>2026-04-11T10:10:17Z</time></trkpt><trkpt lat="43.00022141375837" lon="10.8842352172731"><ele>260.0</ele><time>2026-04-11T10:10:19Z</time></trkpt><trkpt lat="43.000164772033074" lon="10.884143066662062"><ele>260.0</ele><time>2026-04-11T10:10:21Z</time></trkpt><trkpt lat="43.00012308266292" lon="10.884019531012141"><ele>260.0</ele><time>2026-04-11T10:10:23Z</time></trkpt><trkpt lat="43.00007807327511" lon="10.883885294353142"><ele>260.0</ele><time>2026-04-11T10:10:25Z</time></trkpt><trkpt lat="43.00005156805523" lon="10.883783466177334"><ele>258.83333333333337</ele><time>2026-04-11T10:10:27Z</time></trkpt><trkpt lat="43.00002401325501" lon="10.88365776973249"><ele>257.6666666666667</ele><time>2026-04-11T10:10:29Z</time></trkpt><trkpt lat="42.99999048470163" lon="10.883578748018454"><ele>256.5</ele><time>2026-04-11T10:10:30Z</time></trkpt><trkpt lat="42.99997167216805" lon="10.88346328593017"><ele>255.33333333333331</ele><time>2026-04-11T10:10:32Z</time></trkpt><trkpt lat="42.99994499347472" lon="10.883345470864219"><ele>254.16666666666666</ele><time>2026-04-11T10:10:34Z</time></trkpt><trkpt lat="42.999914112604856" lon="10.883206875856205"><ele>253.0</ele><time>2026-04-11T10:10:36Z</time></trkpt><trkpt lat="42.9998849365113" lon="10.883066775723181"><ele>250.0</ele><time>2026-04-11T10:10:38Z</time></trkpt><trkpt lat="42.999859808700755" lon="10.8829188040894"><ele>247.0</ele><time>2026-04-11T10:10:40Z</time></trkpt><trkpt lat="42.999814179461566" lon="10.882789236564332"><ele>244.0</ele><time>2026-04-11T10:10:42Z</time></trkpt><trkpt lat="42.999787143216096" lon="10.882625174480914"><ele>241.0</ele><time>2026-04-11T10:10:44Z</time></trkpt><trkpt lat="42.99974799288361" lon="10.882478689822914"><ele>238.83333333333331</ele><time>2026-04-11T10:10:46Z</time></trkpt><trkpt lat="42.999715995465294" lon="10.882386728687589"><ele>236.66666666666666</ele><time>2026-04-11T10:10:48Z</time></trkpt><trkpt lat="42.999667213214536" lon="10.88229634167507"><ele>234.5</ele><time>2026-04-11T10:10:51Z</time></trkpt><trkpt lat="42.9996245550899" lon="10.882211606170847"><ele>232.33333333333331</ele><time>2026-04-11T10:10:56Z</time></trkpt><trkpt lat="42.99962880932845" lon="10.882102787893679"><ele>230.16666666666666</ele><time>2026-04-11T10:11:03Z</time></trkpt><trkpt lat="42.99963536293055" lon="10.881976365559666"><ele>228.0</ele><time>2026-04-11T10:11:06Z</time></trkpt><trkpt lat="42.99963448380989" lon="10.88185421344784"><ele>226.16666666666666</ele><time>2026-04-11T10:11:08Z</time></trkpt><trkpt lat="42.9996322047773" lon="10.881751527810838"><ele>224.33333333333331</ele><time>2026-04-11T10:11:10Z</time></trkpt><trkpt lat="42.99959420885179" lon="10.881634619434971"><ele>222.5</ele><time>2026-04-11T10:11:13Z</time></trkpt><trkpt lat="42.99954050032366" lon="10.881585761310026"><ele>220.66666666666666</ele><time>2026-04-11T10:11:15Z</time></trkpt><trkpt lat="42.99945371377469" lon="10.8815315192021"><ele>218.83333333333331</ele><time>2026-04-11T10:11:17Z</time></trkpt><trkpt lat="42.999369032731245" lon="10.881506098980584"><ele>217.0</ele><time>2026-04-11T10:11:19Z</time></trkpt><trkpt lat="42.99926293121141" lon="10.881463572877358"><ele>216.99999999999997</ele><time>2026-04-11T10:11:21Z</time></trkpt><trkpt lat="42.999192804986684" lon="10.881418834127572"><ele>217.0</ele><time>2026-04-11T10:11:22Z</time></trkpt><trkpt lat="42.99911524749837" lon="10.881383632452554"><ele>217.0</ele><time>2026-04-11T10:11:23Z</time></trkpt><trkpt lat="42.999041597041085" lon="10.881355976376353"><ele>217.0</ele><time>2026-04-11T10:11:24Z</time></trkpt><trkpt lat="42.99896035855503" lon="10.881292494347301"><ele>216.99999999999997</ele><time>2026-04-11T10:11:25Z</time></trkpt><trkpt lat="42.998894091003855" lon="10.881275274840181"><ele>217.0</ele><time>2026-04-11T10:11:26Z</time></trkpt><trkpt lat="42.998831781875055" lon="10.881244528634223"><ele>217.33333333333331</ele><time>2026-04-11T10:11:27Z</time></trkpt><trkpt lat="42.99872260908966" lon="10.881221646157215"><ele>217.66666666666666</ele><time>2026-04-11T10:11:29Z</time></trkpt><trkpt lat="42.99859729856729" lon="10.881228104031472"><ele>218.0</ele><time>2026-04-11T10:11:31Z</time></trkpt><trkpt lat="42.99852635852817" lon="10.881228420400388"><ele>218.33333333333331</ele><time>2026-04-11T10:11:32Z</time></trkpt><trkpt lat="42.99845943778817" lon="10.881239260094965"><ele>218.66666666666666</ele><time>2026-04-11T10:11:33Z</time></trkpt><trkpt lat="42.99838953661993" lon="10.881242649136194"><ele>219.0</ele><time>2026-04-11T10:11:34Z</time></trkpt><trkpt lat="42.99828970066067" lon="10.881264382816482"><ele>219.0</ele><time>2026-04-11T10:11:36Z</time></trkpt><trkpt lat="42.99821102946274" lon="10.88128283593089"><ele>218.99999999999997</ele><time>2026-04-11T10:11:38Z</time></trkpt><trkpt lat="42.99827775893677" lon="10.881360881090263"><ele>218.99999999999997</ele><time>2026-04-11T10:12:39Z</time></trkpt><trkpt lat="42.99834321707882" lon="10.881321328467418"><ele>219.0</ele><time>2026-04-11T10:12:43Z</time></trkpt><trkpt lat="42.998440150317194" lon="10.88123594154013"><ele>219.0</ele><time>2026-04-11T10:12:45Z</time></trkpt><trkpt lat="42.99854741317878" lon="10.881183861830987"><ele>219.0</ele><time>2026-04-11T10:12:47Z</time></trkpt><trkpt lat="42.99860930228437" lon="10.881141180192994"><ele>219.0</ele><time>2026-04-11T10:12:48Z</time></trkpt><trkpt lat="42.99866862817213" lon="10.881098560763895"><ele>219.0</ele><time>2026-04-11T10:12:49Z</time></trkpt><trkpt lat="42.99879522476281" lon="10.881007245428338"><ele>219.0</ele><time>2026-04-11T10:12:51Z</time></trkpt><trkpt lat="42.99885464831748" lon="10.880978578100473"><ele>219.0</ele><time>2026-04-11T10:12:52Z</time></trkpt><trkpt lat="42.99892570453521" lon="10.880944687874523"><ele>219.0</ele><time>2026-04-11T10:12:54Z</time></trkpt><trkpt lat="42.99895085337265" lon="10.880865586284658"><ele>217.83333333333334</ele><time>2026-04-11T10:12:56Z</time></trkpt><trkpt lat="42.99894857003767" lon="10.880770489911386"><ele>216.66666666666669</ele><time>2026-04-11T10:12:58Z</time></trkpt><trkpt lat="42.99891617437492" lon="10.880685769542831"><ele>215.5</ele><time>2026-04-11T10:12:59Z</time></trkpt><trkpt lat="42.99889162723727" lon="10.880584413075297"><ele>214.33333333333334</ele><time>2026-04-11T10:13:00Z</time></trkpt><trkpt lat="42.9988638168068" lon="10.880476236357493"><ele>213.16666666666669</ele><time>2026-04-11T10:13:01Z</time></trkpt><trkpt lat="42.9988352523383" lon="10.880369428195186"><ele>212.0</ele><time>2026-04-11T10:13:02Z</time></trkpt><trkpt lat="42.99879852657095" lon="10.88025491525318"><ele>212.00000000000003</ele><time>2026-04-11T10:13:03Z</time></trkpt><trkpt lat="42.99875230259956" lon="10.88017095405073"><ele>212.0</ele><time>2026-04-11T10:13:04Z</time></trkpt><trkpt lat="42.99870358304883" lon="10.88010607302797"><ele>212.0</ele><time>2026-04-11T10:13:05Z</time></trkpt><trkpt lat="42.99862084571874" lon="10.880017804636429"><ele>212.0</ele><time>2026-04-11T10:13:06Z</time></trkpt><trkpt lat="42.9985507145306" lon="10.879988243694354"><ele>212.00000000000003</ele><time>2026-04-11T10:13:07Z</time></trkpt><trkpt lat="42.99844617118558" lon="10.87991386609267"><ele>212.0</ele><time>2026-04-11T10:13:09Z</time></trkpt><trkpt lat="42.9983856292974" lon="10.879848721123034"><ele>212.50000000000003</ele><time>2026-04-11T10:13:10Z</time></trkpt><trkpt lat="42.998329799806164" lon="10.879783135514325"><ele>213.0</ele><time>2026-04-11T10:13:11Z</time></trkpt><trkpt lat="42.99827984547421" lon="10.879714739111115"><ele>213.5</ele><time>2026-04-11T10:13:12Z</time></trkpt><trkpt lat="42.99822193836243" lon="10.879630733783463"><ele>214.0</ele><time>2026-04-11T10:13:13Z</time></trkpt><trkpt lat="42.99815762293276" lon="10.879540148675549"><ele>214.50000000000003</ele><time>2026-04-11T10:13:14Z</time></trkpt><trkpt lat="42.99809113286671" lon="10.879469339815152"><ele>215.0</ele><time>2026-04-11T10:13:15Z</time></trkpt><trkpt lat="42.9980276348538" lon="10.879398285279342"><ele>215.00000000000003</ele><time>2026-04-11T10:13:16Z</time></trkpt><trkpt lat="42.99796488816696" lon="10.879336541078406"><ele>215.0</ele><time>2026-04-11T10:13:17Z</time></trkpt><trkpt lat="42.99789235471284" lon="10.879279783719838"><ele>215.0</ele><time>2026-04-11T10:13:18Z</time></trkpt><trkpt lat="42.99781179587735" lon="10.879238120350346"><ele>215.0</ele><time>2026-04-11T10:13:19Z</time></trkpt><trkpt lat="42.997736208790855" lon="10.879189904533458"><ele>215.00000000000003</ele><time>2026-04-11T10:13:20Z</time></trkpt><trkpt lat="42.997661558443845" lon="10.879130463847535"><ele>215.0</ele><time>2026-04-11T10:13:21Z</time></trkpt><trkpt lat="42.997592074383995" lon="10.879062036671497"><ele>215.16666666666669</ele><time>2026-04-11T10:13:22Z</time></trkpt><trkpt lat="42.9975255822358" lon="10.878999519420184"><ele>215.33333333333334</ele><time>2026-04-11T10:13:23Z</time></trkpt><trkpt lat="42.997454133147414" lon="10.878938149760035"><ele>215.5</ele><time>2026-04-11T10:13:24Z</time></trkpt><trkpt lat="42.99738598817071" lon="10.878876742313262"><ele>215.66666666666669</ele><time>2026-04-11T10:13:25Z</time></trkpt><trkpt lat="42.99731805670779" lon="10.87881797252972"><ele>215.83333333333334</ele><time>2026-04-11T10:13:26Z</time></trkpt><trkpt lat="42.99725835824609" lon="10.878754476612436"><ele>216.0</ele><time>2026-04-11T10:13:27Z</time></trkpt><trkpt lat="42.997200738620904" lon="10.878704645158022"><ele>216.0</ele><time>2026-04-11T10:13:28Z</time></trkpt><trkpt lat="42.99714347983008" lon="10.87865850852923"><ele>216.0</ele><time>2026-04-11T10:13:29Z</time></trkpt><trkpt lat="42.997083229506934" lon="10.878604325245634"><ele>216.0</ele><time>2026-04-11T10:13:30Z</time></trkpt><trkpt lat="42.997028987343114" lon="10.878534489975308"><ele>216.0</ele><time>2026-04-11T10:13:31Z</time></trkpt><trkpt lat="42.996952737332386" lon="10.87839831425018"><ele>216.0</ele><time>2026-04-11T10:13:33Z</time></trkpt><trkpt lat="42.99691049269112" lon="10.878332467432568"><ele>216.0</ele><time>2026-04-11T10:13:34Z</time></trkpt><trkpt lat="42.996860720443955" lon="10.878265857377729"><ele>215.57142857142856</ele><time>2026-04-11T10:13:35Z</time></trkpt><trkpt lat="42.9968061228069" lon="10.878220248437952"><ele>215.14285714285714</ele><time>2026-04-11T10:13:36Z</time></trkpt><trkpt lat="42.996748004437656" lon="10.878175658779782"><ele>214.71428571428572</ele><time>2026-04-11T10:13:37Z</time></trkpt><trkpt lat="42.99668474320997" lon="10.878135914727627"><ele>214.28571428571428</ele><time>2026-04-11T10:13:38Z</time></trkpt><trkpt lat="42.99661685159564" lon="10.878106010275857"><ele>213.85714285714286</ele><time>2026-04-11T10:13:39Z</time></trkpt><trkpt lat="42.99654402508706" lon="10.878080333517309"><ele>213.42857142857142</ele><time>2026-04-11T10:13:40Z</time></trkpt><trkpt lat="42.99647928154841" lon="10.878062781211758"><ele>213.0</ele><time>2026-04-11T10:13:41Z</time></trkpt><trkpt lat="42.996413497110716" lon="10.878050641364904"><ele>213.0</ele><time>2026-04-11T10:13:42Z</time></trkpt><trkpt lat="42.9962925879887" lon="10.878010785348819"><ele>213.0</ele><time>2026-04-11T10:13:44Z</time></trkpt><trkpt lat="42.99621856486838" lon="10.877976364169"><ele>213.0</ele><time>2026-04-11T10:13:45Z</time></trkpt><trkpt lat="42.99615741383541" lon="10.877926721223613"><ele>213.0</ele><time>2026-04-11T10:13:46Z</time></trkpt><trkpt lat="42.99609225868758" lon="10.87787618176624"><ele>213.0</ele><time>2026-04-11T10:13:47Z</time></trkpt><trkpt lat="42.99602096845257" lon="10.877839642569723"><ele>213.0</ele><time>2026-04-11T10:13:48Z</time></trkpt><trkpt lat="42.99595432863492" lon="10.877821849926288"><ele>213.0</ele><time>2026-04-11T10:13:49Z</time></trkpt><trkpt lat="42.99588998547534" lon="10.87783493651131"><ele>213.0</ele><time>2026-04-11T10:13:50Z</time></trkpt><trkpt lat="42.99581625316017" lon="10.87786977520567"><ele>213.0</ele><time>2026-04-11T10:13:51Z</time></trkpt><trkpt lat="42.995739626684696" lon="10.87790363489261"><ele>213.0</ele><time>2026-04-11T10:13:52Z</time></trkpt><trkpt lat="42.99565042862096" lon="10.877947425996837"><ele>213.0</ele><time>2026-04-11T10:13:53Z</time></trkpt><trkpt lat="42.99555650996228" lon="10.877997886247917"><ele>213.0</ele><time>2026-04-11T10:13:54Z</time></trkpt><trkpt lat="42.995435110215844" lon="10.878031355214603"><ele>212.66666666666666</ele><time>2026-04-11T10:13:56Z</time></trkpt><trkpt lat="42.99535338391823" lon="10.878057498851387"><ele>212.33333333333331</ele><time>2026-04-11T10:13:57Z</time></trkpt><trkpt lat="42.99527325509129" lon="10.878082162567077"><ele>212.0</ele><time>2026-04-11T10:13:58Z</time></trkpt><trkpt lat="42.995192980505486" lon="10.878112174706862"><ele>211.66666666666666</ele><time>2026-04-11T10:13:59Z</time></trkpt><trkpt lat="42.9951185546043" lon="10.878173449388283"><ele>211.33333333333331</ele><time>2026-04-11T10:14:00Z</time></trkpt><trkpt lat="42.99505968083409" lon="10.878223251871523"><ele>211.0</ele><time>2026-04-11T10:14:01Z</time></trkpt><trkpt lat="42.995003646349524" lon="10.87827898437303"><ele>210.99999999999997</ele><time>2026-04-11T10:14:02Z</time></trkpt><trkpt lat="42.99492181923183" lon="10.878337619931445"><ele>211.0</ele><time>2026-04-11T10:14:04Z</time></trkpt><trkpt lat="42.99485713066591" lon="10.878361077337798"><ele>211.0</ele><time>2026-04-11T10:14:07Z</time></trkpt><trkpt lat="42.994794651949974" lon="10.878412026407343"><ele>211.0</ele><time>2026-04-11T10:14:12Z</time></trkpt><trkpt lat="42.994754623103915" lon="10.878494399710677"><ele>210.99999999999997</ele><time>2026-04-11T10:14:48Z</time></trkpt><trkpt lat="42.9946813667167" lon="10.878542458179906"><ele>211.0</ele><time>2026-04-11T10:14:51Z</time></trkpt><trkpt lat="42.994606010130816" lon="10.878523501896176"><ele>210.99999999999997</ele><time>2026-04-11T10:14:53Z</time></trkpt><trkpt lat="42.994498517230944" lon="10.878499114528186"><ele>211.0</ele><time>2026-04-11T10:14:55Z</time></trkpt><trkpt lat="42.994427645631255" lon="10.87845046968143"><ele>211.0</ele><time>2026-04-11T10:14:56Z</time></trkpt><trkpt lat="42.99435639071844" lon="10.878427016084322"><ele>211.0</ele><time>2026-04-11T10:14:57Z</time></trkpt><trkpt lat="42.99429308110731" lon="10.878403949549579"><ele>210.99999999999997</ele><time>2026-04-11T10:14:58Z</time></trkpt><trkpt lat="42.994216792832745" lon="10.87836848604386"><ele>211.0</ele><time>2026-04-11T10:14:59Z</time></trkpt><trkpt lat="42.99414420751005" lon="10.878352520868319"><ele>213.99999999999997</ele><time>2026-04-11T10:15:00Z</time></trkpt><trkpt lat="42.99406564800531" lon="10.878331363063538"><ele>217.0</ele><time>2026-04-11T10:15:01Z</time></trkpt><trkpt lat="42.993977223778366" lon="10.878313636878898"><ele>220.0</ele><time>2026-04-11T10:15:02Z</time></trkpt><trkpt lat="42.993883921252596" lon="10.878307047074214"><ele>223.0</ele><time>2026-04-11T10:15:03Z</time></trkpt><trkpt lat="42.99379875037275" lon="10.878293254357668"><ele>225.99999999999997</ele><time>2026-04-11T10:15:04Z</time></trkpt><trkpt lat="42.99372591022206" lon="10.878280404310381"><ele>229.0</ele><time>2026-04-11T10:15:05Z</time></trkpt><trkpt lat="42.993652129196626" lon="10.878276211952015"><ele>229.0</ele><time>2026-04-11T10:15:06Z</time></trkpt><trkpt lat="42.99358916329406" lon="10.878265906535631"><ele>228.99999999999997</ele><time>2026-04-11T10:15:07Z</time></trkpt><trkpt lat="42.993523805781464" lon="10.878258683402684"><ele>228.99999999999997</ele><time>2026-04-11T10:15:08Z</time></trkpt><trkpt lat="42.99337733731395" lon="10.878239265302376"><ele>229.0</ele><time>2026-04-11T10:15:10Z</time></trkpt><trkpt lat="42.99328171627586" lon="10.878218968568298"><ele>229.0</ele><time>2026-04-11T10:15:11Z</time></trkpt><trkpt lat="42.993193227892334" lon="10.878196083022566"><ele>229.2</ele><time>2026-04-11T10:15:12Z</time></trkpt><trkpt lat="42.993093790063945" lon="10.87819034270676"><ele>229.39999999999998</ele><time>2026-04-11T10:15:13Z</time></trkpt><trkpt lat="42.99298552793064" lon="10.878183392272792"><ele>229.6</ele><time>2026-04-11T10:15:14Z</time></trkpt><trkpt lat="42.99288784332446" lon="10.87817680587731"><ele>229.8</ele><time>2026-04-11T10:15:15Z</time></trkpt><trkpt lat="42.99280931403843" lon="10.878164503724689"><ele>230.0</ele><time>2026-04-11T10:15:16Z</time></trkpt><trkpt lat="42.99273333724279" lon="10.878158466356496"><ele>230.00000000000003</ele><time>2026-04-11T10:15:17Z</time></trkpt><trkpt lat="42.99262690403148" lon="10.87815572905768"><ele>230.0</ele><time>2026-04-11T10:15:19Z</time></trkpt><trkpt lat="42.99255290503087" lon="10.878142379235426"><ele>230.0</ele><time>2026-04-11T10:15:21Z</time></trkpt><trkpt lat="42.99248801353087" lon="10.878117604827304"><ele>230.0</ele><time>2026-04-11T10:15:27Z</time></trkpt><trkpt lat="42.99244650218906" lon="10.87804234317268"><ele>230.00000000000003</ele><time>2026-04-11T10:15:31Z</time></trkpt><trkpt lat="42.992527721347315" lon="10.878007419901246"><ele>230.0</ele><time>2026-04-11T10:15:36Z</time></trkpt><trkpt lat="42.99258622673473" lon="10.87791507782509"><ele>230.0</ele><time>2026-04-11T10:15:38Z</time></trkpt><trkpt lat="42.99267567156566" lon="10.877816359544331"><ele>230.0</ele><time>2026-04-11T10:15:40Z</time></trkpt><trkpt lat="42.992744079799586" lon="10.877778918835316"><ele>230.0</ele><time>2026-04-11T10:15:41Z</time></trkpt><trkpt lat="42.99284184056044" lon="10.877692152310479"><ele>230.0</ele><time>2026-04-11T10:15:43Z</time></trkpt><trkpt lat="42.9928994027653" lon="10.877650203291937"><ele>230.0</ele><time>2026-04-11T10:15:44Z</time></trkpt><trkpt lat="42.99297119864046" lon="10.877601279728719"><ele>232.4</ele><time>2026-04-11T10:15:46Z</time></trkpt><trkpt lat="42.99302733676309" lon="10.877521921898639"><ele>234.8</ele><time>2026-04-11T10:15:48Z</time></trkpt><trkpt lat="42.993061409000084" lon="10.87743377777809"><ele>237.2</ele><time>2026-04-11T10:15:50Z</time></trkpt><trkpt lat="42.99308419300758" lon="10.87729508346691"><ele>239.6</ele><time>2026-04-11T10:15:52Z</time></trkpt><trkpt lat="42.99312522396322" lon="10.877122470988757"><ele>242.0</ele><time>2026-04-11T10:15:54Z</time></trkpt><trkpt lat="42.99315612458676" lon="10.87704027564366"><ele>242.00000000000003</ele><time>2026-04-11T10:15:55Z</time></trkpt><trkpt lat="42.993237357965484" lon="10.87692441870948"><ele>242.0</ele><time>2026-04-11T10:15:57Z</time></trkpt><trkpt lat="42.99327921880334" lon="10.876858852638275"><ele>242.0</ele><time>2026-04-11T10:15:58Z</time></trkpt><trkpt lat="42.99332316420522" lon="10.87678762814825"><ele>242.0</ele><time>2026-04-11T10:15:59Z</time></trkpt><trkpt lat="42.993362295480175" lon="10.876709379306853"><ele>242.00000000000003</ele><time>2026-04-11T10:16:00Z</time></trkpt><trkpt lat="42.9933909764154" lon="10.876611596787098"><ele>242.0</ele><time>2026-04-11T10:16:01Z</time></trkpt><trkpt lat="42.993419378905564" lon="10.87650565006322"><ele>243.66666666666669</ele><time>2026-04-11T10:16:02Z</time></trkpt><trkpt lat="42.99344078793173" lon="10.876404723601524"><ele>245.33333333333334</ele><time>2026-04-11T10:16:03Z</time></trkpt><trkpt lat="42.99346881002063" lon="10.87628440914553"><ele>247.0</ele><time>2026-04-11T10:16:04Z</time></trkpt><trkpt lat="42.993495059393794" lon="10.876194393499173"><ele>248.66666666666669</ele><time>2026-04-11T10:16:05Z</time></trkpt><trkpt lat="42.99353951889447" lon="10.876090250531034"><ele>250.33333333333334</ele><time>2026-04-11T10:16:06Z</time></trkpt><trkpt lat="42.99357394851648" lon="10.876005228877291"><ele>252.0</ele><time>2026-04-11T10:16:07Z</time></trkpt><trkpt lat="42.993627700631755" lon="10.875928434293906"><ele>252.0</ele><time>2026-04-11T10:16:08Z</time></trkpt><trkpt lat="42.99368473845417" lon="10.875861510239696"><ele>252.0</ele><time>2026-04-11T10:16:09Z</time></trkpt><trkpt lat="42.99376417428024" lon="10.875750017982622"><ele>252.0</ele><time>2026-04-11T10:16:10Z</time></trkpt><trkpt lat="42.99383420595839" lon="10.87565198498756"><ele>252.0</ele><time>2026-04-11T10:16:11Z</time></trkpt><trkpt lat="42.99390290862393" lon="10.875551515770438"><ele>252.0</ele><time>2026-04-11T10:16:13Z</time></trkpt><trkpt lat="42.99396635283873" lon="10.875574812382757"><ele>252.0</ele><time>2026-04-11T10:16:15Z</time></trkpt><trkpt lat="42.99403934314352" lon="10.875709311751386"><ele>252.0</ele><time>2026-04-11T10:16:17Z</time></trkpt><trkpt lat="42.99408857295744" lon="10.875790439291343"><ele>252.0</ele><time>2026-04-11T10:16:18Z</time></trkpt><trkpt lat="42.99413671395899" lon="10.875850064604414"><ele>252.0</ele><time>2026-04-11T10:16:19Z</time></trkpt><trkpt lat="42.994201043575586" lon="10.875894326194741"><ele>252.0</ele><time>2026-04-11T10:16:20Z</time></trkpt><trkpt lat="42.99427434863269" lon="10.875884236008556"><ele>252.0</ele><time>2026-04-11T10:16:21Z</time></trkpt><trkpt lat="42.99434194349826" lon="10.875876045699473"><ele>252.83333333333334</ele><time>2026-04-11T10:16:22Z</time></trkpt><trkpt lat="42.994410570932104" lon="10.87587143384696"><ele>253.66666666666669</ele><time>2026-04-11T10:16:23Z</time></trkpt><trkpt lat="42.994479114308405" lon="10.875858984498475"><ele>254.5</ele><time>2026-04-11T10:16:24Z</time></trkpt><trkpt lat="42.99454173594227" lon="10.875846671832646"><ele>255.33333333333334</ele><time>2026-04-11T10:16:25Z</time></trkpt><trkpt lat="42.99464515699253" lon="10.875757867896223"><ele>256.1666666666667</ele><time>2026-04-11T10:16:27Z</time></trkpt><trkpt lat="42.99472215031481" lon="10.875659201080378"><ele>257.0</ele><time>2026-04-11T10:16:28Z</time></trkpt><trkpt lat="42.99479752762643" lon="10.875587559373354"><ele>257.0</ele><time>2026-04-11T10:16:29Z</time></trkpt><trkpt lat="42.99488703885971" lon="10.875533852001777"><ele>257.0</ele><time>2026-04-11T10:16:30Z</time></trkpt><trkpt lat="42.994968549602056" lon="10.87547258548973"><ele>257.0</ele><time>2026-04-11T10:16:31Z</time></trkpt><trkpt lat="42.99504694052354" lon="10.875422568419726"><ele>257.0</ele><time>2026-04-11T10:16:32Z</time></trkpt><trkpt lat="42.99514346409136" lon="10.875371391732594"><ele>257.0</ele><time>2026-04-11T10:16:33Z</time></trkpt><trkpt lat="42.99522724614779" lon="10.875314488715373"><ele>256.0</ele><time>2026-04-11T10:16:34Z</time></trkpt><trkpt lat="42.99529669847737" lon="10.875254784322756"><ele>255.0</ele><time>2026-04-11T10:16:35Z</time></trkpt><trkpt lat="42.9953524901819" lon="10.87518797000197"><ele>254.0</ele><time>2026-04-11T10:16:36Z</time></trkpt><trkpt lat="42.995392779946236" lon="10.875115490472725"><ele>253.0</ele><time>2026-04-11T10:16:37Z</time></trkpt><trkpt lat="42.99542930739151" lon="10.875041441772556"><ele>252.00000000000003</ele><time>2026-04-11T10:16:38Z</time></trkpt><trkpt lat="42.99547030547973" lon="10.874885062737471"><ele>251.0</ele><time>2026-04-11T10:16:40Z</time></trkpt><trkpt lat="42.99547788470387" lon="10.874789172669926"><ele>250.20000000000002</ele><time>2026-04-11T10:16:41Z</time></trkpt><trkpt lat="42.99550572257301" lon="10.87464444942878"><ele>249.40000000000003</ele><time>2026-04-11T10:16:43Z</time></trkpt><trkpt lat="42.99554368623639" lon="10.874513828759437"><ele>248.6</ele><time>2026-04-11T10:16:45Z</time></trkpt><trkpt lat="42.99558906006424" lon="10.874354943434303"><ele>247.8</ele><time>2026-04-11T10:16:47Z</time></trkpt><trkpt lat="42.99561603646132" lon="10.87426335579539"><ele>247.0</ele><time>2026-04-11T10:16:48Z</time></trkpt><trkpt lat="42.995644858500484" lon="10.874172408432536"><ele>245.99999999999997</ele><time>2026-04-11T10:16:49Z</time></trkpt><trkpt lat="42.995667748120276" lon="10.874085579083696"><ele>245.0</ele><time>2026-04-11T10:16:50Z</time></trkpt><trkpt lat="42.99568562887043" lon="10.873995001948765"><ele>244.0</ele><time>2026-04-11T10:16:51Z</time></trkpt><trkpt lat="42.99570989700107" lon="10.873876579339314"><ele>243.0</ele><time>2026-04-11T10:16:52Z</time></trkpt><trkpt lat="42.99572867262494" lon="10.873781224239645"><ele>241.99999999999997</ele><time>2026-04-11T10:16:53Z</time></trkpt><trkpt lat="42.99575480720744" lon="10.873687259397432"><ele>241.0</ele><time>2026-04-11T10:16:54Z</time></trkpt><trkpt lat="42.99579096337087" lon="10.87352300728362"><ele>239.83333333333331</ele><time>2026-04-11T10:16:56Z</time></trkpt><trkpt lat="42.99580120854031" lon="10.873433203497322"><ele>238.66666666666666</ele><time>2026-04-11T10:16:57Z</time></trkpt><trkpt lat="42.995803185912884" lon="10.87328609439194"><ele>237.5</ele><time>2026-04-11T10:16:59Z</time></trkpt><trkpt lat="42.99581345531181" lon="10.873189838990506"><ele>236.33333333333331</ele><time>2026-04-11T10:17:01Z</time></trkpt><trkpt lat="42.99585592926034" lon="10.873095097757561"><ele>235.16666666666666</ele><time>2026-04-11T10:17:03Z</time></trkpt><trkpt lat="42.995894950022304" lon="10.872977610764375"><ele>234.0</ele><time>2026-04-11T10:17:05Z</time></trkpt><trkpt lat="42.99591199189588" lon="10.872844714363621"><ele>232.2</ele><time>2026-04-11T10:17:07Z</time></trkpt><trkpt lat="42.99594916378179" lon="10.872714323837247"><ele>230.39999999999998</ele><time>2026-04-11T10:17:09Z</time></trkpt><trkpt lat="42.99598734115962" lon="10.872637758743444"><ele>228.6</ele><time>2026-04-11T10:17:10Z</time></trkpt><trkpt lat="42.996041291962214" lon="10.872508187203435"><ele>226.8</ele><time>2026-04-11T10:17:12Z</time></trkpt><trkpt lat="42.996099929757186" lon="10.872375411164999"><ele>225.0</ele><time>2026-04-11T10:17:14Z</time></trkpt><trkpt lat="42.99615481771118" lon="10.872268738631865"><ele>223.8</ele><time>2026-04-11T10:17:16Z</time></trkpt><trkpt lat="42.9961973104888" lon="10.872198808392943"><ele>222.6</ele><time>2026-04-11T10:17:17Z</time></trkpt><trkpt lat="42.996216412374956" lon="10.872087354971516"><ele>221.39999999999998</ele><time>2026-04-11T10:17:19Z</time></trkpt><trkpt lat="42.996242498635496" lon="10.871973265499296"><ele>220.2</ele><time>2026-04-11T10:17:21Z</time></trkpt><trkpt lat="42.996306379364206" lon="10.871823322875153"><ele>219.0</ele><time>2026-04-11T10:17:23Z</time></trkpt><trkpt lat="42.99636269016987" lon="10.871701808680866"><ele>218.16666666666666</ele><time>2026-04-11T10:17:25Z</time></trkpt><trkpt lat="42.996411090884735" lon="10.871645823893958"><ele>217.33333333333331</ele><time>2026-04-11T10:17:29Z</time></trkpt><trkpt lat="42.99644876867904" lon="10.871539578937865"><ele>216.5</ele><time>2026-04-11T10:18:23Z</time></trkpt><trkpt lat="42.99650328106188" lon="10.871485066210544"><ele>215.66666666666666</ele><time>2026-04-11T10:18:57Z</time></trkpt><trkpt lat="42.99652081162268" lon="10.871364425741424"><ele>214.83333333333331</ele><time>2026-04-11T10:19:02Z</time></trkpt><trkpt lat="42.99653296284481" lon="10.871245034053338"><ele>214.0</ele><time>2026-04-11T10:19:04Z</time></trkpt><trkpt lat="42.99652861077756" lon="10.871136442445943"><ele>214.00000000000003</ele><time>2026-04-11T10:19:06Z</time></trkpt><trkpt lat="42.996550644934565" lon="10.87103305825358"><ele>214.0</ele><time>2026-04-11T10:19:08Z</time></trkpt><trkpt lat="42.99657193839807" lon="10.870938977689981"><ele>214.0</ele><time>2026-04-11T10:19:10Z</time></trkpt><trkpt lat="42.99658979965861" lon="10.870856245043544"><ele>214.0</ele><time>2026-04-11T10:19:12Z</time></trkpt><trkpt lat="42.99662266543778" lon="10.870754629669841"><ele>214.0</ele><time>2026-04-11T10:19:14Z</time></trkpt><trkpt lat="42.996650337233916" lon="10.870665810848935"><ele>214.00000000000003</ele><time>2026-04-11T10:19:16Z</time></trkpt><trkpt lat="42.99667824344462" lon="10.87055990600199"><ele>214.0</ele><time>2026-04-11T10:19:18Z</time></trkpt><trkpt lat="42.99669039815526" lon="10.870420169628389"><ele>212.6</ele><time>2026-04-11T10:19:20Z</time></trkpt><trkpt lat="42.996718414928615" lon="10.87027121579335"><ele>211.2</ele><time>2026-04-11T10:19:22Z</time></trkpt><trkpt lat="42.99674411822255" lon="10.870148032055653"><ele>209.79999999999998</ele><time>2026-04-11T10:19:24Z</time></trkpt><trkpt lat="42.99676488222984" lon="10.87003055653088"><ele>208.39999999999998</ele><time>2026-04-11T10:19:26Z</time></trkpt><trkpt lat="42.99678062502513" lon="10.869907591710016"><ele>207.0</ele><time>2026-04-11T10:19:28Z</time></trkpt><trkpt lat="42.996837230974904" lon="10.869760510791025"><ele>207.0</ele><time>2026-04-11T10:19:30Z</time></trkpt><trkpt lat="42.996869045993165" lon="10.869660191042401"><ele>207.0</ele><time>2026-04-11T10:19:31Z</time></trkpt><trkpt lat="42.996898981827414" lon="10.869563391400197"><ele>207.0</ele><time>2026-04-11T10:19:32Z</time></trkpt><trkpt lat="42.99694269896046" lon="10.869461179083373"><ele>207.0</ele><time>2026-04-11T10:19:33Z</time></trkpt><trkpt lat="42.997004768147555" lon="10.86935751902341"><ele>207.0</ele><time>2026-04-11T10:19:34Z</time></trkpt><trkpt lat="42.99706185894736" lon="10.86925327288717"><ele>207.0</ele><time>2026-04-11T10:19:35Z</time></trkpt><trkpt lat="42.99710761963752" lon="10.869149685946482"><ele>206.66666666666666</ele><time>2026-04-11T10:19:36Z</time></trkpt><trkpt lat="42.99715154120316" lon="10.869042549385915"><ele>206.33333333333331</ele><time>2026-04-11T10:19:37Z</time></trkpt><trkpt lat="42.99719773650047" lon="10.868940531559268"><ele>206.0</ele><time>2026-04-11T10:19:38Z</time></trkpt><trkpt lat="42.99724235487375" lon="10.868854863776841"><ele>205.66666666666666</ele><time>2026-04-11T10:19:39Z</time></trkpt><trkpt lat="42.99729550003228" lon="10.86875367249269"><ele>205.33333333333331</ele><time>2026-04-11T10:19:39.999Z</time></trkpt><trkpt lat="42.997347064746684" lon="10.868636554139703"><ele>205.0</ele><time>2026-04-11T10:19:40.999Z</time></trkpt><trkpt lat="42.997390181320775" lon="10.868533388812484"><ele>205.0</ele><time>2026-04-11T10:19:41.999Z</time></trkpt><trkpt lat="42.99744507390603" lon="10.868436327989635"><ele>205.0</ele><time>2026-04-11T10:19:42.999Z</time></trkpt><trkpt lat="42.99748853878351" lon="10.868359194075223"><ele>205.0</ele><time>2026-04-11T10:19:43.999Z</time></trkpt><trkpt lat="42.997534675316174" lon="10.868290076561905"><ele>205.0</ele><time>2026-04-11T10:19:44.999Z</time></trkpt><trkpt lat="42.997594294363424" lon="10.868248338439123"><ele>205.0</ele><time>2026-04-11T10:19:45.999Z</time></trkpt><trkpt lat="42.99765686674153" lon="10.868215576874597"><ele>205.0</ele><time>2026-04-11T10:19:46.999Z</time></trkpt><trkpt lat="42.997723296569056" lon="10.868183333725826"><ele>205.0</ele><time>2026-04-11T10:19:47.999Z</time></trkpt><trkpt lat="42.99783548749797" lon="10.868102914189423"><ele>205.0</ele><time>2026-04-11T10:19:49.999Z</time></trkpt><trkpt lat="42.99793060057554" lon="10.867988739124268"><ele>205.0</ele><time>2026-04-11T10:19:51.999Z</time></trkpt><trkpt lat="42.997979993624064" lon="10.867878404903058"><ele>205.0</ele><time>2026-04-11T10:19:53.999Z</time></trkpt><trkpt lat="42.99803242030874" lon="10.867728444035397"><ele>205.0</ele><time>2026-04-11T10:19:55.999Z</time></trkpt><trkpt lat="42.99806794763461" lon="10.867647655387605"><ele>205.0</ele><time>2026-04-11T10:19:56.999Z</time></trkpt><trkpt lat="42.998114024623234" lon="10.867545162049158"><ele>204.83333333333331</ele><time>2026-04-11T10:19:57.999Z</time></trkpt><trkpt lat="42.99815908949486" lon="10.867471857042814"><ele>204.66666666666666</ele><time>2026-04-11T10:19:58.999Z</time></trkpt><trkpt lat="42.99821015849116" lon="10.867393225451185"><ele>204.5</ele><time>2026-04-11T10:19:59.999Z</time></trkpt><trkpt lat="42.9982651893387" lon="10.867317521481793"><ele>204.33333333333331</ele><time>2026-04-11T10:20:00.999Z</time></trkpt><trkpt lat="42.99832227967543" lon="10.867235101226168"><ele>204.16666666666666</ele><time>2026-04-11T10:20:01.999Z</time></trkpt><trkpt lat="42.9983794820708" lon="10.867144964800751"><ele>204.0</ele><time>2026-04-11T10:20:02.999Z</time></trkpt><trkpt lat="42.998444553374526" lon="10.86705081706129"><ele>204.0</ele><time>2026-04-11T10:20:03.999Z</time></trkpt><trkpt lat="42.998521609096414" lon="10.866934813706214"><ele>204.0</ele><time>2026-04-11T10:20:04.999Z</time></trkpt><trkpt lat="42.998585181085765" lon="10.86683577833273"><ele>204.0</ele><time>2026-04-11T10:20:05.999Z</time></trkpt><trkpt lat="42.99864307648539" lon="10.866741679280297"><ele>204.0</ele><time>2026-04-11T10:20:06.999Z</time></trkpt><trkpt lat="42.9987239165465" lon="10.866618850365006"><ele>204.0</ele><time>2026-04-11T10:20:08.999Z</time></trkpt><trkpt lat="42.99877242094286" lon="10.866507659779275"><ele>201.79999999999998</ele><time>2026-04-11T10:20:10.999Z</time></trkpt><trkpt lat="42.998795998692174" lon="10.866425316321367"><ele>199.6</ele><time>2026-04-11T10:20:11.999Z</time></trkpt><trkpt lat="42.9988378747467" lon="10.866336468526027"><ele>197.4</ele><time>2026-04-11T10:20:14.999Z</time></trkpt><trkpt lat="42.99890819542114" lon="10.866275721386563"><ele>195.2</ele><time>2026-04-11T10:20:16.999Z</time></trkpt><trkpt lat="42.9990059100953" lon="10.86618597603125"><ele>193.0</ele><time>2026-04-11T10:20:18.999Z</time></trkpt><trkpt lat="42.999086588094094" lon="10.866059845408968"><ele>192.99999999999997</ele><time>2026-04-11T10:20:20.999Z</time></trkpt><trkpt lat="42.99914564641415" lon="10.86596499108699"><ele>193.0</ele><time>2026-04-11T10:20:21.999Z</time></trkpt><trkpt lat="42.99918552677364" lon="10.865893242135192"><ele>193.0</ele><time>2026-04-11T10:20:22.999Z</time></trkpt><trkpt lat="42.999220737831614" lon="10.865812950086292"><ele>193.0</ele><time>2026-04-11T10:20:23.999Z</time></trkpt><trkpt lat="42.999272016574466" lon="10.865699864678302"><ele>192.99999999999997</ele><time>2026-04-11T10:20:24.999Z</time></trkpt><trkpt lat="42.999307677204754" lon="10.865613635464895"><ele>193.0</ele><time>2026-04-11T10:20:25.999Z</time></trkpt><trkpt lat="42.999348794453" lon="10.865506753499696"><ele>192.99999999999997</ele><time>2026-04-11T10:20:26.999Z</time></trkpt><trkpt lat="42.99938159442316" lon="10.865413230033136"><ele>193.0</ele><time>2026-04-11T10:20:27.999Z</time></trkpt><trkpt lat="42.99940313011226" lon="10.865328865118544"><ele>193.0</ele><time>2026-04-11T10:20:28.999Z</time></trkpt><trkpt lat="42.99943097135869" lon="10.865201168003177"><ele>193.0</ele><time>2026-04-11T10:20:30.999Z</time></trkpt><trkpt lat="42.99944699909785" lon="10.865070586237113"><ele>192.99999999999997</ele><time>2026-04-11T10:20:32.999Z</time></trkpt><trkpt lat="42.99942917524222" lon="10.86497065680321"><ele>193.0</ele><time>2026-04-11T10:20:33.999Z</time></trkpt><trkpt lat="42.99939580598155" lon="10.86487188109333"><ele>193.0</ele><time>2026-04-11T10:20:34.999Z</time></trkpt><trkpt lat="42.99936993675367" lon="10.86478460638585"><ele>193.0</ele><time>2026-04-11T10:20:35.999Z</time></trkpt><trkpt lat="42.99933870392879" lon="10.864614207846333"><ele>193.0</ele><time>2026-04-11T10:20:37.999Z</time></trkpt><trkpt lat="42.99932887211608" lon="10.864488634735176"><ele>193.0</ele><time>2026-04-11T10:20:38.999Z</time></trkpt><trkpt lat="42.999310572958045" lon="10.864378564795844"><ele>193.0</ele><time>2026-04-11T10:20:39.999Z</time></trkpt><trkpt lat="42.99930016508725" lon="10.864270487968058"><ele>190.99999999999997</ele><time>2026-04-11T10:20:40.999Z</time></trkpt><trkpt lat="42.99929680274365" lon="10.864153279656534"><ele>189.0</ele><time>2026-04-11T10:20:41.999Z</time></trkpt><trkpt lat="42.99929117919196" lon="10.864036426660714"><ele>187.0</ele><time>2026-04-11T10:20:42.999Z</time></trkpt><trkpt lat="42.99929847644001" lon="10.863923312167206"><ele>185.0</ele><time>2026-04-11T10:20:43.999Z</time></trkpt><trkpt lat="42.99930567080782" lon="10.86381248228904"><ele>183.0</ele><time>2026-04-11T10:20:44.999Z</time></trkpt><trkpt lat="42.999316975236965" lon="10.863713644197805"><ele>181.0</ele><time>2026-04-11T10:20:45.999Z</time></trkpt><trkpt lat="42.99938750738121" lon="10.863592338085528"><ele>181.0</ele><time>2026-04-11T10:20:47.999Z</time></trkpt><trkpt lat="42.9994648215491" lon="10.863507937795655"><ele>181.0</ele><time>2026-04-11T10:20:48.999Z</time></trkpt><trkpt lat="42.99953952780241" lon="10.863400646156602"><ele>181.0</ele><time>2026-04-11T10:20:49.999Z</time></trkpt><trkpt lat="42.999602670057875" lon="10.863303979781778"><ele>181.0</ele><time>2026-04-11T10:20:50.999Z</time></trkpt><trkpt lat="42.99967874826336" lon="10.863190712840789"><ele>181.0</ele><time>2026-04-11T10:20:51.999Z</time></trkpt><trkpt lat="42.999740847485356" lon="10.863101700937978"><ele>179.20000000000002</ele><time>2026-04-11T10:20:52.999Z</time></trkpt><trkpt lat="42.99981529002353" lon="10.863005235280305"><ele>177.4</ele><time>2026-04-11T10:20:54.999Z</time></trkpt><trkpt lat="42.99987298779752" lon="10.862930038264919"><ele>175.6</ele><time>2026-04-11T10:20:57.999Z</time></trkpt><trkpt lat="42.99986308374996" lon="10.862818291878614"><ele>173.8</ele><time>2026-04-11T10:21:01.999Z</time></trkpt><trkpt lat="42.99980470003305" lon="10.862673014746523"><ele>172.0</ele><time>2026-04-11T10:21:03.999Z</time></trkpt><trkpt lat="42.999775014927685" lon="10.862579157494087"><ele>171.16666666666669</ele><time>2026-04-11T10:21:04.999Z</time></trkpt><trkpt lat="42.99973144434405" lon="10.86247608266037"><ele>170.33333333333334</ele><time>2026-04-11T10:21:05.999Z</time></trkpt><trkpt lat="42.99968630840643" lon="10.862347936835647"><ele>169.5</ele><time>2026-04-11T10:21:07.999Z</time></trkpt><trkpt lat="42.999667604808714" lon="10.86221953358559"><ele>168.66666666666666</ele><time>2026-04-11T10:21:09.999Z</time></trkpt><trkpt lat="42.99963478287757" lon="10.86210620316479"><ele>167.83333333333331</ele><time>2026-04-11T10:21:11.999Z</time></trkpt><trkpt lat="42.99958886156598" lon="10.862037964209433"><ele>167.0</ele><time>2026-04-11T10:21:12.999Z</time></trkpt><trkpt lat="42.99951874000089" lon="10.861960299479334"><ele>167.0</ele><time>2026-04-11T10:21:13.999Z</time></trkpt><trkpt lat="42.99944399284567" lon="10.861861492540445"><ele>167.0</ele><time>2026-04-11T10:21:14.999Z</time></trkpt><trkpt lat="42.999378767535205" lon="10.861758118648115"><ele>167.0</ele><time>2026-04-11T10:21:15.999Z</time></trkpt><trkpt lat="42.99934659856145" lon="10.861677183667187"><ele>167.0</ele><time>2026-04-11T10:21:16.999Z</time></trkpt><trkpt lat="42.99931994207204" lon="10.861522680705622"><ele>167.0</ele><time>2026-04-11T10:21:18.999Z</time></trkpt><trkpt lat="42.99929365420574" lon="10.861362763194245"><ele>166.16666666666666</ele><time>2026-04-11T10:21:20.999Z</time></trkpt><trkpt lat="42.999268948871425" lon="10.861195401293548"><ele>165.33333333333331</ele><time>2026-04-11T10:21:22.999Z</time></trkpt><trkpt lat="42.99925650041284" lon="10.861110867861868"><ele>164.5</ele><time>2026-04-11T10:21:23.999Z</time></trkpt><trkpt lat="42.99922506948853" lon="10.86101538296443"><ele>163.66666666666666</ele><time>2026-04-11T10:21:27Z</time></trkpt><trkpt lat="42.999164307410865" lon="10.86095563336023"><ele>162.83333333333334</ele><time>2026-04-11T10:21:29Z</time></trkpt><trkpt lat="42.99910610300896" lon="10.860879293595737"><ele>162.0</ele><time>2026-04-11T10:21:31Z</time></trkpt><trkpt lat="42.99905482335002" lon="10.860813959301732"><ele>162.0</ele><time>2026-04-11T10:21:33Z</time></trkpt><trkpt lat="42.999013055691215" lon="10.860731758428898"><ele>162.0</ele><time>2026-04-11T10:21:35Z</time></trkpt><trkpt lat="42.99892689497447" lon="10.860676848799812"><ele>162.0</ele><time>2026-04-11T10:21:38Z</time></trkpt><trkpt lat="42.99887109591233" lon="10.860619173794067"><ele>162.0</ele><time>2026-04-11T10:21:40Z</time></trkpt><trkpt lat="42.998799085830775" lon="10.860495517460208"><ele>162.0</ele><time>2026-04-11T10:21:42Z</time></trkpt><trkpt lat="42.998764866799995" lon="10.860406559516045"><ele>162.0</ele><time>2026-04-11T10:21:43Z</time></trkpt><trkpt lat="42.99872021074634" lon="10.860307200371397"><ele>162.0</ele><time>2026-04-11T10:21:45Z</time></trkpt><trkpt lat="42.99867192156891" lon="10.860160893512697"><ele>162.0</ele><time>2026-04-11T10:21:47Z</time></trkpt><trkpt lat="42.998639582936164" lon="10.860071358773025"><ele>162.0</ele><time>2026-04-11T10:21:48Z</time></trkpt><trkpt lat="42.998588085644776" lon="10.85989275556482"><ele>162.0</ele><time>2026-04-11T10:21:49Z</time></trkpt><trkpt lat="42.99851411022906" lon="10.859783363369164"><ele>162.0</ele><time>2026-04-11T10:21:51Z</time></trkpt><trkpt lat="42.99845445741767" lon="10.859713587390964"><ele>161.5</ele><time>2026-04-11T10:21:52Z</time></trkpt><trkpt lat="42.998374210993624" lon="10.859647007599115"><ele>161.0</ele><time>2026-04-11T10:21:53Z</time></trkpt><trkpt lat="42.998315044950616" lon="10.859596184560816"><ele>160.5</ele><time>2026-04-11T10:21:54Z</time></trkpt><trkpt lat="42.99825241477269" lon="10.859542773925718"><ele>160.0</ele><time>2026-04-11T10:21:55Z</time></trkpt><trkpt lat="42.99819483922852" lon="10.859479695156772"><ele>159.5</ele><time>2026-04-11T10:21:56Z</time></trkpt><trkpt lat="42.99813958118752" lon="10.859408997607483"><ele>159.0</ele><time>2026-04-11T10:21:57Z</time></trkpt><trkpt lat="42.9980860605267" lon="10.859334589288546"><ele>160.33333333333334</ele><time>2026-04-11T10:21:58Z</time></trkpt><trkpt lat="42.998034756520745" lon="10.859269683166582"><ele>161.66666666666666</ele><time>2026-04-11T10:21:59Z</time></trkpt><trkpt lat="42.99798410799199" lon="10.859208777507613"><ele>163.0</ele><time>2026-04-11T10:22:00Z</time></trkpt><trkpt lat="42.99788786438465" lon="10.85911251996918"><ele>164.33333333333331</ele><time>2026-04-11T10:22:02Z</time></trkpt><trkpt lat="42.99782148048775" lon="10.85903685204977"><ele>165.66666666666666</ele><time>2026-04-11T10:22:04Z</time></trkpt><trkpt lat="42.99776312487156" lon="10.858960767205437"><ele>167.0</ele><time>2026-04-11T10:22:06Z</time></trkpt><trkpt lat="42.997731576895205" lon="10.858878150686554"><ele>167.0</ele><time>2026-04-11T10:22:07Z</time></trkpt><trkpt lat="42.99769727114195" lon="10.858783864352823"><ele>167.0</ele><time>2026-04-11T10:22:08Z</time></trkpt><trkpt lat="42.99765395178461" lon="10.85869265176607"><ele>167.0</ele><time>2026-04-11T10:22:09Z</time></trkpt><trkpt lat="42.997603230032425" lon="10.858611881219801"><ele>167.0</ele><time>2026-04-11T10:22:10Z</time></trkpt><trkpt lat="42.99755185416857" lon="10.858533504098565"><ele>167.0</ele><time>2026-04-11T10:22:11Z</time></trkpt><trkpt lat="42.99750308599431" lon="10.858444898359739"><ele>167.0</ele><time>2026-04-11T10:22:12Z</time></trkpt><trkpt lat="42.9974674143886" lon="10.858361253942624"><ele>165.4</ele><time>2026-04-11T10:22:13Z</time></trkpt><trkpt lat="42.99742464643416" lon="10.85819622754171"><ele>163.79999999999998</ele><time>2026-04-11T10:22:15Z</time></trkpt><trkpt lat="42.99741995481779" lon="10.858089367896696"><ele>162.2</ele><time>2026-04-11T10:22:16Z</time></trkpt><trkpt lat="42.997428172618825" lon="10.858002790137109"><ele>160.6</ele><time>2026-04-11T10:22:17Z</time></trkpt><trkpt lat="42.9974511733948" lon="10.857822029986755"><ele>159.0</ele><time>2026-04-11T10:22:19Z</time></trkpt><trkpt lat="42.997463560843016" lon="10.857712558687346"><ele>158.4</ele><time>2026-04-11T10:22:20Z</time></trkpt><trkpt lat="42.99745142347546" lon="10.857594732229263"><ele>157.8</ele><time>2026-04-11T10:22:21Z</time></trkpt><trkpt lat="42.99742527657014" lon="10.857444314027509"><ele>157.2</ele><time>2026-04-11T10:22:22Z</time></trkpt><trkpt lat="42.99739465792442" lon="10.857272680258777"><ele>156.6</ele><time>2026-04-11T10:22:23Z</time></trkpt><trkpt lat="42.99736357497548" lon="10.857120534277207"><ele>156.0</ele><time>2026-04-11T10:22:24Z</time></trkpt><trkpt lat="42.99732372425682" lon="10.85698115326083"><ele>156.0</ele><time>2026-04-11T10:22:25Z</time></trkpt><trkpt lat="42.997299139813364" lon="10.856886868454595"><ele>156.0</ele><time>2026-04-11T10:22:26Z</time></trkpt><trkpt lat="42.99729759039596" lon="10.856792002671234"><ele>156.0</ele><time>2026-04-11T10:22:27Z</time></trkpt><trkpt lat="42.99731981987652" lon="10.856708468933991"><ele>156.0</ele><time>2026-04-11T10:22:28Z</time></trkpt><trkpt lat="42.99738386521065" lon="10.856625600754805"><ele>156.0</ele><time>2026-04-11T10:22:29Z</time></trkpt><trkpt lat="42.99747137886791" lon="10.856555179664415"><ele>156.0</ele><time>2026-04-11T10:22:30Z</time></trkpt><trkpt lat="42.997558005185375" lon="10.856487814969631"><ele>154.0</ele><time>2026-04-11T10:22:31Z</time></trkpt><trkpt lat="42.99766337802203" lon="10.856407178276074"><ele>152.0</ele><time>2026-04-11T10:22:32Z</time></trkpt><trkpt lat="42.99776927215482" lon="10.856318065209566"><ele>150.0</ele><time>2026-04-11T10:22:33Z</time></trkpt><trkpt lat="42.99786977547616" lon="10.85623914502228"><ele>148.0</ele><time>2026-04-11T10:22:34Z</time></trkpt><trkpt lat="42.99798262838132" lon="10.856148988489778"><ele>148.0</ele><time>2026-04-11T10:22:35Z</time></trkpt><trkpt lat="42.9980836939352" lon="10.85607334411843"><ele>148.0</ele><time>2026-04-11T10:22:36Z</time></trkpt><trkpt lat="42.998186937012484" lon="10.855987718528171"><ele>148.0</ele><time>2026-04-11T10:22:37Z</time></trkpt><trkpt lat="42.99828879154784" lon="10.85589542271685"><ele>148.0</ele><time>2026-04-11T10:22:38Z</time></trkpt><trkpt lat="42.9983715400158" lon="10.855815024485581"><ele>148.6</ele><time>2026-04-11T10:22:39Z</time></trkpt><trkpt lat="42.99843951062156" lon="10.855754480653522"><ele>149.20000000000002</ele><time>2026-04-11T10:22:40Z</time></trkpt><trkpt lat="42.9985030962749" lon="10.855701381369917"><ele>149.8</ele><time>2026-04-11T10:22:41Z</time></trkpt><trkpt lat="42.99859968902743" lon="10.855632437537167"><ele>150.4</ele><time>2026-04-11T10:22:43Z</time></trkpt><trkpt lat="42.99867895382956" lon="10.855513841579969"><ele>151.0</ele><time>2026-04-11T10:22:45Z</time></trkpt><trkpt lat="42.99870855978152" lon="10.855406073807037"><ele>151.0</ele><time>2026-04-11T10:22:46Z</time></trkpt><trkpt lat="42.99873006634071" lon="10.855299023920105"><ele>151.0</ele><time>2026-04-11T10:22:47Z</time></trkpt><trkpt lat="42.99876236191132" lon="10.855191076260406"><ele>151.0</ele><time>2026-04-11T10:22:48Z</time></trkpt><trkpt lat="42.9987968795844" lon="10.855066089751162"><ele>151.0</ele><time>2026-04-11T10:22:49Z</time></trkpt><trkpt lat="42.99882137633194" lon="10.854920100105572"><ele>151.0</ele><time>2026-04-11T10:22:50Z</time></trkpt><trkpt lat="42.9988371734224" lon="10.854770253549347"><ele>150.75</ele><time>2026-04-11T10:22:51Z</time></trkpt><trkpt lat="42.99885248069804" lon="10.854613259866385"><ele>150.5</ele><time>2026-04-11T10:22:52Z</time></trkpt><trkpt lat="42.998868116755595" lon="10.854448811144074"><ele>150.25</ele><time>2026-04-11T10:22:53Z</time></trkpt><trkpt lat="42.99889546181754" lon="10.854284074369271"><ele>150.0</ele><time>2026-04-11T10:22:54Z</time></trkpt><trkpt lat="42.99891454768328" lon="10.854130011199144"><ele>149.6</ele><time>2026-04-11T10:22:55Z</time></trkpt><trkpt lat="42.99893106004843" lon="10.85398461629186"><ele>149.2</ele><time>2026-04-11T10:22:56Z</time></trkpt><trkpt lat="42.99894282513468" lon="10.853851792005988"><ele>148.8</ele><time>2026-04-11T10:22:57Z</time></trkpt><trkpt lat="42.998963957687145" lon="10.853741078739382"><ele>148.4</ele><time>2026-04-11T10:22:58Z</time></trkpt><trkpt lat="42.998977225948" lon="10.853628793086353"><ele>148.0</ele><time>2026-04-11T10:22:59Z</time></trkpt><trkpt lat="42.99899371475112" lon="10.853518080853547"><ele>147.4</ele><time>2026-04-11T10:23:00Z</time></trkpt><trkpt lat="42.99902855483442" lon="10.853407937909637"><ele>146.8</ele><time>2026-04-11T10:23:01Z</time></trkpt><trkpt lat="42.99906661170891" lon="10.853300985600708"><ele>146.2</ele><time>2026-04-11T10:23:02Z</time></trkpt><trkpt lat="42.999091877650606" lon="10.853180745610146"><ele>145.6</ele><time>2026-04-11T10:23:03Z</time></trkpt><trkpt lat="42.999127564234755" lon="10.85304091337173"><ele>145.0</ele><time>2026-04-11T10:23:04Z</time></trkpt><trkpt lat="42.999164055484385" lon="10.852890148016611"><ele>144.75</ele><time>2026-04-11T10:23:05Z</time></trkpt><trkpt lat="42.99920849434031" lon="10.852749297455583"><ele>144.5</ele><time>2026-04-11T10:23:06Z</time></trkpt><trkpt lat="42.99924738474803" lon="10.852601326743718"><ele>144.25</ele><time>2026-04-11T10:23:07Z</time></trkpt><trkpt lat="42.999288357811864" lon="10.852451710956998"><ele>144.0</ele><time>2026-04-11T10:23:08Z</time></trkpt><trkpt lat="42.99933537971849" lon="10.852296188733824"><ele>143.0</ele><time>2026-04-11T10:23:09Z</time></trkpt><trkpt lat="42.99936994368936" lon="10.852140754643816"><ele>142.0</ele><time>2026-04-11T10:23:10Z</time></trkpt><trkpt lat="42.99939375766296" lon="10.851977855389405"><ele>141.0</ele><time>2026-04-11T10:23:11Z</time></trkpt><trkpt lat="42.99940710349332" lon="10.851826364657631"><ele>140.0</ele><time>2026-04-11T10:23:12Z</time></trkpt><trkpt lat="42.999422404792256" lon="10.851675067006806"><ele>139.6</ele><time>2026-04-11T10:23:13Z</time></trkpt><trkpt lat="42.99944660928982" lon="10.851544122189479"><ele>139.2</ele><time>2026-04-11T10:23:14Z</time></trkpt><trkpt lat="42.99947501443674" lon="10.851415446755638"><ele>138.8</ele><time>2026-04-11T10:23:15Z</time></trkpt><trkpt lat="42.99951955571848" lon="10.851299985147808"><ele>138.4</ele><time>2026-04-11T10:23:16Z</time></trkpt><trkpt lat="42.99958202141205" lon="10.851190807030484"><ele>138.0</ele><time>2026-04-11T10:23:17Z</time></trkpt><trkpt lat="42.99964577950952" lon="10.851095326857765"><ele>138.0</ele><time>2026-04-11T10:23:18Z</time></trkpt><trkpt lat="42.9996965220933" lon="10.851026894447704"><ele>138.0</ele><time>2026-04-11T10:23:19Z</time></trkpt><trkpt lat="42.99975054768261" lon="10.850969895772476"><ele>138.0</ele><time>2026-04-11T10:23:20Z</time></trkpt><trkpt lat="42.99983504659419" lon="10.850917354666105"><ele>138.0</ele><time>2026-04-11T10:23:22Z</time></trkpt><trkpt lat="42.99987915390385" lon="10.850854873345744"><ele>138.0</ele><time>2026-04-11T10:23:25Z</time></trkpt><trkpt lat="42.999832982671464" lon="10.850782385417773"><ele>138.0</ele><time>2026-04-11T10:25:32Z</time></trkpt><trkpt lat="42.99976103839441" lon="10.850775636870607"><ele>138.0</ele><time>2026-04-11T10:26:07Z</time></trkpt><trkpt lat="42.99969408749814" lon="10.850780358486405"><ele>137.8</ele><time>2026-04-11T10:26:10Z</time></trkpt><trkpt lat="42.99956795543558" lon="10.85075754914677"><ele>137.60000000000002</ele><time>2026-04-11T10:26:12Z</time></trkpt><trkpt lat="42.99950401019054" lon="10.850752023653456"><ele>137.39999999999998</ele><time>2026-04-11T10:26:13Z</time></trkpt><trkpt lat="42.99942356470169" lon="10.850746873735108"><ele>137.2</ele><time>2026-04-11T10:26:14Z</time></trkpt><trkpt lat="42.999320130962374" lon="10.850773043366944"><ele>137.0</ele><time>2026-04-11T10:26:15Z</time></trkpt><trkpt lat="42.999227718875055" lon="10.850777545775209"><ele>137.2</ele><time>2026-04-11T10:26:16Z</time></trkpt><trkpt lat="42.999135624974514" lon="10.8507854824058"><ele>137.39999999999998</ele><time>2026-04-11T10:26:17Z</time></trkpt><trkpt lat="42.99903968046461" lon="10.85077492273741"><ele>137.60000000000002</ele><time>2026-04-11T10:26:18Z</time></trkpt><trkpt lat="42.998931025714604" lon="10.850680651814857"><ele>137.8</ele><time>2026-04-11T10:26:19Z</time></trkpt><trkpt lat="42.99883731804905" lon="10.85070022492394"><ele>138.0</ele><time>2026-04-11T10:26:20Z</time></trkpt><trkpt lat="42.998738671560645" lon="10.850819840158668"><ele>138.0</ele><time>2026-04-11T10:26:21Z</time></trkpt><trkpt lat="42.99865507444662" lon="10.850869612782153"><ele>138.0</ele><time>2026-04-11T10:26:22Z</time></trkpt><trkpt lat="42.998589260443794" lon="10.85092956305935"><ele>138.0</ele><time>2026-04-11T10:26:23Z</time></trkpt><trkpt lat="42.998528061136106" lon="10.850980458671875"><ele>138.0</ele><time>2026-04-11T10:26:24Z</time></trkpt><trkpt lat="42.99845321123444" lon="10.851012209835938"><ele>138.0</ele><time>2026-04-11T10:26:25Z</time></trkpt><trkpt lat="42.99838080198735" lon="10.851037571291757"><ele>138.0</ele><time>2026-04-11T10:26:26Z</time></trkpt><trkpt lat="42.998312626996935" lon="10.851063175306404"><ele>138.16666666666666</ele><time>2026-04-11T10:26:27Z</time></trkpt><trkpt lat="42.9982087090354" lon="10.851074909034587"><ele>138.33333333333334</ele><time>2026-04-11T10:26:29Z</time></trkpt><trkpt lat="42.998139435698626" lon="10.851058857540579"><ele>138.5</ele><time>2026-04-11T10:26:31Z</time></trkpt><trkpt lat="42.99805474147685" lon="10.851019876273904"><ele>138.66666666666669</ele><time>2026-04-11T10:26:33Z</time></trkpt><trkpt lat="42.99800196410179" lon="10.850939463257415"><ele>138.83333333333334</ele><time>2026-04-11T10:26:35Z</time></trkpt><trkpt lat="42.99803481822668" lon="10.850816000283876"><ele>139.0</ele><time>2026-04-11T10:26:38Z</time></trkpt><trkpt lat="42.99808625568693" lon="10.850693867946408"><ele>139.0</ele><time>2026-04-11T10:26:40Z</time></trkpt><trkpt lat="42.99810926071062" lon="10.85059685012294"><ele>139.0</ele><time>2026-04-11T10:26:41Z</time></trkpt><trkpt lat="42.99812771616665" lon="10.850509681804533"><ele>139.0</ele><time>2026-04-11T10:26:42Z</time></trkpt><trkpt lat="42.998154016479724" lon="10.850363082074946"><ele>139.0</ele><time>2026-04-11T10:26:43Z</time></trkpt><trkpt lat="42.99815487948366" lon="10.850231987065339"><ele>139.0</ele><time>2026-04-11T10:26:44Z</time></trkpt><trkpt lat="42.99813334303934" lon="10.850095553540221"><ele>139.0</ele><time>2026-04-11T10:26:45Z</time></trkpt><trkpt lat="42.99808900629087" lon="10.849984064057224"><ele>138.16666666666669</ele><time>2026-04-11T10:26:46Z</time></trkpt><trkpt lat="42.99802761816144" lon="10.849894941865335"><ele>137.33333333333334</ele><time>2026-04-11T10:26:47Z</time></trkpt><trkpt lat="42.99798057207337" lon="10.849819314424119"><ele>136.5</ele><time>2026-04-11T10:26:48Z</time></trkpt><trkpt lat="42.99793850644633" lon="10.84970334904263"><ele>135.66666666666666</ele><time>2026-04-11T10:26:49Z</time></trkpt><trkpt lat="42.997901767642155" lon="10.849604315800681"><ele>134.83333333333331</ele><time>2026-04-11T10:26:50Z</time></trkpt><trkpt lat="42.99787399975231" lon="10.849521690598177"><ele>134.0</ele><time>2026-04-11T10:26:51Z</time></trkpt><trkpt lat="42.997796175483565" lon="10.849407727480198"><ele>134.0</ele><time>2026-04-11T10:26:53Z</time></trkpt><trkpt lat="42.997720330927415" lon="10.84931202385445"><ele>134.0</ele><time>2026-04-11T10:26:55Z</time></trkpt><trkpt lat="42.997682196231665" lon="10.849223382094333"><ele>134.0</ele><time>2026-04-11T10:26:56Z</time></trkpt><trkpt lat="42.99765107787205" lon="10.849109592957802"><ele>134.0</ele><time>2026-04-11T10:26:58Z</time></trkpt><trkpt lat="42.997666397253575" lon="10.849009553268738"><ele>134.0</ele><time>2026-04-11T10:27:00Z</time></trkpt><trkpt lat="42.99771673271269" lon="10.848885747853409"><ele>134.0</ele><time>2026-04-11T10:27:02Z</time></trkpt><trkpt lat="42.99775689702509" lon="10.84878614911854"><ele>133.66666666666666</ele><time>2026-04-11T10:27:03Z</time></trkpt><trkpt lat="42.99780194731493" lon="10.848679201589933"><ele>133.33333333333331</ele><time>2026-04-11T10:27:04Z</time></trkpt><trkpt lat="42.99781914145197" lon="10.848593564489038"><ele>133.0</ele><time>2026-04-11T10:27:05Z</time></trkpt><trkpt lat="42.99778466314793" lon="10.848451995100197"><ele>132.66666666666666</ele><time>2026-04-11T10:27:07Z</time></trkpt><trkpt lat="42.99776379151764" lon="10.848356265526036"><ele>132.33333333333334</ele><time>2026-04-11T10:27:08Z</time></trkpt><trkpt lat="42.997750055831936" lon="10.848223654353847"><ele>132.0</ele><time>2026-04-11T10:27:09Z</time></trkpt><trkpt lat="42.997730267847196" lon="10.84810684761737"><ele>131.33333333333334</ele><time>2026-04-11T10:27:10Z</time></trkpt><trkpt lat="42.99771162888553" lon="10.8479978131577"><ele>130.66666666666666</ele><time>2026-04-11T10:27:11Z</time></trkpt><trkpt lat="42.99768201408828" lon="10.847911973420223"><ele>130.0</ele><time>2026-04-11T10:27:12Z</time></trkpt><trkpt lat="42.997635862332004" lon="10.84781905706585"><ele>129.33333333333331</ele><time>2026-04-11T10:27:13Z</time></trkpt><trkpt lat="42.99760213142256" lon="10.847664126547851"><ele>128.66666666666666</ele><time>2026-04-11T10:27:15Z</time></trkpt><trkpt lat="42.99758974683047" lon="10.847554011256518"><ele>128.0</ele><time>2026-04-11T10:27:17Z</time></trkpt><trkpt lat="42.99760748673944" lon="10.84742692559496"><ele>127.66666666666666</ele><time>2026-04-11T10:27:20Z</time></trkpt><trkpt lat="42.99759524199558" lon="10.847333621170842"><ele>127.33333333333333</ele><time>2026-04-11T10:27:22Z</time></trkpt><trkpt lat="42.997498541806046" lon="10.847322143225615"><ele>127.0</ele><time>2026-04-11T10:27:26Z</time></trkpt><trkpt lat="42.99743429002204" lon="10.847257761398179"><ele>126.66666666666666</ele><time>2026-04-11T10:27:29Z</time></trkpt><trkpt lat="42.997391393640285" lon="10.847170180576411"><ele>126.33333333333333</ele><time>2026-04-11T10:27:32Z</time></trkpt><trkpt lat="42.99733520479605" lon="10.847078977324331"><ele>126.0</ele><time>2026-04-11T10:27:35Z</time></trkpt><trkpt lat="42.997291468900514" lon="10.84699366398471"><ele>126.0</ele><time>2026-04-11T10:27:37Z</time></trkpt><trkpt lat="42.997213901936114" lon="10.846913353164709"><ele>126.0</ele><time>2026-04-11T10:27:39Z</time></trkpt><trkpt lat="42.9971589401714" lon="10.846862543740038"><ele>126.0</ele><time>2026-04-11T10:27:40Z</time></trkpt><trkpt lat="42.99707854656677" lon="10.846794226910047"><ele>126.0</ele><time>2026-04-11T10:27:42Z</time></trkpt><trkpt lat="42.996995435501574" lon="10.846684608903995"><ele>126.0</ele><time>2026-04-11T10:27:44Z</time></trkpt><trkpt lat="42.99691452732216" lon="10.846605611434423"><ele>126.16666666666667</ele><time>2026-04-11T10:27:46Z</time></trkpt><trkpt lat="42.99680141379986" lon="10.846589255457294"><ele>126.33333333333334</ele><time>2026-04-11T10:27:48Z</time></trkpt><trkpt lat="42.99672055105588" lon="10.846599067803202"><ele>126.5</ele><time>2026-04-11T10:27:50Z</time></trkpt><trkpt lat="42.996637467935784" lon="10.846548738907954"><ele>126.66666666666667</ele><time>2026-04-11T10:27:52Z</time></trkpt><trkpt lat="42.996572574956076" lon="10.84655312117166"><ele>126.83333333333334</ele><time>2026-04-11T10:27:57Z</time></trkpt><trkpt lat="42.99650604049762" lon="10.8466199818691"><ele>127.0</ele><time>2026-04-11T10:28:04Z</time></trkpt><trkpt lat="42.99642531841303" lon="10.846683267934988"><ele>127.00000000000001</ele><time>2026-04-11T10:28:06Z</time></trkpt><trkpt lat="42.996347622088706" lon="10.846687692139515"><ele>127.0</ele><time>2026-04-11T10:28:09Z</time></trkpt><trkpt lat="42.996255799404636" lon="10.846715525036592"><ele>127.0</ele><time>2026-04-11T10:28:25Z</time></trkpt><trkpt lat="42.996177642895766" lon="10.846710463977319"><ele>127.0</ele><time>2026-04-11T10:28:28Z</time></trkpt><trkpt lat="42.9961031646683" lon="10.846729329851085"><ele>127.00000000000001</ele><time>2026-04-11T10:28:30Z</time></trkpt><trkpt lat="42.99601171603577" lon="10.846764301455917"><ele>127.0</ele><time>2026-04-11T10:28:32Z</time></trkpt><trkpt lat="42.99591500331037" lon="10.846777745677983"><ele>127.8</ele><time>2026-04-11T10:28:34Z</time></trkpt><trkpt lat="42.99581136824629" lon="10.846843507986959"><ele>128.6</ele><time>2026-04-11T10:28:36Z</time></trkpt><trkpt lat="42.99571030905465" lon="10.846873344378087"><ele>129.39999999999998</ele><time>2026-04-11T10:28:38Z</time></trkpt><trkpt lat="42.99561025380592" lon="10.846881935187385"><ele>130.2</ele><time>2026-04-11T10:28:40Z</time></trkpt><trkpt lat="42.99551949998896" lon="10.846848482083423"><ele>131.0</ele><time>2026-04-11T10:28:42Z</time></trkpt><trkpt lat="42.99540936318405" lon="10.846756847974403"><ele>128.8</ele><time>2026-04-11T10:28:44Z</time></trkpt><trkpt lat="42.99535358268274" lon="10.846644755474948"><ele>126.6</ele><time>2026-04-11T10:28:45Z</time></trkpt><trkpt lat="42.99529429711371" lon="10.84653704248131"><ele>124.4</ele><time>2026-04-11T10:28:46Z</time></trkpt><trkpt lat="42.995225966707494" lon="10.846426842346025"><ele>122.2</ele><time>2026-04-11T10:28:47Z</time></trkpt><trkpt lat="42.995176383228454" lon="10.846339498366222"><ele>120.0</ele><time>2026-04-11T10:28:48Z</time></trkpt><trkpt lat="42.99512052825506" lon="10.846236210240917"><ele>120.0</ele><time>2026-04-11T10:28:49Z</time></trkpt><trkpt lat="42.995073966320724" lon="10.846145316745512"><ele>120.0</ele><time>2026-04-11T10:28:50Z</time></trkpt><trkpt lat="42.995031562329196" lon="10.846055206295617"><ele>120.0</ele><time>2026-04-11T10:28:51Z</time></trkpt><trkpt lat="42.995014450978005" lon="10.845883817302816"><ele>120.0</ele><time>2026-04-11T10:28:53Z</time></trkpt><trkpt lat="42.995009825713296" lon="10.845778174245636"><ele>120.0</ele><time>2026-04-11T10:28:54Z</time></trkpt><trkpt lat="42.9950164317505" lon="10.845618360166311"><ele>118.2</ele><time>2026-04-11T10:28:56Z</time></trkpt><trkpt lat="42.99501511801614" lon="10.845481397248223"><ele>116.4</ele><time>2026-04-11T10:28:58Z</time></trkpt><trkpt lat="42.99496513043118" lon="10.845335996146206"><ele>114.6</ele><time>2026-04-11T10:29:00Z</time></trkpt><trkpt lat="42.994912662945495" lon="10.845258802818286"><ele>112.8</ele><time>2026-04-11T10:29:01Z</time></trkpt><trkpt lat="42.99485261399037" lon="10.845145934369468"><ele>111.0</ele><time>2026-04-11T10:29:03Z</time></trkpt><trkpt lat="42.994828798562764" lon="10.84504243377822"><ele>108.66666666666667</ele><time>2026-04-11T10:29:05Z</time></trkpt><trkpt lat="42.994812356376364" lon="10.844950531910126"><ele>106.33333333333334</ele><time>2026-04-11T10:29:07Z</time></trkpt><trkpt lat="42.99475585881387" lon="10.844887993496386"><ele>104.0</ele><time>2026-04-11T10:29:09Z</time></trkpt><trkpt lat="42.99468177729356" lon="10.844805176381108"><ele>101.66666666666667</ele><time>2026-04-11T10:29:11Z</time></trkpt><trkpt lat="42.99462803107393" lon="10.844704283799926"><ele>99.33333333333334</ele><time>2026-04-11T10:29:13Z</time></trkpt><trkpt lat="42.994575591113545" lon="10.84462518579909"><ele>97.0</ele><time>2026-04-11T10:29:16Z</time></trkpt><trkpt lat="42.994488293678046" lon="10.844600307022649"><ele>97.00000000000001</ele><time>2026-04-11T10:29:19Z</time></trkpt><trkpt lat="42.99442366650092" lon="10.844602413959715"><ele>97.0</ele><time>2026-04-11T10:29:22Z</time></trkpt><trkpt lat="42.994352086694505" lon="10.844620358053474"><ele>97.0</ele><time>2026-04-11T10:29:25Z</time></trkpt><trkpt lat="42.99425853155575" lon="10.844642531561206"><ele>97.0</ele><time>2026-04-11T10:29:27Z</time></trkpt><trkpt lat="42.99418402520813" lon="10.844643363008458"><ele>97.00000000000001</ele><time>2026-04-11T10:29:28Z</time></trkpt><trkpt lat="42.994104125007574" lon="10.844638440258343"><ele>97.0</ele><time>2026-04-11T10:29:29Z</time></trkpt><trkpt lat="42.994016352476365" lon="10.84462531776698"><ele>95.83333333333334</ele><time>2026-04-11T10:29:30Z</time></trkpt><trkpt lat="42.993932772164925" lon="10.844611447970921"><ele>94.66666666666667</ele><time>2026-04-11T10:29:31Z</time></trkpt><trkpt lat="42.993853966246434" lon="10.844593570255725"><ele>93.5</ele><time>2026-04-11T10:29:32Z</time></trkpt><trkpt lat="42.993786907410886" lon="10.844576152213817"><ele>92.33333333333334</ele><time>2026-04-11T10:29:33Z</time></trkpt><trkpt lat="42.99371107598978" lon="10.844550495574607"><ele>91.16666666666667</ele><time>2026-04-11T10:29:34Z</time></trkpt><trkpt lat="42.99362662897712" lon="10.844522605357893"><ele>90.0</ele><time>2026-04-11T10:29:35Z</time></trkpt><trkpt lat="42.9935445491487" lon="10.844498342194704"><ele>90.0</ele><time>2026-04-11T10:29:36Z</time></trkpt><trkpt lat="42.993439633584146" lon="10.844478755973253"><ele>90.0</ele><time>2026-04-11T10:29:37Z</time></trkpt><trkpt lat="42.9933371567327" lon="10.84444590122764"><ele>90.0</ele><time>2026-04-11T10:29:38Z</time></trkpt><trkpt lat="42.99323320682614" lon="10.844419711240532"><ele>90.0</ele><time>2026-04-11T10:29:39Z</time></trkpt><trkpt lat="42.99314487695402" lon="10.844389849360642"><ele>90.0</ele><time>2026-04-11T10:29:40Z</time></trkpt><trkpt lat="42.99305070841485" lon="10.8443485931887"><ele>89.2</ele><time>2026-04-11T10:29:41Z</time></trkpt><trkpt lat="42.99296962683301" lon="10.844286781776834"><ele>88.4</ele><time>2026-04-11T10:29:42Z</time></trkpt><trkpt lat="42.99288654588396" lon="10.84422765466818"><ele>87.6</ele><time>2026-04-11T10:29:43Z</time></trkpt><trkpt lat="42.99280019757651" lon="10.844169139476621"><ele>86.8</ele><time>2026-04-11T10:29:44Z</time></trkpt><trkpt lat="42.99271187358462" lon="10.844110798321166"><ele>86.0</ele><time>2026-04-11T10:29:45Z</time></trkpt><trkpt lat="42.992621240040926" lon="10.844044865455013"><ele>86.0</ele><time>2026-04-11T10:29:46Z</time></trkpt><trkpt lat="42.992527094509576" lon="10.843976868225987"><ele>86.0</ele><time>2026-04-11T10:29:47Z</time></trkpt><trkpt lat="42.99242328056823" lon="10.843887403394296"><ele>86.0</ele><time>2026-04-11T10:29:48Z</time></trkpt><trkpt lat="42.99232858411375" lon="10.843782794255194"><ele>86.0</ele><time>2026-04-11T10:29:49Z</time></trkpt><trkpt lat="42.99224340427565" lon="10.843684019323124"><ele>85.8</ele><time>2026-04-11T10:29:50Z</time></trkpt><trkpt lat="42.99216161571302" lon="10.843591041957692"><ele>85.6</ele><time>2026-04-11T10:29:51Z</time></trkpt><trkpt lat="42.992086611119944" lon="10.843494653770533"><ele>85.4</ele><time>2026-04-11T10:29:52Z</time></trkpt><trkpt lat="42.99200748722346" lon="10.843387826562624"><ele>85.2</ele><time>2026-04-11T10:29:53Z</time></trkpt><trkpt lat="42.99194540868761" lon="10.84329670412385"><ele>85.0</ele><time>2026-04-11T10:29:54Z</time></trkpt><trkpt lat="42.9918897551319" lon="10.843215168566434"><ele>85.0</ele><time>2026-04-11T10:29:55Z</time></trkpt><trkpt lat="42.99183645837505" lon="10.843107506867156"><ele>85.0</ele><time>2026-04-11T10:29:56Z</time></trkpt><trkpt lat="42.99178809065401" lon="10.843047311516639"><ele>85.0</ele><time>2026-04-11T10:29:57Z</time></trkpt><trkpt lat="42.991726650931604" lon="10.843022978713524"><ele>85.0</ele><time>2026-04-11T10:29:58Z</time></trkpt><trkpt lat="42.99160874203119" lon="10.842939197693159"><ele>85.0</ele><time>2026-04-11T10:30:00Z</time></trkpt><trkpt lat="42.99155295470363" lon="10.842859735197251"><ele>85.0</ele><time>2026-04-11T10:30:01Z</time></trkpt><trkpt lat="42.99147077584846" lon="10.84276261482262"><ele>85.5</ele><time>2026-04-11T10:30:02Z</time></trkpt><trkpt lat="42.99138221166458" lon="10.842665937930256"><ele>86.0</ele><time>2026-04-11T10:30:03Z</time></trkpt><trkpt lat="42.99129958208134" lon="10.842568877703414"><ele>86.5</ele><time>2026-04-11T10:30:04Z</time></trkpt><trkpt lat="42.991207282976816" lon="10.842467122109644"><ele>87.0</ele><time>2026-04-11T10:30:05Z</time></trkpt><trkpt lat="42.99111713738677" lon="10.842368244300319"><ele>86.19999999999999</ele><time>2026-04-11T10:30:06Z</time></trkpt><trkpt lat="42.99102840410654" lon="10.842271364811928"><ele>85.4</ele><time>2026-04-11T10:30:07Z</time></trkpt><trkpt lat="42.9909520154192" lon="10.842144614726557"><ele>84.6</ele><time>2026-04-11T10:30:08Z</time></trkpt><trkpt lat="42.99090856899613" lon="10.842017670409616"><ele>83.80000000000001</ele><time>2026-04-11T10:30:09Z</time></trkpt><trkpt lat="42.99086130100654" lon="10.841900919388078"><ele>83.0</ele><time>2026-04-11T10:30:10Z</time></trkpt><trkpt lat="42.99082654234655" lon="10.84176329392979"><ele>82.80000000000001</ele><time>2026-04-11T10:30:11Z</time></trkpt><trkpt lat="42.99075688122032" lon="10.841652008739697"><ele>82.6</ele><time>2026-04-11T10:30:12Z</time></trkpt><trkpt lat="42.990697314390246" lon="10.84151428599836"><ele>82.4</ele><time>2026-04-11T10:30:13Z</time></trkpt><trkpt lat="42.99063771955693" lon="10.841392478284748"><ele>82.19999999999999</ele><time>2026-04-11T10:30:14Z</time></trkpt><trkpt lat="42.990585979108225" lon="10.841289823552977"><ele>82.0</ele><time>2026-04-11T10:30:15Z</time></trkpt><trkpt lat="42.99053311612118" lon="10.84120193547644"><ele>82.0</ele><time>2026-04-11T10:30:16Z</time></trkpt><trkpt lat="42.990469366678916" lon="10.841130207249662"><ele>82.0</ele><time>2026-04-11T10:30:17Z</time></trkpt><trkpt lat="42.99038522525039" lon="10.841076183842148"><ele>82.0</ele><time>2026-04-11T10:30:18Z</time></trkpt><trkpt lat="42.9902755061313" lon="10.841033485816803"><ele>82.0</ele><time>2026-04-11T10:30:19Z</time></trkpt><trkpt lat="42.99015470815272" lon="10.841017410495924"><ele>82.0</ele><time>2026-04-11T10:30:20Z</time></trkpt><trkpt lat="42.99003575199659" lon="10.840999283322024"><ele>82.5</ele><time>2026-04-11T10:30:21Z</time></trkpt><trkpt lat="42.98991331569079" lon="10.84100919404892"><ele>83.0</ele><time>2026-04-11T10:30:22Z</time></trkpt><trkpt lat="42.98979176664687" lon="10.841002185121784"><ele>83.5</ele><time>2026-04-11T10:30:23Z</time></trkpt><trkpt lat="42.989672888400236" lon="10.841000856975231"><ele>84.0</ele><time>2026-04-11T10:30:24Z</time></trkpt><trkpt lat="42.98955406155802" lon="10.840996151867223"><ele>84.0</ele><time>2026-04-11T10:30:25Z</time></trkpt><trkpt lat="42.98943128108357" lon="10.84099058761268"><ele>84.0</ele><time>2026-04-11T10:30:26Z</time></trkpt><trkpt lat="42.989308586177295" lon="10.840984566503653"><ele>84.0</ele><time>2026-04-11T10:30:27Z</time></trkpt><trkpt lat="42.98919215212864" lon="10.840976911839897"><ele>84.0</ele><time>2026-04-11T10:30:28Z</time></trkpt><trkpt lat="42.98908599844505" lon="10.840973166222252"><ele>83.0</ele><time>2026-04-11T10:30:29Z</time></trkpt><trkpt lat="42.98899136078477" lon="10.840961900185079"><ele>82.0</ele><time>2026-04-11T10:30:30Z</time></trkpt><trkpt lat="42.98891819268049" lon="10.840952733288947"><ele>81.0</ele><time>2026-04-11T10:30:31Z</time></trkpt><trkpt lat="42.98883065436551" lon="10.840905413072718"><ele>80.0</ele><time>2026-04-11T10:30:33Z</time></trkpt><trkpt lat="42.98875847275205" lon="10.840719852923279"><ele>79.0</ele><time>2026-04-11T10:30:35Z</time></trkpt><trkpt lat="42.9887351156541" lon="10.84058218493098"><ele>79.0</ele><time>2026-04-11T10:30:36Z</time></trkpt><trkpt lat="42.98870025725658" lon="10.840436662057552"><ele>79.0</ele><time>2026-04-11T10:30:37Z</time></trkpt><trkpt lat="42.9886741469382" lon="10.840278624893326"><ele>79.0</ele><time>2026-04-11T10:30:38Z</time></trkpt><trkpt lat="42.9886483463309" lon="10.840119066283284"><ele>79.0</ele><time>2026-04-11T10:30:39Z</time></trkpt><trkpt lat="42.98862094799971" lon="10.839968847680266"><ele>79.25</ele><time>2026-04-11T10:30:40Z</time></trkpt><trkpt lat="42.988590880523695" lon="10.839820728184533"><ele>79.5</ele><time>2026-04-11T10:30:41Z</time></trkpt><trkpt lat="42.988563189627065" lon="10.83967114408574"><ele>79.75</ele><time>2026-04-11T10:30:42Z</time></trkpt><trkpt lat="42.9885352665288" lon="10.839518631992469"><ele>80.0</ele><time>2026-04-11T10:30:43Z</time></trkpt><trkpt lat="42.98850147567981" lon="10.839357936878427"><ele>79.75</ele><time>2026-04-11T10:30:44Z</time></trkpt><trkpt lat="42.988456053887326" lon="10.839190358423195"><ele>79.5</ele><time>2026-04-11T10:30:45Z</time></trkpt><trkpt lat="42.988416740035134" lon="10.83900862396233"><ele>79.25</ele><time>2026-04-11T10:30:46Z</time></trkpt><trkpt lat="42.988374791495964" lon="10.838831155851286"><ele>79.0</ele><time>2026-04-11T10:30:47Z</time></trkpt><trkpt lat="42.98835349339203" lon="10.838659628047534"><ele>78.75</ele><time>2026-04-11T10:30:48Z</time></trkpt><trkpt lat="42.98833633251745" lon="10.838484809515865"><ele>78.5</ele><time>2026-04-11T10:30:49Z</time></trkpt><trkpt lat="42.9883193693774" lon="10.838332447792451"><ele>78.25</ele><time>2026-04-11T10:30:50Z</time></trkpt><trkpt lat="42.988300116427816" lon="10.838186256730129"><ele>78.0</ele><time>2026-04-11T10:30:51Z</time></trkpt><trkpt lat="42.988275367973266" lon="10.8380345991956"><ele>78.0</ele><time>2026-04-11T10:30:52Z</time></trkpt><trkpt lat="42.98825398970004" lon="10.837883328571676"><ele>78.0</ele><time>2026-04-11T10:30:53Z</time></trkpt><trkpt lat="42.98823407377939" lon="10.837746093347434"><ele>78.0</ele><time>2026-04-11T10:30:54Z</time></trkpt><trkpt lat="42.98821593491946" lon="10.83762445794387"><ele>78.0</ele><time>2026-04-11T10:30:55Z</time></trkpt><trkpt lat="42.98819143368739" lon="10.837514372738276"><ele>78.0</ele><time>2026-04-11T10:30:56Z</time></trkpt><trkpt lat="42.9881685161914" lon="10.83740617526719"><ele>78.0</ele><time>2026-04-11T10:30:57Z</time></trkpt><trkpt lat="42.988122474034974" lon="10.83728118985399"><ele>78.0</ele><time>2026-04-11T10:30:59Z</time></trkpt><trkpt lat="42.98807961440042" lon="10.837197830041877"><ele>78.0</ele><time>2026-04-11T10:31:01Z</time></trkpt><trkpt lat="42.98801928568852" lon="10.837111919831186"><ele>78.0</ele><time>2026-04-11T10:31:03Z</time></trkpt><trkpt lat="42.98789990283186" lon="10.837020915857245"><ele>78.0</ele><time>2026-04-11T10:31:05Z</time></trkpt><trkpt lat="42.987821284294654" lon="10.836953241905183"><ele>78.0</ele><time>2026-04-11T10:31:06Z</time></trkpt><trkpt lat="42.987738616690905" lon="10.836835259627238"><ele>78.0</ele><time>2026-04-11T10:31:07Z</time></trkpt><trkpt lat="42.98765287388351" lon="10.836690195621182"><ele>78.0</ele><time>2026-04-11T10:31:08Z</time></trkpt><trkpt lat="42.98753772967278" lon="10.836504559315303"><ele>78.0</ele><time>2026-04-11T10:31:09Z</time></trkpt><trkpt lat="42.987427536476474" lon="10.836335252281636"><ele>77.5</ele><time>2026-04-11T10:31:10Z</time></trkpt><trkpt lat="42.987331267016046" lon="10.836198170753786"><ele>77.0</ele><time>2026-04-11T10:31:11Z</time></trkpt><trkpt lat="42.98722276720422" lon="10.836078918955312"><ele>76.5</ele><time>2026-04-11T10:31:12Z</time></trkpt><trkpt lat="42.9871066505305" lon="10.835962774478114"><ele>76.0</ele><time>2026-04-11T10:31:13Z</time></trkpt><trkpt lat="42.986995188846606" lon="10.835872988716861"><ele>75.8</ele><time>2026-04-11T10:31:14Z</time></trkpt><trkpt lat="42.986900918989754" lon="10.835793513223448"><ele>75.6</ele><time>2026-04-11T10:31:15Z</time></trkpt><trkpt lat="42.986824774556574" lon="10.835737870925042"><ele>75.4</ele><time>2026-04-11T10:31:16Z</time></trkpt><trkpt lat="42.98675277444101" lon="10.835693539429514"><ele>75.2</ele><time>2026-04-11T10:31:17Z</time></trkpt><trkpt lat="42.986670522289906" lon="10.835672639427786"><ele>75.0</ele><time>2026-04-11T10:31:18Z</time></trkpt><trkpt lat="42.986577520471805" lon="10.835663758670535"><ele>75.0</ele><time>2026-04-11T10:31:19Z</time></trkpt><trkpt lat="42.98647931502078" lon="10.835670060776456"><ele>75.0</ele><time>2026-04-11T10:31:20Z</time></trkpt><trkpt lat="42.986372331568205" lon="10.835682139774741"><ele>75.0</ele><time>2026-04-11T10:31:21Z</time></trkpt><trkpt lat="42.98626375971738" lon="10.83568193752981"><ele>75.0</ele><time>2026-04-11T10:31:22Z</time></trkpt><trkpt lat="42.98616025404622" lon="10.835657355635279"><ele>75.0</ele><time>2026-04-11T10:31:23Z</time></trkpt><trkpt lat="42.986060347851684" lon="10.835611582448804"><ele>75.0</ele><time>2026-04-11T10:31:24Z</time></trkpt><trkpt lat="42.985962798248366" lon="10.835556503833043"><ele>75.0</ele><time>2026-04-11T10:31:25Z</time></trkpt><trkpt lat="42.98587537281781" lon="10.835467349205054"><ele>75.0</ele><time>2026-04-11T10:31:26Z</time></trkpt><trkpt lat="42.98580215501969" lon="10.835340426238695"><ele>75.0</ele><time>2026-04-11T10:31:27Z</time></trkpt><trkpt lat="42.9857312041936" lon="10.835198637420461"><ele>74.75</ele><time>2026-04-11T10:31:28Z</time></trkpt><trkpt lat="42.98566905204002" lon="10.835055587633292"><ele>74.5</ele><time>2026-04-11T10:31:29Z</time></trkpt><trkpt lat="42.985612903996575" lon="10.834913398448082"><ele>74.25</ele><time>2026-04-11T10:31:30Z</time></trkpt><trkpt lat="42.98554436247221" lon="10.83476836670134"><ele>74.0</ele><time>2026-04-11T10:31:31Z</time></trkpt><trkpt lat="42.985481672935755" lon="10.83462474992207"><ele>74.0</ele><time>2026-04-11T10:31:32Z</time></trkpt><trkpt lat="42.98541723288486" lon="10.834478811799075"><ele>74.0</ele><time>2026-04-11T10:31:33Z</time></trkpt><trkpt lat="42.985350157628716" lon="10.834335791303854"><ele>74.0</ele><time>2026-04-11T10:31:34Z</time></trkpt><trkpt lat="42.985275638038374" lon="10.834179808479576"><ele>74.0</ele><time>2026-04-11T10:31:35Z</time></trkpt><trkpt lat="42.985207783444" lon="10.834031874457448"><ele>72.5</ele><time>2026-04-11T10:31:36Z</time></trkpt><trkpt lat="42.98514378607055" lon="10.8338789942304"><ele>71.0</ele><time>2026-04-11T10:31:37Z</time></trkpt><trkpt lat="42.98508094584743" lon="10.83373456039396"><ele>69.5</ele><time>2026-04-11T10:31:38Z</time></trkpt><trkpt lat="42.98501285153223" lon="10.833589242316451"><ele>68.0</ele><time>2026-04-11T10:31:39Z</time></trkpt><trkpt lat="42.98494528570105" lon="10.83346458572104"><ele>67.4</ele><time>2026-04-11T10:31:40Z</time></trkpt><trkpt lat="42.98486708894185" lon="10.833362148678184"><ele>66.8</ele><time>2026-04-11T10:31:41Z</time></trkpt><trkpt lat="42.98475388882415" lon="10.83330525878698"><ele>66.2</ele><time>2026-04-11T10:31:42Z</time></trkpt><trkpt lat="42.984654510483864" lon="10.83324891725717"><ele>65.6</ele><time>2026-04-11T10:31:43Z</time></trkpt><trkpt lat="42.9845565898128" lon="10.833209477484083"><ele>65.0</ele><time>2026-04-11T10:31:44Z</time></trkpt><trkpt lat="42.984462967166" lon="10.833178515265567"><ele>65.0</ele><time>2026-04-11T10:31:45Z</time></trkpt><trkpt lat="42.98438655134446" lon="10.833152018928596"><ele>65.0</ele><time>2026-04-11T10:31:46Z</time></trkpt><trkpt lat="42.984278378515995" lon="10.83308138199846"><ele>65.0</ele><time>2026-04-11T10:31:48Z</time></trkpt><trkpt lat="42.98423184238703" lon="10.833011944621651"><ele>65.0</ele><time>2026-04-11T10:31:49Z</time></trkpt><trkpt lat="42.98419238826163" lon="10.832943529788599"><ele>65.0</ele><time>2026-04-11T10:31:50Z</time></trkpt><trkpt lat="42.9841595747588" lon="10.832867847928847"><ele>65.0</ele><time>2026-04-11T10:31:51Z</time></trkpt><trkpt lat="42.98412694955076" lon="10.832775639084065"><ele>65.16666666666667</ele><time>2026-04-11T10:31:52Z</time></trkpt><trkpt lat="42.98408207585551" lon="10.832668046597174"><ele>65.33333333333334</ele><time>2026-04-11T10:31:53Z</time></trkpt><trkpt lat="42.984022052624375" lon="10.83257361534601"><ele>65.5</ele><time>2026-04-11T10:31:54Z</time></trkpt><trkpt lat="42.9839653524515" lon="10.832484150044493"><ele>65.66666666666667</ele><time>2026-04-11T10:31:55Z</time></trkpt><trkpt lat="42.98390760698926" lon="10.832392056318733"><ele>65.83333333333333</ele><time>2026-04-11T10:31:56Z</time></trkpt><trkpt lat="42.983852203593116" lon="10.832292411901072"><ele>66.0</ele><time>2026-04-11T10:31:57Z</time></trkpt><trkpt lat="42.983803034312075" lon="10.832214448363894"><ele>64.5</ele><time>2026-04-11T10:31:58Z</time></trkpt><trkpt lat="42.98374802928278" lon="10.832140386933682"><ele>63.0</ele><time>2026-04-11T10:31:59Z</time></trkpt><trkpt lat="42.98368413692717" lon="10.832061904969924"><ele>61.5</ele><time>2026-04-11T10:32:00Z</time></trkpt><trkpt lat="42.9836198037183" lon="10.832002588599039"><ele>60.0</ele><time>2026-04-11T10:32:01Z</time></trkpt><trkpt lat="42.98354124589814" lon="10.831940063345346"><ele>58.5</ele><time>2026-04-11T10:32:02Z</time></trkpt><trkpt lat="42.98345787002133" lon="10.831873838744203"><ele>57.0</ele><time>2026-04-11T10:32:03Z</time></trkpt><trkpt lat="42.983385340620295" lon="10.831815484722817"><ele>56.5</ele><time>2026-04-11T10:32:04Z</time></trkpt><trkpt lat="42.98331795599234" lon="10.831756109982365"><ele>56.0</ele><time>2026-04-11T10:32:05Z</time></trkpt><trkpt lat="42.98324696461061" lon="10.831699969301647"><ele>55.5</ele><time>2026-04-11T10:32:06Z</time></trkpt><trkpt lat="42.98317699773259" lon="10.831640496049792"><ele>55.0</ele><time>2026-04-11T10:32:07Z</time></trkpt><trkpt lat="42.98310227596068" lon="10.83157597073309"><ele>54.5</ele><time>2026-04-11T10:32:08Z</time></trkpt><trkpt lat="42.98300958121891" lon="10.831506355904361"><ele>54.0</ele><time>2026-04-11T10:32:09Z</time></trkpt><trkpt lat="42.98293158077359" lon="10.831439824810607"><ele>54.0</ele><time>2026-04-11T10:32:10Z</time></trkpt><trkpt lat="42.98283838881252" lon="10.831368504649948"><ele>54.0</ele><time>2026-04-11T10:32:11Z</time></trkpt><trkpt lat="42.982738039394334" lon="10.83129984145869"><ele>54.0</ele><time>2026-04-11T10:32:12Z</time></trkpt><trkpt lat="42.98263421882736" lon="10.831226392452944"><ele>54.0</ele><time>2026-04-11T10:32:13Z</time></trkpt><trkpt lat="42.98253266449016" lon="10.831146762093615"><ele>53.0</ele><time>2026-04-11T10:32:14Z</time></trkpt><trkpt lat="42.98241124609544" lon="10.831072797805852"><ele>52.0</ele><time>2026-04-11T10:32:15Z</time></trkpt><trkpt lat="42.982290433606146" lon="10.830992883202137"><ele>51.0</ele><time>2026-04-11T10:32:16Z</time></trkpt><trkpt lat="42.98216259174571" lon="10.830911133456135"><ele>50.0</ele><time>2026-04-11T10:32:17Z</time></trkpt><trkpt lat="42.98202961289679" lon="10.830853948872"><ele>50.0</ele><time>2026-04-11T10:32:18Z</time></trkpt><trkpt lat="42.9819087581609" lon="10.830772695164843"><ele>50.0</ele><time>2026-04-11T10:32:19Z</time></trkpt><trkpt lat="42.981772887808816" lon="10.830696830945152"><ele>50.0</ele><time>2026-04-11T10:32:20Z</time></trkpt><trkpt lat="42.98163916070546" lon="10.83059143786389"><ele>50.0</ele><time>2026-04-11T10:32:21Z</time></trkpt><trkpt lat="42.98150807664293" lon="10.830503306739445"><ele>51.75</ele><time>2026-04-11T10:32:22Z</time></trkpt><trkpt lat="42.98137776246377" lon="10.830433003411484"><ele>53.5</ele><time>2026-04-11T10:32:23Z</time></trkpt><trkpt lat="42.981264337828726" lon="10.830339434991716"><ele>55.25</ele><time>2026-04-11T10:32:24Z</time></trkpt><trkpt lat="42.981146798245334" lon="10.83026041005419"><ele>57.0</ele><time>2026-04-11T10:32:25Z</time></trkpt><trkpt lat="42.981025761754864" lon="10.83017942903189"><ele>55.5</ele><time>2026-04-11T10:32:26Z</time></trkpt><trkpt lat="42.980904276305196" lon="10.830099981588276"><ele>54.0</ele><time>2026-04-11T10:32:27Z</time></trkpt><trkpt lat="42.98078399559088" lon="10.830021321717249"><ele>52.5</ele><time>2026-04-11T10:32:28Z</time></trkpt><trkpt lat="42.98067200698549" lon="10.829948084853951"><ele>51.0</ele><time>2026-04-11T10:32:29Z</time></trkpt><trkpt lat="42.9805580551418" lon="10.829873564090924"><ele>51.0</ele><time>2026-04-11T10:32:30Z</time></trkpt><trkpt lat="42.980436090809974" lon="10.829787880011818"><ele>51.0</ele><time>2026-04-11T10:32:31Z</time></trkpt><trkpt lat="42.980311919392165" lon="10.829700785709939"><ele>51.0</ele><time>2026-04-11T10:32:32Z</time></trkpt><trkpt lat="42.98018891230637" lon="10.829607426466888"><ele>51.0</ele><time>2026-04-11T10:32:33Z</time></trkpt><trkpt lat="42.98007631220513" lon="10.829508612282554"><ele>51.75</ele><time>2026-04-11T10:32:34Z</time></trkpt><trkpt lat="42.97996363530891" lon="10.829390871883886"><ele>52.5</ele><time>2026-04-11T10:32:35Z</time></trkpt><trkpt lat="42.97985259826704" lon="10.829264247846512"><ele>53.25</ele><time>2026-04-11T10:32:36Z</time></trkpt><trkpt lat="42.97974822732705" lon="10.829137984970131"><ele>54.0</ele><time>2026-04-11T10:32:37Z</time></trkpt><trkpt lat="42.97964644210218" lon="10.829014473406453"><ele>52.25</ele><time>2026-04-11T10:32:38Z</time></trkpt><trkpt lat="42.97954094037277" lon="10.828887161739946"><ele>50.5</ele><time>2026-04-11T10:32:39Z</time></trkpt><trkpt lat="42.97943570967719" lon="10.828763980990212"><ele>48.75</ele><time>2026-04-11T10:32:40Z</time></trkpt><trkpt lat="42.97933153474199" lon="10.828642035341993"><ele>47.0</ele><time>2026-04-11T10:32:41Z</time></trkpt><trkpt lat="42.979224829814626" lon="10.828517127943885"><ele>46.75</ele><time>2026-04-11T10:32:42Z</time></trkpt><trkpt lat="42.97911798117829" lon="10.8283920525066"><ele>46.5</ele><time>2026-04-11T10:32:43Z</time></trkpt><trkpt lat="42.97900221461265" lon="10.828280636885536"><ele>46.25</ele><time>2026-04-11T10:32:44Z</time></trkpt><trkpt lat="42.97889474082825" lon="10.82815288934804"><ele>46.0</ele><time>2026-04-11T10:32:45Z</time></trkpt><trkpt lat="42.978782590210244" lon="10.828017395108573"><ele>46.0</ele><time>2026-04-11T10:32:46Z</time></trkpt><trkpt lat="42.9786757542113" lon="10.827890332107124"><ele>46.0</ele><time>2026-04-11T10:32:47Z</time></trkpt><trkpt lat="42.97857277977552" lon="10.82775254589682"><ele>46.0</ele><time>2026-04-11T10:32:48.001Z</time></trkpt><trkpt lat="42.978452322338015" lon="10.827623175427906"><ele>46.0</ele><time>2026-04-11T10:32:49.001Z</time></trkpt><trkpt lat="42.978335927139454" lon="10.827493412163454"><ele>46.0</ele><time>2026-04-11T10:32:50.001Z</time></trkpt><trkpt lat="42.97822435584921" lon="10.827367992435546"><ele>46.0</ele><time>2026-04-11T10:32:51.001Z</time></trkpt><trkpt lat="42.978116457422956" lon="10.827248258454366"><ele>46.0</ele><time>2026-04-11T10:32:52.001Z</time></trkpt><trkpt lat="42.97800026799751" lon="10.827127991504666"><ele>46.0</ele><time>2026-04-11T10:32:53.001Z</time></trkpt><trkpt lat="42.977897814102135" lon="10.826980822229759"><ele>46.0</ele><time>2026-04-11T10:32:54.001Z</time></trkpt><trkpt lat="42.977789954887726" lon="10.82685661265983"><ele>46.0</ele><time>2026-04-11T10:32:55.001Z</time></trkpt><trkpt lat="42.9776822820566" lon="10.826732617616939"><ele>46.0</ele><time>2026-04-11T10:32:56.001Z</time></trkpt><trkpt lat="42.97756853854754" lon="10.826601961433859"><ele>46.0</ele><time>2026-04-11T10:32:57.001Z</time></trkpt><trkpt lat="42.977443019159985" lon="10.826487635470347"><ele>45.75</ele><time>2026-04-11T10:32:58.001Z</time></trkpt><trkpt lat="42.97733478763103" lon="10.826358461210464"><ele>45.5</ele><time>2026-04-11T10:32:59.001Z</time></trkpt><trkpt lat="42.97723086173869" lon="10.826214639290999"><ele>45.25</ele><time>2026-04-11T10:33:00.001Z</time></trkpt><trkpt lat="42.97711971985343" lon="10.826076667736425"><ele>45.0</ele><time>2026-04-11T10:33:01.001Z</time></trkpt><trkpt lat="42.97700887336868" lon="10.825943651260783"><ele>44.666666666666664</ele><time>2026-04-11T10:33:02.001Z</time></trkpt><trkpt lat="42.976893022869895" lon="10.825813379890791"><ele>44.33333333333333</ele><time>2026-04-11T10:33:03.001Z</time></trkpt><trkpt lat="42.976763997093634" lon="10.82569948846275"><ele>44.0</ele><time>2026-04-11T10:33:04.001Z</time></trkpt><trkpt lat="42.976666381467886" lon="10.825512210680118"><ele>44.0</ele><time>2026-04-11T10:33:05.001Z</time></trkpt><trkpt lat="42.97654845727169" lon="10.825367152644306"><ele>44.0</ele><time>2026-04-11T10:33:06.001Z</time></trkpt><trkpt lat="42.97642443848611" lon="10.825220115108193"><ele>44.0</ele><time>2026-04-11T10:33:07.001Z</time></trkpt><trkpt lat="42.976301892309394" lon="10.825074573016492"><ele>43.33333333333333</ele><time>2026-04-11T10:33:08.001Z</time></trkpt><trkpt lat="42.97617893470686" lon="10.82492919516506"><ele>42.666666666666664</ele><time>2026-04-11T10:33:09.001Z</time></trkpt><trkpt lat="42.97604873334526" lon="10.824766900993957"><ele>42.0</ele><time>2026-04-11T10:33:10.001Z</time></trkpt><trkpt lat="42.97591170812601" lon="10.824613908227965"><ele>41.666666666666664</ele><time>2026-04-11T10:33:11.001Z</time></trkpt><trkpt lat="42.975777377769205" lon="10.824475510656198"><ele>41.33333333333333</ele><time>2026-04-11T10:33:12.001Z</time></trkpt><trkpt lat="42.9756541849213" lon="10.824336040751954"><ele>41.0</ele><time>2026-04-11T10:33:13.001Z</time></trkpt><trkpt lat="42.9755418628104" lon="10.824204121516912"><ele>40.5</ele><time>2026-04-11T10:33:14.001Z</time></trkpt><trkpt lat="42.975433962634504" lon="10.824076287494671"><ele>40.0</ele><time>2026-04-11T10:33:15.001Z</time></trkpt><trkpt lat="42.97532787995171" lon="10.823951688577772"><ele>39.5</ele><time>2026-04-11T10:33:16.001Z</time></trkpt><trkpt lat="42.97519766762716" lon="10.823848291221125"><ele>39.0</ele><time>2026-04-11T10:33:17.001Z</time></trkpt><trkpt lat="42.97508323266929" lon="10.823717037693434"><ele>39.0</ele><time>2026-04-11T10:33:18.001Z</time></trkpt><trkpt lat="42.97496581393508" lon="10.823582360433157"><ele>39.0</ele><time>2026-04-11T10:33:19.001Z</time></trkpt><trkpt lat="42.97485710698881" lon="10.823431011525225"><ele>39.0</ele><time>2026-04-11T10:33:20.001Z</time></trkpt><trkpt lat="42.974727538118145" lon="10.823309350735595"><ele>38.666666666666664</ele><time>2026-04-11T10:33:21.001Z</time></trkpt><trkpt lat="42.97460885237559" lon="10.823173706094222"><ele>38.33333333333333</ele><time>2026-04-11T10:33:22.001Z</time></trkpt><trkpt lat="42.97450189626775" lon="10.82302298747033"><ele>38.0</ele><time>2026-04-11T10:33:23.001Z</time></trkpt><trkpt lat="42.97437968089825" lon="10.822887025914316"><ele>38.0</ele><time>2026-04-11T10:33:24.001Z</time></trkpt><trkpt lat="42.97425161215913" lon="10.822765422530445"><ele>38.0</ele><time>2026-04-11T10:33:25.001Z</time></trkpt><trkpt lat="42.97413119586058" lon="10.822627799992414"><ele>38.0</ele><time>2026-04-11T10:33:26.001Z</time></trkpt><trkpt lat="42.97400183322462" lon="10.822479952777705"><ele>37.666666666666664</ele><time>2026-04-11T10:33:27.001Z</time></trkpt><trkpt lat="42.973873010461546" lon="10.82233272254046"><ele>37.333333333333336</ele><time>2026-04-11T10:33:28.001Z</time></trkpt><trkpt lat="42.97374320385596" lon="10.822183233901693"><ele>37.0</ele><time>2026-04-11T10:33:29.001Z</time></trkpt><trkpt lat="42.97361948184016" lon="10.82200935287354"><ele>37.0</ele><time>2026-04-11T10:33:30.001Z</time></trkpt><trkpt lat="42.97347128392731" lon="10.821875061484993"><ele>37.0</ele><time>2026-04-11T10:33:31.001Z</time></trkpt><trkpt lat="42.97334713250166" lon="10.821733451392166"><ele>37.0</ele><time>2026-04-11T10:33:32.001Z</time></trkpt><trkpt lat="42.97323277834701" lon="10.821601980648262"><ele>36.75</ele><time>2026-04-11T10:33:33.001Z</time></trkpt><trkpt lat="42.97314339059258" lon="10.821489243122047"><ele>36.5</ele><time>2026-04-11T10:33:34.001Z</time></trkpt><trkpt lat="42.97305209568786" lon="10.821414555752648"><ele>36.25</ele><time>2026-04-11T10:33:35.001Z</time></trkpt><trkpt lat="42.9729638699106" lon="10.821339228649927"><ele>36.0</ele><time>2026-04-11T10:33:36.001Z</time></trkpt><trkpt lat="42.97284526705197" lon="10.82128792920884"><ele>36.0</ele><time>2026-04-11T10:33:37.001Z</time></trkpt><trkpt lat="42.97268241491544" lon="10.821266041564884"><ele>36.0</ele><time>2026-04-11T10:33:38.001Z</time></trkpt><trkpt lat="42.97249874182296" lon="10.821221417894895"><ele>36.0</ele><time>2026-04-11T10:33:39.001Z</time></trkpt><trkpt lat="42.972321977921084" lon="10.821188525659668"><ele>35.75</ele><time>2026-04-11T10:33:40.001Z</time></trkpt><trkpt lat="42.97216512353445" lon="10.821157371083304"><ele>35.5</ele><time>2026-04-11T10:33:41.001Z</time></trkpt><trkpt lat="42.972026502477895" lon="10.821130584384477"><ele>35.25</ele><time>2026-04-11T10:33:42.001Z</time></trkpt><trkpt lat="42.97189199663516" lon="10.821118874418595"><ele>35.0</ele><time>2026-04-11T10:33:43.001Z</time></trkpt><trkpt lat="42.97177236080283" lon="10.821153684663482"><ele>35.0</ele><time>2026-04-11T10:33:44.001Z</time></trkpt><trkpt lat="42.971663537570706" lon="10.821193494903504"><ele>35.0</ele><time>2026-04-11T10:33:45.001Z</time></trkpt><trkpt lat="42.97156680230522" lon="10.821256497662274"><ele>35.0</ele><time>2026-04-11T10:33:46.001Z</time></trkpt><trkpt lat="42.97145548943347" lon="10.821351837687034"><ele>35.0</ele><time>2026-04-11T10:33:47.001Z</time></trkpt><trkpt lat="42.97134298758505" lon="10.821527823876833"><ele>35.0</ele><time>2026-04-11T10:33:48.001Z</time></trkpt><trkpt lat="42.97123452213585" lon="10.821719366941288"><ele>35.0</ele><time>2026-04-11T10:33:49.001Z</time></trkpt><trkpt lat="42.9711180544732" lon="10.821886213151718"><ele>35.0</ele><time>2026-04-11T10:33:50.001Z</time></trkpt><trkpt lat="42.97098033574026" lon="10.82202305014272"><ele>35.0</ele><time>2026-04-11T10:33:51.001Z</time></trkpt><trkpt lat="42.97085966425921" lon="10.822187850403452"><ele>35.0</ele><time>2026-04-11T10:33:52.001Z</time></trkpt><trkpt lat="42.970757870803055" lon="10.82235322329994"><ele>35.0</ele><time>2026-04-11T10:33:53.001Z</time></trkpt><trkpt lat="42.9706690444362" lon="10.822517425295862"><ele>35.0</ele><time>2026-04-11T10:33:54.001Z</time></trkpt><trkpt lat="42.97056937058204" lon="10.822663378578884"><ele>35.0</ele><time>2026-04-11T10:33:55.001Z</time></trkpt><trkpt lat="42.97048818399425" lon="10.822841967830023"><ele>35.0</ele><time>2026-04-11T10:33:56.001Z</time></trkpt><trkpt lat="42.970410041178766" lon="10.822985785587582"><ele>35.0</ele><time>2026-04-11T10:33:57.001Z</time></trkpt><trkpt lat="42.97031748650501" lon="10.823134241418467"><ele>35.0</ele><time>2026-04-11T10:33:58.001Z</time></trkpt><trkpt lat="42.970224165043184" lon="10.823276564394373"><ele>35.0</ele><time>2026-04-11T10:33:59.001Z</time></trkpt><trkpt lat="42.97014582075131" lon="10.823409208332269"><ele>35.0</ele><time>2026-04-11T10:34:00.001Z</time></trkpt><trkpt lat="42.970062272955836" lon="10.823543386021107"><ele>35.0</ele><time>2026-04-11T10:34:01.001Z</time></trkpt><trkpt lat="42.96997108900101" lon="10.823668726140761"><ele>34.6</ele><time>2026-04-11T10:34:02.001Z</time></trkpt><trkpt lat="42.96988452492156" lon="10.823789480700858"><ele>34.2</ele><time>2026-04-11T10:34:03.001Z</time></trkpt><trkpt lat="42.96980304278293" lon="10.823903888058272"><ele>33.8</ele><time>2026-04-11T10:34:04.001Z</time></trkpt><trkpt lat="42.96974017598265" lon="10.824006466645745"><ele>33.4</ele><time>2026-04-11T10:34:05.001Z</time></trkpt><trkpt lat="42.96968383679517" lon="10.824094061827374"><ele>33.0</ele><time>2026-04-11T10:34:06.001Z</time></trkpt><trkpt lat="42.969635036757644" lon="10.824165556368742"><ele>33.0</ele><time>2026-04-11T10:34:07.001Z</time></trkpt><trkpt lat="42.9695449458014" lon="10.824285938727115"><ele>33.0</ele><time>2026-04-11T10:34:09.001Z</time></trkpt><trkpt lat="42.96946987224108" lon="10.824228682195491"><ele>33.0</ele><time>2026-04-11T10:34:12.001Z</time></trkpt><trkpt lat="42.96943433158407" lon="10.824033598398616"><ele>33.0</ele><time>2026-04-11T10:34:14.001Z</time></trkpt><trkpt lat="42.96941998061707" lon="10.823832117709989"><ele>33.0</ele><time>2026-04-11T10:34:15.001Z</time></trkpt><trkpt lat="42.969378504030146" lon="10.823656989028006"><ele>33.0</ele><time>2026-04-11T10:34:16.001Z</time></trkpt><trkpt lat="42.96933882039046" lon="10.823475887774704"><ele>33.0</ele><time>2026-04-11T10:34:17.001Z</time></trkpt><trkpt lat="42.96930399411978" lon="10.823310807232785"><ele>33.0</ele><time>2026-04-11T10:34:18.001Z</time></trkpt><trkpt lat="42.96927011161747" lon="10.823161735156535"><ele>32.8</ele><time>2026-04-11T10:34:19.001Z</time></trkpt><trkpt lat="42.96923559433842" lon="10.823030476147197"><ele>32.599999999999994</ele><time>2026-04-11T10:34:20.001Z</time></trkpt><trkpt lat="42.96915601266559" lon="10.822919424066827"><ele>32.400000000000006</ele><time>2026-04-11T10:34:21.001Z</time></trkpt><trkpt lat="42.96912714115368" lon="10.822805601586914"><ele>32.2</ele><time>2026-04-11T10:34:22.001Z</time></trkpt><trkpt lat="42.96906556890568" lon="10.822681420506733"><ele>32.0</ele><time>2026-04-11T10:34:23.001Z</time></trkpt><trkpt lat="42.96904025006868" lon="10.822587812690843"><ele>31.999999999999996</ele><time>2026-04-11T10:34:24.001Z</time></trkpt><trkpt lat="42.9690145785476" lon="10.8224312942952"><ele>32.0</ele><time>2026-04-11T10:34:26.001Z</time></trkpt><trkpt lat="42.96898187923562" lon="10.822302380694975"><ele>32.0</ele><time>2026-04-11T10:34:28.001Z</time></trkpt><trkpt lat="42.968953685531716" lon="10.82219123066013"><ele>32.0</ele><time>2026-04-11T10:34:30.001Z</time></trkpt><trkpt lat="42.96892991103381" lon="10.8220975024377"><ele>31.999999999999996</ele><time>2026-04-11T10:34:33.001Z</time></trkpt><trkpt lat="42.96889708790613" lon="10.82202356179786"><ele>32.0</ele><time>2026-04-11T10:34:36.001Z</time></trkpt><trkpt lat="42.968890148417465" lon="10.821936794087842"><ele>32.0</ele><time>2026-04-11T10:34:43.001Z</time></trkpt><trkpt lat="42.96886262663383" lon="10.821855903060687"><ele>31.999999999999996</ele><time>2026-04-11T10:34:57.001Z</time></trkpt><trkpt lat="42.968842903154574" lon="10.821772938345841"><ele>32.0</ele><time>2026-04-11T10:35:05.001Z</time></trkpt><trkpt lat="42.968777055805184" lon="10.821784831253183"><ele>32.0</ele><time>2026-04-11T10:35:08Z</time></trkpt><trkpt lat="42.96877791021427" lon="10.821685046738029"><ele>31.999999999999996</ele><time>2026-04-11T10:35:15Z</time></trkpt><trkpt lat="42.96876755850854" lon="10.821592819765053"><ele>32.0</ele><time>2026-04-11T10:35:18.001Z</time></trkpt><trkpt lat="42.96873916744075" lon="10.821457648616594"><ele>32.0</ele><time>2026-04-11T10:35:20.001Z</time></trkpt><trkpt lat="42.96866870558522" lon="10.821335601282158"><ele>32.0</ele><time>2026-04-11T10:35:22Z</time></trkpt><trkpt lat="42.968596509575875" lon="10.821217220586046"><ele>32.0</ele><time>2026-04-11T10:35:24Z</time></trkpt><trkpt lat="42.96852834492887" lon="10.821108799255226"><ele>32.0</ele><time>2026-04-11T10:35:26Z</time></trkpt><trkpt lat="42.96847193708496" lon="10.821026422077525"><ele>32.0</ele><time>2026-04-11T10:35:28Z</time></trkpt><trkpt lat="42.96844432482357" lon="10.820909858816782"><ele>32.0</ele><time>2026-04-11T10:35:31Z</time></trkpt><trkpt lat="42.96840474635854" lon="10.820839324478042"><ele>32.33333333333333</ele><time>2026-04-11T10:35:36Z</time></trkpt><trkpt lat="42.96835456168025" lon="10.820773961409945"><ele>32.666666666666664</ele><time>2026-04-11T10:35:42Z</time></trkpt><trkpt lat="42.96833399428517" lon="10.820668298665105"><ele>33.0</ele><time>2026-04-11T10:36:20Z</time></trkpt><trkpt lat="42.968194133278885" lon="10.82059877050186"><ele>33.333333333333336</ele><time>2026-04-11T10:41:22Z</time></trkpt><trkpt lat="42.968135173313115" lon="10.82055919890449"><ele>33.66666666666667</ele><time>2026-04-11T10:41:26Z</time></trkpt><trkpt lat="42.96809180731219" lon="10.820467814554474"><ele>34.0</ele><time>2026-04-11T10:41:30Z</time></trkpt><trkpt lat="42.968053590971245" lon="10.820364912128491"><ele>33.99999999999999</ele><time>2026-04-11T10:41:33Z</time></trkpt><trkpt lat="42.968108873456856" lon="10.820306898617934"><ele>34.0</ele><time>2026-04-11T10:41:37Z</time></trkpt><trkpt lat="42.96817477235606" lon="10.820213124604514"><ele>34.0</ele><time>2026-04-11T10:41:40Z</time></trkpt><trkpt lat="42.96820607507891" lon="10.820131404374411"><ele>34.0</ele><time>2026-04-11T10:41:42Z</time></trkpt><trkpt lat="42.96819261831711" lon="10.82004477652278"><ele>34.0</ele><time>2026-04-11T10:41:46Z</time></trkpt><trkpt lat="42.968144936362634" lon="10.81998851996145"><ele>33.99999999999999</ele><time>2026-04-11T10:41:54Z</time></trkpt><trkpt lat="42.96809274904334" lon="10.819912019724086"><ele>34.0</ele><time>2026-04-11T10:41:56Z</time></trkpt><trkpt lat="42.968022182690426" lon="10.819784427817883"><ele>34.0</ele><time>2026-04-11T10:41:58Z</time></trkpt><trkpt lat="42.96792944221212" lon="10.819690475067068"><ele>34.0</ele><time>2026-04-11T10:42:00Z</time></trkpt><trkpt lat="42.967878555705155" lon="10.819625053014697"><ele>34.0</ele><time>2026-04-11T10:42:01Z</time></trkpt><trkpt lat="42.96782003555846" lon="10.81955130977205"><ele>34.0</ele><time>2026-04-11T10:42:02Z</time></trkpt><trkpt lat="42.96776313528422" lon="10.819452383662634"><ele>34.0</ele><time>2026-04-11T10:42:03Z</time></trkpt><trkpt lat="42.96769946542956" lon="10.819360388112477"><ele>33.4</ele><time>2026-04-11T10:42:04Z</time></trkpt><trkpt lat="42.96762564442473" lon="10.819281572752558"><ele>32.8</ele><time>2026-04-11T10:42:05Z</time></trkpt><trkpt lat="42.96756046262251" lon="10.819203203077919"><ele>32.2</ele><time>2026-04-11T10:42:06Z</time></trkpt><trkpt lat="42.96749236066682" lon="10.819100389872512"><ele>31.6</ele><time>2026-04-11T10:42:07Z</time></trkpt><trkpt lat="42.967434999294476" lon="10.819017862261953"><ele>31.0</ele><time>2026-04-11T10:42:08Z</time></trkpt><trkpt lat="42.967366616183156" lon="10.818934094831201"><ele>31.0</ele><time>2026-04-11T10:42:09Z</time></trkpt><trkpt lat="42.96729331940673" lon="10.818847336131002"><ele>31.0</ele><time>2026-04-11T10:42:10Z</time></trkpt><trkpt lat="42.96721117322096" lon="10.81873914839683"><ele>31.0</ele><time>2026-04-11T10:42:11Z</time></trkpt><trkpt lat="42.96708849272572" lon="10.818573172381384"><ele>31.0</ele><time>2026-04-11T10:42:12Z</time></trkpt><trkpt lat="42.96696134649293" lon="10.818401279640579"><ele>30.5</ele><time>2026-04-11T10:42:13Z</time></trkpt><trkpt lat="42.96685751609757" lon="10.818268481339109"><ele>30.0</ele><time>2026-04-11T10:42:14Z</time></trkpt><trkpt lat="42.96676215284043" lon="10.818127794171307"><ele>29.5</ele><time>2026-04-11T10:42:15Z</time></trkpt><trkpt lat="42.96665655209146" lon="10.81798997058288"><ele>29.0</ele><time>2026-04-11T10:42:16Z</time></trkpt><trkpt lat="42.96656047069009" lon="10.817845731249403"><ele>29.0</ele><time>2026-04-11T10:42:17Z</time></trkpt><trkpt lat="42.966463943998434" lon="10.817705887192611"><ele>29.0</ele><time>2026-04-11T10:42:18Z</time></trkpt><trkpt lat="42.9663665527517" lon="10.81756416657414"><ele>29.0</ele><time>2026-04-11T10:42:19Z</time></trkpt><trkpt lat="42.9662705663062" lon="10.817415745599172"><ele>29.0</ele><time>2026-04-11T10:42:20Z</time></trkpt><trkpt lat="42.96617882213794" lon="10.81727279411538"><ele>29.0</ele><time>2026-04-11T10:42:21Z</time></trkpt><trkpt lat="42.96608415438196" lon="10.81712246634461"><ele>29.0</ele><time>2026-04-11T10:42:22Z</time></trkpt><trkpt lat="42.9659803082267" lon="10.81697881164524"><ele>29.0</ele><time>2026-04-11T10:42:23Z</time></trkpt><trkpt lat="42.965877404338855" lon="10.81683517896559"><ele>29.0</ele><time>2026-04-11T10:42:24Z</time></trkpt><trkpt lat="42.9657746030665" lon="10.816685389639186"><ele>29.25</ele><time>2026-04-11T10:42:25Z</time></trkpt><trkpt lat="42.96567313620786" lon="10.816536576858152"><ele>29.5</ele><time>2026-04-11T10:42:26Z</time></trkpt><trkpt lat="42.965576429714844" lon="10.81638633013512"><ele>29.75</ele><time>2026-04-11T10:42:27Z</time></trkpt><trkpt lat="42.96548069069569" lon="10.816232406764305"><ele>30.0</ele><time>2026-04-11T10:42:28Z</time></trkpt><trkpt lat="42.965387647557314" lon="10.816080267509955"><ele>29.75</ele><time>2026-04-11T10:42:29Z</time></trkpt><trkpt lat="42.96529312207161" lon="10.815936463714747"><ele>29.5</ele><time>2026-04-11T10:42:30Z</time></trkpt><trkpt lat="42.96519374600948" lon="10.815799221504912"><ele>29.25</ele><time>2026-04-11T10:42:31Z</time></trkpt><trkpt lat="42.96507198258823" lon="10.81569628756083"><ele>29.0</ele><time>2026-04-11T10:42:32Z</time></trkpt><trkpt lat="42.96493617783931" lon="10.815631428607597"><ele>29.0</ele><time>2026-04-11T10:42:33Z</time></trkpt><trkpt lat="42.964792744616524" lon="10.815585680579588"><ele>29.0</ele><time>2026-04-11T10:42:34Z</time></trkpt><trkpt lat="42.96464081530103" lon="10.815550243944525"><ele>29.0</ele><time>2026-04-11T10:42:35Z</time></trkpt><trkpt lat="42.96447638728357" lon="10.815529862091267"><ele>29.0</ele><time>2026-04-11T10:42:36Z</time></trkpt><trkpt lat="42.96430883466672" lon="10.815508211465595"><ele>29.0</ele><time>2026-04-11T10:42:37Z</time></trkpt><trkpt lat="42.96414560097008" lon="10.81547863160099"><ele>29.0</ele><time>2026-04-11T10:42:38Z</time></trkpt><trkpt lat="42.963989458278895" lon="10.815449378197938"><ele>28.333333333333332</ele><time>2026-04-11T10:42:39Z</time></trkpt><trkpt lat="42.96383632228957" lon="10.815423755588595"><ele>27.666666666666664</ele><time>2026-04-11T10:42:40Z</time></trkpt><trkpt lat="42.96368262976943" lon="10.815395230241728"><ele>27.0</ele><time>2026-04-11T10:42:41Z</time></trkpt><trkpt lat="42.96352513933335" lon="10.815368503684866"><ele>27.0</ele><time>2026-04-11T10:42:42Z</time></trkpt><trkpt lat="42.96336757895916" lon="10.81533770135662"><ele>27.0</ele><time>2026-04-11T10:42:43Z</time></trkpt><trkpt lat="42.963207764518174" lon="10.815309331027628"><ele>27.0</ele><time>2026-04-11T10:42:44Z</time></trkpt><trkpt lat="42.96304400369806" lon="10.815272140888178"><ele>26.666666666666664</ele><time>2026-04-11T10:42:45Z</time></trkpt><trkpt lat="42.96288128941807" lon="10.815245133952638"><ele>26.333333333333332</ele><time>2026-04-11T10:42:46Z</time></trkpt><trkpt lat="42.96272696006483" lon="10.815211201184"><ele>26.0</ele><time>2026-04-11T10:42:47Z</time></trkpt><trkpt lat="42.96257508465495" lon="10.815176630566665"><ele>26.25</ele><time>2026-04-11T10:42:48Z</time></trkpt><trkpt lat="42.96243164691262" lon="10.815147136583636"><ele>26.5</ele><time>2026-04-11T10:42:49Z</time></trkpt><trkpt lat="42.96230509612808" lon="10.81511949690853"><ele>26.75</ele><time>2026-04-11T10:42:50Z</time></trkpt><trkpt lat="42.96217628753381" lon="10.815100665919823"><ele>27.0</ele><time>2026-04-11T10:42:51Z</time></trkpt><trkpt lat="42.96204991186886" lon="10.81507456903198"><ele>27.0</ele><time>2026-04-11T10:42:52Z</time></trkpt><trkpt lat="42.96191714816731" lon="10.81505273001188"><ele>27.0</ele><time>2026-04-11T10:42:53Z</time></trkpt><trkpt lat="42.961777236348865" lon="10.815023782528367"><ele>27.0</ele><time>2026-04-11T10:42:54Z</time></trkpt><trkpt lat="42.96163999399432" lon="10.81499767771521"><ele>27.0</ele><time>2026-04-11T10:42:55Z</time></trkpt><trkpt lat="42.96149165044736" lon="10.814964901627256"><ele>26.0</ele><time>2026-04-11T10:42:56Z</time></trkpt><trkpt lat="42.96133761682234" lon="10.814935601124235"><ele>25.0</ele><time>2026-04-11T10:42:57Z</time></trkpt><trkpt lat="42.961184709485195" lon="10.814900881058175"><ele>24.0</ele><time>2026-04-11T10:42:58Z</time></trkpt><trkpt lat="42.96103507887144" lon="10.814858922131322"><ele>24.0</ele><time>2026-04-11T10:42:59Z</time></trkpt><trkpt lat="42.9608891697899" lon="10.814822453789214"><ele>24.0</ele><time>2026-04-11T10:43:00Z</time></trkpt><trkpt lat="42.96074646743163" lon="10.814783337976477"><ele>24.0</ele><time>2026-04-11T10:43:01Z</time></trkpt><trkpt lat="42.960604727555804" lon="10.814760298959204"><ele>24.0</ele><time>2026-04-11T10:43:02Z</time></trkpt><trkpt lat="42.96046579373775" lon="10.81474125524505"><ele>24.0</ele><time>2026-04-11T10:43:03Z</time></trkpt><trkpt lat="42.96032500924585" lon="10.814733011219753"><ele>24.0</ele><time>2026-04-11T10:43:04Z</time></trkpt><trkpt lat="42.96019203760718" lon="10.814700203925561"><ele>24.0</ele><time>2026-04-11T10:43:05Z</time></trkpt><trkpt lat="42.96006384044297" lon="10.814671814923093"><ele>24.0</ele><time>2026-04-11T10:43:06Z</time></trkpt><trkpt lat="42.95992813469137" lon="10.814647569861982"><ele>23.25</ele><time>2026-04-11T10:43:07Z</time></trkpt><trkpt lat="42.959797613304" lon="10.814626959438844"><ele>22.5</ele><time>2026-04-11T10:43:08Z</time></trkpt><trkpt lat="42.95967262429534" lon="10.814620480857746"><ele>21.75</ele><time>2026-04-11T10:43:09Z</time></trkpt><trkpt lat="42.959557231713426" lon="10.814597955658773"><ele>21.0</ele><time>2026-04-11T10:43:10Z</time></trkpt><trkpt lat="42.959465892051085" lon="10.814580448951503"><ele>21.0</ele><time>2026-04-11T10:43:11Z</time></trkpt><trkpt lat="42.95939930058231" lon="10.814567799586186"><ele>21.0</ele><time>2026-04-11T10:43:12Z</time></trkpt><trkpt lat="42.95934816330054" lon="10.81437295320665"><ele>21.0</ele><time>2026-04-11T10:43:14Z</time></trkpt><trkpt lat="42.95934503388099" lon="10.814286573447667"><ele>21.0</ele><time>2026-04-11T10:43:15Z</time></trkpt><trkpt lat="42.95935669506154" lon="10.814182625540594"><ele>21.0</ele><time>2026-04-11T10:43:16Z</time></trkpt><trkpt lat="42.959376456672494" lon="10.814058650339655"><ele>21.0</ele><time>2026-04-11T10:43:17Z</time></trkpt><trkpt lat="42.95938557674175" lon="10.813918242383002"><ele>21.0</ele><time>2026-04-11T10:43:18Z</time></trkpt><trkpt lat="42.95941924653119" lon="10.813769747941171"><ele>21.0</ele><time>2026-04-11T10:43:19Z</time></trkpt><trkpt lat="42.95944548106441" lon="10.813607389064808"><ele>21.0</ele><time>2026-04-11T10:43:20Z</time></trkpt><trkpt lat="42.95948178867323" lon="10.813437784873388"><ele>21.0</ele><time>2026-04-11T10:43:21Z</time></trkpt><trkpt lat="42.959508332585166" lon="10.813272536078301"><ele>21.0</ele><time>2026-04-11T10:43:22Z</time></trkpt><trkpt lat="42.959528359423636" lon="10.813105611719507"><ele>21.0</ele><time>2026-04-11T10:43:23Z</time></trkpt><trkpt lat="42.95954546105157" lon="10.812942960940358"><ele>21.0</ele><time>2026-04-11T10:43:24Z</time></trkpt><trkpt lat="42.959564911487995" lon="10.812788115588903"><ele>21.0</ele><time>2026-04-11T10:43:25Z</time></trkpt><trkpt lat="42.959588232015975" lon="10.812641275104532"><ele>21.0</ele><time>2026-04-11T10:43:26Z</time></trkpt><trkpt lat="42.95960635804196" lon="10.812494956331498"><ele>21.0</ele><time>2026-04-11T10:43:27Z</time></trkpt><trkpt lat="42.95962940854139" lon="10.812337575882447"><ele>21.0</ele><time>2026-04-11T10:43:28Z</time></trkpt><trkpt lat="42.95964758528466" lon="10.812180727603323"><ele>21.0</ele><time>2026-04-11T10:43:29Z</time></trkpt><trkpt lat="42.95965987740994" lon="10.812020702847693"><ele>21.0</ele><time>2026-04-11T10:43:30Z</time></trkpt><trkpt lat="42.95953353712074" lon="10.811830076262519"><ele>21.0</ele><time>2026-04-11T10:43:31Z</time></trkpt><trkpt lat="42.95954877094833" lon="10.81166578742062"><ele>21.0</ele><time>2026-04-11T10:43:32Z</time></trkpt><trkpt lat="42.95956369768992" lon="10.811504810455599"><ele>21.0</ele><time>2026-04-11T10:43:33Z</time></trkpt><trkpt lat="42.95957804431354" lon="10.811350246266715"><ele>21.0</ele><time>2026-04-11T10:43:34Z</time></trkpt><trkpt lat="42.959591728498374" lon="10.811199526867922"><ele>21.0</ele><time>2026-04-11T10:43:35Z</time></trkpt><trkpt lat="42.959605475958675" lon="10.811048110653244"><ele>21.0</ele><time>2026-04-11T10:43:36Z</time></trkpt><trkpt lat="42.95961800038326" lon="10.810897877190447"><ele>21.0</ele><time>2026-04-11T10:43:37Z</time></trkpt><trkpt lat="42.95963043688572" lon="10.810738436235578"><ele>21.0</ele><time>2026-04-11T10:43:38Z</time></trkpt><trkpt lat="42.959797182972196" lon="10.810602045255434"><ele>21.0</ele><time>2026-04-11T10:43:39Z</time></trkpt><trkpt lat="42.95981430516396" lon="10.810441358980242"><ele>21.0</ele><time>2026-04-11T10:43:40Z</time></trkpt><trkpt lat="42.95982777386162" lon="10.81027782305454"><ele>21.0</ele><time>2026-04-11T10:43:41Z</time></trkpt><trkpt lat="42.95984087087056" lon="10.810116223045867"><ele>21.0</ele><time>2026-04-11T10:43:42Z</time></trkpt><trkpt lat="42.95985409290801" lon="10.809955880596878"><ele>21.0</ele><time>2026-04-11T10:43:43Z</time></trkpt><trkpt lat="42.959867011515406" lon="10.809799547093297"><ele>21.0</ele><time>2026-04-11T10:43:44Z</time></trkpt><trkpt lat="42.9598765799639" lon="10.809636731519705"><ele>21.0</ele><time>2026-04-11T10:43:45Z</time></trkpt><trkpt lat="42.95988578384865" lon="10.809478611920442"><ele>20.75</ele><time>2026-04-11T10:43:46Z</time></trkpt><trkpt lat="42.95989112336583" lon="10.809320448449709"><ele>20.5</ele><time>2026-04-11T10:43:47Z</time></trkpt><trkpt lat="42.95989667913881" lon="10.809157381925251"><ele>20.25</ele><time>2026-04-11T10:43:48Z</time></trkpt><trkpt lat="42.95990240643218" lon="10.808987062673502"><ele>20.0</ele><time>2026-04-11T10:43:49Z</time></trkpt><trkpt lat="42.95990462282057" lon="10.808809765266469"><ele>20.0</ele><time>2026-04-11T10:43:50Z</time></trkpt><trkpt lat="42.95990073331597" lon="10.808636232476745"><ele>20.0</ele><time>2026-04-11T10:43:51Z</time></trkpt><trkpt lat="42.95989661123468" lon="10.808468406633088"><ele>20.0</ele><time>2026-04-11T10:43:52Z</time></trkpt><trkpt lat="42.959891953255486" lon="10.80831102588592"><ele>20.0</ele><time>2026-04-11T10:43:53Z</time></trkpt><trkpt lat="42.95988373617815" lon="10.808165002234409"><ele>20.0</ele><time>2026-04-11T10:43:54Z</time></trkpt><trkpt lat="42.95988135822904" lon="10.808018117192717"><ele>20.0</ele><time>2026-04-11T10:43:55Z</time></trkpt><trkpt lat="42.95987217979727" lon="10.807856242496314"><ele>20.0</ele><time>2026-04-11T10:43:56Z</time></trkpt><trkpt lat="42.95986560071645" lon="10.807696765899674"><ele>20.0</ele><time>2026-04-11T10:43:57Z</time></trkpt><trkpt lat="42.95985264496321" lon="10.807522447521647"><ele>20.0</ele><time>2026-04-11T10:43:58Z</time></trkpt><trkpt lat="42.9598474977971" lon="10.807358571486587"><ele>20.0</ele><time>2026-04-11T10:43:59Z</time></trkpt><trkpt lat="42.959845914841715" lon="10.807196645222414"><ele>20.0</ele><time>2026-04-11T10:44:00Z</time></trkpt><trkpt lat="42.95984713608229" lon="10.80703213688759"><ele>20.0</ele><time>2026-04-11T10:44:01Z</time></trkpt><trkpt lat="42.95987099896228" lon="10.806898548764686"><ele>19.6</ele><time>2026-04-11T10:44:02Z</time></trkpt><trkpt lat="42.959899413659876" lon="10.80678360067568"><ele>19.2</ele><time>2026-04-11T10:44:03Z</time></trkpt><trkpt lat="42.95997170584017" lon="10.806698503769212"><ele>18.8</ele><time>2026-04-11T10:44:04Z</time></trkpt><trkpt lat="42.960036301227326" lon="10.806618432234263"><ele>18.4</ele><time>2026-04-11T10:44:05Z</time></trkpt><trkpt lat="42.96008650770576" lon="10.806520751810163"><ele>18.0</ele><time>2026-04-11T10:44:06Z</time></trkpt><trkpt lat="42.96012387771447" lon="10.806399906479285"><ele>18.0</ele><time>2026-04-11T10:44:07.001Z</time></trkpt><trkpt lat="42.960168191197944" lon="10.806307497210215"><ele>18.0</ele><time>2026-04-11T10:44:08.001Z</time></trkpt><trkpt lat="42.96020700073794" lon="10.806165314843923"><ele>18.0</ele><time>2026-04-11T10:44:10.001Z</time></trkpt><trkpt lat="42.96019098847424" lon="10.80606243426736"><ele>18.0</ele><time>2026-04-11T10:44:12.001Z</time></trkpt><trkpt lat="42.96018088673218" lon="10.805918007771114"><ele>18.0</ele><time>2026-04-11T10:44:15.001Z</time></trkpt><trkpt lat="42.960160908149696" lon="10.805772094543164"><ele>18.0</ele><time>2026-04-11T10:44:17.001Z</time></trkpt><trkpt lat="42.96009524671351" lon="10.805655342721526"><ele>18.0</ele><time>2026-04-11T10:44:19.001Z</time></trkpt><trkpt lat="42.95997234498215" lon="10.80563335971647"><ele>18.0</ele><time>2026-04-11T10:44:21.001Z</time></trkpt><trkpt lat="42.95987084389368" lon="10.80563610653773"><ele>18.0</ele><time>2026-04-11T10:44:22Z</time></trkpt><trkpt lat="42.95975142784096" lon="10.805653262144483"><ele>17.8</ele><time>2026-04-11T10:44:23Z</time></trkpt><trkpt lat="42.95963392071525" lon="10.805639725108575"><ele>17.6</ele><time>2026-04-11T10:44:24Z</time></trkpt><trkpt lat="42.95953320298099" lon="10.805613496618806"><ele>17.4</ele><time>2026-04-11T10:44:25Z</time></trkpt><trkpt lat="42.95942252759129" lon="10.8055501939037"><ele>17.2</ele><time>2026-04-11T10:44:26Z</time></trkpt><trkpt lat="42.95933526109808" lon="10.80549578382787"><ele>17.0</ele><time>2026-04-11T10:44:27Z</time></trkpt><trkpt lat="42.9592487513327" lon="10.805441537350317"><ele>17.0</ele><time>2026-04-11T10:44:28Z</time></trkpt><trkpt lat="42.95915578557584" lon="10.805377143436111"><ele>17.0</ele><time>2026-04-11T10:44:29Z</time></trkpt><trkpt lat="42.9590722294651" lon="10.805286999433093"><ele>17.0</ele><time>2026-04-11T10:44:30Z</time></trkpt><trkpt lat="42.95898396591148" lon="10.8051976388668"><ele>17.0</ele><time>2026-04-11T10:44:31Z</time></trkpt><trkpt lat="42.9589142967317" lon="10.80513018393227"><ele>17.0</ele><time>2026-04-11T10:44:32Z</time></trkpt><trkpt lat="42.95885796512807" lon="10.805075366215275"><ele>17.166666666666668</ele><time>2026-04-11T10:44:33Z</time></trkpt><trkpt lat="42.95880542325375" lon="10.804975378426258"><ele>17.333333333333336</ele><time>2026-04-11T10:44:35Z</time></trkpt><trkpt lat="42.95886823307427" lon="10.80493074548456"><ele>17.5</ele><time>2026-04-11T10:44:37Z</time></trkpt><trkpt lat="42.95895836967264" lon="10.80495367663272"><ele>17.666666666666668</ele><time>2026-04-11T10:44:39Z</time></trkpt><trkpt lat="42.95902517598812" lon="10.804938969172653"><ele>17.833333333333332</ele><time>2026-04-11T10:44:41Z</time></trkpt><trkpt lat="42.95906677198683" lon="10.80486185887887"><ele>18.0</ele><time>2026-04-11T10:44:44Z</time></trkpt><trkpt lat="42.959026680455324" lon="10.804772151204638"><ele>18.0</ele><time>2026-04-11T10:44:46Z</time></trkpt><trkpt lat="42.95898864498241" lon="10.804687646459065"><ele>18.0</ele><time>2026-04-11T10:44:47Z</time></trkpt><trkpt lat="42.95896025149187" lon="10.804579891525286"><ele>18.0</ele><time>2026-04-11T10:44:48Z</time></trkpt><trkpt lat="42.95894122913676" lon="10.80443855164222"><ele>18.0</ele><time>2026-04-11T10:44:49Z</time></trkpt><trkpt lat="42.958919660794024" lon="10.804287366713014"><ele>18.0</ele><time>2026-04-11T10:44:50Z</time></trkpt><trkpt lat="42.95889801398097" lon="10.80411961252893"><ele>18.25</ele><time>2026-04-11T10:44:51Z</time></trkpt><trkpt lat="42.95887988347743" lon="10.803946175775271"><ele>18.5</ele><time>2026-04-11T10:44:52Z</time></trkpt><trkpt lat="42.95885906072014" lon="10.803793937634852"><ele>18.75</ele><time>2026-04-11T10:44:53Z</time></trkpt><trkpt lat="42.958834844072726" lon="10.803642742618152"><ele>19.0</ele><time>2026-04-11T10:44:54Z</time></trkpt><trkpt lat="42.958794768727785" lon="10.803461501019921"><ele>19.0</ele><time>2026-04-11T10:44:55Z</time></trkpt><trkpt lat="42.95875990003491" lon="10.803288128859379"><ele>19.0</ele><time>2026-04-11T10:44:56Z</time></trkpt><trkpt lat="42.958727407401646" lon="10.803119968481843"><ele>19.0</ele><time>2026-04-11T10:44:57Z</time></trkpt><trkpt lat="42.958695360863146" lon="10.802956861084105"><ele>19.0</ele><time>2026-04-11T10:44:58Z</time></trkpt><trkpt lat="42.95866343178868" lon="10.80280032090234"><ele>19.25</ele><time>2026-04-11T10:44:59Z</time></trkpt><trkpt lat="42.95863604542847" lon="10.80265170583123"><ele>19.5</ele><time>2026-04-11T10:45:00Z</time></trkpt><trkpt lat="42.95860946298251" lon="10.802499553532984"><ele>19.75</ele><time>2026-04-11T10:45:01Z</time></trkpt><trkpt lat="42.958583721522224" lon="10.802347319569469"><ele>20.0</ele><time>2026-04-11T10:45:02Z</time></trkpt><trkpt lat="42.958551578543464" lon="10.802198686310858"><ele>20.0</ele><time>2026-04-11T10:45:03Z</time></trkpt><trkpt lat="42.95852438472697" lon="10.802056694207778"><ele>20.0</ele><time>2026-04-11T10:45:04Z</time></trkpt><trkpt lat="42.95851579656084" lon="10.801923816053474"><ele>20.0</ele><time>2026-04-11T10:45:05Z</time></trkpt><trkpt lat="42.95849392886072" lon="10.801805925636314"><ele>20.0</ele><time>2026-04-11T10:45:06Z</time></trkpt><trkpt lat="42.958473796805855" lon="10.80170016370578"><ele>20.0</ele><time>2026-04-11T10:45:07Z</time></trkpt><trkpt lat="42.9584349477982" lon="10.80157640890375"><ele>19.75</ele><time>2026-04-11T10:45:09Z</time></trkpt><trkpt lat="42.958484757789" lon="10.801501946709273"><ele>19.5</ele><time>2026-04-11T10:45:11Z</time></trkpt><trkpt lat="42.95874053447399" lon="10.801436125762104"><ele>19.25</ele><time>2026-04-11T10:45:15Z</time></trkpt><trkpt lat="42.95882535471645" lon="10.801402846808442"><ele>19.0</ele><time>2026-04-11T10:45:17Z</time></trkpt><trkpt lat="42.95886064486419" lon="10.80131739818098"><ele>19.0</ele><time>2026-04-11T10:45:19Z</time></trkpt><trkpt lat="42.95885500767311" lon="10.801099980437185"><ele>19.0</ele><time>2026-04-11T10:45:21Z</time></trkpt><trkpt lat="42.95883894124787" lon="10.800912899316735"><ele>19.0</ele><time>2026-04-11T10:45:22Z</time></trkpt><trkpt lat="42.958796212971606" lon="10.800702171544291"><ele>19.0</ele><time>2026-04-11T10:45:23Z</time></trkpt><trkpt lat="42.95876074081447" lon="10.800510674922371"><ele>19.0</ele><time>2026-04-11T10:45:24Z</time></trkpt><trkpt lat="42.95872612389974" lon="10.800338932467136"><ele>19.0</ele><time>2026-04-11T10:45:25Z</time></trkpt><trkpt lat="42.958711164406665" lon="10.800173493957534"><ele>19.0</ele><time>2026-04-11T10:45:26Z</time></trkpt><trkpt lat="42.958699372573406" lon="10.800022799117155"><ele>19.25</ele><time>2026-04-11T10:45:27Z</time></trkpt><trkpt lat="42.9587117160518" lon="10.79984949911781"><ele>19.5</ele><time>2026-04-11T10:45:28Z</time></trkpt><trkpt lat="42.95875278641828" lon="10.799684284989329"><ele>19.75</ele><time>2026-04-11T10:45:29Z</time></trkpt><trkpt lat="42.95878885096823" lon="10.799539023083229"><ele>20.0</ele><time>2026-04-11T10:45:30Z</time></trkpt><trkpt lat="42.95883223655121" lon="10.799399022462202"><ele>20.4</ele><time>2026-04-11T10:45:31Z</time></trkpt><trkpt lat="42.958861324861985" lon="10.799269633628342"><ele>20.8</ele><time>2026-04-11T10:45:32Z</time></trkpt><trkpt lat="42.95889027918818" lon="10.799148171642063"><ele>21.200000000000003</ele><time>2026-04-11T10:45:33Z</time></trkpt><trkpt lat="42.95890853187667" lon="10.799045199613598"><ele>21.6</ele><time>2026-04-11T10:45:34Z</time></trkpt><trkpt lat="42.958910274544394" lon="10.798927833452725"><ele>22.0</ele><time>2026-04-11T10:45:35Z</time></trkpt><trkpt lat="42.95890759407983" lon="10.798795483225783"><ele>22.0</ele><time>2026-04-11T10:45:36Z</time></trkpt><trkpt lat="42.95891919266684" lon="10.798633786482794"><ele>22.0</ele><time>2026-04-11T10:45:37Z</time></trkpt><trkpt lat="42.95894600277632" lon="10.798445076171134"><ele>22.0</ele><time>2026-04-11T10:45:38Z</time></trkpt><trkpt lat="42.95898488311858" lon="10.79822277510369"><ele>22.0</ele><time>2026-04-11T10:45:39Z</time></trkpt><trkpt lat="42.95902090089592" lon="10.798006135278081"><ele>22.5</ele><time>2026-04-11T10:45:40Z</time></trkpt><trkpt lat="42.95906088425291" lon="10.797795075538485"><ele>23.0</ele><time>2026-04-11T10:45:41Z</time></trkpt><trkpt lat="42.95910088639501" lon="10.797598343167774"><ele>23.5</ele><time>2026-04-11T10:45:42Z</time></trkpt><trkpt lat="42.9591332967026" lon="10.797414984155358"><ele>24.0</ele><time>2026-04-11T10:45:43Z</time></trkpt><trkpt lat="42.95916683802258" lon="10.797239604912608"><ele>24.4</ele><time>2026-04-11T10:45:44Z</time></trkpt><trkpt lat="42.95920176291155" lon="10.797088984012019"><ele>24.799999999999997</ele><time>2026-04-11T10:45:45Z</time></trkpt><trkpt lat="42.95923132327381" lon="10.796951268235699"><ele>25.200000000000003</ele><time>2026-04-11T10:45:46Z</time></trkpt><trkpt lat="42.95925821164334" lon="10.7968244300967"><ele>25.6</ele><time>2026-04-11T10:45:47Z</time></trkpt><trkpt lat="42.95927941819053" lon="10.796722688123005"><ele>26.0</ele><time>2026-04-11T10:45:48Z</time></trkpt><trkpt lat="42.95932206750936" lon="10.796562003090363"><ele>26.333333333333332</ele><time>2026-04-11T10:45:50Z</time></trkpt><trkpt lat="42.95934282673202" lon="10.796428159096477"><ele>26.666666666666664</ele><time>2026-04-11T10:45:52Z</time></trkpt><trkpt lat="42.95935776413166" lon="10.796339141165603"><ele>27.0</ele><time>2026-04-11T10:45:54Z</time></trkpt><trkpt lat="42.95938282367905" lon="10.7962589090224"><ele>27.333333333333336</ele><time>2026-04-11T10:45:58Z</time></trkpt><trkpt lat="42.95937193428275" lon="10.796147198346024"><ele>27.666666666666668</ele><time>2026-04-11T10:46:00Z</time></trkpt><trkpt lat="42.95932470238689" lon="10.79608028612382"><ele>28.0</ele><time>2026-04-11T10:46:01Z</time></trkpt><trkpt lat="42.95931519647536" lon="10.795974149624621"><ele>28.2</ele><time>2026-04-11T10:46:05Z</time></trkpt><trkpt lat="42.95937997566189" lon="10.795814852119198"><ele>28.4</ele><time>2026-04-11T10:46:07Z</time></trkpt><trkpt lat="42.959417065469424" lon="10.795741700668376"><ele>28.599999999999998</ele><time>2026-04-11T10:46:08Z</time></trkpt><trkpt lat="42.959465927644864" lon="10.795648102919602"><ele>28.799999999999997</ele><time>2026-04-11T10:46:09Z</time></trkpt><trkpt lat="42.959516336997936" lon="10.795545178603637"><ele>29.0</ele><time>2026-04-11T10:46:10Z</time></trkpt><trkpt lat="42.95956712118901" lon="10.795438351846864"><ele>28.999999999999996</ele><time>2026-04-11T10:46:11Z</time></trkpt><trkpt lat="42.959607208485" lon="10.795364026782385"><ele>29.0</ele><time>2026-04-11T10:46:12Z</time></trkpt><trkpt lat="42.95965130649162" lon="10.795241903991627"><ele>29.0</ele><time>2026-04-11T10:46:14Z</time></trkpt><trkpt lat="42.959707794205464" lon="10.795128264821281"><ele>29.0</ele><time>2026-04-11T10:46:16Z</time></trkpt><trkpt lat="42.959756046413275" lon="10.795043682971425"><ele>28.999999999999996</ele><time>2026-04-11T10:46:17Z</time></trkpt><trkpt lat="42.95980310822509" lon="10.794963077270857"><ele>29.0</ele><time>2026-04-11T10:46:18Z</time></trkpt><trkpt lat="42.959863365452264" lon="10.794834483892613"><ele>29.166666666666664</ele><time>2026-04-11T10:46:19Z</time></trkpt><trkpt lat="42.959913998055136" lon="10.79469598514062"><ele>29.333333333333332</ele><time>2026-04-11T10:46:20Z</time></trkpt><trkpt lat="42.959943977012855" lon="10.794574301808877"><ele>29.5</ele><time>2026-04-11T10:46:21Z</time></trkpt><trkpt lat="42.95995348831168" lon="10.79445316934463"><ele>29.666666666666664</ele><time>2026-04-11T10:46:22Z</time></trkpt><trkpt lat="42.959980794241694" lon="10.794363979828397"><ele>29.833333333333332</ele><time>2026-04-11T10:46:23Z</time></trkpt><trkpt lat="42.96003579400856" lon="10.794284008918485"><ele>30.0</ele><time>2026-04-11T10:46:24Z</time></trkpt><trkpt lat="42.960101136779656" lon="10.794218000618697"><ele>30.0</ele><time>2026-04-11T10:46:25Z</time></trkpt><trkpt lat="42.96018334750653" lon="10.794181834593807"><ele>30.0</ele><time>2026-04-11T10:46:26Z</time></trkpt><trkpt lat="42.96025037762555" lon="10.794133200253164"><ele>30.0</ele><time>2026-04-11T10:46:27Z</time></trkpt><trkpt lat="42.960339071478316" lon="10.79410256623989"><ele>30.0</ele><time>2026-04-11T10:46:28Z</time></trkpt><trkpt lat="42.96043191190792" lon="10.794062861630747"><ele>30.0</ele><time>2026-04-11T10:46:29Z</time></trkpt><trkpt lat="42.96053062674342" lon="10.794008029109914"><ele>30.0</ele><time>2026-04-11T10:46:30Z</time></trkpt><trkpt lat="42.96061769139736" lon="10.793971233139086"><ele>30.0</ele><time>2026-04-11T10:46:31Z</time></trkpt><trkpt lat="42.96070832384337" lon="10.79396412845251"><ele>30.0</ele><time>2026-04-11T10:46:32Z</time></trkpt><trkpt lat="42.960801183702635" lon="10.793999880645586"><ele>30.0</ele><time>2026-04-11T10:46:33Z</time></trkpt><trkpt lat="42.960895993317095" lon="10.794066851554069"><ele>30.0</ele><time>2026-04-11T10:46:34Z</time></trkpt><trkpt lat="42.96100471965686" lon="10.794153412142334"><ele>30.666666666666668</ele><time>2026-04-11T10:46:35Z</time></trkpt><trkpt lat="42.961096338009725" lon="10.794232256658423"><ele>31.333333333333336</ele><time>2026-04-11T10:46:36Z</time></trkpt><trkpt lat="42.96117976254915" lon="10.794293848080684"><ele>32.0</ele><time>2026-04-11T10:46:37Z</time></trkpt><trkpt lat="42.961251449051" lon="10.794319467017504"><ele>32.66666666666667</ele><time>2026-04-11T10:46:38Z</time></trkpt><trkpt lat="42.96132390927766" lon="10.794302879191097"><ele>33.333333333333336</ele><time>2026-04-11T10:46:39Z</time></trkpt><trkpt lat="42.961389615809985" lon="10.794254018449559"><ele>34.0</ele><time>2026-04-11T10:46:40Z</time></trkpt><trkpt lat="42.961465635676284" lon="10.794082235085304"><ele>34.0</ele><time>2026-04-11T10:46:42Z</time></trkpt><trkpt lat="42.961501430460174" lon="10.793982824525125"><ele>34.0</ele><time>2026-04-11T10:46:43Z</time></trkpt><trkpt lat="42.96155245906462" lon="10.793855933379223"><ele>34.0</ele><time>2026-04-11T10:46:44Z</time></trkpt><trkpt lat="42.961598331695335" lon="10.79372792273533"><ele>34.0</ele><time>2026-04-11T10:46:45Z</time></trkpt><trkpt lat="42.96165043987773" lon="10.793597557712845"><ele>34.0</ele><time>2026-04-11T10:46:46Z</time></trkpt><trkpt lat="42.961701023413035" lon="10.793474753446207"><ele>34.333333333333336</ele><time>2026-04-11T10:46:47Z</time></trkpt><trkpt lat="42.96175726380283" lon="10.793356022624218"><ele>34.66666666666667</ele><time>2026-04-11T10:46:48Z</time></trkpt><trkpt lat="42.961804633213134" lon="10.793248315827341"><ele>35.0</ele><time>2026-04-11T10:46:49Z</time></trkpt><trkpt lat="42.96184464438692" lon="10.793151365517026"><ele>35.333333333333336</ele><time>2026-04-11T10:46:50Z</time></trkpt><trkpt lat="42.96187945269563" lon="10.793063252677165"><ele>35.666666666666664</ele><time>2026-04-11T10:46:51Z</time></trkpt><trkpt lat="42.96191898574226" lon="10.792981337152229"><ele>36.0</ele><time>2026-04-11T10:46:52Z</time></trkpt><trkpt lat="42.961962263227996" lon="10.792911280782631"><ele>36.0</ele><time>2026-04-11T10:46:53Z</time></trkpt><trkpt lat="42.96201899113853" lon="10.792833833380273"><ele>36.0</ele><time>2026-04-11T10:46:55Z</time></trkpt><trkpt lat="42.962068285283394" lon="10.792773663057323"><ele>36.0</ele><time>2026-04-11T10:47:00Z</time></trkpt><trkpt lat="42.96212321521989" lon="10.792714993319228"><ele>36.0</ele><time>2026-04-11T10:49:03Z</time></trkpt><trkpt lat="42.96217284872231" lon="10.792655901733436"><ele>36.0</ele><time>2026-04-11T10:49:05Z</time></trkpt><trkpt lat="42.96225277612287" lon="10.792555160114569"><ele>36.0</ele><time>2026-04-11T10:49:07Z</time></trkpt><trkpt lat="42.962312005599316" lon="10.792482078382237"><ele>36.5</ele><time>2026-04-11T10:49:08Z</time></trkpt><trkpt lat="42.9623856881473" lon="10.792392683519466"><ele>37.0</ele><time>2026-04-11T10:49:09Z</time></trkpt><trkpt lat="42.962472565466406" lon="10.792291167654456"><ele>37.5</ele><time>2026-04-11T10:49:10Z</time></trkpt><trkpt lat="42.962567107345365" lon="10.792182081545317"><ele>38.0</ele><time>2026-04-11T10:49:11Z</time></trkpt><trkpt lat="42.96266151206835" lon="10.792075479808947"><ele>38.199999999999996</ele><time>2026-04-11T10:49:12Z</time></trkpt><trkpt lat="42.96275115025386" lon="10.791979459912422"><ele>38.4</ele><time>2026-04-11T10:49:13Z</time></trkpt><trkpt lat="42.96283460839308" lon="10.79189730782229"><ele>38.599999999999994</ele><time>2026-04-11T10:49:14Z</time></trkpt><trkpt lat="42.96292050568059" lon="10.791820279838186"><ele>38.8</ele><time>2026-04-11T10:49:15Z</time></trkpt><trkpt lat="42.96300911795593" lon="10.791749904971692"><ele>39.0</ele><time>2026-04-11T10:49:16Z</time></trkpt><trkpt lat="42.963106061560154" lon="10.791688585594029"><ele>39.75</ele><time>2026-04-11T10:49:17Z</time></trkpt><trkpt lat="42.96321199735402" lon="10.791640974891648"><ele>40.5</ele><time>2026-04-11T10:49:18Z</time></trkpt><trkpt lat="42.963331796828946" lon="10.791615526919102"><ele>41.25</ele><time>2026-04-11T10:49:19Z</time></trkpt><trkpt lat="42.96346016637745" lon="10.791573539097781"><ele>42.0</ele><time>2026-04-11T10:49:20Z</time></trkpt><trkpt lat="42.963599544212954" lon="10.791563042453344"><ele>42.0</ele><time>2026-04-11T10:49:21Z</time></trkpt><trkpt lat="42.96373608684982" lon="10.79154803822286"><ele>42.0</ele><time>2026-04-11T10:49:22Z</time></trkpt><trkpt lat="42.963862700438895" lon="10.791541146499743"><ele>42.0</ele><time>2026-04-11T10:49:23Z</time></trkpt><trkpt lat="42.96399480383638" lon="10.791548214265895"><ele>42.0</ele><time>2026-04-11T10:49:24Z</time></trkpt><trkpt lat="42.96412908528008" lon="10.79150486296269"><ele>41.0</ele><time>2026-04-11T10:49:25Z</time></trkpt><trkpt lat="42.964262397162116" lon="10.791488467932098"><ele>40.0</ele><time>2026-04-11T10:49:26Z</time></trkpt><trkpt lat="42.964389844605776" lon="10.791500248937375"><ele>39.0</ele><time>2026-04-11T10:49:27Z</time></trkpt><trkpt lat="42.96452209622393" lon="10.791484350036484"><ele>38.0</ele><time>2026-04-11T10:49:28Z</time></trkpt><trkpt lat="42.96466244337757" lon="10.79147901615132"><ele>38.0</ele><time>2026-04-11T10:49:29Z</time></trkpt><trkpt lat="42.96481268951796" lon="10.791466542028695"><ele>38.0</ele><time>2026-04-11T10:49:30Z</time></trkpt><trkpt lat="42.96495645744967" lon="10.791459623705638"><ele>38.0</ele><time>2026-04-11T10:49:31Z</time></trkpt><trkpt lat="42.96508796814721" lon="10.791452097146172"><ele>38.0</ele><time>2026-04-11T10:49:32Z</time></trkpt><trkpt lat="42.965200483965035" lon="10.791447211498674"><ele>37.75</ele><time>2026-04-11T10:49:33Z</time></trkpt><trkpt lat="42.965303556058274" lon="10.791442497790966"><ele>37.5</ele><time>2026-04-11T10:49:34Z</time></trkpt><trkpt lat="42.96541161563297" lon="10.791432677126384"><ele>37.25</ele><time>2026-04-11T10:49:35Z</time></trkpt><trkpt lat="42.9655277351904" lon="10.791428247431524"><ele>37.0</ele><time>2026-04-11T10:49:36Z</time></trkpt><trkpt lat="42.96565588676328" lon="10.791441420327173"><ele>37.0</ele><time>2026-04-11T10:49:37Z</time></trkpt><trkpt lat="42.9657857404779" lon="10.79143534614985"><ele>37.0</ele><time>2026-04-11T10:49:38Z</time></trkpt><trkpt lat="42.96591213605178" lon="10.791407185151195"><ele>37.0</ele><time>2026-04-11T10:49:39Z</time></trkpt><trkpt lat="42.96603607701494" lon="10.791401872606363"><ele>37.0</ele><time>2026-04-11T10:49:40Z</time></trkpt><trkpt lat="42.96615583785454" lon="10.791394177249835"><ele>37.5</ele><time>2026-04-11T10:49:41Z</time></trkpt><trkpt lat="42.9662781910401" lon="10.7913807726927"><ele>38.0</ele><time>2026-04-11T10:49:42Z</time></trkpt><trkpt lat="42.96641354175723" lon="10.791364208148384"><ele>38.5</ele><time>2026-04-11T10:49:43Z</time></trkpt><trkpt lat="42.96655630392969" lon="10.791343501843375"><ele>39.0</ele><time>2026-04-11T10:49:44Z</time></trkpt><trkpt lat="42.96669912870905" lon="10.791327386883909"><ele>40.333333333333336</ele><time>2026-04-11T10:49:45Z</time></trkpt><trkpt lat="42.96684155834093" lon="10.791315935703151"><ele>41.66666666666667</ele><time>2026-04-11T10:49:46Z</time></trkpt><trkpt lat="42.966992867689534" lon="10.791303367777962"><ele>43.0</ele><time>2026-04-11T10:49:47Z</time></trkpt><trkpt lat="42.9671485494734" lon="10.791294074413589"><ele>43.0</ele><time>2026-04-11T10:49:48Z</time></trkpt><trkpt lat="42.96732577606935" lon="10.791278552161502"><ele>43.0</ele><time>2026-04-11T10:49:49Z</time></trkpt><trkpt lat="42.96749524700176" lon="10.79126022589943"><ele>43.0</ele><time>2026-04-11T10:49:50Z</time></trkpt><trkpt lat="42.967660063077375" lon="10.79123810863813"><ele>44.0</ele><time>2026-04-11T10:49:51Z</time></trkpt><trkpt lat="42.96782078516398" lon="10.791214418067655"><ele>45.0</ele><time>2026-04-11T10:49:52Z</time></trkpt><trkpt lat="42.96798287656319" lon="10.791194779111212"><ele>46.0</ele><time>2026-04-11T10:49:53Z</time></trkpt><trkpt lat="42.96814383883323" lon="10.79117951333487"><ele>46.0</ele><time>2026-04-11T10:49:54Z</time></trkpt><trkpt lat="42.968302009649484" lon="10.791168894580554"><ele>46.0</ele><time>2026-04-11T10:49:55Z</time></trkpt><trkpt lat="42.96844958179829" lon="10.791164500925845"><ele>46.0</ele><time>2026-04-11T10:49:56Z</time></trkpt><trkpt lat="42.96859798178648" lon="10.791147346696654"><ele>47.0</ele><time>2026-04-11T10:49:57Z</time></trkpt><trkpt lat="42.96874447572557" lon="10.791135736620825"><ele>48.0</ele><time>2026-04-11T10:49:58Z</time></trkpt><trkpt lat="42.96889122306381" lon="10.791128539963065"><ele>49.0</ele><time>2026-04-11T10:49:59Z</time></trkpt><trkpt lat="42.969042201102745" lon="10.79112116391555"><ele>50.0</ele><time>2026-04-11T10:50:00Z</time></trkpt><trkpt lat="42.96918144200102" lon="10.79112059495361"><ele>49.6</ele><time>2026-04-11T10:50:01Z</time></trkpt><trkpt lat="42.969303710031205" lon="10.791125014207623"><ele>49.2</ele><time>2026-04-11T10:50:02Z</time></trkpt><trkpt lat="42.969409492650584" lon="10.791132364816567"><ele>48.8</ele><time>2026-04-11T10:50:03Z</time></trkpt><trkpt lat="42.96948859251053" lon="10.791132193871272"><ele>48.4</ele><time>2026-04-11T10:50:04Z</time></trkpt><trkpt lat="42.969568206692685" lon="10.791130306906581"><ele>48.0</ele><time>2026-04-11T10:50:05Z</time></trkpt><trkpt lat="42.969637447108234" lon="10.791119611508543"><ele>48.0</ele><time>2026-04-11T10:50:06Z</time></trkpt><trkpt lat="42.969730285558605" lon="10.791106044919754"><ele>48.0</ele><time>2026-04-11T10:50:08Z</time></trkpt><trkpt lat="42.96970023738042" lon="10.790986348467571"><ele>48.0</ele><time>2026-04-11T10:50:27Z</time></trkpt><trkpt lat="42.969677917365" lon="10.790876614360057"><ele>48.0</ele><time>2026-04-11T10:50:29Z</time></trkpt><trkpt lat="42.969718141758065" lon="10.790683894938851"><ele>48.0</ele><time>2026-04-11T10:50:31Z</time></trkpt><trkpt lat="42.969702610536125" lon="10.790562227435142"><ele>49.0</ele><time>2026-04-11T10:50:32Z</time></trkpt><trkpt lat="42.96967733578822" lon="10.790449688563449"><ele>50.0</ele><time>2026-04-11T10:50:33Z</time></trkpt><trkpt lat="42.969630647191245" lon="10.790326861115846"><ele>51.0</ele><time>2026-04-11T10:50:34Z</time></trkpt><trkpt lat="42.969555869598885" lon="10.790231532911204"><ele>52.0</ele><time>2026-04-11T10:50:35Z</time></trkpt><trkpt lat="42.969470929621025" lon="10.790151285532504"><ele>53.0</ele><time>2026-04-11T10:50:36Z</time></trkpt><trkpt lat="42.96938828238054" lon="10.79006806880995"><ele>54.599999999999994</ele><time>2026-04-11T10:50:37Z</time></trkpt><trkpt lat="42.969314358693694" lon="10.789990740902374"><ele>56.199999999999996</ele><time>2026-04-11T10:50:38Z</time></trkpt><trkpt lat="42.96924526761587" lon="10.789895140956766"><ele>57.8</ele><time>2026-04-11T10:50:39Z</time></trkpt><trkpt lat="42.96916739691623" lon="10.789796705327891"><ele>59.4</ele><time>2026-04-11T10:50:40Z</time></trkpt><trkpt lat="42.96909838106352" lon="10.789671555649988"><ele>61.0</ele><time>2026-04-11T10:50:41Z</time></trkpt><trkpt lat="42.9690217040484" lon="10.789528653804432"><ele>61.0</ele><time>2026-04-11T10:50:42Z</time></trkpt><trkpt lat="42.9689389710598" lon="10.789371891640869"><ele>61.0</ele><time>2026-04-11T10:50:43Z</time></trkpt><trkpt lat="42.96884959581432" lon="10.789205462348443"><ele>61.0</ele><time>2026-04-11T10:50:44Z</time></trkpt><trkpt lat="42.96876130285513" lon="10.789039187565484"><ele>61.0</ele><time>2026-04-11T10:50:45Z</time></trkpt><trkpt lat="42.968674393795155" lon="10.788874389007043"><ele>62.666666666666664</ele><time>2026-04-11T10:50:46Z</time></trkpt><trkpt lat="42.96858841642992" lon="10.78870963549719"><ele>64.33333333333333</ele><time>2026-04-11T10:50:47Z</time></trkpt><trkpt lat="42.9685023900251" lon="10.78853535571849"><ele>66.0</ele><time>2026-04-11T10:50:48Z</time></trkpt><trkpt lat="42.96841934405532" lon="10.788336713181598"><ele>66.33333333333333</ele><time>2026-04-11T10:50:49Z</time></trkpt><trkpt lat="42.968307763736995" lon="10.78815635383969"><ele>66.66666666666666</ele><time>2026-04-11T10:50:50Z</time></trkpt><trkpt lat="42.96821001743061" lon="10.787974515295797"><ele>67.0</ele><time>2026-04-11T10:50:51Z</time></trkpt><trkpt lat="42.96812741118262" lon="10.787782788459918"><ele>68.33333333333333</ele><time>2026-04-11T10:50:52Z</time></trkpt><trkpt lat="42.96805394237812" lon="10.78759569988271"><ele>69.66666666666667</ele><time>2026-04-11T10:50:53Z</time></trkpt><trkpt lat="42.967972014632075" lon="10.787421563084015"><ele>71.0</ele><time>2026-04-11T10:50:54Z</time></trkpt><trkpt lat="42.967869435795315" lon="10.787267458021123"><ele>71.0</ele><time>2026-04-11T10:50:55Z</time></trkpt><trkpt lat="42.96779068905943" lon="10.787109642427952"><ele>71.0</ele><time>2026-04-11T10:50:56Z</time></trkpt><trkpt lat="42.96769638925365" lon="10.786932021552996"><ele>71.0</ele><time>2026-04-11T10:50:57Z</time></trkpt><trkpt lat="42.96763668545531" lon="10.786834606851162"><ele>71.0</ele><time>2026-04-11T10:50:58Z</time></trkpt><trkpt lat="42.96759188187913" lon="10.786759857665286"><ele>71.0</ele><time>2026-04-11T10:50:59Z</time></trkpt><trkpt lat="42.96751960097008" lon="10.786602343849724"><ele>71.0</ele><time>2026-04-11T10:51:01Z</time></trkpt><trkpt lat="42.96747404784644" lon="10.786491562948465"><ele>71.0</ele><time>2026-04-11T10:51:02Z</time></trkpt><trkpt lat="42.967425510380956" lon="10.786377025997028"><ele>71.0</ele><time>2026-04-11T10:51:03Z</time></trkpt><trkpt lat="42.96737618830624" lon="10.786266925816786"><ele>71.0</ele><time>2026-04-11T10:51:04Z</time></trkpt><trkpt lat="42.967324027567514" lon="10.78610701838369"><ele>72.0</ele><time>2026-04-11T10:51:05Z</time></trkpt><trkpt lat="42.96726175027659" lon="10.785978102827979"><ele>73.0</ele><time>2026-04-11T10:51:06Z</time></trkpt><trkpt lat="42.9671958071848" lon="10.785848959522104"><ele>74.0</ele><time>2026-04-11T10:51:07Z</time></trkpt><trkpt lat="42.96713596419678" lon="10.785725132067748"><ele>75.0</ele><time>2026-04-11T10:51:08Z</time></trkpt><trkpt lat="42.9670907195845" lon="10.785637873810455"><ele>76.0</ele><time>2026-04-11T10:51:09Z</time></trkpt><trkpt lat="42.9670325727302" lon="10.785455329457763"><ele>76.0</ele><time>2026-04-11T10:51:11Z</time></trkpt><trkpt lat="42.967004946455866" lon="10.78532378912576"><ele>76.0</ele><time>2026-04-11T10:51:12Z</time></trkpt><trkpt lat="42.96696797541307" lon="10.78519390946703"><ele>76.0</ele><time>2026-04-11T10:51:13Z</time></trkpt><trkpt lat="42.9669049216592" lon="10.785043526601314"><ele>76.0</ele><time>2026-04-11T10:51:14Z</time></trkpt><trkpt lat="42.966830087407295" lon="10.784835396303162"><ele>76.66666666666666</ele><time>2026-04-11T10:51:15Z</time></trkpt><trkpt lat="42.966721344898374" lon="10.784605844094237"><ele>77.33333333333333</ele><time>2026-04-11T10:51:16Z</time></trkpt><trkpt lat="42.96661343496782" lon="10.784390008964028"><ele>78.0</ele><time>2026-04-11T10:51:17Z</time></trkpt><trkpt lat="42.96652520334607" lon="10.784193131361304"><ele>75.25</ele><time>2026-04-11T10:51:18Z</time></trkpt><trkpt lat="42.96643207252456" lon="10.784015247346739"><ele>72.5</ele><time>2026-04-11T10:51:19Z</time></trkpt><trkpt lat="42.96634634800574" lon="10.783841710801617"><ele>69.75</ele><time>2026-04-11T10:51:20Z</time></trkpt><trkpt lat="42.96627661598307" lon="10.783682367106596"><ele>67.0</ele><time>2026-04-11T10:51:21Z</time></trkpt><trkpt lat="42.966203621108725" lon="10.783539996408294"><ele>67.66666666666666</ele><time>2026-04-11T10:51:22Z</time></trkpt><trkpt lat="42.96614831629142" lon="10.78341977371338"><ele>68.33333333333333</ele><time>2026-04-11T10:51:23Z</time></trkpt><trkpt lat="42.96610167562612" lon="10.783329280832323"><ele>69.0</ele><time>2026-04-11T10:51:24Z</time></trkpt><trkpt lat="42.9660501361308" lon="10.783253377526272"><ele>69.66666666666667</ele><time>2026-04-11T10:51:25Z</time></trkpt><trkpt lat="42.96598837244292" lon="10.783186839121198"><ele>70.33333333333334</ele><time>2026-04-11T10:51:26Z</time></trkpt><trkpt lat="42.96591257492858" lon="10.78313511258122"><ele>71.0</ele><time>2026-04-11T10:51:27Z</time></trkpt><trkpt lat="42.965834116934026" lon="10.783106996951924"><ele>71.0</ele><time>2026-04-11T10:51:28Z</time></trkpt><trkpt lat="42.965733077856164" lon="10.78311473945605"><ele>71.0</ele><time>2026-04-11T10:51:29Z</time></trkpt><trkpt lat="42.965620676167866" lon="10.783105583003357"><ele>71.0</ele><time>2026-04-11T10:51:30Z</time></trkpt><trkpt lat="42.96549805815564" lon="10.783080391526122"><ele>71.0</ele><time>2026-04-11T10:51:31Z</time></trkpt><trkpt lat="42.965381988585314" lon="10.78304676328911"><ele>71.0</ele><time>2026-04-11T10:51:32Z</time></trkpt><trkpt lat="42.96528015464348" lon="10.783027356652097"><ele>71.0</ele><time>2026-04-11T10:51:33Z</time></trkpt><trkpt lat="42.96517822451355" lon="10.783016420488744"><ele>71.0</ele><time>2026-04-11T10:51:34Z</time></trkpt><trkpt lat="42.96506374784845" lon="10.783028377361271"><ele>71.0</ele><time>2026-04-11T10:51:35Z</time></trkpt><trkpt lat="42.96499046470569" lon="10.782965038680834"><ele>71.0</ele><time>2026-04-11T10:51:36Z</time></trkpt><trkpt lat="42.96492062802007" lon="10.782953650790722"><ele>70.39999999999999</ele><time>2026-04-11T10:51:37Z</time></trkpt><trkpt lat="42.96485184774104" lon="10.782890879952676"><ele>69.8</ele><time>2026-04-11T10:51:38Z</time></trkpt><trkpt lat="42.96480925835342" lon="10.782767360235079"><ele>69.19999999999999</ele><time>2026-04-11T10:51:39Z</time></trkpt><trkpt lat="42.96477550621913" lon="10.78259764594064"><ele>68.6</ele><time>2026-04-11T10:51:40Z</time></trkpt><trkpt lat="42.96476269177158" lon="10.782415622274412"><ele>68.0</ele><time>2026-04-11T10:51:41Z</time></trkpt><trkpt lat="42.96474846144509" lon="10.782282282067461"><ele>69.33333333333334</ele><time>2026-04-11T10:51:42Z</time></trkpt><trkpt lat="42.96475439343083" lon="10.782187261613057"><ele>70.66666666666667</ele><time>2026-04-11T10:51:43Z</time></trkpt><trkpt lat="42.96474018713808" lon="10.782097999424762"><ele>72.0</ele><time>2026-04-11T10:51:44Z</time></trkpt><trkpt lat="42.96471909574942" lon="10.781982402525273"><ele>73.33333333333333</ele><time>2026-04-11T10:51:45Z</time></trkpt><trkpt lat="42.964668794744746" lon="10.781891646117737"><ele>74.66666666666666</ele><time>2026-04-11T10:51:46Z</time></trkpt><trkpt lat="42.96459156844679" lon="10.781806340800742"><ele>76.0</ele><time>2026-04-11T10:51:47Z</time></trkpt><trkpt lat="42.96448519344765" lon="10.781730310707767"><ele>75.66666666666666</ele><time>2026-04-11T10:51:48Z</time></trkpt><trkpt lat="42.96435300149581" lon="10.781645324053141"><ele>75.33333333333333</ele><time>2026-04-11T10:51:49Z</time></trkpt><trkpt lat="42.96420321310686" lon="10.781526231181193"><ele>75.0</ele><time>2026-04-11T10:51:50Z</time></trkpt><trkpt lat="42.9640447487969" lon="10.781377834013266"><ele>75.0</ele><time>2026-04-11T10:51:51Z</time></trkpt><trkpt lat="42.9638866147624" lon="10.781218650766961"><ele>75.0</ele><time>2026-04-11T10:51:52Z</time></trkpt><trkpt lat="42.96373368246956" lon="10.78105161356201"><ele>75.0</ele><time>2026-04-11T10:51:53Z</time></trkpt><trkpt lat="42.96359676942813" lon="10.780891382081444"><ele>75.66666666666667</ele><time>2026-04-11T10:51:54Z</time></trkpt><trkpt lat="42.96346807870826" lon="10.780734046017"><ele>76.33333333333334</ele><time>2026-04-11T10:51:55Z</time></trkpt><trkpt lat="42.9633394908372" lon="10.7805743633728"><ele>77.0</ele><time>2026-04-11T10:51:56Z</time></trkpt><trkpt lat="42.963216137809525" lon="10.780422428228524"><ele>77.0</ele><time>2026-04-11T10:51:57Z</time></trkpt><trkpt lat="42.96309820029412" lon="10.780279175468849"><ele>77.0</ele><time>2026-04-11T10:51:58Z</time></trkpt><trkpt lat="42.96297507264831" lon="10.780123940537651"><ele>77.0</ele><time>2026-04-11T10:51:59Z</time></trkpt><trkpt lat="42.96286922212547" lon="10.779995692754163"><ele>77.0</ele><time>2026-04-11T10:52:00Z</time></trkpt><trkpt lat="42.96276192049232" lon="10.779884296275833"><ele>77.0</ele><time>2026-04-11T10:52:01Z</time></trkpt><trkpt lat="42.96262328000993" lon="10.779902679163209"><ele>77.0</ele><time>2026-04-11T10:52:02Z</time></trkpt><trkpt lat="42.96251749955307" lon="10.779862343371077"><ele>77.0</ele><time>2026-04-11T10:52:03Z</time></trkpt><trkpt lat="42.96239358637338" lon="10.77981214339964"><ele>77.0</ele><time>2026-04-11T10:52:04Z</time></trkpt><trkpt lat="42.96227307055003" lon="10.779748868508287"><ele>77.0</ele><time>2026-04-11T10:52:05Z</time></trkpt><trkpt lat="42.96215583549027" lon="10.779693463206344"><ele>77.0</ele><time>2026-04-11T10:52:06Z</time></trkpt><trkpt lat="42.96203893502128" lon="10.779645132044054"><ele>77.0</ele><time>2026-04-11T10:52:07Z</time></trkpt><trkpt lat="42.96192831155561" lon="10.779607062289202"><ele>77.0</ele><time>2026-04-11T10:52:08Z</time></trkpt><trkpt lat="42.9618011128319" lon="10.77957183280758"><ele>77.0</ele><time>2026-04-11T10:52:09Z</time></trkpt><trkpt lat="42.96166768177406" lon="10.779562729936162"><ele>77.0</ele><time>2026-04-11T10:52:10Z</time></trkpt><trkpt lat="42.96152856050459" lon="10.779542605157008"><ele>77.0</ele><time>2026-04-11T10:52:11Z</time></trkpt><trkpt lat="42.96140630726846" lon="10.77942493449393"><ele>76.0</ele><time>2026-04-11T10:52:12Z</time></trkpt><trkpt lat="42.96126703060276" lon="10.779388748242257"><ele>75.0</ele><time>2026-04-11T10:52:13Z</time></trkpt><trkpt lat="42.96110425915286" lon="10.779364397779977"><ele>74.0</ele><time>2026-04-11T10:52:14Z</time></trkpt><trkpt lat="42.96096103126355" lon="10.779311297055983"><ele>74.75</ele><time>2026-04-11T10:52:15Z</time></trkpt><trkpt lat="42.96082440856204" lon="10.779276397296153"><ele>75.5</ele><time>2026-04-11T10:52:16Z</time></trkpt><trkpt lat="42.960708221389744" lon="10.779237739121507"><ele>76.25</ele><time>2026-04-11T10:52:17Z</time></trkpt><trkpt lat="42.96058334296558" lon="10.779195965709171"><ele>77.0</ele><time>2026-04-11T10:52:18Z</time></trkpt><trkpt lat="42.96046814275801" lon="10.77914701629384"><ele>77.0</ele><time>2026-04-11T10:52:19Z</time></trkpt><trkpt lat="42.96033522353139" lon="10.779098953997575"><ele>77.0</ele><time>2026-04-11T10:52:20Z</time></trkpt><trkpt lat="42.96022940900993" lon="10.779083340384018"><ele>77.0</ele><time>2026-04-11T10:52:21Z</time></trkpt><trkpt lat="42.960124399337595" lon="10.77905050070769"><ele>77.0</ele><time>2026-04-11T10:52:22Z</time></trkpt><trkpt lat="42.96002677140307" lon="10.779002436562994"><ele>75.75</ele><time>2026-04-11T10:52:23Z</time></trkpt><trkpt lat="42.95992524525175" lon="10.778937013218528"><ele>74.5</ele><time>2026-04-11T10:52:24Z</time></trkpt><trkpt lat="42.95980959093277" lon="10.778858912764953"><ele>73.25</ele><time>2026-04-11T10:52:25Z</time></trkpt><trkpt lat="42.95970995679755" lon="10.778742144004127"><ele>72.0</ele><time>2026-04-11T10:52:26Z</time></trkpt><trkpt lat="42.95964457509555" lon="10.778630342676133"><ele>72.0</ele><time>2026-04-11T10:52:27Z</time></trkpt><trkpt lat="42.95958316864183" lon="10.778539610425762"><ele>72.0</ele><time>2026-04-11T10:52:28Z</time></trkpt><trkpt lat="42.959521903098775" lon="10.77844985655388"><ele>72.0</ele><time>2026-04-11T10:52:29Z</time></trkpt><trkpt lat="42.95945975145572" lon="10.778387425429562"><ele>72.0</ele><time>2026-04-11T10:52:30Z</time></trkpt><trkpt lat="42.959383678846194" lon="10.77833454372628"><ele>72.0</ele><time>2026-04-11T10:52:31Z</time></trkpt><trkpt lat="42.959292103802234" lon="10.778253287078133"><ele>72.0</ele><time>2026-04-11T10:52:32Z</time></trkpt><trkpt lat="42.959184357622114" lon="10.778253198560982"><ele>72.0</ele><time>2026-04-11T10:52:33Z</time></trkpt><trkpt lat="42.95904720227881" lon="10.778259717707774"><ele>72.0</ele><time>2026-04-11T10:52:34Z</time></trkpt><trkpt lat="42.958897760517935" lon="10.778269575654791"><ele>72.0</ele><time>2026-04-11T10:52:35Z</time></trkpt><trkpt lat="42.958739285644725" lon="10.778282741973642"><ele>72.0</ele><time>2026-04-11T10:52:36Z</time></trkpt><trkpt lat="42.95858552820107" lon="10.778300267475629"><ele>72.0</ele><time>2026-04-11T10:52:37Z</time></trkpt><trkpt lat="42.958447705733086" lon="10.778322940779029"><ele>72.0</ele><time>2026-04-11T10:52:38Z</time></trkpt><trkpt lat="42.95832308662048" lon="10.778344068843925"><ele>72.0</ele><time>2026-04-11T10:52:39Z</time></trkpt><trkpt lat="42.95821332383116" lon="10.778354599285617"><ele>71.8</ele><time>2026-04-11T10:52:40Z</time></trkpt><trkpt lat="42.95812334786783" lon="10.778362186357588"><ele>71.6</ele><time>2026-04-11T10:52:41Z</time></trkpt><trkpt lat="42.95803742207415" lon="10.778343852261171"><ele>71.39999999999999</ele><time>2026-04-11T10:52:42Z</time></trkpt><trkpt lat="42.957951244237904" lon="10.778281672465361"><ele>71.2</ele><time>2026-04-11T10:52:43Z</time></trkpt><trkpt lat="42.957854216419555" lon="10.77816143952056"><ele>71.0</ele><time>2026-04-11T10:52:44Z</time></trkpt><trkpt lat="42.9577557741001" lon="10.778014764808521"><ele>71.0</ele><time>2026-04-11T10:52:45Z</time></trkpt><trkpt lat="42.9576790063856" lon="10.777868681681403"><ele>71.0</ele><time>2026-04-11T10:52:46Z</time></trkpt><trkpt lat="42.95760475328889" lon="10.777764318386323"><ele>71.0</ele><time>2026-04-11T10:52:47Z</time></trkpt><trkpt lat="42.95754948072457" lon="10.77767715155141"><ele>71.0</ele><time>2026-04-11T10:52:48Z</time></trkpt><trkpt lat="42.95750554897377" lon="10.77760878309377"><ele>71.0</ele><time>2026-04-11T10:52:49Z</time></trkpt><trkpt lat="42.957403551729435" lon="10.777502131381125"><ele>70.75</ele><time>2026-04-11T10:52:51Z</time></trkpt><trkpt lat="42.957321153534686" lon="10.77748277004325"><ele>70.5</ele><time>2026-04-11T10:52:52Z</time></trkpt><trkpt lat="42.957202192960864" lon="10.77748475359853"><ele>70.25</ele><time>2026-04-11T10:52:53Z</time></trkpt><trkpt lat="42.95706135303102" lon="10.77753097993608"><ele>70.0</ele><time>2026-04-11T10:52:54Z</time></trkpt><trkpt lat="42.95688651557717" lon="10.777609098711808"><ele>68.0</ele><time>2026-04-11T10:52:55Z</time></trkpt><trkpt lat="42.95670234492593" lon="10.777708387088975"><ele>66.0</ele><time>2026-04-11T10:52:56Z</time></trkpt><trkpt lat="42.956544383814986" lon="10.777793324064403"><ele>64.0</ele><time>2026-04-11T10:52:57Z</time></trkpt><trkpt lat="42.956407418816134" lon="10.777854993551747"><ele>64.0</ele><time>2026-04-11T10:52:58Z</time></trkpt><trkpt lat="42.95627217934155" lon="10.777902885534202"><ele>64.0</ele><time>2026-04-11T10:52:59Z</time></trkpt><trkpt lat="42.95612038574985" lon="10.777957508760787"><ele>64.0</ele><time>2026-04-11T10:53:00Z</time></trkpt><trkpt lat="42.95600737417332" lon="10.778060038241115"><ele>64.0</ele><time>2026-04-11T10:53:01Z</time></trkpt><trkpt lat="42.95590005420254" lon="10.7781149919407"><ele>63.33333333333333</ele><time>2026-04-11T10:53:02Z</time></trkpt><trkpt lat="42.95581569912977" lon="10.778101749012095"><ele>62.666666666666664</ele><time>2026-04-11T10:53:03Z</time></trkpt><trkpt lat="42.955739772166325" lon="10.778059664988312"><ele>62.0</ele><time>2026-04-11T10:53:04Z</time></trkpt><trkpt lat="42.95567362403055" lon="10.778006394698426"><ele>61.33333333333333</ele><time>2026-04-11T10:53:05Z</time></trkpt><trkpt lat="42.955605218281335" lon="10.777946767624671"><ele>60.666666666666664</ele><time>2026-04-11T10:53:06Z</time></trkpt><trkpt lat="42.95551093720476" lon="10.777876809266001"><ele>60.0</ele><time>2026-04-11T10:53:07Z</time></trkpt><trkpt lat="42.95541702461387" lon="10.77781680232545"><ele>60.0</ele><time>2026-04-11T10:53:08Z</time></trkpt><trkpt lat="42.95532446746179" lon="10.777766522720212"><ele>60.0</ele><time>2026-04-11T10:53:09Z</time></trkpt><trkpt lat="42.955234004318314" lon="10.777732243618017"><ele>60.0</ele><time>2026-04-11T10:53:10Z</time></trkpt><trkpt lat="42.95512161248186" lon="10.7776992458521"><ele>60.0</ele><time>2026-04-11T10:53:11Z</time></trkpt><trkpt lat="42.9550032628529" lon="10.777678796927669"><ele>60.0</ele><time>2026-04-11T10:53:12Z</time></trkpt><trkpt lat="42.954872761313275" lon="10.777665093570377"><ele>60.0</ele><time>2026-04-11T10:53:13Z</time></trkpt><trkpt lat="42.95473906592762" lon="10.7776460035791"><ele>60.0</ele><time>2026-04-11T10:53:14Z</time></trkpt><trkpt lat="42.95461246511587" lon="10.777639200437724"><ele>60.0</ele><time>2026-04-11T10:53:15Z</time></trkpt><trkpt lat="42.954484878473004" lon="10.777563434248027"><ele>60.0</ele><time>2026-04-11T10:53:16Z</time></trkpt><trkpt lat="42.95435340052915" lon="10.777538705065904"><ele>60.0</ele><time>2026-04-11T10:53:17Z</time></trkpt><trkpt lat="42.95422922005108" lon="10.777505107673864"><ele>60.0</ele><time>2026-04-11T10:53:18Z</time></trkpt><trkpt lat="42.95409765553319" lon="10.777399338859102"><ele>60.0</ele><time>2026-04-11T10:53:19Z</time></trkpt><trkpt lat="42.953948511223444" lon="10.777285458195978"><ele>59.66666666666667</ele><time>2026-04-11T10:53:20Z</time></trkpt><trkpt lat="42.953792367983326" lon="10.77716595438768"><ele>59.333333333333336</ele><time>2026-04-11T10:53:21Z</time></trkpt><trkpt lat="42.95364755447659" lon="10.777054955035533"><ele>59.0</ele><time>2026-04-11T10:53:22Z</time></trkpt><trkpt lat="42.95349647906499" lon="10.776939046255363"><ele>59.0</ele><time>2026-04-11T10:53:23Z</time></trkpt><trkpt lat="42.95335703022103" lon="10.776832057588813"><ele>59.0</ele><time>2026-04-11T10:53:24Z</time></trkpt><trkpt lat="42.95323521714969" lon="10.77673859954793"><ele>59.0</ele><time>2026-04-11T10:53:25Z</time></trkpt><trkpt lat="42.95311558803658" lon="10.776646817123408"><ele>59.0</ele><time>2026-04-11T10:53:26Z</time></trkpt><trkpt lat="42.95299861745072" lon="10.776582671748088"><ele>59.00000000000001</ele><time>2026-04-11T10:53:27Z</time></trkpt><trkpt lat="42.95291534426264" lon="10.776509298977123"><ele>59.0</ele><time>2026-04-11T10:53:28Z</time></trkpt><trkpt lat="42.952847199407174" lon="10.776454213620143"><ele>59.0</ele><time>2026-04-11T10:53:29Z</time></trkpt><trkpt lat="42.95277107804395" lon="10.776379828716895"><ele>59.0</ele><time>2026-04-11T10:53:31Z</time></trkpt><trkpt lat="42.95271375373622" lon="10.7763202313191"><ele>59.00000000000001</ele><time>2026-04-11T10:53:33Z</time></trkpt><trkpt lat="42.95270432149157" lon="10.7764279184647"><ele>59.0</ele><time>2026-04-11T10:54:51Z</time></trkpt><trkpt lat="42.952686978104175" lon="10.77656570559198"><ele>59.00000000000001</ele><time>2026-04-11T10:54:54Z</time></trkpt><trkpt lat="42.95265463237367" lon="10.776656045195942"><ele>59.0</ele><time>2026-04-11T10:54:55Z</time></trkpt><trkpt lat="42.952618285096385" lon="10.77675315685416"><ele>59.0</ele><time>2026-04-11T10:54:56Z</time></trkpt><trkpt lat="42.9525856957906" lon="10.77686452034625"><ele>59.0</ele><time>2026-04-11T10:54:57Z</time></trkpt><trkpt lat="42.952552900126705" lon="10.776975243018903"><ele>59.00000000000001</ele><time>2026-04-11T10:54:58Z</time></trkpt><trkpt lat="42.95252356332634" lon="10.777097024431791"><ele>59.0</ele><time>2026-04-11T10:54:59Z</time></trkpt><trkpt lat="42.952485387901305" lon="10.777220400167037"><ele>56.5</ele><time>2026-04-11T10:55:00Z</time></trkpt><trkpt lat="42.9524419450767" lon="10.777357271968924"><ele>54.0</ele><time>2026-04-11T10:55:01Z</time></trkpt><trkpt lat="42.95237268874574" lon="10.777496648442895"><ele>51.5</ele><time>2026-04-11T10:55:02Z</time></trkpt><trkpt lat="42.952299469677655" lon="10.777628557168521"><ele>49.0</ele><time>2026-04-11T10:55:03Z</time></trkpt><trkpt lat="42.95221159081923" lon="10.777729630481879"><ele>47.75</ele><time>2026-04-11T10:55:04Z</time></trkpt><trkpt lat="42.952104187400494" lon="10.777815738872722"><ele>46.5</ele><time>2026-04-11T10:55:05Z</time></trkpt><trkpt lat="42.95199741095313" lon="10.777899023969846"><ele>45.25</ele><time>2026-04-11T10:55:06Z</time></trkpt><trkpt lat="42.95190808972178" lon="10.777996812261122"><ele>44.0</ele><time>2026-04-11T10:55:07Z</time></trkpt><trkpt lat="42.951799050309646" lon="10.778095815901532"><ele>44.25</ele><time>2026-04-11T10:55:08Z</time></trkpt><trkpt lat="42.951702449182065" lon="10.77819689719832"><ele>44.5</ele><time>2026-04-11T10:55:09Z</time></trkpt><trkpt lat="42.95160716847127" lon="10.778283670522718"><ele>44.75</ele><time>2026-04-11T10:55:10Z</time></trkpt><trkpt lat="42.95151307820762" lon="10.778360813277565"><ele>45.0</ele><time>2026-04-11T10:55:11Z</time></trkpt><trkpt lat="42.95142188816013" lon="10.778437510437005"><ele>45.0</ele><time>2026-04-11T10:55:12Z</time></trkpt><trkpt lat="42.95133424867265" lon="10.778516919346252"><ele>45.0</ele><time>2026-04-11T10:55:13Z</time></trkpt><trkpt lat="42.951240974872604" lon="10.778592589069667"><ele>45.0</ele><time>2026-04-11T10:55:14Z</time></trkpt><trkpt lat="42.95115322070811" lon="10.778666749977406"><ele>45.0</ele><time>2026-04-11T10:55:15Z</time></trkpt><trkpt lat="42.95108287616762" lon="10.778758195857451"><ele>45.0</ele><time>2026-04-11T10:55:16Z</time></trkpt><trkpt lat="42.951020300135426" lon="10.778842573309776"><ele>44.4</ele><time>2026-04-11T10:55:17Z</time></trkpt><trkpt lat="42.95096112644569" lon="10.77894186937643"><ele>43.8</ele><time>2026-04-11T10:55:18Z</time></trkpt><trkpt lat="42.95090123905785" lon="10.779045696280306"><ele>43.2</ele><time>2026-04-11T10:55:19Z</time></trkpt><trkpt lat="42.9508454399124" lon="10.779156054349315"><ele>42.6</ele><time>2026-04-11T10:55:20Z</time></trkpt><trkpt lat="42.95080113217959" lon="10.779260276545932"><ele>42.0</ele><time>2026-04-11T10:55:21Z</time></trkpt><trkpt lat="42.9507605818798" lon="10.779345881653876"><ele>42.0</ele><time>2026-04-11T10:55:22Z</time></trkpt><trkpt lat="42.95072882794524" lon="10.779420273336042"><ele>42.0</ele><time>2026-04-11T10:55:23Z</time></trkpt><trkpt lat="42.950683176310186" lon="10.779534023510005"><ele>42.0</ele><time>2026-04-11T10:55:25Z</time></trkpt><trkpt lat="42.950647343840046" lon="10.779397732782426"><ele>42.0</ele><time>2026-04-11T10:55:33.001Z</time></trkpt><trkpt lat="42.950696090248215" lon="10.779312281306732"><ele>42.0</ele><time>2026-04-11T10:55:34.001Z</time></trkpt><trkpt lat="42.95074630730901" lon="10.779199809057376"><ele>42.0</ele><time>2026-04-11T10:55:35.001Z</time></trkpt><trkpt lat="42.95080178303899" lon="10.779080657691102"><ele>42.0</ele><time>2026-04-11T10:55:36.001Z</time></trkpt><trkpt lat="42.95085671662921" lon="10.778962718634956"><ele>42.0</ele><time>2026-04-11T10:55:37.001Z</time></trkpt><trkpt lat="42.95091215627541" lon="10.778847666818995"><ele>42.0</ele><time>2026-04-11T10:55:38.001Z</time></trkpt><trkpt lat="42.950971155483714" lon="10.778737669610347"><ele>42.0</ele><time>2026-04-11T10:55:39.001Z</time></trkpt><trkpt lat="42.95103738818201" lon="10.778633418098384"><ele>42.0</ele><time>2026-04-11T10:55:40.001Z</time></trkpt><trkpt lat="42.951107495792634" lon="10.77851974530068"><ele>42.5</ele><time>2026-04-11T10:55:41.001Z</time></trkpt><trkpt lat="42.95118646528032" lon="10.778440805055283"><ele>43.0</ele><time>2026-04-11T10:55:42.001Z</time></trkpt><trkpt lat="42.951257639300714" lon="10.778379101036979"><ele>43.5</ele><time>2026-04-11T10:55:43.001Z</time></trkpt><trkpt lat="42.95132583046453" lon="10.778332810408351"><ele>44.0</ele><time>2026-04-11T10:55:44.001Z</time></trkpt><trkpt lat="42.95139810169167" lon="10.77827582465677"><ele>44.5</ele><time>2026-04-11T10:55:45.001Z</time></trkpt><trkpt lat="42.951475406092854" lon="10.778219384980012"><ele>45.0</ele><time>2026-04-11T10:55:46.001Z</time></trkpt><trkpt lat="42.9515263630545" lon="10.778077990135708"><ele>45.0</ele><time>2026-04-11T10:55:47.001Z</time></trkpt><trkpt lat="42.951514519296865" lon="10.777941435386662"><ele>45.0</ele><time>2026-04-11T10:55:48.001Z</time></trkpt><trkpt lat="42.951472959451486" lon="10.777825343204332"><ele>45.0</ele><time>2026-04-11T10:55:49.001Z</time></trkpt><trkpt lat="42.951415271824914" lon="10.77770197100622"><ele>45.0</ele><time>2026-04-11T10:55:50.001Z</time></trkpt><trkpt lat="42.951352030510094" lon="10.777570765155422"><ele>45.0</ele><time>2026-04-11T10:55:51.001Z</time></trkpt><trkpt lat="42.951285771840546" lon="10.777426436397555"><ele>45.75</ele><time>2026-04-11T10:55:52.001Z</time></trkpt><trkpt lat="42.95121660579276" lon="10.777276020399759"><ele>46.5</ele><time>2026-04-11T10:55:53.001Z</time></trkpt><trkpt lat="42.9511493232475" lon="10.777129700593283"><ele>47.25</ele><time>2026-04-11T10:55:54.001Z</time></trkpt><trkpt lat="42.951090008354" lon="10.777002018654569"><ele>48.0</ele><time>2026-04-11T10:55:55.001Z</time></trkpt><trkpt lat="42.951042600804584" lon="10.7769001527388"><ele>48.166666666666664</ele><time>2026-04-11T10:55:56.001Z</time></trkpt><trkpt lat="42.951004207195574" lon="10.776818898700501"><ele>48.33333333333333</ele><time>2026-04-11T10:55:57.001Z</time></trkpt><trkpt lat="42.95096682500073" lon="10.776740223935182"><ele>48.5</ele><time>2026-04-11T10:55:58.001Z</time></trkpt><trkpt lat="42.95092313384474" lon="10.776648271093807"><ele>48.666666666666664</ele><time>2026-04-11T10:55:59.001Z</time></trkpt><trkpt lat="42.950869903614766" lon="10.776536242449552"><ele>48.83333333333333</ele><time>2026-04-11T10:56:00.001Z</time></trkpt><trkpt lat="42.95079561626059" lon="10.776398167169067"><ele>49.0</ele><time>2026-04-11T10:56:01.001Z</time></trkpt><trkpt lat="42.95071613002012" lon="10.776219877880326"><ele>49.0</ele><time>2026-04-11T10:56:02.001Z</time></trkpt><trkpt lat="42.95063071678089" lon="10.776036131463107"><ele>49.0</ele><time>2026-04-11T10:56:03.001Z</time></trkpt><trkpt lat="42.95056044971252" lon="10.775861552642958"><ele>49.0</ele><time>2026-04-11T10:56:04.001Z</time></trkpt><trkpt lat="42.950493789508535" lon="10.775708759760665"><ele>49.0</ele><time>2026-04-11T10:56:05.001Z</time></trkpt><trkpt lat="42.95043254411183" lon="10.77556241216923"><ele>49.0</ele><time>2026-04-11T10:56:06.001Z</time></trkpt><trkpt lat="42.9503777392653" lon="10.775410104347193"><ele>49.0</ele><time>2026-04-11T10:56:07.001Z</time></trkpt><trkpt lat="42.95031670650058" lon="10.775257657786364"><ele>49.0</ele><time>2026-04-11T10:56:08.001Z</time></trkpt><trkpt lat="42.9502517196797" lon="10.775103434231283"><ele>49.0</ele><time>2026-04-11T10:56:09.001Z</time></trkpt><trkpt lat="42.95018505796085" lon="10.77494505104651"><ele>49.25</ele><time>2026-04-11T10:56:10.001Z</time></trkpt><trkpt lat="42.950129804397044" lon="10.774776830345678"><ele>49.5</ele><time>2026-04-11T10:56:11.001Z</time></trkpt><trkpt lat="42.950070873581566" lon="10.774630367058604"><ele>49.75</ele><time>2026-04-11T10:56:12.001Z</time></trkpt><trkpt lat="42.95000487461531" lon="10.774508606994113"><ele>50.0</ele><time>2026-04-11T10:56:13.001Z</time></trkpt><trkpt lat="42.94995252707764" lon="10.774390700123469"><ele>51.0</ele><time>2026-04-11T10:56:14.001Z</time></trkpt><trkpt lat="42.94990899800877" lon="10.774264040271571"><ele>52.0</ele><time>2026-04-11T10:56:15.001Z</time></trkpt><trkpt lat="42.949832256672664" lon="10.774166122442049"><ele>53.0</ele><time>2026-04-11T10:56:16.001Z</time></trkpt><trkpt lat="42.949720706578695" lon="10.774061493529887"><ele>54.0</ele><time>2026-04-11T10:56:17.001Z</time></trkpt><trkpt lat="42.94957613298263" lon="10.773958098701694"><ele>54.0</ele><time>2026-04-11T10:56:18.001Z</time></trkpt><trkpt lat="42.9494332277857" lon="10.773858849296092"><ele>54.0</ele><time>2026-04-11T10:56:19.001Z</time></trkpt><trkpt lat="42.94930693333096" lon="10.773762378960926"><ele>54.0</ele><time>2026-04-11T10:56:20.001Z</time></trkpt><trkpt lat="42.94917899322313" lon="10.773688217705782"><ele>54.0</ele><time>2026-04-11T10:56:21.001Z</time></trkpt><trkpt lat="42.949062055430566" lon="10.773599021111636"><ele>54.25</ele><time>2026-04-11T10:56:22.001Z</time></trkpt><trkpt lat="42.948942236626166" lon="10.773509670957377"><ele>54.5</ele><time>2026-04-11T10:56:23.001Z</time></trkpt><trkpt lat="42.94882656323904" lon="10.773417708702798"><ele>54.75</ele><time>2026-04-11T10:56:24.001Z</time></trkpt><trkpt lat="42.94871877293989" lon="10.773313112810674"><ele>55.0</ele><time>2026-04-11T10:56:25.001Z</time></trkpt><trkpt lat="42.94858636210183" lon="10.773293169400958"><ele>55.0</ele><time>2026-04-11T10:56:26.001Z</time></trkpt><trkpt lat="42.94846140367019" lon="10.773271894490897"><ele>55.0</ele><time>2026-04-11T10:56:27.001Z</time></trkpt><trkpt lat="42.948275538027325" lon="10.77325739530639"><ele>55.0</ele><time>2026-04-11T10:56:28.001Z</time></trkpt><trkpt lat="42.94809680278098" lon="10.773376573280308"><ele>53.666666666666664</ele><time>2026-04-11T10:56:29.001Z</time></trkpt><trkpt lat="42.947964089040134" lon="10.773272159681524"><ele>52.33333333333333</ele><time>2026-04-11T10:56:30.001Z</time></trkpt><trkpt lat="42.947828651640926" lon="10.773173812345535"><ele>51.0</ele><time>2026-04-11T10:56:31.001Z</time></trkpt><trkpt lat="42.94769723512884" lon="10.773072287650592"><ele>51.0</ele><time>2026-04-11T10:56:32.001Z</time></trkpt><trkpt lat="42.94756662056568" lon="10.77296501261082"><ele>51.0</ele><time>2026-04-11T10:56:33.001Z</time></trkpt><trkpt lat="42.94743752111638" lon="10.772852331975178"><ele>51.0</ele><time>2026-04-11T10:56:34.001Z</time></trkpt><trkpt lat="42.94730528401647" lon="10.772740051964103"><ele>51.0</ele><time>2026-04-11T10:56:35.001Z</time></trkpt><trkpt lat="42.94717862139138" lon="10.772634651141487"><ele>51.0</ele><time>2026-04-11T10:56:36.001Z</time></trkpt><trkpt lat="42.947045440513605" lon="10.772519111715237"><ele>51.0</ele><time>2026-04-11T10:56:37.001Z</time></trkpt><trkpt lat="42.9469100359417" lon="10.772396533086354"><ele>51.0</ele><time>2026-04-11T10:56:38.001Z</time></trkpt><trkpt lat="42.94677484922214" lon="10.77227468076814"><ele>51.0</ele><time>2026-04-11T10:56:39.001Z</time></trkpt><trkpt lat="42.94663316211944" lon="10.772127840234814"><ele>51.0</ele><time>2026-04-11T10:56:40.001Z</time></trkpt><trkpt lat="42.94651683486176" lon="10.772017782762589"><ele>50.4</ele><time>2026-04-11T10:56:41.001Z</time></trkpt><trkpt lat="42.94642305345849" lon="10.771915024625908"><ele>49.8</ele><time>2026-04-11T10:56:42.001Z</time></trkpt><trkpt lat="42.94633463541527" lon="10.771824899964855"><ele>49.199999999999996</ele><time>2026-04-11T10:56:43.001Z</time></trkpt><trkpt lat="42.946270436226406" lon="10.771725939980064"><ele>48.599999999999994</ele><time>2026-04-11T10:56:44.001Z</time></trkpt><trkpt lat="42.9461968509942" lon="10.771629004859676"><ele>48.0</ele><time>2026-04-11T10:56:45.001Z</time></trkpt><trkpt lat="42.946114679740205" lon="10.771525975599005"><ele>48.0</ele><time>2026-04-11T10:56:46.001Z</time></trkpt><trkpt lat="42.946028010670126" lon="10.771425330319543"><ele>48.0</ele><time>2026-04-11T10:56:47.001Z</time></trkpt><trkpt lat="42.94593971648627" lon="10.771335417795802"><ele>48.0</ele><time>2026-04-11T10:56:48.001Z</time></trkpt><trkpt lat="42.94584711901258" lon="10.771236238089273"><ele>48.0</ele><time>2026-04-11T10:56:49.001Z</time></trkpt><trkpt lat="42.945751625101124" lon="10.771140428026872"><ele>47.5</ele><time>2026-04-11T10:56:50.001Z</time></trkpt><trkpt lat="42.94566400954196" lon="10.771056616224714"><ele>47.0</ele><time>2026-04-11T10:56:51.001Z</time></trkpt><trkpt lat="42.945567685224674" lon="10.770958097453605"><ele>46.5</ele><time>2026-04-11T10:56:52.001Z</time></trkpt><trkpt lat="42.94545926870908" lon="10.770874117574458"><ele>46.0</ele><time>2026-04-11T10:56:53.001Z</time></trkpt><trkpt lat="42.94533397734187" lon="10.770797841412781"><ele>46.0</ele><time>2026-04-11T10:56:54.001Z</time></trkpt><trkpt lat="42.945211006157834" lon="10.770703204064638"><ele>46.0</ele><time>2026-04-11T10:56:55.001Z</time></trkpt><trkpt lat="42.94509850019174" lon="10.77061568723004"><ele>46.0</ele><time>2026-04-11T10:56:56.001Z</time></trkpt><trkpt lat="42.94498352367172" lon="10.77052887600277"><ele>46.0</ele><time>2026-04-11T10:56:57.001Z</time></trkpt><trkpt lat="42.944879343736595" lon="10.770447207836517"><ele>45.75</ele><time>2026-04-11T10:56:58.001Z</time></trkpt><trkpt lat="42.94476883692924" lon="10.770362114562507"><ele>45.5</ele><time>2026-04-11T10:56:59.001Z</time></trkpt><trkpt lat="42.94467296879734" lon="10.77024513112463"><ele>45.25</ele><time>2026-04-11T10:57:00Z</time></trkpt><trkpt lat="42.94457819687468" lon="10.770146961513076"><ele>45.0</ele><time>2026-04-11T10:57:01Z</time></trkpt><trkpt lat="42.94447575033957" lon="10.770038703617418"><ele>45.0</ele><time>2026-04-11T10:57:02Z</time></trkpt><trkpt lat="42.94436292727606" lon="10.769943540260567"><ele>45.0</ele><time>2026-04-11T10:57:03Z</time></trkpt><trkpt lat="42.94423491834779" lon="10.769853792302237"><ele>45.0</ele><time>2026-04-11T10:57:04Z</time></trkpt><trkpt lat="42.9441094754414" lon="10.769763011436178"><ele>45.0</ele><time>2026-04-11T10:57:05Z</time></trkpt><trkpt lat="42.94399207395465" lon="10.76968413764545"><ele>44.25</ele><time>2026-04-11T10:57:06Z</time></trkpt><trkpt lat="42.94388387021573" lon="10.769609374443435"><ele>43.5</ele><time>2026-04-11T10:57:07Z</time></trkpt><trkpt lat="42.94376904685107" lon="10.769571169588371"><ele>42.75</ele><time>2026-04-11T10:57:08Z</time></trkpt><trkpt lat="42.943654412747655" lon="10.769541792326685"><ele>42.0</ele><time>2026-04-11T10:57:09Z</time></trkpt><trkpt lat="42.943532076128406" lon="10.769503048836368"><ele>42.0</ele><time>2026-04-11T10:57:10Z</time></trkpt><trkpt lat="42.94341006881621" lon="10.769476377591662"><ele>42.0</ele><time>2026-04-11T10:57:11Z</time></trkpt><trkpt lat="42.94327529838722" lon="10.769441428269833"><ele>42.0</ele><time>2026-04-11T10:57:12Z</time></trkpt><trkpt lat="42.94315022183749" lon="10.769406562381832"><ele>42.0</ele><time>2026-04-11T10:57:13Z</time></trkpt><trkpt lat="42.943033779881816" lon="10.769371785094142"><ele>42.25</ele><time>2026-04-11T10:57:14Z</time></trkpt><trkpt lat="42.94292701527714" lon="10.769341714137536"><ele>42.5</ele><time>2026-04-11T10:57:15Z</time></trkpt><trkpt lat="42.94281526749666" lon="10.769312536823222"><ele>42.75</ele><time>2026-04-11T10:57:16Z</time></trkpt><trkpt lat="42.94270115864013" lon="10.769314269368419"><ele>43.0</ele><time>2026-04-11T10:57:17Z</time></trkpt><trkpt lat="42.94257905972208" lon="10.769311234330996"><ele>42.0</ele><time>2026-04-11T10:57:18Z</time></trkpt><trkpt lat="42.942431681468136" lon="10.769288503775243"><ele>41.0</ele><time>2026-04-11T10:57:19Z</time></trkpt><trkpt lat="42.942299759127984" lon="10.769259634522703"><ele>40.0</ele><time>2026-04-11T10:57:20Z</time></trkpt><trkpt lat="42.94218127929457" lon="10.76920340405197"><ele>39.0</ele><time>2026-04-11T10:57:21Z</time></trkpt><trkpt lat="42.94207588491435" lon="10.769150051501166"><ele>39.0</ele><time>2026-04-11T10:57:22Z</time></trkpt><trkpt lat="42.94198011724747" lon="10.769092253755465"><ele>39.0</ele><time>2026-04-11T10:57:23Z</time></trkpt><trkpt lat="42.941888991642024" lon="10.76902496016666"><ele>39.0</ele><time>2026-04-11T10:57:24Z</time></trkpt><trkpt lat="42.94178494444336" lon="10.768951910228775"><ele>39.0</ele><time>2026-04-11T10:57:25Z</time></trkpt><trkpt lat="42.941686182299286" lon="10.768878238984378"><ele>39.0</ele><time>2026-04-11T10:57:26Z</time></trkpt><trkpt lat="42.941601091272915" lon="10.768791220013673"><ele>39.0</ele><time>2026-04-11T10:57:27Z</time></trkpt><trkpt lat="42.941521022641886" lon="10.768683624257868"><ele>39.0</ele><time>2026-04-11T10:57:28Z</time></trkpt><trkpt lat="42.94143420802715" lon="10.768547528298608"><ele>39.0</ele><time>2026-04-11T10:57:29Z</time></trkpt><trkpt lat="42.94135314337357" lon="10.768420050916433"><ele>39.0</ele><time>2026-04-11T10:57:30Z</time></trkpt><trkpt lat="42.941286339959035" lon="10.768304266896571"><ele>39.0</ele><time>2026-04-11T10:57:31Z</time></trkpt><trkpt lat="42.94124094829859" lon="10.76821122758887"><ele>39.0</ele><time>2026-04-11T10:57:32Z</time></trkpt><trkpt lat="42.94122452634082" lon="10.768030991224409"><ele>39.0</ele><time>2026-04-11T10:57:34Z</time></trkpt><trkpt lat="42.94120227646999" lon="10.767908879923487"><ele>39.0</ele><time>2026-04-11T10:57:35Z</time></trkpt><trkpt lat="42.94115592548068" lon="10.767757503273629"><ele>39.0</ele><time>2026-04-11T10:57:36Z</time></trkpt><trkpt lat="42.94111110341791" lon="10.767560144201786"><ele>39.666666666666664</ele><time>2026-04-11T10:57:37Z</time></trkpt><trkpt lat="42.94105919852947" lon="10.76733234352656"><ele>40.33333333333333</ele><time>2026-04-11T10:57:38Z</time></trkpt><trkpt lat="42.94099962517505" lon="10.767099245422438"><ele>41.0</ele><time>2026-04-11T10:57:39Z</time></trkpt><trkpt lat="42.94095533285221" lon="10.76691235871626"><ele>40.599999999999994</ele><time>2026-04-11T10:57:40Z</time></trkpt><trkpt lat="42.940914718632655" lon="10.766750977878795"><ele>40.199999999999996</ele><time>2026-04-11T10:57:41Z</time></trkpt><trkpt lat="42.94089103189745" lon="10.766598590836729"><ele>39.8</ele><time>2026-04-11T10:57:42Z</time></trkpt><trkpt lat="42.940868840118696" lon="10.766461049520093"><ele>39.4</ele><time>2026-04-11T10:57:43Z</time></trkpt><trkpt lat="42.9408576090138" lon="10.766356970748125"><ele>39.0</ele><time>2026-04-11T10:57:44Z</time></trkpt><trkpt lat="42.94085751984361" lon="10.766231643558836"><ele>39.0</ele><time>2026-04-11T10:57:46Z</time></trkpt><trkpt lat="42.94086206288476" lon="10.76613952786503"><ele>39.0</ele><time>2026-04-11T10:57:48Z</time></trkpt><trkpt lat="42.9409375527432" lon="10.766036029988696"><ele>39.0</ele><time>2026-04-11T10:58:47Z</time></trkpt><trkpt lat="42.94093942933417" lon="10.765881481636328"><ele>39.0</ele><time>2026-04-11T10:58:54Z</time></trkpt><trkpt lat="42.94093066880508" lon="10.765731730572803"><ele>39.0</ele><time>2026-04-11T10:58:55Z</time></trkpt><trkpt lat="42.940952755728524" lon="10.765561803467243"><ele>39.333333333333336</ele><time>2026-04-11T10:58:56Z</time></trkpt><trkpt lat="42.94096417905173" lon="10.76535975335483"><ele>39.66666666666667</ele><time>2026-04-11T10:58:57Z</time></trkpt><trkpt lat="42.9409837126402" lon="10.765117145297415"><ele>40.0</ele><time>2026-04-11T10:58:58Z</time></trkpt><trkpt lat="42.941004978368184" lon="10.76489800569079"><ele>40.75</ele><time>2026-04-11T10:58:59Z</time></trkpt><trkpt lat="42.94100960881727" lon="10.76471046563376"><ele>41.5</ele><time>2026-04-11T10:59:00Z</time></trkpt><trkpt lat="42.94100235966668" lon="10.764529159180283"><ele>42.25</ele><time>2026-04-11T10:59:01Z</time></trkpt><trkpt lat="42.94098149180661" lon="10.764353064745965"><ele>43.0</ele><time>2026-04-11T10:59:02Z</time></trkpt><trkpt lat="42.940955576695586" lon="10.764181552767175"><ele>42.25</ele><time>2026-04-11T10:59:03Z</time></trkpt><trkpt lat="42.940913392490465" lon="10.764020256019608"><ele>41.5</ele><time>2026-04-11T10:59:04Z</time></trkpt><trkpt lat="42.94086188890341" lon="10.763883476640698"><ele>40.75</ele><time>2026-04-11T10:59:05Z</time></trkpt><trkpt lat="42.94080202740368" lon="10.763759812373056"><ele>40.0</ele><time>2026-04-11T10:59:06Z</time></trkpt><trkpt lat="42.94072082458006" lon="10.763638174533494"><ele>40.75</ele><time>2026-04-11T10:59:07Z</time></trkpt><trkpt lat="42.9406291345632" lon="10.76353021535437"><ele>41.5</ele><time>2026-04-11T10:59:08Z</time></trkpt><trkpt lat="42.9405526024037" lon="10.763408153665676"><ele>42.25</ele><time>2026-04-11T10:59:09Z</time></trkpt><trkpt lat="42.94049168268648" lon="10.763261920841673"><ele>43.0</ele><time>2026-04-11T10:59:10Z</time></trkpt><trkpt lat="42.94045009410814" lon="10.763090592672187"><ele>43.0</ele><time>2026-04-11T10:59:11Z</time></trkpt><trkpt lat="42.94040965319666" lon="10.762906164112671"><ele>43.0</ele><time>2026-04-11T10:59:12Z</time></trkpt><trkpt lat="42.94037160958815" lon="10.762723712051514"><ele>43.0</ele><time>2026-04-11T10:59:13Z</time></trkpt><trkpt lat="42.940337535417115" lon="10.762550955550587"><ele>43.0</ele><time>2026-04-11T10:59:14Z</time></trkpt><trkpt lat="42.94031703828692" lon="10.762385911172409"><ele>43.25</ele><time>2026-04-11T10:59:15Z</time></trkpt><trkpt lat="42.94031003516972" lon="10.762219523987131"><ele>43.5</ele><time>2026-04-11T10:59:16Z</time></trkpt><trkpt lat="42.94031820910578" lon="10.762039146359186"><ele>43.75</ele><time>2026-04-11T10:59:17Z</time></trkpt><trkpt lat="42.94033239503184" lon="10.761847358436777"><ele>44.0</ele><time>2026-04-11T10:59:18Z</time></trkpt><trkpt lat="42.94033495106495" lon="10.761605762148683"><ele>43.0</ele><time>2026-04-11T10:59:19Z</time></trkpt><trkpt lat="42.94034423162893" lon="10.76133886349236"><ele>42.0</ele><time>2026-04-11T10:59:20Z</time></trkpt><trkpt lat="42.94035800960966" lon="10.761092829644285"><ele>41.0</ele><time>2026-04-11T10:59:21Z</time></trkpt><trkpt lat="42.9403813320105" lon="10.76089540748714"><ele>41.0</ele><time>2026-04-11T10:59:22Z</time></trkpt><trkpt lat="42.94039464409765" lon="10.76072220145546"><ele>41.0</ele><time>2026-04-11T10:59:23Z</time></trkpt><trkpt lat="42.94040789911918" lon="10.760571306275356"><ele>41.0</ele><time>2026-04-11T10:59:24Z</time></trkpt><trkpt lat="42.94041447373443" lon="10.760442711500996"><ele>41.0</ele><time>2026-04-11T10:59:25Z</time></trkpt><trkpt lat="42.940422748743856" lon="10.760331990437404"><ele>41.0</ele><time>2026-04-11T10:59:26Z</time></trkpt><trkpt lat="42.94042965940144" lon="10.760218436939773"><ele>38.75</ele><time>2026-04-11T10:59:27Z</time></trkpt><trkpt lat="42.94045359625971" lon="10.760085568457926"><ele>36.5</ele><time>2026-04-11T10:59:28Z</time></trkpt><trkpt lat="42.940475071067475" lon="10.75992508594428"><ele>34.25</ele><time>2026-04-11T10:59:29Z</time></trkpt><trkpt lat="42.9404996493596" lon="10.759735297391703"><ele>32.0</ele><time>2026-04-11T10:59:30Z</time></trkpt><trkpt lat="42.94052494017151" lon="10.759554550292732"><ele>32.0</ele><time>2026-04-11T10:59:31Z</time></trkpt><trkpt lat="42.9405573898456" lon="10.759384823523995"><ele>32.0</ele><time>2026-04-11T10:59:32Z</time></trkpt><trkpt lat="42.94061788914669" lon="10.759216927464697"><ele>32.0</ele><time>2026-04-11T10:59:33Z</time></trkpt><trkpt lat="42.9406918045992" lon="10.759051761476028"><ele>32.0</ele><time>2026-04-11T10:59:34Z</time></trkpt><trkpt lat="42.94076127031841" lon="10.758895544450805"><ele>32.0</ele><time>2026-04-11T10:59:35Z</time></trkpt><trkpt lat="42.94083674090279" lon="10.758756391182727"><ele>32.0</ele><time>2026-04-11T10:59:36Z</time></trkpt><trkpt lat="42.94091514902486" lon="10.758621134156522"><ele>32.0</ele><time>2026-04-11T10:59:37Z</time></trkpt><trkpt lat="42.94098310291435" lon="10.758480790879293"><ele>32.0</ele><time>2026-04-11T10:59:38Z</time></trkpt><trkpt lat="42.941075875649474" lon="10.758321514898126"><ele>32.0</ele><time>2026-04-11T10:59:39Z</time></trkpt><trkpt lat="42.941157456039846" lon="10.758156548189087"><ele>32.0</ele><time>2026-04-11T10:59:40Z</time></trkpt><trkpt lat="42.941231581688896" lon="10.757986547701798"><ele>32.0</ele><time>2026-04-11T10:59:41Z</time></trkpt><trkpt lat="42.9413009391334" lon="10.757818014478508"><ele>32.0</ele><time>2026-04-11T10:59:42Z</time></trkpt><trkpt lat="42.941362513100884" lon="10.757649364820693"><ele>32.25</ele><time>2026-04-11T10:59:43Z</time></trkpt><trkpt lat="42.941427385377786" lon="10.757484631408905"><ele>32.5</ele><time>2026-04-11T10:59:44Z</time></trkpt><trkpt lat="42.941480216715526" lon="10.75730618258259"><ele>32.75</ele><time>2026-04-11T10:59:45Z</time></trkpt><trkpt lat="42.94152583065227" lon="10.757137893252187"><ele>33.0</ele><time>2026-04-11T10:59:46Z</time></trkpt><trkpt lat="42.941571150751265" lon="10.756992512026784"><ele>33.0</ele><time>2026-04-11T10:59:47Z</time></trkpt><trkpt lat="42.94160925879192" lon="10.756871745393195"><ele>33.0</ele><time>2026-04-11T10:59:48Z</time></trkpt><trkpt lat="42.941632900224846" lon="10.756788589186057"><ele>33.0</ele><time>2026-04-11T10:59:49Z</time></trkpt><trkpt lat="42.941648826554015" lon="10.756653283146253"><ele>33.0</ele><time>2026-04-11T10:59:51Z</time></trkpt><trkpt lat="42.94164047041613" lon="10.75654667933142"><ele>33.0</ele><time>2026-04-11T10:59:54Z</time></trkpt><trkpt lat="42.94157539680905" lon="10.756498422212577"><ele>33.0</ele><time>2026-04-11T10:59:56Z</time></trkpt><trkpt lat="42.94150978174329" lon="10.75650282135999"><ele>32.75</ele><time>2026-04-11T10:59:57Z</time></trkpt><trkpt lat="42.94139634206317" lon="10.756486023087747"><ele>32.5</ele><time>2026-04-11T10:59:58Z</time></trkpt><trkpt lat="42.9412696223357" lon="10.756458842228424"><ele>32.25</ele><time>2026-04-11T10:59:59Z</time></trkpt><trkpt lat="42.94112390265945" lon="10.756416359758616"><ele>32.0</ele><time>2026-04-11T11:00:00Z</time></trkpt><trkpt lat="42.94096243103554" lon="10.756396548500035"><ele>31.0</ele><time>2026-04-11T11:00:01Z</time></trkpt><trkpt lat="42.94081152374612" lon="10.756306199217509"><ele>30.0</ele><time>2026-04-11T11:00:02Z</time></trkpt><trkpt lat="42.94065530681727" lon="10.756251525257811"><ele>29.0</ele><time>2026-04-11T11:00:03Z</time></trkpt><trkpt lat="42.940477734235934" lon="10.756189527581277"><ele>29.0</ele><time>2026-04-11T11:00:04Z</time></trkpt><trkpt lat="42.940312276939046" lon="10.756132404690412"><ele>29.0</ele><time>2026-04-11T11:00:05Z</time></trkpt><trkpt lat="42.940148438243185" lon="10.756073316421663"><ele>29.0</ele><time>2026-04-11T11:00:06Z</time></trkpt><trkpt lat="42.939990009678155" lon="10.756015214844027"><ele>27.799999999999997</ele><time>2026-04-11T11:00:07Z</time></trkpt><trkpt lat="42.93983606527024" lon="10.755942562072395"><ele>26.599999999999998</ele><time>2026-04-11T11:00:08Z</time></trkpt><trkpt lat="42.9397422623184" lon="10.755885602996086"><ele>25.4</ele><time>2026-04-11T11:00:09Z</time></trkpt><trkpt lat="42.93966434855057" lon="10.755859683342596"><ele>24.2</ele><time>2026-04-11T11:00:10Z</time></trkpt><trkpt lat="42.939595985019906" lon="10.755828454585858"><ele>23.0</ele><time>2026-04-11T11:00:11Z</time></trkpt><trkpt lat="42.93952349865715" lon="10.755785690960241"><ele>23.0</ele><time>2026-04-11T11:00:12Z</time></trkpt><trkpt lat="42.93950331119928" lon="10.755647249208028"><ele>23.0</ele><time>2026-04-11T11:00:15Z</time></trkpt><trkpt lat="42.939564315432975" lon="10.755596326167003"><ele>23.0</ele><time>2026-04-11T11:00:17Z</time></trkpt><trkpt lat="42.93961680704758" lon="10.75553910880706"><ele>23.0</ele><time>2026-04-11T11:00:18Z</time></trkpt><trkpt lat="42.939675883387594" lon="10.755474713926299"><ele>23.0</ele><time>2026-04-11T11:00:19Z</time></trkpt><trkpt lat="42.939740211120366" lon="10.755404595052191"><ele>23.0</ele><time>2026-04-11T11:00:20Z</time></trkpt><trkpt lat="42.93979514691998" lon="10.75534826936366"><ele>22.599999999999998</ele><time>2026-04-11T11:00:21Z</time></trkpt><trkpt lat="42.93981048660853" lon="10.755186006227348"><ele>22.2</ele><time>2026-04-11T11:00:23Z</time></trkpt><trkpt lat="42.93979776880271" lon="10.755094796754749"><ele>21.8</ele><time>2026-04-11T11:00:24Z</time></trkpt><trkpt lat="42.93972081332432" lon="10.754960208607564"><ele>21.4</ele><time>2026-04-11T11:00:26Z</time></trkpt><trkpt lat="42.939676731270005" lon="10.754862604608354"><ele>21.0</ele><time>2026-04-11T11:00:27Z</time></trkpt><trkpt lat="42.939614323363095" lon="10.754786925702296"><ele>21.0</ele><time>2026-04-11T11:00:28Z</time></trkpt><trkpt lat="42.939567730820656" lon="10.754679964235452"><ele>21.0</ele><time>2026-04-11T11:00:29Z</time></trkpt><trkpt lat="42.93957889853623" lon="10.754548611094776"><ele>21.0</ele><time>2026-04-11T11:00:31Z</time></trkpt><trkpt lat="42.93949935633009" lon="10.754495341229173"><ele>21.0</ele><time>2026-04-11T11:00:38Z</time></trkpt><trkpt lat="42.93950547414178" lon="10.75440302241189"><ele>21.0</ele><time>2026-04-11T11:00:48Z</time></trkpt><trkpt lat="42.93956554752363" lon="10.754441500245559"><ele>21.0</ele><time>2026-04-11T11:01:07Z</time></trkpt><trkpt lat="42.93956229280787" lon="10.75435317021362"><ele>21.4</ele><time>2026-04-11T11:01:30Z</time></trkpt><trkpt lat="42.93952670491611" lon="10.7542800525963"><ele>21.8</ele><time>2026-04-11T11:02:05Z</time></trkpt><trkpt lat="42.93949496830406" lon="10.754183897207248"><ele>22.2</ele><time>2026-04-11T11:04:42Z</time></trkpt><trkpt lat="42.93952937857487" lon="10.754061465397072"><ele>22.599999999999998</ele><time>2026-04-11T11:04:44Z</time></trkpt><trkpt lat="42.93947061069182" lon="10.753914514501865"><ele>23.0</ele><time>2026-04-11T11:04:46Z</time></trkpt><trkpt lat="42.93937240933164" lon="10.753804687558828"><ele>23.0</ele><time>2026-04-11T11:04:48Z</time></trkpt><trkpt lat="42.939269233968645" lon="10.753732589095229"><ele>23.0</ele><time>2026-04-11T11:04:49Z</time></trkpt><trkpt lat="42.93915714933218" lon="10.753622858282435"><ele>23.0</ele><time>2026-04-11T11:04:50Z</time></trkpt><trkpt lat="42.93904380550338" lon="10.753507902075556"><ele>23.0</ele><time>2026-04-11T11:04:51Z</time></trkpt><trkpt lat="42.93894083797582" lon="10.753415339345352"><ele>23.0</ele><time>2026-04-11T11:04:52Z</time></trkpt><trkpt lat="42.93885037242139" lon="10.753366014738377"><ele>23.0</ele><time>2026-04-11T11:04:53Z</time></trkpt><trkpt lat="42.93878247004395" lon="10.753317066717715"><ele>23.0</ele><time>2026-04-11T11:04:54Z</time></trkpt><trkpt lat="42.938700288459465" lon="10.753282131395661"><ele>23.0</ele><time>2026-04-11T11:04:55Z</time></trkpt><trkpt lat="42.93861379001684" lon="10.753218325937782"><ele>23.0</ele><time>2026-04-11T11:04:56Z</time></trkpt><trkpt lat="42.938541371744165" lon="10.753164312294318"><ele>23.0</ele><time>2026-04-11T11:04:57Z</time></trkpt><trkpt lat="42.93847226340561" lon="10.753114984836179"><ele>23.0</ele><time>2026-04-11T11:04:58Z</time></trkpt><trkpt lat="42.93841910033341" lon="10.753065526009376"><ele>23.0</ele><time>2026-04-11T11:04:59Z</time></trkpt><trkpt lat="42.93836218989415" lon="10.752996019967647"><ele>23.0</ele><time>2026-04-11T11:05:00Z</time></trkpt><trkpt lat="42.93830709810357" lon="10.752921078801409"><ele>23.0</ele><time>2026-04-11T11:05:01Z</time></trkpt><trkpt lat="42.93825371251748" lon="10.752855346609376"><ele>23.0</ele><time>2026-04-11T11:05:02Z</time></trkpt><trkpt lat="42.93819514540032" lon="10.752769588572058"><ele>23.0</ele><time>2026-04-11T11:05:03Z</time></trkpt><trkpt lat="42.938100211900725" lon="10.752605042435007"><ele>24.5</ele><time>2026-04-11T11:05:05Z</time></trkpt><trkpt lat="42.938012078656556" lon="10.752492358348412"><ele>26.0</ele><time>2026-04-11T11:05:06Z</time></trkpt><trkpt lat="42.93792034377198" lon="10.75239649028351"><ele>27.5</ele><time>2026-04-11T11:05:07Z</time></trkpt><trkpt lat="42.93781977979908" lon="10.752296798816165"><ele>29.0</ele><time>2026-04-11T11:05:08Z</time></trkpt><trkpt lat="42.93772725815423" lon="10.752201121437043"><ele>29.0</ele><time>2026-04-11T11:05:09Z</time></trkpt><trkpt lat="42.937632086553506" lon="10.7520985164589"><ele>29.0</ele><time>2026-04-11T11:05:10Z</time></trkpt><trkpt lat="42.93752831792497" lon="10.751986783346188"><ele>29.0</ele><time>2026-04-11T11:05:11Z</time></trkpt><trkpt lat="42.93742937509324" lon="10.751879473174718"><ele>29.0</ele><time>2026-04-11T11:05:12Z</time></trkpt><trkpt lat="42.937343676051746" lon="10.75178125382509"><ele>31.0</ele><time>2026-04-11T11:05:13Z</time></trkpt><trkpt lat="42.93724514895988" lon="10.751682940905708"><ele>33.0</ele><time>2026-04-11T11:05:14Z</time></trkpt><trkpt lat="42.93715880509001" lon="10.751579703472792"><ele>35.0</ele><time>2026-04-11T11:05:15Z</time></trkpt><trkpt lat="42.93706672089986" lon="10.751472661888975"><ele>37.0</ele><time>2026-04-11T11:05:16Z</time></trkpt><trkpt lat="42.936970014727585" lon="10.751362832374793"><ele>37.0</ele><time>2026-04-11T11:05:17Z</time></trkpt><trkpt lat="42.936884787261185" lon="10.751270179286255"><ele>37.0</ele><time>2026-04-11T11:05:18Z</time></trkpt><trkpt lat="42.93681327928633" lon="10.75119914969665"><ele>37.0</ele><time>2026-04-11T11:05:19Z</time></trkpt><trkpt lat="42.9367588553495" lon="10.751133683571862"><ele>37.0</ele><time>2026-04-11T11:05:20Z</time></trkpt><trkpt lat="42.9366883519754" lon="10.751061068621143"><ele>37.0</ele><time>2026-04-11T11:05:21Z</time></trkpt><trkpt lat="42.93663031113904" lon="10.75100401843759"><ele>37.0</ele><time>2026-04-11T11:05:22Z</time></trkpt><trkpt lat="42.93656730693993" lon="10.750977026357992"><ele>38.0</ele><time>2026-04-11T11:05:23Z</time></trkpt><trkpt lat="42.93645781824365" lon="10.75101326715068"><ele>39.0</ele><time>2026-04-11T11:05:25Z</time></trkpt><trkpt lat="42.93639810394832" lon="10.751055379803779"><ele>40.0</ele><time>2026-04-11T11:05:26Z</time></trkpt><trkpt lat="42.936325856659806" lon="10.751084728603843"><ele>41.0</ele><time>2026-04-11T11:05:27Z</time></trkpt><trkpt lat="42.93622125364479" lon="10.751140140762663"><ele>42.0</ele><time>2026-04-11T11:05:28Z</time></trkpt><trkpt lat="42.936061483547995" lon="10.751218884329825"><ele>42.0</ele><time>2026-04-11T11:05:29Z</time></trkpt><trkpt lat="42.93591009236249" lon="10.751259887435626"><ele>42.0</ele><time>2026-04-11T11:05:30Z</time></trkpt><trkpt lat="42.93575534496283" lon="10.751295294545208"><ele>42.0</ele><time>2026-04-11T11:05:31Z</time></trkpt><trkpt lat="42.9355878021458" lon="10.751309483876355"><ele>42.333333333333336</ele><time>2026-04-11T11:05:32Z</time></trkpt><trkpt lat="42.93540851343552" lon="10.751315586560546"><ele>42.66666666666667</ele><time>2026-04-11T11:05:33Z</time></trkpt><trkpt lat="42.935226959324424" lon="10.751305023581713"><ele>43.0</ele><time>2026-04-11T11:05:34Z</time></trkpt><trkpt lat="42.93502484942179" lon="10.751228448416848"><ele>43.0</ele><time>2026-04-11T11:05:35Z</time></trkpt><trkpt lat="42.934816133089654" lon="10.751126475452848"><ele>43.0</ele><time>2026-04-11T11:05:36Z</time></trkpt><trkpt lat="42.93462766739355" lon="10.751029145709706"><ele>43.0</ele><time>2026-04-11T11:05:37Z</time></trkpt><trkpt lat="42.934429251726506" lon="10.750935283804077"><ele>43.333333333333336</ele><time>2026-04-11T11:05:38Z</time></trkpt><trkpt lat="42.93426974063304" lon="10.75086818291458"><ele>43.666666666666664</ele><time>2026-04-11T11:05:39Z</time></trkpt><trkpt lat="42.934122082018995" lon="10.750785102799648"><ele>44.0</ele><time>2026-04-11T11:05:40Z</time></trkpt><trkpt lat="42.934016241239846" lon="10.750696339470391"><ele>44.0</ele><time>2026-04-11T11:05:41Z</time></trkpt><trkpt lat="42.933923760888334" lon="10.750588562826158"><ele>44.0</ele><time>2026-04-11T11:05:42Z</time></trkpt><trkpt lat="42.93386450431019" lon="10.750479776709065"><ele>44.0</ele><time>2026-04-11T11:05:43Z</time></trkpt><trkpt lat="42.93380036909774" lon="10.75038593676626"><ele>44.0</ele><time>2026-04-11T11:05:44Z</time></trkpt><trkpt lat="42.9337533912529" lon="10.750301065045884"><ele>44.0</ele><time>2026-04-11T11:05:45Z</time></trkpt><trkpt lat="42.93370336656645" lon="10.750231043382929"><ele>43.400000000000006</ele><time>2026-04-11T11:05:46Z</time></trkpt><trkpt lat="42.93365647290074" lon="10.750160372090628"><ele>42.8</ele><time>2026-04-11T11:05:47Z</time></trkpt><trkpt lat="42.93360611670826" lon="10.750093305351555"><ele>42.2</ele><time>2026-04-11T11:05:48Z</time></trkpt><trkpt lat="42.93353036412857" lon="10.749952460515079"><ele>41.599999999999994</ele><time>2026-04-11T11:05:50Z</time></trkpt><trkpt lat="42.93344978921872" lon="10.749824740377925"><ele>41.0</ele><time>2026-04-11T11:05:52Z</time></trkpt><trkpt lat="42.93339892610488" lon="10.749751484574759"><ele>40.33333333333333</ele><time>2026-04-11T11:05:53Z</time></trkpt><trkpt lat="42.93334750639683" lon="10.749676183461606"><ele>39.666666666666664</ele><time>2026-04-11T11:05:54Z</time></trkpt><trkpt lat="42.933303410678896" lon="10.749603342413172"><ele>39.0</ele><time>2026-04-11T11:05:55Z</time></trkpt><trkpt lat="42.93323941979392" lon="10.749468420488554"><ele>38.333333333333336</ele><time>2026-04-11T11:05:57Z</time></trkpt><trkpt lat="42.933203946326294" lon="10.749394804808581"><ele>37.66666666666667</ele><time>2026-04-11T11:05:58Z</time></trkpt><trkpt lat="42.933171243075854" lon="10.749319745068197"><ele>37.0</ele><time>2026-04-11T11:05:59Z</time></trkpt><trkpt lat="42.9331135507957" lon="10.749223639240968"><ele>36.16666666666667</ele><time>2026-04-11T11:06:01Z</time></trkpt><trkpt lat="42.93306380229387" lon="10.749137937488987"><ele>35.333333333333336</ele><time>2026-04-11T11:06:04Z</time></trkpt><trkpt lat="42.93303178842772" lon="10.749046243957135"><ele>34.5</ele><time>2026-04-11T11:06:08Z</time></trkpt><trkpt lat="42.93310490880057" lon="10.748973791872839"><ele>33.666666666666664</ele><time>2026-04-11T11:06:18Z</time></trkpt><trkpt lat="42.933080580713735" lon="10.748868463979422"><ele>32.83333333333333</ele><time>2026-04-11T11:06:20.999Z</time></trkpt><trkpt lat="42.933104119395246" lon="10.748755908783567"><ele>32.0</ele><time>2026-04-11T11:06:21.999Z</time></trkpt><trkpt lat="42.933139979945594" lon="10.748581215981071"><ele>32.33333333333333</ele><time>2026-04-11T11:06:23.999Z</time></trkpt><trkpt lat="42.933176510077644" lon="10.748445736217842"><ele>32.666666666666664</ele><time>2026-04-11T11:06:24.999Z</time></trkpt><trkpt lat="42.933257815373125" lon="10.748280832754457"><ele>33.0</ele><time>2026-04-11T11:06:25.999Z</time></trkpt><trkpt lat="42.93337422517721" lon="10.748061526171742"><ele>37.0</ele><time>2026-04-11T11:06:26.999Z</time></trkpt><trkpt lat="42.93350496154535" lon="10.747815722954204"><ele>41.0</ele><time>2026-04-11T11:06:27.999Z</time></trkpt><trkpt lat="42.93364275647009" lon="10.747548045081732"><ele>41.0</ele><time>2026-04-11T11:06:28.999Z</time></trkpt><trkpt lat="42.933739786293714" lon="10.747371684067566"><ele>41.0</ele><time>2026-04-11T11:06:29.999Z</time></trkpt><trkpt lat="42.933810278167996" lon="10.747253819766641"><ele>41.0</ele><time>2026-04-11T11:06:30.999Z</time></trkpt><trkpt lat="42.93386302162326" lon="10.747131598870483"><ele>41.0</ele><time>2026-04-11T11:06:31.999Z</time></trkpt><trkpt lat="42.9339096029339" lon="10.747009548838006"><ele>38.599999999999994</ele><time>2026-04-11T11:06:32.999Z</time></trkpt><trkpt lat="42.933955241286355" lon="10.746874868164829"><ele>36.199999999999996</ele><time>2026-04-11T11:06:33.999Z</time></trkpt><trkpt lat="42.934012443279514" lon="10.746705467992431"><ele>33.8</ele><time>2026-04-11T11:06:34.999Z</time></trkpt><trkpt lat="42.93404441678251" lon="10.74656243295457"><ele>31.4</ele><time>2026-04-11T11:06:35.999Z</time></trkpt><trkpt lat="42.93405522813468" lon="10.746453896562425"><ele>29.0</ele><time>2026-04-11T11:06:36.999Z</time></trkpt><trkpt lat="42.93406469148528" lon="10.746319729355111"><ele>29.0</ele><time>2026-04-11T11:06:37.999Z</time></trkpt><trkpt lat="42.93405175018249" lon="10.746190125335179"><ele>29.0</ele><time>2026-04-11T11:06:38.999Z</time></trkpt><trkpt lat="42.93404037662315" lon="10.746023639450188"><ele>29.0</ele><time>2026-04-11T11:06:39.999Z</time></trkpt><trkpt lat="42.93404773766051" lon="10.745904703274821"><ele>29.0</ele><time>2026-04-11T11:06:40.999Z</time></trkpt><trkpt lat="42.93405075431667" lon="10.745808236594131"><ele>29.0</ele><time>2026-04-11T11:06:41.999Z</time></trkpt><trkpt lat="42.934012696456776" lon="10.74569765536161"><ele>28.0</ele><time>2026-04-11T11:06:43.999Z</time></trkpt><trkpt lat="42.93391578858392" lon="10.745631465966342"><ele>27.0</ele><time>2026-04-11T11:06:45.999Z</time></trkpt><trkpt lat="42.933836442884925" lon="10.745591923304659"><ele>26.0</ele><time>2026-04-11T11:06:46.999Z</time></trkpt><trkpt lat="42.93371585201333" lon="10.745599965365233"><ele>25.0</ele><time>2026-04-11T11:06:47.999Z</time></trkpt><trkpt lat="42.9335939178126" lon="10.745610506655238"><ele>24.0</ele><time>2026-04-11T11:06:48.999Z</time></trkpt><trkpt lat="42.933442166327666" lon="10.745669005195204"><ele>23.25</ele><time>2026-04-11T11:06:49.999Z</time></trkpt><trkpt lat="42.93330181721164" lon="10.745700257027297"><ele>22.5</ele><time>2026-04-11T11:06:50.999Z</time></trkpt><trkpt lat="42.93318306012126" lon="10.745729437418325"><ele>21.75</ele><time>2026-04-11T11:06:51.999Z</time></trkpt><trkpt lat="42.93308884404425" lon="10.74574318324039"><ele>21.0</ele><time>2026-04-11T11:06:52.999Z</time></trkpt><trkpt lat="42.93298635008981" lon="10.745737570507934"><ele>21.0</ele><time>2026-04-11T11:06:53.999Z</time></trkpt><trkpt lat="42.932918498807304" lon="10.745745625778431"><ele>21.0</ele><time>2026-04-11T11:06:54.999Z</time></trkpt><trkpt lat="42.932829534708276" lon="10.745782080083737"><ele>21.0</ele><time>2026-04-11T11:06:57Z</time></trkpt><trkpt lat="42.93272488348139" lon="10.745829868126915"><ele>21.0</ele><time>2026-04-11T11:06:59Z</time></trkpt><trkpt lat="42.93261886559399" lon="10.745901781087976"><ele>21.0</ele><time>2026-04-11T11:07:01Z</time></trkpt><trkpt lat="42.93256444129694" lon="10.746042468133208"><ele>22.0</ele><time>2026-04-11T11:07:03Z</time></trkpt><trkpt lat="42.93258420264768" lon="10.74624783829643"><ele>23.0</ele><time>2026-04-11T11:07:05Z</time></trkpt><trkpt lat="42.93259139853203" lon="10.74636204451867"><ele>24.0</ele><time>2026-04-11T11:07:06Z</time></trkpt><trkpt lat="42.932608658675974" lon="10.74646146129424"><ele>25.0</ele><time>2026-04-11T11:07:07Z</time></trkpt><trkpt lat="42.93262693419692" lon="10.74654780378713"><ele>26.0</ele><time>2026-04-11T11:07:08Z</time></trkpt><trkpt lat="42.93263403618726" lon="10.746691416688243"><ele>26.0</ele><time>2026-04-11T11:07:10Z</time></trkpt><trkpt lat="42.93258299885788" lon="10.746780315841844"><ele>26.0</ele><time>2026-04-11T11:07:12Z</time></trkpt><trkpt lat="42.93247913616768" lon="10.746839042677918"><ele>26.0</ele><time>2026-04-11T11:07:13Z</time></trkpt><trkpt lat="42.93233983989992" lon="10.746900789704577"><ele>26.0</ele><time>2026-04-11T11:07:14Z</time></trkpt><trkpt lat="42.93220264327305" lon="10.746973346151025"><ele>27.25</ele><time>2026-04-11T11:07:15Z</time></trkpt><trkpt lat="42.93211560024655" lon="10.747020205952309"><ele>28.5</ele><time>2026-04-11T11:07:16Z</time></trkpt><trkpt lat="42.93201694726707" lon="10.747106941961045"><ele>29.75</ele><time>2026-04-11T11:07:17Z</time></trkpt><trkpt lat="42.931896567060086" lon="10.747187215661993"><ele>31.0</ele><time>2026-04-11T11:07:18Z</time></trkpt><trkpt lat="42.93179535473825" lon="10.747254453437453"><ele>30.8</ele><time>2026-04-11T11:07:19Z</time></trkpt><trkpt lat="42.931700101597556" lon="10.7472948177441"><ele>30.6</ele><time>2026-04-11T11:07:20Z</time></trkpt><trkpt lat="42.93160889334444" lon="10.747345896466447"><ele>30.4</ele><time>2026-04-11T11:07:21Z</time></trkpt><trkpt lat="42.93152565405536" lon="10.747451558951113"><ele>30.2</ele><time>2026-04-11T11:07:22Z</time></trkpt><trkpt lat="42.93146266563377" lon="10.747552888981804"><ele>30.0</ele><time>2026-04-11T11:07:23Z</time></trkpt><trkpt lat="42.93140268966977" lon="10.747642739195614"><ele>30.2</ele><time>2026-04-11T11:07:24Z</time></trkpt><trkpt lat="42.93133061811845" lon="10.747734361877795"><ele>30.4</ele><time>2026-04-11T11:07:25Z</time></trkpt><trkpt lat="42.93127042662025" lon="10.747811894408636"><ele>30.6</ele><time>2026-04-11T11:07:26Z</time></trkpt><trkpt lat="42.931182185485774" lon="10.74790612913237"><ele>30.8</ele><time>2026-04-11T11:07:27Z</time></trkpt><trkpt lat="42.93112475043628" lon="10.74798884403025"><ele>31.0</ele><time>2026-04-11T11:07:28Z</time></trkpt><trkpt lat="42.93102620634092" lon="10.748072028479958"><ele>31.0</ele><time>2026-04-11T11:07:30Z</time></trkpt><trkpt lat="42.93091947689136" lon="10.74798949582205"><ele>31.0</ele><time>2026-04-11T11:07:32Z</time></trkpt><trkpt lat="42.93080466135847" lon="10.747880413219946"><ele>31.0</ele><time>2026-04-11T11:07:33Z</time></trkpt><trkpt lat="42.9307060169941" lon="10.747795192005508"><ele>31.0</ele><time>2026-04-11T11:07:34Z</time></trkpt><trkpt lat="42.93062427417494" lon="10.747761697221051"><ele>30.333333333333336</ele><time>2026-04-11T11:07:35Z</time></trkpt><trkpt lat="42.93055296346202" lon="10.747736797471124"><ele>29.666666666666668</ele><time>2026-04-11T11:07:36Z</time></trkpt><trkpt lat="42.93047979370404" lon="10.747728802811706"><ele>29.0</ele><time>2026-04-11T11:07:37Z</time></trkpt><trkpt lat="42.930400553254735" lon="10.747719771222167"><ele>28.333333333333336</ele><time>2026-04-11T11:07:38Z</time></trkpt><trkpt lat="42.93032213203864" lon="10.747689301481403"><ele>27.666666666666668</ele><time>2026-04-11T11:07:39Z</time></trkpt><trkpt lat="42.930232033238575" lon="10.747644244802178"><ele>27.0</ele><time>2026-04-11T11:07:40Z</time></trkpt><trkpt lat="42.93015116754548" lon="10.747599056785521"><ele>25.0</ele><time>2026-04-11T11:07:41Z</time></trkpt><trkpt lat="42.93008098313299" lon="10.747555558658204"><ele>25.0</ele><time>2026-04-11T11:07:43Z</time></trkpt><trkpt lat="42.92999546657759" lon="10.747560765357711"><ele>22.0</ele><time>2026-04-11T11:07:47Z</time></trkpt><trkpt lat="42.92997435483049" lon="10.74766479612736"><ele>22.0</ele><time>2026-04-11T11:08:09Z</time></trkpt><trkpt lat="42.92997310678393" lon="10.747779293298144"><ele>22.0</ele><time>2026-04-11T11:08:13Z</time></trkpt><trkpt lat="42.929927610412804" lon="10.747847144989835"><ele>22.0</ele><time>2026-04-11T11:08:42Z</time></trkpt></trkseg></trk></gpx>